<?xml version="1.0" encoding="UTF-8" standalone="no" ?>
<gpx xmlns="http://www.topografix.com/GPX/1/1" xmlns:xsi="http://www.w3.org/2001/XMLSchema-instance" xsi:schemaLocation="http://www.topografix.com/GPX/1/1 http://www.topografix.com/GPX/1/1/gpx.xsd" version="1.1" creator="VisuGPX - https://www.visugpx.com">
  <metadata>
    <name>Pointe du midi</name>
    <desc><![CDATA[2022-02-20 12:20]]></desc>
  </metadata>
  <trk>
    <name><![CDATA[SkiTouring_2022-02-20T08_31_09]]></name>
    <desc><![CDATA[2022-02-20 12:20]]></desc>
    <extensions>
      <line xmlns="http://www.topografix.com/GPX/gpx_style/0/2">
        <color>0000FF</color>
        <width>4</width>
      </line>
    </extensions>
    <trkseg>
      <trkpt lat="45.98033" lon="6.46597">
        <ele>1440</ele>
        <time>2022-02-20T07:31:09Z</time>
      </trkpt>
      <trkpt lat="45.98035" lon="6.46596">
        <ele>1440</ele>
        <time>2022-02-20T07:31:10Z</time>
      </trkpt>
      <trkpt lat="45.98038" lon="6.46595">
        <ele>1440</ele>
        <time>2022-02-20T07:31:13Z</time>
      </trkpt>
      <trkpt lat="45.98041" lon="6.46593">
        <ele>1441</ele>
        <time>2022-02-20T07:31:17Z</time>
      </trkpt>
      <trkpt lat="45.98044" lon="6.46592">
        <ele>1441</ele>
        <time>2022-02-20T07:31:20Z</time>
      </trkpt>
      <trkpt lat="45.98046" lon="6.46591">
        <ele>1441</ele>
        <time>2022-02-20T07:31:23Z</time>
      </trkpt>
      <trkpt lat="45.98048" lon="6.4659">
        <ele>1442</ele>
        <time>2022-02-20T07:31:26Z</time>
      </trkpt>
      <trkpt lat="45.9805" lon="6.4659">
        <ele>1442</ele>
        <time>2022-02-20T07:31:28Z</time>
      </trkpt>
      <trkpt lat="45.98053" lon="6.46589">
        <ele>1442</ele>
        <time>2022-02-20T07:31:31Z</time>
      </trkpt>
      <trkpt lat="45.98055" lon="6.46589">
        <ele>1443</ele>
        <time>2022-02-20T07:31:34Z</time>
      </trkpt>
      <trkpt lat="45.98058" lon="6.46589">
        <ele>1443</ele>
        <time>2022-02-20T07:31:37Z</time>
      </trkpt>
      <trkpt lat="45.9806" lon="6.46588">
        <ele>1443</ele>
        <time>2022-02-20T07:31:40Z</time>
      </trkpt>
      <trkpt lat="45.98063" lon="6.46587">
        <ele>1443</ele>
        <time>2022-02-20T07:31:43Z</time>
      </trkpt>
      <trkpt lat="45.98064" lon="6.46587">
        <ele>1443</ele>
        <time>2022-02-20T07:31:45Z</time>
      </trkpt>
      <trkpt lat="45.98066" lon="6.46587">
        <ele>1443</ele>
        <time>2022-02-20T07:31:47Z</time>
      </trkpt>
      <trkpt lat="45.98068" lon="6.46586">
        <ele>1443</ele>
        <time>2022-02-20T07:31:49Z</time>
      </trkpt>
      <trkpt lat="45.98071" lon="6.46586">
        <ele>1444</ele>
        <time>2022-02-20T07:31:52Z</time>
      </trkpt>
      <trkpt lat="45.98073" lon="6.46585">
        <ele>1444</ele>
        <time>2022-02-20T07:31:55Z</time>
      </trkpt>
      <trkpt lat="45.98076" lon="6.46585">
        <ele>1444</ele>
        <time>2022-02-20T07:31:59Z</time>
      </trkpt>
      <trkpt lat="45.98078" lon="6.46584">
        <ele>1444</ele>
        <time>2022-02-20T07:32:01Z</time>
      </trkpt>
      <trkpt lat="45.98081" lon="6.46583">
        <ele>1444</ele>
        <time>2022-02-20T07:32:05Z</time>
      </trkpt>
      <trkpt lat="45.98083" lon="6.46583">
        <ele>1444</ele>
        <time>2022-02-20T07:32:09Z</time>
      </trkpt>
      <trkpt lat="45.98085" lon="6.46582">
        <ele>1444</ele>
        <time>2022-02-20T07:32:11Z</time>
      </trkpt>
      <trkpt lat="45.98088" lon="6.46581">
        <ele>1445</ele>
        <time>2022-02-20T07:32:15Z</time>
      </trkpt>
      <trkpt lat="45.9809" lon="6.46581">
        <ele>1445</ele>
        <time>2022-02-20T07:32:17Z</time>
      </trkpt>
      <trkpt lat="45.98092" lon="6.4658">
        <ele>1445</ele>
        <time>2022-02-20T07:32:20Z</time>
      </trkpt>
      <trkpt lat="45.98095" lon="6.4658">
        <ele>1446</ele>
        <time>2022-02-20T07:32:24Z</time>
      </trkpt>
      <trkpt lat="45.98098" lon="6.46579">
        <ele>1446</ele>
        <time>2022-02-20T07:32:26Z</time>
      </trkpt>
      <trkpt lat="45.981" lon="6.46579">
        <ele>1447</ele>
        <time>2022-02-20T07:32:30Z</time>
      </trkpt>
      <trkpt lat="45.98103" lon="6.46578">
        <ele>1447</ele>
        <time>2022-02-20T07:32:32Z</time>
      </trkpt>
      <trkpt lat="45.98105" lon="6.46577">
        <ele>1447</ele>
        <time>2022-02-20T07:32:35Z</time>
      </trkpt>
      <trkpt lat="45.98107" lon="6.46577">
        <ele>1447</ele>
        <time>2022-02-20T07:32:37Z</time>
      </trkpt>
      <trkpt lat="45.9811" lon="6.46576">
        <ele>1447</ele>
        <time>2022-02-20T07:32:40Z</time>
      </trkpt>
      <trkpt lat="45.98112" lon="6.46575">
        <ele>1448</ele>
        <time>2022-02-20T07:32:43Z</time>
      </trkpt>
      <trkpt lat="45.98114" lon="6.46575">
        <ele>1448</ele>
        <time>2022-02-20T07:32:46Z</time>
      </trkpt>
      <trkpt lat="45.98117" lon="6.46574">
        <ele>1448</ele>
        <time>2022-02-20T07:32:49Z</time>
      </trkpt>
      <trkpt lat="45.98119" lon="6.46574">
        <ele>1448</ele>
        <time>2022-02-20T07:32:53Z</time>
      </trkpt>
      <trkpt lat="45.98121" lon="6.46573">
        <ele>1448</ele>
        <time>2022-02-20T07:32:55Z</time>
      </trkpt>
      <trkpt lat="45.98124" lon="6.46572">
        <ele>1449</ele>
        <time>2022-02-20T07:32:58Z</time>
      </trkpt>
      <trkpt lat="45.98126" lon="6.46571">
        <ele>1449</ele>
        <time>2022-02-20T07:33:01Z</time>
      </trkpt>
      <trkpt lat="45.98128" lon="6.4657">
        <ele>1450</ele>
        <time>2022-02-20T07:33:04Z</time>
      </trkpt>
      <trkpt lat="45.98131" lon="6.46569">
        <ele>1450</ele>
        <time>2022-02-20T07:33:07Z</time>
      </trkpt>
      <trkpt lat="45.98133" lon="6.46568">
        <ele>1450</ele>
        <time>2022-02-20T07:33:10Z</time>
      </trkpt>
      <trkpt lat="45.98135" lon="6.46567">
        <ele>1450</ele>
        <time>2022-02-20T07:33:12Z</time>
      </trkpt>
      <trkpt lat="45.98139" lon="6.46567">
        <ele>1450</ele>
        <time>2022-02-20T07:33:16Z</time>
      </trkpt>
      <trkpt lat="45.98141" lon="6.46566">
        <ele>1451</ele>
        <time>2022-02-20T07:33:18Z</time>
      </trkpt>
      <trkpt lat="45.98144" lon="6.46566">
        <ele>1451</ele>
        <time>2022-02-20T07:33:21Z</time>
      </trkpt>
      <trkpt lat="45.98146" lon="6.46565">
        <ele>1451</ele>
        <time>2022-02-20T07:33:24Z</time>
      </trkpt>
      <trkpt lat="45.98149" lon="6.46564">
        <ele>1451</ele>
        <time>2022-02-20T07:33:27Z</time>
      </trkpt>
      <trkpt lat="45.98151" lon="6.46564">
        <ele>1452</ele>
        <time>2022-02-20T07:33:30Z</time>
      </trkpt>
      <trkpt lat="45.98153" lon="6.46563">
        <ele>1452</ele>
        <time>2022-02-20T07:33:33Z</time>
      </trkpt>
      <trkpt lat="45.98156" lon="6.46563">
        <ele>1453</ele>
        <time>2022-02-20T07:33:37Z</time>
      </trkpt>
      <trkpt lat="45.98158" lon="6.46562">
        <ele>1452</ele>
        <time>2022-02-20T07:33:39Z</time>
      </trkpt>
      <trkpt lat="45.9816" lon="6.46562">
        <ele>1452</ele>
        <time>2022-02-20T07:33:42Z</time>
      </trkpt>
      <trkpt lat="45.98163" lon="6.46561">
        <ele>1453</ele>
        <time>2022-02-20T07:33:45Z</time>
      </trkpt>
      <trkpt lat="45.98165" lon="6.46561">
        <ele>1453</ele>
        <time>2022-02-20T07:33:48Z</time>
      </trkpt>
      <trkpt lat="45.98168" lon="6.4656">
        <ele>1453</ele>
        <time>2022-02-20T07:33:51Z</time>
      </trkpt>
      <trkpt lat="45.9817" lon="6.46559">
        <ele>1453</ele>
        <time>2022-02-20T07:33:54Z</time>
      </trkpt>
      <trkpt lat="45.98172" lon="6.46559">
        <ele>1453</ele>
        <time>2022-02-20T07:33:56Z</time>
      </trkpt>
      <trkpt lat="45.98175" lon="6.46559">
        <ele>1454</ele>
        <time>2022-02-20T07:33:59Z</time>
      </trkpt>
      <trkpt lat="45.98178" lon="6.46558">
        <ele>1454</ele>
        <time>2022-02-20T07:34:03Z</time>
      </trkpt>
      <trkpt lat="45.98179" lon="6.46558">
        <ele>1454</ele>
        <time>2022-02-20T07:34:04Z</time>
      </trkpt>
      <trkpt lat="45.98182" lon="6.46558">
        <ele>1454</ele>
        <time>2022-02-20T07:34:07Z</time>
      </trkpt>
      <trkpt lat="45.98184" lon="6.46558">
        <ele>1454</ele>
        <time>2022-02-20T07:34:09Z</time>
      </trkpt>
      <trkpt lat="45.98186" lon="6.46557">
        <ele>1454</ele>
        <time>2022-02-20T07:34:11Z</time>
      </trkpt>
      <trkpt lat="45.98188" lon="6.46557">
        <ele>1454</ele>
        <time>2022-02-20T07:34:14Z</time>
      </trkpt>
      <trkpt lat="45.98191" lon="6.46556">
        <ele>1455</ele>
        <time>2022-02-20T07:34:18Z</time>
      </trkpt>
      <trkpt lat="45.98193" lon="6.46555">
        <ele>1456</ele>
        <time>2022-02-20T07:34:20Z</time>
      </trkpt>
      <trkpt lat="45.98194" lon="6.46555">
        <ele>1456</ele>
        <time>2022-02-20T07:34:22Z</time>
      </trkpt>
      <trkpt lat="45.98197" lon="6.46555">
        <ele>1456</ele>
        <time>2022-02-20T07:34:25Z</time>
      </trkpt>
      <trkpt lat="45.98199" lon="6.46554">
        <ele>1456</ele>
        <time>2022-02-20T07:34:29Z</time>
      </trkpt>
      <trkpt lat="45.98201" lon="6.46554">
        <ele>1456</ele>
        <time>2022-02-20T07:34:31Z</time>
      </trkpt>
      <trkpt lat="45.98203" lon="6.46553">
        <ele>1457</ele>
        <time>2022-02-20T07:34:34Z</time>
      </trkpt>
      <trkpt lat="45.98206" lon="6.46552">
        <ele>1457</ele>
        <time>2022-02-20T07:34:37Z</time>
      </trkpt>
      <trkpt lat="45.98208" lon="6.46552">
        <ele>1458</ele>
        <time>2022-02-20T07:34:40Z</time>
      </trkpt>
      <trkpt lat="45.9821" lon="6.46551">
        <ele>1458</ele>
        <time>2022-02-20T07:34:43Z</time>
      </trkpt>
      <trkpt lat="45.98212" lon="6.4655">
        <ele>1458</ele>
        <time>2022-02-20T07:34:46Z</time>
      </trkpt>
      <trkpt lat="45.98214" lon="6.4655">
        <ele>1458</ele>
        <time>2022-02-20T07:34:49Z</time>
      </trkpt>
      <trkpt lat="45.98216" lon="6.46549">
        <ele>1459</ele>
        <time>2022-02-20T07:34:53Z</time>
      </trkpt>
      <trkpt lat="45.98219" lon="6.46549">
        <ele>1460</ele>
        <time>2022-02-20T07:34:55Z</time>
      </trkpt>
      <trkpt lat="45.98221" lon="6.46548">
        <ele>1460</ele>
        <time>2022-02-20T07:34:57Z</time>
      </trkpt>
      <trkpt lat="45.98223" lon="6.46548">
        <ele>1460</ele>
        <time>2022-02-20T07:35:00Z</time>
      </trkpt>
      <trkpt lat="45.98225" lon="6.46548">
        <ele>1460</ele>
        <time>2022-02-20T07:35:01Z</time>
      </trkpt>
      <trkpt lat="45.98227" lon="6.46547">
        <ele>1460</ele>
        <time>2022-02-20T07:35:03Z</time>
      </trkpt>
      <trkpt lat="45.98229" lon="6.46546">
        <ele>1460</ele>
        <time>2022-02-20T07:35:05Z</time>
      </trkpt>
      <trkpt lat="45.98231" lon="6.46545">
        <ele>1460</ele>
        <time>2022-02-20T07:35:08Z</time>
      </trkpt>
      <trkpt lat="45.98234" lon="6.46544">
        <ele>1460</ele>
        <time>2022-02-20T07:35:11Z</time>
      </trkpt>
      <trkpt lat="45.98236" lon="6.46543">
        <ele>1461</ele>
        <time>2022-02-20T07:35:14Z</time>
      </trkpt>
      <trkpt lat="45.98238" lon="6.46542">
        <ele>1461</ele>
        <time>2022-02-20T07:35:17Z</time>
      </trkpt>
      <trkpt lat="45.9824" lon="6.46542">
        <ele>1461</ele>
        <time>2022-02-20T07:35:19Z</time>
      </trkpt>
      <trkpt lat="45.98242" lon="6.46541">
        <ele>1461</ele>
        <time>2022-02-20T07:35:21Z</time>
      </trkpt>
      <trkpt lat="45.98244" lon="6.4654">
        <ele>1461</ele>
        <time>2022-02-20T07:35:23Z</time>
      </trkpt>
      <trkpt lat="45.98246" lon="6.4654">
        <ele>1461</ele>
        <time>2022-02-20T07:35:25Z</time>
      </trkpt>
      <trkpt lat="45.98248" lon="6.46539">
        <ele>1462</ele>
        <time>2022-02-20T07:35:28Z</time>
      </trkpt>
      <trkpt lat="45.9825" lon="6.46538">
        <ele>1462</ele>
        <time>2022-02-20T07:35:30Z</time>
      </trkpt>
      <trkpt lat="45.98252" lon="6.46537">
        <ele>1462</ele>
        <time>2022-02-20T07:35:34Z</time>
      </trkpt>
      <trkpt lat="45.98255" lon="6.46536">
        <ele>1462</ele>
        <time>2022-02-20T07:35:36Z</time>
      </trkpt>
      <trkpt lat="45.98257" lon="6.46536">
        <ele>1462</ele>
        <time>2022-02-20T07:35:38Z</time>
      </trkpt>
      <trkpt lat="45.98259" lon="6.46535">
        <ele>1463</ele>
        <time>2022-02-20T07:35:41Z</time>
      </trkpt>
      <trkpt lat="45.98262" lon="6.46535">
        <ele>1464</ele>
        <time>2022-02-20T07:35:44Z</time>
      </trkpt>
      <trkpt lat="45.98264" lon="6.46535">
        <ele>1464</ele>
        <time>2022-02-20T07:35:47Z</time>
      </trkpt>
      <trkpt lat="45.98267" lon="6.46534">
        <ele>1464</ele>
        <time>2022-02-20T07:35:50Z</time>
      </trkpt>
      <trkpt lat="45.98271" lon="6.46533">
        <ele>1464</ele>
        <time>2022-02-20T07:35:54Z</time>
      </trkpt>
      <trkpt lat="45.98273" lon="6.46533">
        <ele>1465</ele>
        <time>2022-02-20T07:35:56Z</time>
      </trkpt>
      <trkpt lat="45.98275" lon="6.46532">
        <ele>1465</ele>
        <time>2022-02-20T07:35:59Z</time>
      </trkpt>
      <trkpt lat="45.98277" lon="6.46532">
        <ele>1465</ele>
        <time>2022-02-20T07:36:02Z</time>
      </trkpt>
      <trkpt lat="45.9828" lon="6.46532">
        <ele>1465</ele>
        <time>2022-02-20T07:36:06Z</time>
      </trkpt>
      <trkpt lat="45.98282" lon="6.46531">
        <ele>1465</ele>
        <time>2022-02-20T07:36:08Z</time>
      </trkpt>
      <trkpt lat="45.98285" lon="6.46531">
        <ele>1467</ele>
        <time>2022-02-20T07:36:11Z</time>
      </trkpt>
      <trkpt lat="45.98288" lon="6.4653">
        <ele>1467</ele>
        <time>2022-02-20T07:36:14Z</time>
      </trkpt>
      <trkpt lat="45.9829" lon="6.4653">
        <ele>1467</ele>
        <time>2022-02-20T07:36:17Z</time>
      </trkpt>
      <trkpt lat="45.98292" lon="6.4653">
        <ele>1467</ele>
        <time>2022-02-20T07:36:19Z</time>
      </trkpt>
      <trkpt lat="45.98294" lon="6.4653">
        <ele>1467</ele>
        <time>2022-02-20T07:36:21Z</time>
      </trkpt>
      <trkpt lat="45.98297" lon="6.4653">
        <ele>1467</ele>
        <time>2022-02-20T07:36:24Z</time>
      </trkpt>
      <trkpt lat="45.98299" lon="6.4653">
        <ele>1467</ele>
        <time>2022-02-20T07:36:26Z</time>
      </trkpt>
      <trkpt lat="45.98301" lon="6.4653">
        <ele>1467</ele>
        <time>2022-02-20T07:36:28Z</time>
      </trkpt>
      <trkpt lat="45.98303" lon="6.4653">
        <ele>1468</ele>
        <time>2022-02-20T07:36:31Z</time>
      </trkpt>
      <trkpt lat="45.98305" lon="6.46532">
        <ele>1468</ele>
        <time>2022-02-20T07:36:33Z</time>
      </trkpt>
      <trkpt lat="45.98308" lon="6.46533">
        <ele>1469</ele>
        <time>2022-02-20T07:36:36Z</time>
      </trkpt>
      <trkpt lat="45.9831" lon="6.46533">
        <ele>1469</ele>
        <time>2022-02-20T07:36:39Z</time>
      </trkpt>
      <trkpt lat="45.98312" lon="6.46533">
        <ele>1469</ele>
        <time>2022-02-20T07:36:41Z</time>
      </trkpt>
      <trkpt lat="45.98315" lon="6.46533">
        <ele>1469</ele>
        <time>2022-02-20T07:36:45Z</time>
      </trkpt>
      <trkpt lat="45.98318" lon="6.46534">
        <ele>1469</ele>
        <time>2022-02-20T07:36:47Z</time>
      </trkpt>
      <trkpt lat="45.9832" lon="6.46534">
        <ele>1469</ele>
        <time>2022-02-20T07:36:50Z</time>
      </trkpt>
      <trkpt lat="45.98322" lon="6.46535">
        <ele>1469</ele>
        <time>2022-02-20T07:36:53Z</time>
      </trkpt>
      <trkpt lat="45.98324" lon="6.46536">
        <ele>1469</ele>
        <time>2022-02-20T07:36:56Z</time>
      </trkpt>
      <trkpt lat="45.98327" lon="6.46537">
        <ele>1469</ele>
        <time>2022-02-20T07:36:59Z</time>
      </trkpt>
      <trkpt lat="45.98329" lon="6.46537">
        <ele>1469</ele>
        <time>2022-02-20T07:37:01Z</time>
      </trkpt>
      <trkpt lat="45.98331" lon="6.46538">
        <ele>1469</ele>
        <time>2022-02-20T07:37:03Z</time>
      </trkpt>
      <trkpt lat="45.98333" lon="6.46539">
        <ele>1470</ele>
        <time>2022-02-20T07:37:05Z</time>
      </trkpt>
      <trkpt lat="45.98336" lon="6.4654">
        <ele>1470</ele>
        <time>2022-02-20T07:37:08Z</time>
      </trkpt>
      <trkpt lat="45.98338" lon="6.46541">
        <ele>1470</ele>
        <time>2022-02-20T07:37:11Z</time>
      </trkpt>
      <trkpt lat="45.98341" lon="6.46542">
        <ele>1471</ele>
        <time>2022-02-20T07:37:15Z</time>
      </trkpt>
      <trkpt lat="45.98343" lon="6.46542">
        <ele>1471</ele>
        <time>2022-02-20T07:37:16Z</time>
      </trkpt>
      <trkpt lat="45.98345" lon="6.46543">
        <ele>1471</ele>
        <time>2022-02-20T07:37:19Z</time>
      </trkpt>
      <trkpt lat="45.98347" lon="6.46543">
        <ele>1471</ele>
        <time>2022-02-20T07:37:21Z</time>
      </trkpt>
      <trkpt lat="45.98349" lon="6.46544">
        <ele>1471</ele>
        <time>2022-02-20T07:37:24Z</time>
      </trkpt>
      <trkpt lat="45.98351" lon="6.46544">
        <ele>1471</ele>
        <time>2022-02-20T07:37:25Z</time>
      </trkpt>
      <trkpt lat="45.98353" lon="6.46545">
        <ele>1471</ele>
        <time>2022-02-20T07:37:27Z</time>
      </trkpt>
      <trkpt lat="45.98355" lon="6.46546">
        <ele>1471</ele>
        <time>2022-02-20T07:37:29Z</time>
      </trkpt>
      <trkpt lat="45.98358" lon="6.46546">
        <ele>1472</ele>
        <time>2022-02-20T07:37:33Z</time>
      </trkpt>
      <trkpt lat="45.9836" lon="6.46548">
        <ele>1472</ele>
        <time>2022-02-20T07:37:35Z</time>
      </trkpt>
      <trkpt lat="45.98363" lon="6.46549">
        <ele>1472</ele>
        <time>2022-02-20T07:37:38Z</time>
      </trkpt>
      <trkpt lat="45.98365" lon="6.46551">
        <ele>1473</ele>
        <time>2022-02-20T07:37:41Z</time>
      </trkpt>
      <trkpt lat="45.98367" lon="6.46551">
        <ele>1473</ele>
        <time>2022-02-20T07:37:43Z</time>
      </trkpt>
      <trkpt lat="45.98369" lon="6.46552">
        <ele>1474</ele>
        <time>2022-02-20T07:37:46Z</time>
      </trkpt>
      <trkpt lat="45.98371" lon="6.46554">
        <ele>1474</ele>
        <time>2022-02-20T07:37:49Z</time>
      </trkpt>
      <trkpt lat="45.98373" lon="6.46554">
        <ele>1474</ele>
        <time>2022-02-20T07:37:51Z</time>
      </trkpt>
      <trkpt lat="45.98376" lon="6.46555">
        <ele>1474</ele>
        <time>2022-02-20T07:37:54Z</time>
      </trkpt>
      <trkpt lat="45.98378" lon="6.46556">
        <ele>1475</ele>
        <time>2022-02-20T07:37:57Z</time>
      </trkpt>
      <trkpt lat="45.9838" lon="6.46557">
        <ele>1475</ele>
        <time>2022-02-20T07:37:59Z</time>
      </trkpt>
      <trkpt lat="45.98382" lon="6.46557">
        <ele>1475</ele>
        <time>2022-02-20T07:38:01Z</time>
      </trkpt>
      <trkpt lat="45.98384" lon="6.46558">
        <ele>1475</ele>
        <time>2022-02-20T07:38:04Z</time>
      </trkpt>
      <trkpt lat="45.98387" lon="6.46559">
        <ele>1476</ele>
        <time>2022-02-20T07:38:07Z</time>
      </trkpt>
      <trkpt lat="45.98389" lon="6.4656">
        <ele>1476</ele>
        <time>2022-02-20T07:38:09Z</time>
      </trkpt>
      <trkpt lat="45.98391" lon="6.46561">
        <ele>1476</ele>
        <time>2022-02-20T07:38:11Z</time>
      </trkpt>
      <trkpt lat="45.98393" lon="6.46562">
        <ele>1476</ele>
        <time>2022-02-20T07:38:13Z</time>
      </trkpt>
      <trkpt lat="45.98395" lon="6.46563">
        <ele>1476</ele>
        <time>2022-02-20T07:38:17Z</time>
      </trkpt>
      <trkpt lat="45.98398" lon="6.46564">
        <ele>1476</ele>
        <time>2022-02-20T07:38:19Z</time>
      </trkpt>
      <trkpt lat="45.98401" lon="6.46564">
        <ele>1477</ele>
        <time>2022-02-20T07:38:22Z</time>
      </trkpt>
      <trkpt lat="45.98403" lon="6.46565">
        <ele>1477</ele>
        <time>2022-02-20T07:38:25Z</time>
      </trkpt>
      <trkpt lat="45.98405" lon="6.46565">
        <ele>1477</ele>
        <time>2022-02-20T07:38:28Z</time>
      </trkpt>
      <trkpt lat="45.98407" lon="6.46565">
        <ele>1477</ele>
        <time>2022-02-20T07:38:31Z</time>
      </trkpt>
      <trkpt lat="45.9841" lon="6.46566">
        <ele>1478</ele>
        <time>2022-02-20T07:38:34Z</time>
      </trkpt>
      <trkpt lat="45.98412" lon="6.46566">
        <ele>1478</ele>
        <time>2022-02-20T07:38:37Z</time>
      </trkpt>
      <trkpt lat="45.98415" lon="6.46566">
        <ele>1479</ele>
        <time>2022-02-20T07:38:40Z</time>
      </trkpt>
      <trkpt lat="45.98417" lon="6.46567">
        <ele>1479</ele>
        <time>2022-02-20T07:38:44Z</time>
      </trkpt>
      <trkpt lat="45.9842" lon="6.46567">
        <ele>1479</ele>
        <time>2022-02-20T07:38:46Z</time>
      </trkpt>
      <trkpt lat="45.98422" lon="6.46568">
        <ele>1479</ele>
        <time>2022-02-20T07:38:50Z</time>
      </trkpt>
      <trkpt lat="45.98424" lon="6.46568">
        <ele>1479</ele>
        <time>2022-02-20T07:38:53Z</time>
      </trkpt>
      <trkpt lat="45.98426" lon="6.46568">
        <ele>1480</ele>
        <time>2022-02-20T07:38:55Z</time>
      </trkpt>
      <trkpt lat="45.98428" lon="6.46568">
        <ele>1480</ele>
        <time>2022-02-20T07:38:56Z</time>
      </trkpt>
      <trkpt lat="45.9843" lon="6.46568">
        <ele>1480</ele>
        <time>2022-02-20T07:38:58Z</time>
      </trkpt>
      <trkpt lat="45.98433" lon="6.46569">
        <ele>1480</ele>
        <time>2022-02-20T07:39:01Z</time>
      </trkpt>
      <trkpt lat="45.98435" lon="6.46569">
        <ele>1480</ele>
        <time>2022-02-20T07:39:04Z</time>
      </trkpt>
      <trkpt lat="45.98437" lon="6.4657">
        <ele>1481</ele>
        <time>2022-02-20T07:39:08Z</time>
      </trkpt>
      <trkpt lat="45.9844" lon="6.46571">
        <ele>1481</ele>
        <time>2022-02-20T07:39:10Z</time>
      </trkpt>
      <trkpt lat="45.98442" lon="6.46571">
        <ele>1481</ele>
        <time>2022-02-20T07:39:12Z</time>
      </trkpt>
      <trkpt lat="45.98443" lon="6.46572">
        <ele>1481</ele>
        <time>2022-02-20T07:39:14Z</time>
      </trkpt>
      <trkpt lat="45.98446" lon="6.46574">
        <ele>1481</ele>
        <time>2022-02-20T07:39:17Z</time>
      </trkpt>
      <trkpt lat="45.98448" lon="6.46575">
        <ele>1482</ele>
        <time>2022-02-20T07:39:20Z</time>
      </trkpt>
      <trkpt lat="45.9845" lon="6.46575">
        <ele>1482</ele>
        <time>2022-02-20T07:39:23Z</time>
      </trkpt>
      <trkpt lat="45.98453" lon="6.46576">
        <ele>1482</ele>
        <time>2022-02-20T07:39:26Z</time>
      </trkpt>
      <trkpt lat="45.98455" lon="6.46577">
        <ele>1482</ele>
        <time>2022-02-20T07:39:29Z</time>
      </trkpt>
      <trkpt lat="45.98457" lon="6.46579">
        <ele>1482</ele>
        <time>2022-02-20T07:39:32Z</time>
      </trkpt>
      <trkpt lat="45.98459" lon="6.4658">
        <ele>1483</ele>
        <time>2022-02-20T07:39:36Z</time>
      </trkpt>
      <trkpt lat="45.98461" lon="6.46582">
        <ele>1483</ele>
        <time>2022-02-20T07:39:39Z</time>
      </trkpt>
      <trkpt lat="45.98463" lon="6.46583">
        <ele>1484</ele>
        <time>2022-02-20T07:39:43Z</time>
      </trkpt>
      <trkpt lat="45.98465" lon="6.46584">
        <ele>1484</ele>
        <time>2022-02-20T07:39:52Z</time>
      </trkpt>
      <trkpt lat="45.98467" lon="6.46586">
        <ele>1484</ele>
        <time>2022-02-20T07:39:55Z</time>
      </trkpt>
      <trkpt lat="45.98469" lon="6.46587">
        <ele>1484</ele>
        <time>2022-02-20T07:39:58Z</time>
      </trkpt>
      <trkpt lat="45.98471" lon="6.46588">
        <ele>1485</ele>
        <time>2022-02-20T07:40:01Z</time>
      </trkpt>
      <trkpt lat="45.98474" lon="6.46589">
        <ele>1484</ele>
        <time>2022-02-20T07:40:04Z</time>
      </trkpt>
      <trkpt lat="45.98476" lon="6.4659">
        <ele>1484</ele>
        <time>2022-02-20T07:40:06Z</time>
      </trkpt>
      <trkpt lat="45.98478" lon="6.46591">
        <ele>1485</ele>
        <time>2022-02-20T07:40:10Z</time>
      </trkpt>
      <trkpt lat="45.9848" lon="6.46593">
        <ele>1485</ele>
        <time>2022-02-20T07:40:11Z</time>
      </trkpt>
      <trkpt lat="45.98483" lon="6.46594">
        <ele>1486</ele>
        <time>2022-02-20T07:40:14Z</time>
      </trkpt>
      <trkpt lat="45.98484" lon="6.46594">
        <ele>1486</ele>
        <time>2022-02-20T07:40:16Z</time>
      </trkpt>
      <trkpt lat="45.98487" lon="6.46594">
        <ele>1486</ele>
        <time>2022-02-20T07:40:20Z</time>
      </trkpt>
      <trkpt lat="45.98489" lon="6.46595">
        <ele>1486</ele>
        <time>2022-02-20T07:40:21Z</time>
      </trkpt>
      <trkpt lat="45.98491" lon="6.46595">
        <ele>1486</ele>
        <time>2022-02-20T07:40:23Z</time>
      </trkpt>
      <trkpt lat="45.98493" lon="6.46595">
        <ele>1486</ele>
        <time>2022-02-20T07:40:26Z</time>
      </trkpt>
      <trkpt lat="45.98495" lon="6.46596">
        <ele>1486</ele>
        <time>2022-02-20T07:40:30Z</time>
      </trkpt>
      <trkpt lat="45.98497" lon="6.46597">
        <ele>1486</ele>
        <time>2022-02-20T07:40:31Z</time>
      </trkpt>
      <trkpt lat="45.98499" lon="6.46598">
        <ele>1487</ele>
        <time>2022-02-20T07:40:34Z</time>
      </trkpt>
      <trkpt lat="45.98501" lon="6.46598">
        <ele>1487</ele>
        <time>2022-02-20T07:40:36Z</time>
      </trkpt>
      <trkpt lat="45.98504" lon="6.466">
        <ele>1487</ele>
        <time>2022-02-20T07:40:39Z</time>
      </trkpt>
      <trkpt lat="45.98506" lon="6.46601">
        <ele>1487</ele>
        <time>2022-02-20T07:40:42Z</time>
      </trkpt>
      <trkpt lat="45.98509" lon="6.46601">
        <ele>1487</ele>
        <time>2022-02-20T07:40:45Z</time>
      </trkpt>
      <trkpt lat="45.98511" lon="6.46602">
        <ele>1486</ele>
        <time>2022-02-20T07:40:48Z</time>
      </trkpt>
      <trkpt lat="45.98514" lon="6.46603">
        <ele>1486</ele>
        <time>2022-02-20T07:40:51Z</time>
      </trkpt>
      <trkpt lat="45.98516" lon="6.46605">
        <ele>1487</ele>
        <time>2022-02-20T07:40:53Z</time>
      </trkpt>
      <trkpt lat="45.98518" lon="6.46605">
        <ele>1487</ele>
        <time>2022-02-20T07:40:56Z</time>
      </trkpt>
      <trkpt lat="45.9852" lon="6.46607">
        <ele>1488</ele>
        <time>2022-02-20T07:40:58Z</time>
      </trkpt>
      <trkpt lat="45.98522" lon="6.46608">
        <ele>1488</ele>
        <time>2022-02-20T07:41:01Z</time>
      </trkpt>
      <trkpt lat="45.98524" lon="6.46608">
        <ele>1488</ele>
        <time>2022-02-20T07:41:03Z</time>
      </trkpt>
      <trkpt lat="45.98526" lon="6.46609">
        <ele>1488</ele>
        <time>2022-02-20T07:41:05Z</time>
      </trkpt>
      <trkpt lat="45.98529" lon="6.4661">
        <ele>1488</ele>
        <time>2022-02-20T07:41:09Z</time>
      </trkpt>
      <trkpt lat="45.9853" lon="6.46612">
        <ele>1488</ele>
        <time>2022-02-20T07:41:10Z</time>
      </trkpt>
      <trkpt lat="45.98532" lon="6.46612">
        <ele>1489</ele>
        <time>2022-02-20T07:41:12Z</time>
      </trkpt>
      <trkpt lat="45.98534" lon="6.46614">
        <ele>1490</ele>
        <time>2022-02-20T07:41:15Z</time>
      </trkpt>
      <trkpt lat="45.98537" lon="6.46616">
        <ele>1490</ele>
        <time>2022-02-20T07:41:19Z</time>
      </trkpt>
      <trkpt lat="45.98538" lon="6.46619">
        <ele>1490</ele>
        <time>2022-02-20T07:41:22Z</time>
      </trkpt>
      <trkpt lat="45.98541" lon="6.4662">
        <ele>1489</ele>
        <time>2022-02-20T07:41:24Z</time>
      </trkpt>
      <trkpt lat="45.98543" lon="6.46622">
        <ele>1489</ele>
        <time>2022-02-20T07:41:28Z</time>
      </trkpt>
      <trkpt lat="45.98545" lon="6.46622">
        <ele>1489</ele>
        <time>2022-02-20T07:41:29Z</time>
      </trkpt>
      <trkpt lat="45.98547" lon="6.46624">
        <ele>1490</ele>
        <time>2022-02-20T07:41:32Z</time>
      </trkpt>
      <trkpt lat="45.98549" lon="6.46626">
        <ele>1490</ele>
        <time>2022-02-20T07:41:34Z</time>
      </trkpt>
      <trkpt lat="45.98551" lon="6.46628">
        <ele>1490</ele>
        <time>2022-02-20T07:41:38Z</time>
      </trkpt>
      <trkpt lat="45.98553" lon="6.46629">
        <ele>1490</ele>
        <time>2022-02-20T07:41:41Z</time>
      </trkpt>
      <trkpt lat="45.98555" lon="6.46631">
        <ele>1490</ele>
        <time>2022-02-20T07:41:43Z</time>
      </trkpt>
      <trkpt lat="45.98558" lon="6.46632">
        <ele>1491</ele>
        <time>2022-02-20T07:41:46Z</time>
      </trkpt>
      <trkpt lat="45.9856" lon="6.46634">
        <ele>1490</ele>
        <time>2022-02-20T07:41:49Z</time>
      </trkpt>
      <trkpt lat="45.98562" lon="6.46637">
        <ele>1491</ele>
        <time>2022-02-20T07:41:52Z</time>
      </trkpt>
      <trkpt lat="45.98563" lon="6.46639">
        <ele>1491</ele>
        <time>2022-02-20T07:41:55Z</time>
      </trkpt>
      <trkpt lat="45.98565" lon="6.4664">
        <ele>1491</ele>
        <time>2022-02-20T07:41:57Z</time>
      </trkpt>
      <trkpt lat="45.98567" lon="6.46643">
        <ele>1491</ele>
        <time>2022-02-20T07:42:00Z</time>
      </trkpt>
      <trkpt lat="45.98569" lon="6.46645">
        <ele>1491</ele>
        <time>2022-02-20T07:42:04Z</time>
      </trkpt>
      <trkpt lat="45.9857" lon="6.46646">
        <ele>1491</ele>
        <time>2022-02-20T07:42:07Z</time>
      </trkpt>
      <trkpt lat="45.98572" lon="6.46648">
        <ele>1491</ele>
        <time>2022-02-20T07:42:09Z</time>
      </trkpt>
      <trkpt lat="45.98574" lon="6.46651">
        <ele>1491</ele>
        <time>2022-02-20T07:42:13Z</time>
      </trkpt>
      <trkpt lat="45.98576" lon="6.46652">
        <ele>1491</ele>
        <time>2022-02-20T07:42:16Z</time>
      </trkpt>
      <trkpt lat="45.98579" lon="6.46655">
        <ele>1492</ele>
        <time>2022-02-20T07:42:19Z</time>
      </trkpt>
      <trkpt lat="45.98581" lon="6.46657">
        <ele>1492</ele>
        <time>2022-02-20T07:42:22Z</time>
      </trkpt>
      <trkpt lat="45.98582" lon="6.4666">
        <ele>1492</ele>
        <time>2022-02-20T07:42:25Z</time>
      </trkpt>
      <trkpt lat="45.98584" lon="6.46663">
        <ele>1492</ele>
        <time>2022-02-20T07:42:28Z</time>
      </trkpt>
      <trkpt lat="45.98585" lon="6.46666">
        <ele>1492</ele>
        <time>2022-02-20T07:42:29Z</time>
      </trkpt>
      <trkpt lat="45.98586" lon="6.46668">
        <ele>1492</ele>
        <time>2022-02-20T07:42:33Z</time>
      </trkpt>
      <trkpt lat="45.98588" lon="6.46669">
        <ele>1492</ele>
        <time>2022-02-20T07:42:35Z</time>
      </trkpt>
      <trkpt lat="45.9859" lon="6.46671">
        <ele>1493</ele>
        <time>2022-02-20T07:42:38Z</time>
      </trkpt>
      <trkpt lat="45.98592" lon="6.46674">
        <ele>1493</ele>
        <time>2022-02-20T07:42:40Z</time>
      </trkpt>
      <trkpt lat="45.98594" lon="6.46676">
        <ele>1493</ele>
        <time>2022-02-20T07:42:43Z</time>
      </trkpt>
      <trkpt lat="45.98595" lon="6.46679">
        <ele>1492</ele>
        <time>2022-02-20T07:42:46Z</time>
      </trkpt>
      <trkpt lat="45.98597" lon="6.46682">
        <ele>1492</ele>
        <time>2022-02-20T07:42:50Z</time>
      </trkpt>
      <trkpt lat="45.98599" lon="6.46684">
        <ele>1493</ele>
        <time>2022-02-20T07:42:52Z</time>
      </trkpt>
      <trkpt lat="45.98601" lon="6.46687">
        <ele>1493</ele>
        <time>2022-02-20T07:42:55Z</time>
      </trkpt>
      <trkpt lat="45.98602" lon="6.4669">
        <ele>1493</ele>
        <time>2022-02-20T07:42:58Z</time>
      </trkpt>
      <trkpt lat="45.98604" lon="6.46692">
        <ele>1494</ele>
        <time>2022-02-20T07:43:02Z</time>
      </trkpt>
      <trkpt lat="45.98606" lon="6.46695">
        <ele>1494</ele>
        <time>2022-02-20T07:43:05Z</time>
      </trkpt>
      <trkpt lat="45.98607" lon="6.46699">
        <ele>1494</ele>
        <time>2022-02-20T07:43:08Z</time>
      </trkpt>
      <trkpt lat="45.98608" lon="6.46701">
        <ele>1495</ele>
        <time>2022-02-20T07:43:10Z</time>
      </trkpt>
      <trkpt lat="45.9861" lon="6.46704">
        <ele>1495</ele>
        <time>2022-02-20T07:43:12Z</time>
      </trkpt>
      <trkpt lat="45.98611" lon="6.46706">
        <ele>1494</ele>
        <time>2022-02-20T07:43:14Z</time>
      </trkpt>
      <trkpt lat="45.98612" lon="6.46709">
        <ele>1495</ele>
        <time>2022-02-20T07:43:17Z</time>
      </trkpt>
      <trkpt lat="45.98613" lon="6.46711">
        <ele>1495</ele>
        <time>2022-02-20T07:43:19Z</time>
      </trkpt>
      <trkpt lat="45.98614" lon="6.46714">
        <ele>1495</ele>
        <time>2022-02-20T07:43:22Z</time>
      </trkpt>
      <trkpt lat="45.98615" lon="6.46717">
        <ele>1496</ele>
        <time>2022-02-20T07:43:25Z</time>
      </trkpt>
      <trkpt lat="45.98616" lon="6.4672">
        <ele>1496</ele>
        <time>2022-02-20T07:43:28Z</time>
      </trkpt>
      <trkpt lat="45.98617" lon="6.46722">
        <ele>1497</ele>
        <time>2022-02-20T07:43:31Z</time>
      </trkpt>
      <trkpt lat="45.98618" lon="6.46725">
        <ele>1497</ele>
        <time>2022-02-20T07:43:35Z</time>
      </trkpt>
      <trkpt lat="45.98619" lon="6.46727">
        <ele>1497</ele>
        <time>2022-02-20T07:43:37Z</time>
      </trkpt>
      <trkpt lat="45.98621" lon="6.4673">
        <ele>1497</ele>
        <time>2022-02-20T07:43:40Z</time>
      </trkpt>
      <trkpt lat="45.98622" lon="6.46733">
        <ele>1497</ele>
        <time>2022-02-20T07:43:43Z</time>
      </trkpt>
      <trkpt lat="45.98624" lon="6.46736">
        <ele>1496</ele>
        <time>2022-02-20T07:43:46Z</time>
      </trkpt>
      <trkpt lat="45.98625" lon="6.46738">
        <ele>1496</ele>
        <time>2022-02-20T07:43:49Z</time>
      </trkpt>
      <trkpt lat="45.98627" lon="6.46741">
        <ele>1496</ele>
        <time>2022-02-20T07:43:51Z</time>
      </trkpt>
      <trkpt lat="45.98629" lon="6.46743">
        <ele>1496</ele>
        <time>2022-02-20T07:43:54Z</time>
      </trkpt>
      <trkpt lat="45.98629" lon="6.46745">
        <ele>1496</ele>
        <time>2022-02-20T07:43:56Z</time>
      </trkpt>
      <trkpt lat="45.98631" lon="6.46748">
        <ele>1496</ele>
        <time>2022-02-20T07:43:58Z</time>
      </trkpt>
      <trkpt lat="45.98632" lon="6.46751">
        <ele>1497</ele>
        <time>2022-02-20T07:44:02Z</time>
      </trkpt>
      <trkpt lat="45.98634" lon="6.46754">
        <ele>1497</ele>
        <time>2022-02-20T07:44:05Z</time>
      </trkpt>
      <trkpt lat="45.98635" lon="6.46757">
        <ele>1498</ele>
        <time>2022-02-20T07:44:08Z</time>
      </trkpt>
      <trkpt lat="45.98636" lon="6.46759">
        <ele>1498</ele>
        <time>2022-02-20T07:44:09Z</time>
      </trkpt>
      <trkpt lat="45.98637" lon="6.46762">
        <ele>1498</ele>
        <time>2022-02-20T07:44:11Z</time>
      </trkpt>
      <trkpt lat="45.98638" lon="6.46765">
        <ele>1498</ele>
        <time>2022-02-20T07:44:14Z</time>
      </trkpt>
      <trkpt lat="45.98639" lon="6.46768">
        <ele>1498</ele>
        <time>2022-02-20T07:44:18Z</time>
      </trkpt>
      <trkpt lat="45.9864" lon="6.4677">
        <ele>1499</ele>
        <time>2022-02-20T07:44:20Z</time>
      </trkpt>
      <trkpt lat="45.98642" lon="6.46772">
        <ele>1499</ele>
        <time>2022-02-20T07:44:22Z</time>
      </trkpt>
      <trkpt lat="45.98643" lon="6.46774">
        <ele>1499</ele>
        <time>2022-02-20T07:44:24Z</time>
      </trkpt>
      <trkpt lat="45.98644" lon="6.46777">
        <ele>1499</ele>
        <time>2022-02-20T07:44:26Z</time>
      </trkpt>
      <trkpt lat="45.98646" lon="6.46779">
        <ele>1498</ele>
        <time>2022-02-20T07:44:29Z</time>
      </trkpt>
      <trkpt lat="45.98647" lon="6.46782">
        <ele>1497</ele>
        <time>2022-02-20T07:44:31Z</time>
      </trkpt>
      <trkpt lat="45.98649" lon="6.46785">
        <ele>1498</ele>
        <time>2022-02-20T07:44:35Z</time>
      </trkpt>
      <trkpt lat="45.98649" lon="6.46787">
        <ele>1498</ele>
        <time>2022-02-20T07:44:36Z</time>
      </trkpt>
      <trkpt lat="45.98651" lon="6.46791">
        <ele>1498</ele>
        <time>2022-02-20T07:44:40Z</time>
      </trkpt>
      <trkpt lat="45.98652" lon="6.46795">
        <ele>1498</ele>
        <time>2022-02-20T07:44:43Z</time>
      </trkpt>
      <trkpt lat="45.98653" lon="6.46798">
        <ele>1498</ele>
        <time>2022-02-20T07:44:45Z</time>
      </trkpt>
      <trkpt lat="45.98654" lon="6.46801">
        <ele>1498</ele>
        <time>2022-02-20T07:44:48Z</time>
      </trkpt>
      <trkpt lat="45.98655" lon="6.46805">
        <ele>1499</ele>
        <time>2022-02-20T07:44:51Z</time>
      </trkpt>
      <trkpt lat="45.98656" lon="6.46808">
        <ele>1499</ele>
        <time>2022-02-20T07:44:54Z</time>
      </trkpt>
      <trkpt lat="45.98657" lon="6.46811">
        <ele>1500</ele>
        <time>2022-02-20T07:44:56Z</time>
      </trkpt>
      <trkpt lat="45.98658" lon="6.46814">
        <ele>1500</ele>
        <time>2022-02-20T07:44:59Z</time>
      </trkpt>
      <trkpt lat="45.98659" lon="6.46817">
        <ele>1500</ele>
        <time>2022-02-20T07:45:02Z</time>
      </trkpt>
      <trkpt lat="45.98659" lon="6.46819">
        <ele>1500</ele>
        <time>2022-02-20T07:45:03Z</time>
      </trkpt>
      <trkpt lat="45.9866" lon="6.46822">
        <ele>1500</ele>
        <time>2022-02-20T07:45:05Z</time>
      </trkpt>
      <trkpt lat="45.98661" lon="6.46824">
        <ele>1500</ele>
        <time>2022-02-20T07:45:07Z</time>
      </trkpt>
      <trkpt lat="45.98661" lon="6.46827">
        <ele>1500</ele>
        <time>2022-02-20T07:45:09Z</time>
      </trkpt>
      <trkpt lat="45.98662" lon="6.46829">
        <ele>1500</ele>
        <time>2022-02-20T07:45:11Z</time>
      </trkpt>
      <trkpt lat="45.98663" lon="6.46832">
        <ele>1500</ele>
        <time>2022-02-20T07:45:14Z</time>
      </trkpt>
      <trkpt lat="45.98663" lon="6.46834">
        <ele>1500</ele>
        <time>2022-02-20T07:45:16Z</time>
      </trkpt>
      <trkpt lat="45.98664" lon="6.46838">
        <ele>1500</ele>
        <time>2022-02-20T07:45:19Z</time>
      </trkpt>
      <trkpt lat="45.98665" lon="6.4684">
        <ele>1500</ele>
        <time>2022-02-20T07:45:21Z</time>
      </trkpt>
      <trkpt lat="45.98666" lon="6.46843">
        <ele>1500</ele>
        <time>2022-02-20T07:45:22Z</time>
      </trkpt>
      <trkpt lat="45.98668" lon="6.46846">
        <ele>1500</ele>
        <time>2022-02-20T07:45:26Z</time>
      </trkpt>
      <trkpt lat="45.98669" lon="6.46848">
        <ele>1501</ele>
        <time>2022-02-20T07:45:27Z</time>
      </trkpt>
      <trkpt lat="45.9867" lon="6.4685">
        <ele>1502</ele>
        <time>2022-02-20T07:45:30Z</time>
      </trkpt>
      <trkpt lat="45.98671" lon="6.46853">
        <ele>1502</ele>
        <time>2022-02-20T07:45:32Z</time>
      </trkpt>
      <trkpt lat="45.98672" lon="6.46855">
        <ele>1502</ele>
        <time>2022-02-20T07:45:35Z</time>
      </trkpt>
      <trkpt lat="45.98673" lon="6.46858">
        <ele>1502</ele>
        <time>2022-02-20T07:45:37Z</time>
      </trkpt>
      <trkpt lat="45.98675" lon="6.46861">
        <ele>1502</ele>
        <time>2022-02-20T07:45:39Z</time>
      </trkpt>
      <trkpt lat="45.98675" lon="6.46863">
        <ele>1502</ele>
        <time>2022-02-20T07:45:42Z</time>
      </trkpt>
      <trkpt lat="45.98676" lon="6.46865">
        <ele>1502</ele>
        <time>2022-02-20T07:45:44Z</time>
      </trkpt>
      <trkpt lat="45.98677" lon="6.46868">
        <ele>1502</ele>
        <time>2022-02-20T07:45:45Z</time>
      </trkpt>
      <trkpt lat="45.98679" lon="6.46871">
        <ele>1502</ele>
        <time>2022-02-20T07:45:48Z</time>
      </trkpt>
      <trkpt lat="45.9868" lon="6.46873">
        <ele>1503</ele>
        <time>2022-02-20T07:45:51Z</time>
      </trkpt>
      <trkpt lat="45.98681" lon="6.46875">
        <ele>1503</ele>
        <time>2022-02-20T07:45:52Z</time>
      </trkpt>
      <trkpt lat="45.98682" lon="6.46877">
        <ele>1503</ele>
        <time>2022-02-20T07:45:55Z</time>
      </trkpt>
      <trkpt lat="45.98684" lon="6.4688">
        <ele>1504</ele>
        <time>2022-02-20T07:45:57Z</time>
      </trkpt>
      <trkpt lat="45.98686" lon="6.46883">
        <ele>1504</ele>
        <time>2022-02-20T07:46:01Z</time>
      </trkpt>
      <trkpt lat="45.98687" lon="6.46886">
        <ele>1503</ele>
        <time>2022-02-20T07:46:04Z</time>
      </trkpt>
      <trkpt lat="45.98689" lon="6.46889">
        <ele>1503</ele>
        <time>2022-02-20T07:46:07Z</time>
      </trkpt>
      <trkpt lat="45.9869" lon="6.46892">
        <ele>1504</ele>
        <time>2022-02-20T07:46:09Z</time>
      </trkpt>
      <trkpt lat="45.98691" lon="6.46895">
        <ele>1504</ele>
        <time>2022-02-20T07:46:12Z</time>
      </trkpt>
      <trkpt lat="45.98692" lon="6.46897">
        <ele>1504</ele>
        <time>2022-02-20T07:46:14Z</time>
      </trkpt>
      <trkpt lat="45.98693" lon="6.469">
        <ele>1504</ele>
        <time>2022-02-20T07:46:17Z</time>
      </trkpt>
      <trkpt lat="45.98694" lon="6.46904">
        <ele>1504</ele>
        <time>2022-02-20T07:46:19Z</time>
      </trkpt>
      <trkpt lat="45.98695" lon="6.46906">
        <ele>1504</ele>
        <time>2022-02-20T07:46:21Z</time>
      </trkpt>
      <trkpt lat="45.98696" lon="6.46908">
        <ele>1505</ele>
        <time>2022-02-20T07:46:24Z</time>
      </trkpt>
      <trkpt lat="45.98697" lon="6.46911">
        <ele>1505</ele>
        <time>2022-02-20T07:46:26Z</time>
      </trkpt>
      <trkpt lat="45.98698" lon="6.46913">
        <ele>1505</ele>
        <time>2022-02-20T07:46:28Z</time>
      </trkpt>
      <trkpt lat="45.98699" lon="6.46916">
        <ele>1505</ele>
        <time>2022-02-20T07:46:31Z</time>
      </trkpt>
      <trkpt lat="45.98701" lon="6.46919">
        <ele>1506</ele>
        <time>2022-02-20T07:46:34Z</time>
      </trkpt>
      <trkpt lat="45.98702" lon="6.46922">
        <ele>1506</ele>
        <time>2022-02-20T07:46:35Z</time>
      </trkpt>
      <trkpt lat="45.98702" lon="6.46924">
        <ele>1506</ele>
        <time>2022-02-20T07:46:37Z</time>
      </trkpt>
      <trkpt lat="45.98704" lon="6.46928">
        <ele>1506</ele>
        <time>2022-02-20T07:46:40Z</time>
      </trkpt>
      <trkpt lat="45.98705" lon="6.46931">
        <ele>1507</ele>
        <time>2022-02-20T07:46:44Z</time>
      </trkpt>
      <trkpt lat="45.98706" lon="6.46935">
        <ele>1507</ele>
        <time>2022-02-20T07:46:47Z</time>
      </trkpt>
      <trkpt lat="45.98707" lon="6.46938">
        <ele>1507</ele>
        <time>2022-02-20T07:46:49Z</time>
      </trkpt>
      <trkpt lat="45.98708" lon="6.46941">
        <ele>1507</ele>
        <time>2022-02-20T07:46:51Z</time>
      </trkpt>
      <trkpt lat="45.9871" lon="6.46944">
        <ele>1507</ele>
        <time>2022-02-20T07:46:54Z</time>
      </trkpt>
      <trkpt lat="45.98711" lon="6.46947">
        <ele>1506</ele>
        <time>2022-02-20T07:46:58Z</time>
      </trkpt>
      <trkpt lat="45.98713" lon="6.46951">
        <ele>1507</ele>
        <time>2022-02-20T07:47:00Z</time>
      </trkpt>
      <trkpt lat="45.98714" lon="6.46954">
        <ele>1507</ele>
        <time>2022-02-20T07:47:04Z</time>
      </trkpt>
      <trkpt lat="45.98715" lon="6.46958">
        <ele>1507</ele>
        <time>2022-02-20T07:47:06Z</time>
      </trkpt>
      <trkpt lat="45.98716" lon="6.4696">
        <ele>1508</ele>
        <time>2022-02-20T07:47:09Z</time>
      </trkpt>
      <trkpt lat="45.98718" lon="6.46962">
        <ele>1508</ele>
        <time>2022-02-20T07:47:11Z</time>
      </trkpt>
      <trkpt lat="45.98719" lon="6.46964">
        <ele>1509</ele>
        <time>2022-02-20T07:47:13Z</time>
      </trkpt>
      <trkpt lat="45.9872" lon="6.46967">
        <ele>1509</ele>
        <time>2022-02-20T07:47:16Z</time>
      </trkpt>
      <trkpt lat="45.98722" lon="6.4697">
        <ele>1509</ele>
        <time>2022-02-20T07:47:18Z</time>
      </trkpt>
      <trkpt lat="45.98724" lon="6.46973">
        <ele>1509</ele>
        <time>2022-02-20T07:47:21Z</time>
      </trkpt>
      <trkpt lat="45.98726" lon="6.46976">
        <ele>1509</ele>
        <time>2022-02-20T07:47:24Z</time>
      </trkpt>
      <trkpt lat="45.98727" lon="6.46978">
        <ele>1509</ele>
        <time>2022-02-20T07:47:27Z</time>
      </trkpt>
      <trkpt lat="45.98728" lon="6.46981">
        <ele>1510</ele>
        <time>2022-02-20T07:47:29Z</time>
      </trkpt>
      <trkpt lat="45.9873" lon="6.46983">
        <ele>1510</ele>
        <time>2022-02-20T07:47:32Z</time>
      </trkpt>
      <trkpt lat="45.9873" lon="6.46985">
        <ele>1510</ele>
        <time>2022-02-20T07:47:33Z</time>
      </trkpt>
      <trkpt lat="45.98732" lon="6.46988">
        <ele>1510</ele>
        <time>2022-02-20T07:47:36Z</time>
      </trkpt>
      <trkpt lat="45.98733" lon="6.4699">
        <ele>1510</ele>
        <time>2022-02-20T07:47:37Z</time>
      </trkpt>
      <trkpt lat="45.98734" lon="6.46992">
        <ele>1510</ele>
        <time>2022-02-20T07:47:39Z</time>
      </trkpt>
      <trkpt lat="45.98735" lon="6.46995">
        <ele>1510</ele>
        <time>2022-02-20T07:47:42Z</time>
      </trkpt>
      <trkpt lat="45.98735" lon="6.46997">
        <ele>1510</ele>
        <time>2022-02-20T07:47:44Z</time>
      </trkpt>
      <trkpt lat="45.98737" lon="6.46999">
        <ele>1510</ele>
        <time>2022-02-20T07:47:45Z</time>
      </trkpt>
      <trkpt lat="45.98738" lon="6.47002">
        <ele>1510</ele>
        <time>2022-02-20T07:47:47Z</time>
      </trkpt>
      <trkpt lat="45.98739" lon="6.47004">
        <ele>1510</ele>
        <time>2022-02-20T07:47:49Z</time>
      </trkpt>
      <trkpt lat="45.9874" lon="6.47006">
        <ele>1510</ele>
        <time>2022-02-20T07:47:51Z</time>
      </trkpt>
      <trkpt lat="45.98742" lon="6.47008">
        <ele>1510</ele>
        <time>2022-02-20T07:47:55Z</time>
      </trkpt>
      <trkpt lat="45.98743" lon="6.4701">
        <ele>1510</ele>
        <time>2022-02-20T07:47:56Z</time>
      </trkpt>
      <trkpt lat="45.98745" lon="6.47013">
        <ele>1510</ele>
        <time>2022-02-20T07:47:58Z</time>
      </trkpt>
      <trkpt lat="45.98746" lon="6.47015">
        <ele>1512</ele>
        <time>2022-02-20T07:48:01Z</time>
      </trkpt>
      <trkpt lat="45.98747" lon="6.47018">
        <ele>1512</ele>
        <time>2022-02-20T07:48:03Z</time>
      </trkpt>
      <trkpt lat="45.98749" lon="6.47021">
        <ele>1512</ele>
        <time>2022-02-20T07:48:07Z</time>
      </trkpt>
      <trkpt lat="45.9875" lon="6.47024">
        <ele>1512</ele>
        <time>2022-02-20T07:48:10Z</time>
      </trkpt>
      <trkpt lat="45.98752" lon="6.47027">
        <ele>1512</ele>
        <time>2022-02-20T07:48:13Z</time>
      </trkpt>
      <trkpt lat="45.98753" lon="6.4703">
        <ele>1512</ele>
        <time>2022-02-20T07:48:15Z</time>
      </trkpt>
      <trkpt lat="45.98754" lon="6.47034">
        <ele>1513</ele>
        <time>2022-02-20T07:48:19Z</time>
      </trkpt>
      <trkpt lat="45.98756" lon="6.47037">
        <ele>1513</ele>
        <time>2022-02-20T07:48:21Z</time>
      </trkpt>
      <trkpt lat="45.98757" lon="6.4704">
        <ele>1513</ele>
        <time>2022-02-20T07:48:25Z</time>
      </trkpt>
      <trkpt lat="45.98758" lon="6.47042">
        <ele>1513</ele>
        <time>2022-02-20T07:48:28Z</time>
      </trkpt>
      <trkpt lat="45.9876" lon="6.47045">
        <ele>1514</ele>
        <time>2022-02-20T07:48:32Z</time>
      </trkpt>
      <trkpt lat="45.98761" lon="6.47048">
        <ele>1514</ele>
        <time>2022-02-20T07:48:34Z</time>
      </trkpt>
      <trkpt lat="45.98763" lon="6.47051">
        <ele>1514</ele>
        <time>2022-02-20T07:48:38Z</time>
      </trkpt>
      <trkpt lat="45.98764" lon="6.47053">
        <ele>1514</ele>
        <time>2022-02-20T07:48:41Z</time>
      </trkpt>
      <trkpt lat="45.98765" lon="6.47056">
        <ele>1515</ele>
        <time>2022-02-20T07:48:43Z</time>
      </trkpt>
      <trkpt lat="45.98767" lon="6.47058">
        <ele>1516</ele>
        <time>2022-02-20T07:48:45Z</time>
      </trkpt>
      <trkpt lat="45.98769" lon="6.47059">
        <ele>1516</ele>
        <time>2022-02-20T07:48:47Z</time>
      </trkpt>
      <trkpt lat="45.98771" lon="6.47062">
        <ele>1516</ele>
        <time>2022-02-20T07:48:51Z</time>
      </trkpt>
      <trkpt lat="45.98772" lon="6.47065">
        <ele>1516</ele>
        <time>2022-02-20T07:48:53Z</time>
      </trkpt>
      <trkpt lat="45.98773" lon="6.47067">
        <ele>1516</ele>
        <time>2022-02-20T07:48:56Z</time>
      </trkpt>
      <trkpt lat="45.98774" lon="6.4707">
        <ele>1517</ele>
        <time>2022-02-20T07:49:01Z</time>
      </trkpt>
      <trkpt lat="45.98776" lon="6.47073">
        <ele>1517</ele>
        <time>2022-02-20T07:49:03Z</time>
      </trkpt>
      <trkpt lat="45.98777" lon="6.47076">
        <ele>1518</ele>
        <time>2022-02-20T07:49:07Z</time>
      </trkpt>
      <trkpt lat="45.98778" lon="6.47079">
        <ele>1518</ele>
        <time>2022-02-20T07:49:10Z</time>
      </trkpt>
      <trkpt lat="45.98779" lon="6.47081">
        <ele>1518</ele>
        <time>2022-02-20T07:49:12Z</time>
      </trkpt>
      <trkpt lat="45.9878" lon="6.47084">
        <ele>1519</ele>
        <time>2022-02-20T07:49:15Z</time>
      </trkpt>
      <trkpt lat="45.98781" lon="6.47087">
        <ele>1520</ele>
        <time>2022-02-20T07:49:18Z</time>
      </trkpt>
      <trkpt lat="45.98782" lon="6.4709">
        <ele>1521</ele>
        <time>2022-02-20T07:49:23Z</time>
      </trkpt>
      <trkpt lat="45.98783" lon="6.47093">
        <ele>1521</ele>
        <time>2022-02-20T07:49:27Z</time>
      </trkpt>
      <trkpt lat="45.98785" lon="6.47095">
        <ele>1521</ele>
        <time>2022-02-20T07:49:30Z</time>
      </trkpt>
      <trkpt lat="45.98786" lon="6.47098">
        <ele>1521</ele>
        <time>2022-02-20T07:49:32Z</time>
      </trkpt>
      <trkpt lat="45.98787" lon="6.471">
        <ele>1521</ele>
        <time>2022-02-20T07:49:35Z</time>
      </trkpt>
      <trkpt lat="45.98788" lon="6.47103">
        <ele>1521</ele>
        <time>2022-02-20T07:49:38Z</time>
      </trkpt>
      <trkpt lat="45.98789" lon="6.47105">
        <ele>1522</ele>
        <time>2022-02-20T07:49:41Z</time>
      </trkpt>
      <trkpt lat="45.9879" lon="6.47108">
        <ele>1522</ele>
        <time>2022-02-20T07:49:44Z</time>
      </trkpt>
      <trkpt lat="45.98791" lon="6.47111">
        <ele>1522</ele>
        <time>2022-02-20T07:49:47Z</time>
      </trkpt>
      <trkpt lat="45.98792" lon="6.47114">
        <ele>1522</ele>
        <time>2022-02-20T07:49:49Z</time>
      </trkpt>
      <trkpt lat="45.98793" lon="6.47117">
        <ele>1522</ele>
        <time>2022-02-20T07:49:51Z</time>
      </trkpt>
      <trkpt lat="45.98794" lon="6.4712">
        <ele>1522</ele>
        <time>2022-02-20T07:49:54Z</time>
      </trkpt>
      <trkpt lat="45.98796" lon="6.47123">
        <ele>1522</ele>
        <time>2022-02-20T07:49:57Z</time>
      </trkpt>
      <trkpt lat="45.98797" lon="6.47126">
        <ele>1522</ele>
        <time>2022-02-20T07:49:58Z</time>
      </trkpt>
      <trkpt lat="45.98798" lon="6.47128">
        <ele>1522</ele>
        <time>2022-02-20T07:50:01Z</time>
      </trkpt>
      <trkpt lat="45.98799" lon="6.4713">
        <ele>1522</ele>
        <time>2022-02-20T07:50:04Z</time>
      </trkpt>
      <trkpt lat="45.988" lon="6.47133">
        <ele>1522</ele>
        <time>2022-02-20T07:50:07Z</time>
      </trkpt>
      <trkpt lat="45.98802" lon="6.47135">
        <ele>1522</ele>
        <time>2022-02-20T07:50:09Z</time>
      </trkpt>
      <trkpt lat="45.98803" lon="6.47138">
        <ele>1522</ele>
        <time>2022-02-20T07:50:13Z</time>
      </trkpt>
      <trkpt lat="45.98804" lon="6.47141">
        <ele>1522</ele>
        <time>2022-02-20T07:50:14Z</time>
      </trkpt>
      <trkpt lat="45.98805" lon="6.47143">
        <ele>1522</ele>
        <time>2022-02-20T07:50:16Z</time>
      </trkpt>
      <trkpt lat="45.98806" lon="6.47146">
        <ele>1522</ele>
        <time>2022-02-20T07:50:19Z</time>
      </trkpt>
      <trkpt lat="45.98807" lon="6.47149">
        <ele>1523</ele>
        <time>2022-02-20T07:50:23Z</time>
      </trkpt>
      <trkpt lat="45.98808" lon="6.47152">
        <ele>1523</ele>
        <time>2022-02-20T07:50:25Z</time>
      </trkpt>
      <trkpt lat="45.98809" lon="6.47155">
        <ele>1523</ele>
        <time>2022-02-20T07:50:28Z</time>
      </trkpt>
      <trkpt lat="45.98809" lon="6.47159">
        <ele>1523</ele>
        <time>2022-02-20T07:50:32Z</time>
      </trkpt>
      <trkpt lat="45.9881" lon="6.47162">
        <ele>1524</ele>
        <time>2022-02-20T07:50:35Z</time>
      </trkpt>
      <trkpt lat="45.98811" lon="6.47165">
        <ele>1525</ele>
        <time>2022-02-20T07:50:37Z</time>
      </trkpt>
      <trkpt lat="45.98812" lon="6.47168">
        <ele>1525</ele>
        <time>2022-02-20T07:50:41Z</time>
      </trkpt>
      <trkpt lat="45.98813" lon="6.47171">
        <ele>1526</ele>
        <time>2022-02-20T07:50:44Z</time>
      </trkpt>
      <trkpt lat="45.98813" lon="6.47174">
        <ele>1526</ele>
        <time>2022-02-20T07:50:47Z</time>
      </trkpt>
      <trkpt lat="45.98815" lon="6.47177">
        <ele>1526</ele>
        <time>2022-02-20T07:50:49Z</time>
      </trkpt>
      <trkpt lat="45.98815" lon="6.47179">
        <ele>1527</ele>
        <time>2022-02-20T07:50:52Z</time>
      </trkpt>
      <trkpt lat="45.98815" lon="6.47183">
        <ele>1527</ele>
        <time>2022-02-20T07:50:54Z</time>
      </trkpt>
      <trkpt lat="45.98815" lon="6.47186">
        <ele>1527</ele>
        <time>2022-02-20T07:50:58Z</time>
      </trkpt>
      <trkpt lat="45.98815" lon="6.47189">
        <ele>1528</ele>
        <time>2022-02-20T07:51:02Z</time>
      </trkpt>
      <trkpt lat="45.98816" lon="6.47191">
        <ele>1529</ele>
        <time>2022-02-20T07:51:05Z</time>
      </trkpt>
      <trkpt lat="45.98816" lon="6.47194">
        <ele>1529</ele>
        <time>2022-02-20T07:51:07Z</time>
      </trkpt>
      <trkpt lat="45.98815" lon="6.47196">
        <ele>1529</ele>
        <time>2022-02-20T07:51:09Z</time>
      </trkpt>
      <trkpt lat="45.98815" lon="6.47199">
        <ele>1530</ele>
        <time>2022-02-20T07:51:12Z</time>
      </trkpt>
      <trkpt lat="45.98814" lon="6.47202">
        <ele>1530</ele>
        <time>2022-02-20T07:51:13Z</time>
      </trkpt>
      <trkpt lat="45.98813" lon="6.47205">
        <ele>1531</ele>
        <time>2022-02-20T07:51:16Z</time>
      </trkpt>
      <trkpt lat="45.98812" lon="6.47208">
        <ele>1531</ele>
        <time>2022-02-20T07:51:18Z</time>
      </trkpt>
      <trkpt lat="45.98812" lon="6.4721">
        <ele>1532</ele>
        <time>2022-02-20T07:51:22Z</time>
      </trkpt>
      <trkpt lat="45.98811" lon="6.47214">
        <ele>1532</ele>
        <time>2022-02-20T07:51:24Z</time>
      </trkpt>
      <trkpt lat="45.98812" lon="6.47217">
        <ele>1533</ele>
        <time>2022-02-20T07:51:28Z</time>
      </trkpt>
      <trkpt lat="45.98812" lon="6.4722">
        <ele>1533</ele>
        <time>2022-02-20T07:51:31Z</time>
      </trkpt>
      <trkpt lat="45.98814" lon="6.47222">
        <ele>1533</ele>
        <time>2022-02-20T07:51:34Z</time>
      </trkpt>
      <trkpt lat="45.98815" lon="6.47225">
        <ele>1534</ele>
        <time>2022-02-20T07:51:38Z</time>
      </trkpt>
      <trkpt lat="45.98818" lon="6.47225">
        <ele>1535</ele>
        <time>2022-02-20T07:51:40Z</time>
      </trkpt>
      <trkpt lat="45.98819" lon="6.47224">
        <ele>1535</ele>
        <time>2022-02-20T07:51:42Z</time>
      </trkpt>
      <trkpt lat="45.98821" lon="6.47222">
        <ele>1536</ele>
        <time>2022-02-20T07:51:44Z</time>
      </trkpt>
      <trkpt lat="45.98823" lon="6.47221">
        <ele>1537</ele>
        <time>2022-02-20T07:51:48Z</time>
      </trkpt>
      <trkpt lat="45.98825" lon="6.47219">
        <ele>1537</ele>
        <time>2022-02-20T07:51:50Z</time>
      </trkpt>
      <trkpt lat="45.98828" lon="6.47218">
        <ele>1537</ele>
        <time>2022-02-20T07:52:00Z</time>
      </trkpt>
      <trkpt lat="45.9883" lon="6.47216">
        <ele>1537</ele>
        <time>2022-02-20T07:52:03Z</time>
      </trkpt>
      <trkpt lat="45.98831" lon="6.47215">
        <ele>1537</ele>
        <time>2022-02-20T07:52:05Z</time>
      </trkpt>
      <trkpt lat="45.98833" lon="6.47213">
        <ele>1538</ele>
        <time>2022-02-20T07:52:09Z</time>
      </trkpt>
      <trkpt lat="45.98835" lon="6.47212">
        <ele>1539</ele>
        <time>2022-02-20T07:52:12Z</time>
      </trkpt>
      <trkpt lat="45.98837" lon="6.47211">
        <ele>1539</ele>
        <time>2022-02-20T07:52:15Z</time>
      </trkpt>
      <trkpt lat="45.98839" lon="6.4721">
        <ele>1540</ele>
        <time>2022-02-20T07:52:19Z</time>
      </trkpt>
      <trkpt lat="45.98841" lon="6.47209">
        <ele>1541</ele>
        <time>2022-02-20T07:52:22Z</time>
      </trkpt>
      <trkpt lat="45.98843" lon="6.4721">
        <ele>1541</ele>
        <time>2022-02-20T07:52:26Z</time>
      </trkpt>
      <trkpt lat="45.98845" lon="6.47212">
        <ele>1542</ele>
        <time>2022-02-20T07:52:29Z</time>
      </trkpt>
      <trkpt lat="45.98847" lon="6.47212">
        <ele>1542</ele>
        <time>2022-02-20T07:52:30Z</time>
      </trkpt>
      <trkpt lat="45.98848" lon="6.47212">
        <ele>1542</ele>
        <time>2022-02-20T07:52:33Z</time>
      </trkpt>
      <trkpt lat="45.98851" lon="6.47213">
        <ele>1543</ele>
        <time>2022-02-20T07:52:35Z</time>
      </trkpt>
      <trkpt lat="45.98853" lon="6.47215">
        <ele>1543</ele>
        <time>2022-02-20T07:52:39Z</time>
      </trkpt>
      <trkpt lat="45.98854" lon="6.47217">
        <ele>1543</ele>
        <time>2022-02-20T07:52:41Z</time>
      </trkpt>
      <trkpt lat="45.98856" lon="6.47219">
        <ele>1544</ele>
        <time>2022-02-20T07:52:44Z</time>
      </trkpt>
      <trkpt lat="45.98857" lon="6.47221">
        <ele>1545</ele>
        <time>2022-02-20T07:52:48Z</time>
      </trkpt>
      <trkpt lat="45.98859" lon="6.47222">
        <ele>1546</ele>
        <time>2022-02-20T07:52:54Z</time>
      </trkpt>
      <trkpt lat="45.98859" lon="6.47225">
        <ele>1546</ele>
        <time>2022-02-20T07:53:03Z</time>
      </trkpt>
      <trkpt lat="45.98861" lon="6.47227">
        <ele>1546</ele>
        <time>2022-02-20T07:53:05Z</time>
      </trkpt>
      <trkpt lat="45.98863" lon="6.47229">
        <ele>1546</ele>
        <time>2022-02-20T07:53:07Z</time>
      </trkpt>
      <trkpt lat="45.98865" lon="6.47232">
        <ele>1537.5</ele>
        <time>2022-02-20T07:53:11Z</time>
      </trkpt>
      <trkpt lat="45.98867" lon="6.47233">
        <ele>1548</ele>
        <time>2022-02-20T07:53:14Z</time>
      </trkpt>
      <trkpt lat="45.98868" lon="6.47235">
        <ele>1548</ele>
        <time>2022-02-20T07:53:16Z</time>
      </trkpt>
      <trkpt lat="45.9887" lon="6.47237">
        <ele>1548</ele>
        <time>2022-02-20T07:53:19Z</time>
      </trkpt>
      <trkpt lat="45.98871" lon="6.4724">
        <ele>1549</ele>
        <time>2022-02-20T07:53:24Z</time>
      </trkpt>
      <trkpt lat="45.98872" lon="6.47242">
        <ele>1550</ele>
        <time>2022-02-20T07:53:27Z</time>
      </trkpt>
      <trkpt lat="45.98874" lon="6.47244">
        <ele>1551</ele>
        <time>2022-02-20T07:53:31Z</time>
      </trkpt>
      <trkpt lat="45.98876" lon="6.47246">
        <ele>1551</ele>
        <time>2022-02-20T07:53:33Z</time>
      </trkpt>
      <trkpt lat="45.98877" lon="6.47247">
        <ele>1551</ele>
        <time>2022-02-20T07:53:37Z</time>
      </trkpt>
      <trkpt lat="45.98879" lon="6.47249">
        <ele>1552</ele>
        <time>2022-02-20T07:53:40Z</time>
      </trkpt>
      <trkpt lat="45.9888" lon="6.47252">
        <ele>1553</ele>
        <time>2022-02-20T07:53:44Z</time>
      </trkpt>
      <trkpt lat="45.98881" lon="6.47254">
        <ele>1553</ele>
        <time>2022-02-20T07:53:46Z</time>
      </trkpt>
      <trkpt lat="45.98883" lon="6.47256">
        <ele>1553</ele>
        <time>2022-02-20T07:53:50Z</time>
      </trkpt>
      <trkpt lat="45.98884" lon="6.47258">
        <ele>1554</ele>
        <time>2022-02-20T07:53:52Z</time>
      </trkpt>
      <trkpt lat="45.98886" lon="6.4726">
        <ele>1554</ele>
        <time>2022-02-20T07:53:55Z</time>
      </trkpt>
      <trkpt lat="45.98887" lon="6.47262">
        <ele>1555</ele>
        <time>2022-02-20T07:53:59Z</time>
      </trkpt>
      <trkpt lat="45.98888" lon="6.47265">
        <ele>1556</ele>
        <time>2022-02-20T07:54:02Z</time>
      </trkpt>
      <trkpt lat="45.9889" lon="6.47267">
        <ele>1556</ele>
        <time>2022-02-20T07:54:04Z</time>
      </trkpt>
      <trkpt lat="45.98891" lon="6.4727">
        <ele>1557</ele>
        <time>2022-02-20T07:54:08Z</time>
      </trkpt>
      <trkpt lat="45.98892" lon="6.47272">
        <ele>1557</ele>
        <time>2022-02-20T07:54:11Z</time>
      </trkpt>
      <trkpt lat="45.98894" lon="6.47275">
        <ele>1557</ele>
        <time>2022-02-20T07:54:15Z</time>
      </trkpt>
      <trkpt lat="45.98896" lon="6.47276">
        <ele>1557</ele>
        <time>2022-02-20T07:54:18Z</time>
      </trkpt>
      <trkpt lat="45.98897" lon="6.47279">
        <ele>1559</ele>
        <time>2022-02-20T07:54:21Z</time>
      </trkpt>
      <trkpt lat="45.98899" lon="6.47281">
        <ele>1559</ele>
        <time>2022-02-20T07:54:24Z</time>
      </trkpt>
      <trkpt lat="45.989" lon="6.47283">
        <ele>1559</ele>
        <time>2022-02-20T07:54:27Z</time>
      </trkpt>
      <trkpt lat="45.98902" lon="6.47286">
        <ele>1560</ele>
        <time>2022-02-20T07:54:32Z</time>
      </trkpt>
      <trkpt lat="45.98903" lon="6.47289">
        <ele>1560</ele>
        <time>2022-02-20T07:55:02Z</time>
      </trkpt>
      <trkpt lat="45.98905" lon="6.47291">
        <ele>1560</ele>
        <time>2022-02-20T07:55:04Z</time>
      </trkpt>
      <trkpt lat="45.98907" lon="6.47293">
        <ele>1560</ele>
        <time>2022-02-20T07:55:05Z</time>
      </trkpt>
      <trkpt lat="45.98909" lon="6.47294">
        <ele>1560</ele>
        <time>2022-02-20T07:55:08Z</time>
      </trkpt>
      <trkpt lat="45.98911" lon="6.47296">
        <ele>1561</ele>
        <time>2022-02-20T07:55:12Z</time>
      </trkpt>
      <trkpt lat="45.98912" lon="6.47299">
        <ele>1562</ele>
        <time>2022-02-20T07:55:14Z</time>
      </trkpt>
      <trkpt lat="45.98914" lon="6.47301">
        <ele>1563</ele>
        <time>2022-02-20T07:55:18Z</time>
      </trkpt>
      <trkpt lat="45.98916" lon="6.47303">
        <ele>1562</ele>
        <time>2022-02-20T07:55:20Z</time>
      </trkpt>
      <trkpt lat="45.98918" lon="6.47304">
        <ele>1563</ele>
        <time>2022-02-20T07:55:24Z</time>
      </trkpt>
      <trkpt lat="45.9892" lon="6.47306">
        <ele>1564</ele>
        <time>2022-02-20T07:55:27Z</time>
      </trkpt>
      <trkpt lat="45.98922" lon="6.47308">
        <ele>1565</ele>
        <time>2022-02-20T07:55:30Z</time>
      </trkpt>
      <trkpt lat="45.98923" lon="6.47309">
        <ele>1566</ele>
        <time>2022-02-20T07:55:32Z</time>
      </trkpt>
      <trkpt lat="45.98925" lon="6.47311">
        <ele>1566</ele>
        <time>2022-02-20T07:55:36Z</time>
      </trkpt>
      <trkpt lat="45.98927" lon="6.47313">
        <ele>1566</ele>
        <time>2022-02-20T07:55:40Z</time>
      </trkpt>
      <trkpt lat="45.98928" lon="6.47315">
        <ele>1566</ele>
        <time>2022-02-20T07:55:43Z</time>
      </trkpt>
      <trkpt lat="45.98929" lon="6.47318">
        <ele>1567</ele>
        <time>2022-02-20T07:55:46Z</time>
      </trkpt>
      <trkpt lat="45.9893" lon="6.4732">
        <ele>1567</ele>
        <time>2022-02-20T07:55:48Z</time>
      </trkpt>
      <trkpt lat="45.98931" lon="6.47323">
        <ele>1568</ele>
        <time>2022-02-20T07:55:52Z</time>
      </trkpt>
      <trkpt lat="45.98932" lon="6.47326">
        <ele>1568</ele>
        <time>2022-02-20T07:55:54Z</time>
      </trkpt>
      <trkpt lat="45.98933" lon="6.47329">
        <ele>1569</ele>
        <time>2022-02-20T07:55:57Z</time>
      </trkpt>
      <trkpt lat="45.98934" lon="6.47332">
        <ele>1569</ele>
        <time>2022-02-20T07:56:01Z</time>
      </trkpt>
      <trkpt lat="45.98935" lon="6.47334">
        <ele>1570</ele>
        <time>2022-02-20T07:56:04Z</time>
      </trkpt>
      <trkpt lat="45.98936" lon="6.47336">
        <ele>1570</ele>
        <time>2022-02-20T07:56:07Z</time>
      </trkpt>
      <trkpt lat="45.98937" lon="6.47338">
        <ele>1570</ele>
        <time>2022-02-20T07:56:10Z</time>
      </trkpt>
      <trkpt lat="45.98939" lon="6.47341">
        <ele>1570</ele>
        <time>2022-02-20T07:56:12Z</time>
      </trkpt>
      <trkpt lat="45.9894" lon="6.47344">
        <ele>1571</ele>
        <time>2022-02-20T07:56:15Z</time>
      </trkpt>
      <trkpt lat="45.98941" lon="6.47346">
        <ele>1572</ele>
        <time>2022-02-20T07:56:19Z</time>
      </trkpt>
      <trkpt lat="45.98942" lon="6.47348">
        <ele>1572</ele>
        <time>2022-02-20T07:56:21Z</time>
      </trkpt>
      <trkpt lat="45.98944" lon="6.4735">
        <ele>1572</ele>
        <time>2022-02-20T07:56:24Z</time>
      </trkpt>
      <trkpt lat="45.98945" lon="6.47352">
        <ele>1573</ele>
        <time>2022-02-20T07:56:27Z</time>
      </trkpt>
      <trkpt lat="45.98946" lon="6.47354">
        <ele>1573</ele>
        <time>2022-02-20T07:56:31Z</time>
      </trkpt>
      <trkpt lat="45.98948" lon="6.47356">
        <ele>1574</ele>
        <time>2022-02-20T07:56:33Z</time>
      </trkpt>
      <trkpt lat="45.98948" lon="6.47359">
        <ele>1575</ele>
        <time>2022-02-20T07:56:36Z</time>
      </trkpt>
      <trkpt lat="45.98949" lon="6.47361">
        <ele>1576</ele>
        <time>2022-02-20T07:56:43Z</time>
      </trkpt>
      <trkpt lat="45.98951" lon="6.47364">
        <ele>1577</ele>
        <time>2022-02-20T07:56:45Z</time>
      </trkpt>
      <trkpt lat="45.98953" lon="6.47365">
        <ele>1577</ele>
        <time>2022-02-20T07:56:48Z</time>
      </trkpt>
      <trkpt lat="45.98955" lon="6.47366">
        <ele>1577</ele>
        <time>2022-02-20T07:56:50Z</time>
      </trkpt>
      <trkpt lat="45.98957" lon="6.47366">
        <ele>1577</ele>
        <time>2022-02-20T07:56:54Z</time>
      </trkpt>
      <trkpt lat="45.9896" lon="6.47366">
        <ele>1577</ele>
        <time>2022-02-20T07:56:59Z</time>
      </trkpt>
      <trkpt lat="45.98962" lon="6.47366">
        <ele>1577</ele>
        <time>2022-02-20T07:57:02Z</time>
      </trkpt>
      <trkpt lat="45.98964" lon="6.47365">
        <ele>1577</ele>
        <time>2022-02-20T07:57:04Z</time>
      </trkpt>
      <trkpt lat="45.98967" lon="6.47365">
        <ele>1578</ele>
        <time>2022-02-20T07:57:09Z</time>
      </trkpt>
      <trkpt lat="45.98969" lon="6.47366">
        <ele>1578</ele>
        <time>2022-02-20T07:57:12Z</time>
      </trkpt>
      <trkpt lat="45.98971" lon="6.47366">
        <ele>1579</ele>
        <time>2022-02-20T07:57:14Z</time>
      </trkpt>
      <trkpt lat="45.98974" lon="6.47366">
        <ele>1580</ele>
        <time>2022-02-20T07:57:18Z</time>
      </trkpt>
      <trkpt lat="45.98976" lon="6.47366">
        <ele>1580</ele>
        <time>2022-02-20T07:57:20Z</time>
      </trkpt>
      <trkpt lat="45.98978" lon="6.47366">
        <ele>1580</ele>
        <time>2022-02-20T07:57:26Z</time>
      </trkpt>
      <trkpt lat="45.9898" lon="6.47365">
        <ele>1580</ele>
        <time>2022-02-20T07:57:29Z</time>
      </trkpt>
      <trkpt lat="45.98982" lon="6.47365">
        <ele>1581</ele>
        <time>2022-02-20T07:57:31Z</time>
      </trkpt>
      <trkpt lat="45.98984" lon="6.47364">
        <ele>1581</ele>
        <time>2022-02-20T07:57:33Z</time>
      </trkpt>
      <trkpt lat="45.98986" lon="6.47364">
        <ele>1581</ele>
        <time>2022-02-20T07:57:37Z</time>
      </trkpt>
      <trkpt lat="45.98988" lon="6.47362">
        <ele>1581</ele>
        <time>2022-02-20T07:57:40Z</time>
      </trkpt>
      <trkpt lat="45.9899" lon="6.47361">
        <ele>1582</ele>
        <time>2022-02-20T07:57:42Z</time>
      </trkpt>
      <trkpt lat="45.98992" lon="6.4736">
        <ele>1582</ele>
        <time>2022-02-20T07:57:45Z</time>
      </trkpt>
      <trkpt lat="45.98994" lon="6.4736">
        <ele>1582</ele>
        <time>2022-02-20T07:57:49Z</time>
      </trkpt>
      <trkpt lat="45.98996" lon="6.47361">
        <ele>1582</ele>
        <time>2022-02-20T07:57:51Z</time>
      </trkpt>
      <trkpt lat="45.98998" lon="6.47362">
        <ele>1583</ele>
        <time>2022-02-20T07:57:55Z</time>
      </trkpt>
      <trkpt lat="45.98999" lon="6.47363">
        <ele>1584</ele>
        <time>2022-02-20T07:57:57Z</time>
      </trkpt>
      <trkpt lat="45.99001" lon="6.47365">
        <ele>1584</ele>
        <time>2022-02-20T07:58:01Z</time>
      </trkpt>
      <trkpt lat="45.99003" lon="6.47367">
        <ele>1585</ele>
        <time>2022-02-20T07:58:04Z</time>
      </trkpt>
      <trkpt lat="45.99004" lon="6.47368">
        <ele>1585</ele>
        <time>2022-02-20T07:58:06Z</time>
      </trkpt>
      <trkpt lat="45.99007" lon="6.47368">
        <ele>1585</ele>
        <time>2022-02-20T07:58:09Z</time>
      </trkpt>
      <trkpt lat="45.99009" lon="6.47368">
        <ele>1586</ele>
        <time>2022-02-20T07:58:14Z</time>
      </trkpt>
      <trkpt lat="45.99012" lon="6.47367">
        <ele>1586</ele>
        <time>2022-02-20T07:58:17Z</time>
      </trkpt>
      <trkpt lat="45.99014" lon="6.47367">
        <ele>1587</ele>
        <time>2022-02-20T07:58:19Z</time>
      </trkpt>
      <trkpt lat="45.99016" lon="6.47366">
        <ele>1588</ele>
        <time>2022-02-20T07:58:22Z</time>
      </trkpt>
      <trkpt lat="45.99017" lon="6.47367">
        <ele>1588</ele>
        <time>2022-02-20T07:58:24Z</time>
      </trkpt>
      <trkpt lat="45.9902" lon="6.47369">
        <ele>1588</ele>
        <time>2022-02-20T07:58:27Z</time>
      </trkpt>
      <trkpt lat="45.99022" lon="6.4737">
        <ele>1588</ele>
        <time>2022-02-20T07:58:31Z</time>
      </trkpt>
      <trkpt lat="45.99024" lon="6.4737">
        <ele>1589</ele>
        <time>2022-02-20T07:58:34Z</time>
      </trkpt>
      <trkpt lat="45.99026" lon="6.47372">
        <ele>1590</ele>
        <time>2022-02-20T07:58:37Z</time>
      </trkpt>
      <trkpt lat="45.99028" lon="6.47373">
        <ele>1590</ele>
        <time>2022-02-20T07:58:40Z</time>
      </trkpt>
      <trkpt lat="45.99029" lon="6.47375">
        <ele>1590</ele>
        <time>2022-02-20T07:58:42Z</time>
      </trkpt>
      <trkpt lat="45.99031" lon="6.47377">
        <ele>1590</ele>
        <time>2022-02-20T07:58:45Z</time>
      </trkpt>
      <trkpt lat="45.99033" lon="6.47379">
        <ele>1590</ele>
        <time>2022-02-20T07:58:48Z</time>
      </trkpt>
      <trkpt lat="45.99035" lon="6.4738">
        <ele>1591</ele>
        <time>2022-02-20T07:58:52Z</time>
      </trkpt>
      <trkpt lat="45.99038" lon="6.47378">
        <ele>1591</ele>
        <time>2022-02-20T07:58:53Z</time>
      </trkpt>
      <trkpt lat="45.9904" lon="6.47377">
        <ele>1591</ele>
        <time>2022-02-20T07:58:57Z</time>
      </trkpt>
      <trkpt lat="45.99042" lon="6.47378">
        <ele>1593</ele>
        <time>2022-02-20T07:59:03Z</time>
      </trkpt>
      <trkpt lat="45.99045" lon="6.47378">
        <ele>1594</ele>
        <time>2022-02-20T07:59:06Z</time>
      </trkpt>
      <trkpt lat="45.99047" lon="6.47379">
        <ele>1594</ele>
        <time>2022-02-20T07:59:09Z</time>
      </trkpt>
      <trkpt lat="45.99049" lon="6.47381">
        <ele>1594</ele>
        <time>2022-02-20T07:59:12Z</time>
      </trkpt>
      <trkpt lat="45.99051" lon="6.47382">
        <ele>1595</ele>
        <time>2022-02-20T07:59:15Z</time>
      </trkpt>
      <trkpt lat="45.99052" lon="6.47383">
        <ele>1595</ele>
        <time>2022-02-20T07:59:17Z</time>
      </trkpt>
      <trkpt lat="45.99053" lon="6.47386">
        <ele>1595</ele>
        <time>2022-02-20T07:59:20Z</time>
      </trkpt>
      <trkpt lat="45.99055" lon="6.47388">
        <ele>1595</ele>
        <time>2022-02-20T07:59:23Z</time>
      </trkpt>
      <trkpt lat="45.99056" lon="6.4739">
        <ele>1596</ele>
        <time>2022-02-20T07:59:27Z</time>
      </trkpt>
      <trkpt lat="45.99058" lon="6.47392">
        <ele>1596</ele>
        <time>2022-02-20T07:59:29Z</time>
      </trkpt>
      <trkpt lat="45.99059" lon="6.47395">
        <ele>1597</ele>
        <time>2022-02-20T07:59:33Z</time>
      </trkpt>
      <trkpt lat="45.9906" lon="6.47397">
        <ele>1597</ele>
        <time>2022-02-20T07:59:35Z</time>
      </trkpt>
      <trkpt lat="45.99061" lon="6.474">
        <ele>1597</ele>
        <time>2022-02-20T07:59:39Z</time>
      </trkpt>
      <trkpt lat="45.99063" lon="6.47402">
        <ele>1599</ele>
        <time>2022-02-20T07:59:43Z</time>
      </trkpt>
      <trkpt lat="45.99064" lon="6.47404">
        <ele>1599</ele>
        <time>2022-02-20T07:59:46Z</time>
      </trkpt>
      <trkpt lat="45.99066" lon="6.47406">
        <ele>1599</ele>
        <time>2022-02-20T07:59:48Z</time>
      </trkpt>
      <trkpt lat="45.99068" lon="6.47408">
        <ele>1599</ele>
        <time>2022-02-20T07:59:52Z</time>
      </trkpt>
      <trkpt lat="45.99069" lon="6.4741">
        <ele>1599</ele>
        <time>2022-02-20T07:59:55Z</time>
      </trkpt>
      <trkpt lat="45.99071" lon="6.47412">
        <ele>1599</ele>
        <time>2022-02-20T07:59:58Z</time>
      </trkpt>
      <trkpt lat="45.99073" lon="6.47414">
        <ele>1599</ele>
        <time>2022-02-20T08:00:02Z</time>
      </trkpt>
      <trkpt lat="45.99075" lon="6.47416">
        <ele>1599</ele>
        <time>2022-02-20T08:00:05Z</time>
      </trkpt>
      <trkpt lat="45.99077" lon="6.47418">
        <ele>1600</ele>
        <time>2022-02-20T08:00:08Z</time>
      </trkpt>
      <trkpt lat="45.99079" lon="6.4742">
        <ele>1600</ele>
        <time>2022-02-20T08:00:11Z</time>
      </trkpt>
      <trkpt lat="45.99081" lon="6.47423">
        <ele>1600</ele>
        <time>2022-02-20T08:00:14Z</time>
      </trkpt>
      <trkpt lat="45.99082" lon="6.47425">
        <ele>1600</ele>
        <time>2022-02-20T08:00:16Z</time>
      </trkpt>
      <trkpt lat="45.99084" lon="6.47427">
        <ele>1600</ele>
        <time>2022-02-20T08:00:20Z</time>
      </trkpt>
      <trkpt lat="45.99086" lon="6.47429">
        <ele>1601</ele>
        <time>2022-02-20T08:00:22Z</time>
      </trkpt>
      <trkpt lat="45.99088" lon="6.47431">
        <ele>1601</ele>
        <time>2022-02-20T08:00:26Z</time>
      </trkpt>
      <trkpt lat="45.9909" lon="6.47433">
        <ele>1601</ele>
        <time>2022-02-20T08:00:31Z</time>
      </trkpt>
      <trkpt lat="45.99092" lon="6.47435">
        <ele>1601</ele>
        <time>2022-02-20T08:00:33Z</time>
      </trkpt>
      <trkpt lat="45.99093" lon="6.47437">
        <ele>1601</ele>
        <time>2022-02-20T08:00:36Z</time>
      </trkpt>
      <trkpt lat="45.99095" lon="6.47439">
        <ele>1602</ele>
        <time>2022-02-20T08:00:39Z</time>
      </trkpt>
      <trkpt lat="45.99097" lon="6.47441">
        <ele>1602</ele>
        <time>2022-02-20T08:00:42Z</time>
      </trkpt>
      <trkpt lat="45.99099" lon="6.47442">
        <ele>1602</ele>
        <time>2022-02-20T08:00:46Z</time>
      </trkpt>
      <trkpt lat="45.99101" lon="6.47445">
        <ele>1603</ele>
        <time>2022-02-20T08:00:49Z</time>
      </trkpt>
      <trkpt lat="45.99102" lon="6.47446">
        <ele>1603</ele>
        <time>2022-02-20T08:00:52Z</time>
      </trkpt>
      <trkpt lat="45.99104" lon="6.47448">
        <ele>1603</ele>
        <time>2022-02-20T08:00:54Z</time>
      </trkpt>
      <trkpt lat="45.99106" lon="6.4745">
        <ele>1603</ele>
        <time>2022-02-20T08:00:57Z</time>
      </trkpt>
      <trkpt lat="45.99109" lon="6.47451">
        <ele>1603</ele>
        <time>2022-02-20T08:01:00Z</time>
      </trkpt>
      <trkpt lat="45.99111" lon="6.47453">
        <ele>1604</ele>
        <time>2022-02-20T08:01:04Z</time>
      </trkpt>
      <trkpt lat="45.99113" lon="6.47455">
        <ele>1604</ele>
        <time>2022-02-20T08:01:08Z</time>
      </trkpt>
      <trkpt lat="45.99115" lon="6.47456">
        <ele>1604</ele>
        <time>2022-02-20T08:01:10Z</time>
      </trkpt>
      <trkpt lat="45.99116" lon="6.47458">
        <ele>1605</ele>
        <time>2022-02-20T08:01:13Z</time>
      </trkpt>
      <trkpt lat="45.99119" lon="6.4746">
        <ele>1605</ele>
        <time>2022-02-20T08:01:16Z</time>
      </trkpt>
      <trkpt lat="45.9912" lon="6.47461">
        <ele>1605</ele>
        <time>2022-02-20T08:01:20Z</time>
      </trkpt>
      <trkpt lat="45.99122" lon="6.47463">
        <ele>1605</ele>
        <time>2022-02-20T08:01:24Z</time>
      </trkpt>
      <trkpt lat="45.99124" lon="6.47465">
        <ele>1605</ele>
        <time>2022-02-20T08:01:26Z</time>
      </trkpt>
      <trkpt lat="45.99126" lon="6.47466">
        <ele>1606</ele>
        <time>2022-02-20T08:01:29Z</time>
      </trkpt>
      <trkpt lat="45.99128" lon="6.47468">
        <ele>1606</ele>
        <time>2022-02-20T08:01:33Z</time>
      </trkpt>
      <trkpt lat="45.9913" lon="6.47469">
        <ele>1606</ele>
        <time>2022-02-20T08:01:35Z</time>
      </trkpt>
      <trkpt lat="45.99132" lon="6.47471">
        <ele>1607</ele>
        <time>2022-02-20T08:01:39Z</time>
      </trkpt>
      <trkpt lat="45.99134" lon="6.47472">
        <ele>1607</ele>
        <time>2022-02-20T08:01:41Z</time>
      </trkpt>
      <trkpt lat="45.99136" lon="6.47473">
        <ele>1608</ele>
        <time>2022-02-20T08:01:45Z</time>
      </trkpt>
      <trkpt lat="45.99138" lon="6.47475">
        <ele>1608</ele>
        <time>2022-02-20T08:01:48Z</time>
      </trkpt>
      <trkpt lat="45.9914" lon="6.47476">
        <ele>1608</ele>
        <time>2022-02-20T08:01:51Z</time>
      </trkpt>
      <trkpt lat="45.99142" lon="6.47478">
        <ele>1608</ele>
        <time>2022-02-20T08:01:53Z</time>
      </trkpt>
      <trkpt lat="45.99145" lon="6.47479">
        <ele>1608</ele>
        <time>2022-02-20T08:01:57Z</time>
      </trkpt>
      <trkpt lat="45.99146" lon="6.4748">
        <ele>1608</ele>
        <time>2022-02-20T08:01:59Z</time>
      </trkpt>
      <trkpt lat="45.99149" lon="6.47482">
        <ele>1608</ele>
        <time>2022-02-20T08:02:02Z</time>
      </trkpt>
      <trkpt lat="45.99151" lon="6.47483">
        <ele>1608</ele>
        <time>2022-02-20T08:02:05Z</time>
      </trkpt>
      <trkpt lat="45.99153" lon="6.47484">
        <ele>1609</ele>
        <time>2022-02-20T08:02:07Z</time>
      </trkpt>
      <trkpt lat="45.99155" lon="6.47485">
        <ele>1610</ele>
        <time>2022-02-20T08:02:11Z</time>
      </trkpt>
      <trkpt lat="45.99157" lon="6.47487">
        <ele>1610</ele>
        <time>2022-02-20T08:02:14Z</time>
      </trkpt>
      <trkpt lat="45.99159" lon="6.47488">
        <ele>1610</ele>
        <time>2022-02-20T08:02:16Z</time>
      </trkpt>
      <trkpt lat="45.99161" lon="6.47489">
        <ele>1611</ele>
        <time>2022-02-20T08:02:20Z</time>
      </trkpt>
      <trkpt lat="45.99163" lon="6.4749">
        <ele>1611</ele>
        <time>2022-02-20T08:02:22Z</time>
      </trkpt>
      <trkpt lat="45.99166" lon="6.4749">
        <ele>1612</ele>
        <time>2022-02-20T08:02:25Z</time>
      </trkpt>
      <trkpt lat="45.99168" lon="6.47491">
        <ele>1612</ele>
        <time>2022-02-20T08:02:29Z</time>
      </trkpt>
      <trkpt lat="45.99169" lon="6.47492">
        <ele>1613</ele>
        <time>2022-02-20T08:02:32Z</time>
      </trkpt>
      <trkpt lat="45.99171" lon="6.47494">
        <ele>1614</ele>
        <time>2022-02-20T08:02:35Z</time>
      </trkpt>
      <trkpt lat="45.99173" lon="6.47495">
        <ele>1615</ele>
        <time>2022-02-20T08:02:38Z</time>
      </trkpt>
      <trkpt lat="45.99175" lon="6.47496">
        <ele>1615</ele>
        <time>2022-02-20T08:02:41Z</time>
      </trkpt>
      <trkpt lat="45.99177" lon="6.47496">
        <ele>1615</ele>
        <time>2022-02-20T08:02:43Z</time>
      </trkpt>
      <trkpt lat="45.99179" lon="6.47497">
        <ele>1616</ele>
        <time>2022-02-20T08:02:46Z</time>
      </trkpt>
      <trkpt lat="45.99181" lon="6.47498">
        <ele>1616</ele>
        <time>2022-02-20T08:02:49Z</time>
      </trkpt>
      <trkpt lat="45.99183" lon="6.47499">
        <ele>1616</ele>
        <time>2022-02-20T08:02:51Z</time>
      </trkpt>
      <trkpt lat="45.99185" lon="6.47499">
        <ele>1617</ele>
        <time>2022-02-20T08:02:55Z</time>
      </trkpt>
      <trkpt lat="45.99187" lon="6.475">
        <ele>1618</ele>
        <time>2022-02-20T08:02:58Z</time>
      </trkpt>
      <trkpt lat="45.99189" lon="6.47502">
        <ele>1617</ele>
        <time>2022-02-20T08:03:00Z</time>
      </trkpt>
      <trkpt lat="45.99191" lon="6.47503">
        <ele>1618</ele>
        <time>2022-02-20T08:03:03Z</time>
      </trkpt>
      <trkpt lat="45.99193" lon="6.47505">
        <ele>1618</ele>
        <time>2022-02-20T08:03:06Z</time>
      </trkpt>
      <trkpt lat="45.99195" lon="6.47507">
        <ele>1618</ele>
        <time>2022-02-20T08:03:10Z</time>
      </trkpt>
      <trkpt lat="45.99197" lon="6.47509">
        <ele>1619</ele>
        <time>2022-02-20T08:03:13Z</time>
      </trkpt>
      <trkpt lat="45.99199" lon="6.47511">
        <ele>1619</ele>
        <time>2022-02-20T08:03:16Z</time>
      </trkpt>
      <trkpt lat="45.992" lon="6.47513">
        <ele>1619</ele>
        <time>2022-02-20T08:03:18Z</time>
      </trkpt>
      <trkpt lat="45.99202" lon="6.47516">
        <ele>1619</ele>
        <time>2022-02-20T08:03:22Z</time>
      </trkpt>
      <trkpt lat="45.99203" lon="6.47519">
        <ele>1619</ele>
        <time>2022-02-20T08:03:25Z</time>
      </trkpt>
      <trkpt lat="45.99204" lon="6.47522">
        <ele>1619</ele>
        <time>2022-02-20T08:03:27Z</time>
      </trkpt>
      <trkpt lat="45.99205" lon="6.47524">
        <ele>1619</ele>
        <time>2022-02-20T08:03:29Z</time>
      </trkpt>
      <trkpt lat="45.99207" lon="6.47526">
        <ele>1619</ele>
        <time>2022-02-20T08:03:32Z</time>
      </trkpt>
      <trkpt lat="45.99208" lon="6.47529">
        <ele>1619</ele>
        <time>2022-02-20T08:03:34Z</time>
      </trkpt>
      <trkpt lat="45.9921" lon="6.47532">
        <ele>1620</ele>
        <time>2022-02-20T08:03:37Z</time>
      </trkpt>
      <trkpt lat="45.99212" lon="6.47535">
        <ele>1620</ele>
        <time>2022-02-20T08:03:41Z</time>
      </trkpt>
      <trkpt lat="45.99214" lon="6.47537">
        <ele>1620</ele>
        <time>2022-02-20T08:03:43Z</time>
      </trkpt>
      <trkpt lat="45.99214" lon="6.4754">
        <ele>1620</ele>
        <time>2022-02-20T08:03:54Z</time>
      </trkpt>
      <trkpt lat="45.99213" lon="6.47542">
        <ele>1619</ele>
        <time>2022-02-20T08:04:45Z</time>
      </trkpt>
      <trkpt lat="45.99212" lon="6.47544">
        <ele>1619</ele>
        <time>2022-02-20T08:05:09Z</time>
      </trkpt>
      <trkpt lat="45.99213" lon="6.47542">
        <ele>1620</ele>
        <time>2022-02-20T08:05:35Z</time>
      </trkpt>
      <trkpt lat="45.99215" lon="6.47541">
        <ele>1619</ele>
        <time>2022-02-20T08:06:16Z</time>
      </trkpt>
      <trkpt lat="45.99217" lon="6.4754">
        <ele>1619</ele>
        <time>2022-02-20T08:06:33Z</time>
      </trkpt>
      <trkpt lat="45.99219" lon="6.47539">
        <ele>1619</ele>
        <time>2022-02-20T08:06:54Z</time>
      </trkpt>
      <trkpt lat="45.99217" lon="6.47539">
        <ele>1619</ele>
        <time>2022-02-20T08:07:42Z</time>
      </trkpt>
      <trkpt lat="45.99219" lon="6.4754">
        <ele>1619</ele>
        <time>2022-02-20T08:07:48Z</time>
      </trkpt>
      <trkpt lat="45.99221" lon="6.4754">
        <ele>1620</ele>
        <time>2022-02-20T08:07:53Z</time>
      </trkpt>
      <trkpt lat="45.99222" lon="6.47537">
        <ele>1619</ele>
        <time>2022-02-20T08:07:56Z</time>
      </trkpt>
      <trkpt lat="45.99224" lon="6.47534">
        <ele>1619</ele>
        <time>2022-02-20T08:07:59Z</time>
      </trkpt>
      <trkpt lat="45.99224" lon="6.47531">
        <ele>1620</ele>
        <time>2022-02-20T08:08:02Z</time>
      </trkpt>
      <trkpt lat="45.99225" lon="6.47529">
        <ele>1620</ele>
        <time>2022-02-20T08:08:05Z</time>
      </trkpt>
      <trkpt lat="45.99226" lon="6.47526">
        <ele>1620</ele>
        <time>2022-02-20T08:08:08Z</time>
      </trkpt>
      <trkpt lat="45.99227" lon="6.47523">
        <ele>1621</ele>
        <time>2022-02-20T08:08:10Z</time>
      </trkpt>
      <trkpt lat="45.99227" lon="6.47519">
        <ele>1622</ele>
        <time>2022-02-20T08:08:14Z</time>
      </trkpt>
      <trkpt lat="45.99227" lon="6.47516">
        <ele>1622</ele>
        <time>2022-02-20T08:08:17Z</time>
      </trkpt>
      <trkpt lat="45.99227" lon="6.47513">
        <ele>1622</ele>
        <time>2022-02-20T08:08:20Z</time>
      </trkpt>
      <trkpt lat="45.99227" lon="6.4751">
        <ele>1622</ele>
        <time>2022-02-20T08:08:22Z</time>
      </trkpt>
      <trkpt lat="45.99228" lon="6.47507">
        <ele>1623</ele>
        <time>2022-02-20T08:08:26Z</time>
      </trkpt>
      <trkpt lat="45.99228" lon="6.47504">
        <ele>1623</ele>
        <time>2022-02-20T08:08:28Z</time>
      </trkpt>
      <trkpt lat="45.99227" lon="6.47501">
        <ele>1623</ele>
        <time>2022-02-20T08:08:31Z</time>
      </trkpt>
      <trkpt lat="45.99227" lon="6.47498">
        <ele>1623</ele>
        <time>2022-02-20T08:08:34Z</time>
      </trkpt>
      <trkpt lat="45.99227" lon="6.47495">
        <ele>1624</ele>
        <time>2022-02-20T08:08:38Z</time>
      </trkpt>
      <trkpt lat="45.99227" lon="6.47492">
        <ele>1624</ele>
        <time>2022-02-20T08:08:41Z</time>
      </trkpt>
      <trkpt lat="45.99226" lon="6.47489">
        <ele>1625</ele>
        <time>2022-02-20T08:08:44Z</time>
      </trkpt>
      <trkpt lat="45.99226" lon="6.47486">
        <ele>1625</ele>
        <time>2022-02-20T08:08:47Z</time>
      </trkpt>
      <trkpt lat="45.99226" lon="6.47483">
        <ele>1626</ele>
        <time>2022-02-20T08:08:50Z</time>
      </trkpt>
      <trkpt lat="45.99226" lon="6.4748">
        <ele>1626</ele>
        <time>2022-02-20T08:08:52Z</time>
      </trkpt>
      <trkpt lat="45.99225" lon="6.47477">
        <ele>1626</ele>
        <time>2022-02-20T08:08:55Z</time>
      </trkpt>
      <trkpt lat="45.99225" lon="6.47474">
        <ele>1626</ele>
        <time>2022-02-20T08:08:58Z</time>
      </trkpt>
      <trkpt lat="45.99224" lon="6.47471">
        <ele>1627</ele>
        <time>2022-02-20T08:09:03Z</time>
      </trkpt>
      <trkpt lat="45.99224" lon="6.47468">
        <ele>1627</ele>
        <time>2022-02-20T08:09:06Z</time>
      </trkpt>
      <trkpt lat="45.99223" lon="6.47465">
        <ele>1627</ele>
        <time>2022-02-20T08:09:09Z</time>
      </trkpt>
      <trkpt lat="45.99223" lon="6.47463">
        <ele>1628</ele>
        <time>2022-02-20T08:09:11Z</time>
      </trkpt>
      <trkpt lat="45.99225" lon="6.4746">
        <ele>1628</ele>
        <time>2022-02-20T08:09:18Z</time>
      </trkpt>
      <trkpt lat="45.99227" lon="6.4746">
        <ele>1628</ele>
        <time>2022-02-20T08:09:22Z</time>
      </trkpt>
      <trkpt lat="45.99228" lon="6.47462">
        <ele>1629</ele>
        <time>2022-02-20T08:09:26Z</time>
      </trkpt>
      <trkpt lat="45.99229" lon="6.47465">
        <ele>1629</ele>
        <time>2022-02-20T08:09:28Z</time>
      </trkpt>
      <trkpt lat="45.99231" lon="6.47467">
        <ele>1630</ele>
        <time>2022-02-20T08:09:33Z</time>
      </trkpt>
      <trkpt lat="45.99232" lon="6.4747">
        <ele>1630</ele>
        <time>2022-02-20T08:09:35Z</time>
      </trkpt>
      <trkpt lat="45.99233" lon="6.47472">
        <ele>1630</ele>
        <time>2022-02-20T08:09:38Z</time>
      </trkpt>
      <trkpt lat="45.99234" lon="6.47475">
        <ele>1630</ele>
        <time>2022-02-20T08:09:42Z</time>
      </trkpt>
      <trkpt lat="45.99236" lon="6.47478">
        <ele>1631</ele>
        <time>2022-02-20T08:09:46Z</time>
      </trkpt>
      <trkpt lat="45.99238" lon="6.4748">
        <ele>1632</ele>
        <time>2022-02-20T08:09:49Z</time>
      </trkpt>
      <trkpt lat="45.99238" lon="6.47483">
        <ele>1632</ele>
        <time>2022-02-20T08:09:52Z</time>
      </trkpt>
      <trkpt lat="45.9924" lon="6.47486">
        <ele>1632</ele>
        <time>2022-02-20T08:09:56Z</time>
      </trkpt>
      <trkpt lat="45.99241" lon="6.47488">
        <ele>1633</ele>
        <time>2022-02-20T08:09:59Z</time>
      </trkpt>
      <trkpt lat="45.99242" lon="6.4749">
        <ele>1633</ele>
        <time>2022-02-20T08:10:02Z</time>
      </trkpt>
      <trkpt lat="45.99243" lon="6.47493">
        <ele>1634</ele>
        <time>2022-02-20T08:10:21Z</time>
      </trkpt>
      <trkpt lat="45.99244" lon="6.47491">
        <ele>1634</ele>
        <time>2022-02-20T08:10:25Z</time>
      </trkpt>
      <trkpt lat="45.99246" lon="6.47491">
        <ele>1634</ele>
        <time>2022-02-20T08:10:36Z</time>
      </trkpt>
      <trkpt lat="45.99248" lon="6.4749">
        <ele>1635</ele>
        <time>2022-02-20T08:10:44Z</time>
      </trkpt>
      <trkpt lat="45.99248" lon="6.47493">
        <ele>1634</ele>
        <time>2022-02-20T08:11:05Z</time>
      </trkpt>
      <trkpt lat="45.99247" lon="6.4749">
        <ele>1634</ele>
        <time>2022-02-20T08:11:30Z</time>
      </trkpt>
      <trkpt lat="45.99246" lon="6.47492">
        <ele>1634</ele>
        <time>2022-02-20T08:11:59Z</time>
      </trkpt>
      <trkpt lat="45.99244" lon="6.47491">
        <ele>1634</ele>
        <time>2022-02-20T08:12:13Z</time>
      </trkpt>
      <trkpt lat="45.99244" lon="6.47488">
        <ele>1634</ele>
        <time>2022-02-20T08:12:56Z</time>
      </trkpt>
      <trkpt lat="45.99246" lon="6.47486">
        <ele>1633</ele>
        <time>2022-02-20T08:13:02Z</time>
      </trkpt>
      <trkpt lat="45.99247" lon="6.47488">
        <ele>1633</ele>
        <time>2022-02-20T08:13:15Z</time>
      </trkpt>
      <trkpt lat="45.99246" lon="6.47491">
        <ele>1633</ele>
        <time>2022-02-20T08:13:17Z</time>
      </trkpt>
      <trkpt lat="45.99244" lon="6.47494">
        <ele>1633</ele>
        <time>2022-02-20T08:13:20Z</time>
      </trkpt>
      <trkpt lat="45.99245" lon="6.47497">
        <ele>1633</ele>
        <time>2022-02-20T08:13:30Z</time>
      </trkpt>
      <trkpt lat="45.99247" lon="6.47498">
        <ele>1633</ele>
        <time>2022-02-20T08:13:33Z</time>
      </trkpt>
      <trkpt lat="45.99249" lon="6.47498">
        <ele>1633</ele>
        <time>2022-02-20T08:13:36Z</time>
      </trkpt>
      <trkpt lat="45.99247" lon="6.47498">
        <ele>1634</ele>
        <time>2022-02-20T08:13:46Z</time>
      </trkpt>
      <trkpt lat="45.99249" lon="6.47499">
        <ele>1634</ele>
        <time>2022-02-20T08:13:52Z</time>
      </trkpt>
      <trkpt lat="45.99251" lon="6.475">
        <ele>1635</ele>
        <time>2022-02-20T08:13:54Z</time>
      </trkpt>
      <trkpt lat="45.99252" lon="6.47502">
        <ele>1635</ele>
        <time>2022-02-20T08:13:59Z</time>
      </trkpt>
      <trkpt lat="45.99253" lon="6.47505">
        <ele>1636</ele>
        <time>2022-02-20T08:14:04Z</time>
      </trkpt>
      <trkpt lat="45.99255" lon="6.47504">
        <ele>1637</ele>
        <time>2022-02-20T08:14:11Z</time>
      </trkpt>
      <trkpt lat="45.99257" lon="6.47506">
        <ele>1637</ele>
        <time>2022-02-20T08:14:13Z</time>
      </trkpt>
      <trkpt lat="45.99258" lon="6.47508">
        <ele>1637</ele>
        <time>2022-02-20T08:14:18Z</time>
      </trkpt>
      <trkpt lat="45.9926" lon="6.4751">
        <ele>1638</ele>
        <time>2022-02-20T08:14:21Z</time>
      </trkpt>
      <trkpt lat="45.99261" lon="6.47512">
        <ele>1638</ele>
        <time>2022-02-20T08:14:24Z</time>
      </trkpt>
      <trkpt lat="45.99262" lon="6.47515">
        <ele>1638</ele>
        <time>2022-02-20T08:14:29Z</time>
      </trkpt>
      <trkpt lat="45.99264" lon="6.47516">
        <ele>1638</ele>
        <time>2022-02-20T08:14:30Z</time>
      </trkpt>
      <trkpt lat="45.99266" lon="6.47519">
        <ele>1639</ele>
        <time>2022-02-20T08:14:33Z</time>
      </trkpt>
      <trkpt lat="45.99267" lon="6.47521">
        <ele>1639</ele>
        <time>2022-02-20T08:14:37Z</time>
      </trkpt>
      <trkpt lat="45.99268" lon="6.47524">
        <ele>1639</ele>
        <time>2022-02-20T08:14:40Z</time>
      </trkpt>
      <trkpt lat="45.99268" lon="6.47527">
        <ele>1640</ele>
        <time>2022-02-20T08:14:44Z</time>
      </trkpt>
      <trkpt lat="45.99268" lon="6.4753">
        <ele>1640</ele>
        <time>2022-02-20T08:14:46Z</time>
      </trkpt>
      <trkpt lat="45.9927" lon="6.47533">
        <ele>1640</ele>
        <time>2022-02-20T08:14:50Z</time>
      </trkpt>
      <trkpt lat="45.99272" lon="6.47534">
        <ele>1641</ele>
        <time>2022-02-20T08:14:53Z</time>
      </trkpt>
      <trkpt lat="45.99273" lon="6.47535">
        <ele>1642</ele>
        <time>2022-02-20T08:14:57Z</time>
      </trkpt>
      <trkpt lat="45.99275" lon="6.47536">
        <ele>1642</ele>
        <time>2022-02-20T08:15:00Z</time>
      </trkpt>
      <trkpt lat="45.99276" lon="6.47539">
        <ele>1643</ele>
        <time>2022-02-20T08:15:04Z</time>
      </trkpt>
      <trkpt lat="45.99277" lon="6.47541">
        <ele>1643</ele>
        <time>2022-02-20T08:15:08Z</time>
      </trkpt>
      <trkpt lat="45.99277" lon="6.47544">
        <ele>1643</ele>
        <time>2022-02-20T08:15:13Z</time>
      </trkpt>
      <trkpt lat="45.99279" lon="6.47546">
        <ele>1643</ele>
        <time>2022-02-20T08:15:16Z</time>
      </trkpt>
      <trkpt lat="45.9928" lon="6.47548">
        <ele>1643</ele>
        <time>2022-02-20T08:15:18Z</time>
      </trkpt>
      <trkpt lat="45.99282" lon="6.47549">
        <ele>1644</ele>
        <time>2022-02-20T08:15:22Z</time>
      </trkpt>
      <trkpt lat="45.99284" lon="6.47551">
        <ele>1644</ele>
        <time>2022-02-20T08:15:25Z</time>
      </trkpt>
      <trkpt lat="45.99285" lon="6.47553">
        <ele>1644</ele>
        <time>2022-02-20T08:15:29Z</time>
      </trkpt>
      <trkpt lat="45.99287" lon="6.47554">
        <ele>1644</ele>
        <time>2022-02-20T08:15:31Z</time>
      </trkpt>
      <trkpt lat="45.99288" lon="6.47556">
        <ele>1645</ele>
        <time>2022-02-20T08:15:35Z</time>
      </trkpt>
      <trkpt lat="45.9929" lon="6.47559">
        <ele>1645</ele>
        <time>2022-02-20T08:15:39Z</time>
      </trkpt>
      <trkpt lat="45.99291" lon="6.47561">
        <ele>1646</ele>
        <time>2022-02-20T08:15:42Z</time>
      </trkpt>
      <trkpt lat="45.99293" lon="6.47561">
        <ele>1647</ele>
        <time>2022-02-20T08:15:45Z</time>
      </trkpt>
      <trkpt lat="45.99295" lon="6.47563">
        <ele>1646</ele>
        <time>2022-02-20T08:15:50Z</time>
      </trkpt>
      <trkpt lat="45.99297" lon="6.47565">
        <ele>1646</ele>
        <time>2022-02-20T08:15:53Z</time>
      </trkpt>
      <trkpt lat="45.99299" lon="6.47566">
        <ele>1647</ele>
        <time>2022-02-20T08:15:55Z</time>
      </trkpt>
      <trkpt lat="45.993" lon="6.47569">
        <ele>1647</ele>
        <time>2022-02-20T08:15:59Z</time>
      </trkpt>
      <trkpt lat="45.99301" lon="6.47571">
        <ele>1648</ele>
        <time>2022-02-20T08:16:02Z</time>
      </trkpt>
      <trkpt lat="45.99302" lon="6.47574">
        <ele>1648</ele>
        <time>2022-02-20T08:16:04Z</time>
      </trkpt>
      <trkpt lat="45.99304" lon="6.47575">
        <ele>1648</ele>
        <time>2022-02-20T08:16:07Z</time>
      </trkpt>
      <trkpt lat="45.99304" lon="6.47578">
        <ele>1648</ele>
        <time>2022-02-20T08:16:12Z</time>
      </trkpt>
      <trkpt lat="45.99304" lon="6.47581">
        <ele>1649</ele>
        <time>2022-02-20T08:16:15Z</time>
      </trkpt>
      <trkpt lat="45.99305" lon="6.47584">
        <ele>1650</ele>
        <time>2022-02-20T08:16:18Z</time>
      </trkpt>
      <trkpt lat="45.99307" lon="6.47585">
        <ele>1650</ele>
        <time>2022-02-20T08:16:21Z</time>
      </trkpt>
      <trkpt lat="45.99308" lon="6.47587">
        <ele>1650</ele>
        <time>2022-02-20T08:16:25Z</time>
      </trkpt>
      <trkpt lat="45.9931" lon="6.47589">
        <ele>1651</ele>
        <time>2022-02-20T08:16:28Z</time>
      </trkpt>
      <trkpt lat="45.99312" lon="6.47591">
        <ele>1651</ele>
        <time>2022-02-20T08:16:30Z</time>
      </trkpt>
      <trkpt lat="45.99313" lon="6.47594">
        <ele>1652</ele>
        <time>2022-02-20T08:16:33Z</time>
      </trkpt>
      <trkpt lat="45.99315" lon="6.47596">
        <ele>1652</ele>
        <time>2022-02-20T08:16:36Z</time>
      </trkpt>
      <trkpt lat="45.99317" lon="6.47597">
        <ele>1652</ele>
        <time>2022-02-20T08:16:40Z</time>
      </trkpt>
      <trkpt lat="45.99318" lon="6.47604">
        <ele>1652</ele>
        <time>2022-02-20T08:16:48Z</time>
      </trkpt>
      <trkpt lat="45.99318" lon="6.47608">
        <ele>1653</ele>
        <time>2022-02-20T08:16:51Z</time>
      </trkpt>
      <trkpt lat="45.9932" lon="6.4761">
        <ele>1653</ele>
        <time>2022-02-20T08:16:54Z</time>
      </trkpt>
      <trkpt lat="45.99322" lon="6.47611">
        <ele>1655</ele>
        <time>2022-02-20T08:16:57Z</time>
      </trkpt>
      <trkpt lat="45.99323" lon="6.47614">
        <ele>1654</ele>
        <time>2022-02-20T08:17:02Z</time>
      </trkpt>
      <trkpt lat="45.99324" lon="6.47616">
        <ele>1655</ele>
        <time>2022-02-20T08:17:04Z</time>
      </trkpt>
      <trkpt lat="45.99326" lon="6.47617">
        <ele>1655</ele>
        <time>2022-02-20T08:17:08Z</time>
      </trkpt>
      <trkpt lat="45.99327" lon="6.4762">
        <ele>1657</ele>
        <time>2022-02-20T08:17:11Z</time>
      </trkpt>
      <trkpt lat="45.99329" lon="6.47621">
        <ele>1656</ele>
        <time>2022-02-20T08:17:15Z</time>
      </trkpt>
      <trkpt lat="45.99331" lon="6.47624">
        <ele>1656</ele>
        <time>2022-02-20T08:17:19Z</time>
      </trkpt>
      <trkpt lat="45.99332" lon="6.47626">
        <ele>1656</ele>
        <time>2022-02-20T08:17:22Z</time>
      </trkpt>
      <trkpt lat="45.99334" lon="6.47629">
        <ele>1657</ele>
        <time>2022-02-20T08:17:27Z</time>
      </trkpt>
      <trkpt lat="45.99335" lon="6.47631">
        <ele>1657</ele>
        <time>2022-02-20T08:17:29Z</time>
      </trkpt>
      <trkpt lat="45.99336" lon="6.47633">
        <ele>1658</ele>
        <time>2022-02-20T08:17:33Z</time>
      </trkpt>
      <trkpt lat="45.99337" lon="6.47635">
        <ele>1658</ele>
        <time>2022-02-20T08:17:35Z</time>
      </trkpt>
      <trkpt lat="45.99338" lon="6.47638">
        <ele>1659</ele>
        <time>2022-02-20T08:17:39Z</time>
      </trkpt>
      <trkpt lat="45.9934" lon="6.47639">
        <ele>1660</ele>
        <time>2022-02-20T08:17:42Z</time>
      </trkpt>
      <trkpt lat="45.99341" lon="6.47641">
        <ele>1660</ele>
        <time>2022-02-20T08:17:46Z</time>
      </trkpt>
      <trkpt lat="45.99343" lon="6.47644">
        <ele>1661</ele>
        <time>2022-02-20T08:17:50Z</time>
      </trkpt>
      <trkpt lat="45.99344" lon="6.47646">
        <ele>1661</ele>
        <time>2022-02-20T08:17:53Z</time>
      </trkpt>
      <trkpt lat="45.99345" lon="6.47649">
        <ele>1661</ele>
        <time>2022-02-20T08:17:56Z</time>
      </trkpt>
      <trkpt lat="45.99346" lon="6.47651">
        <ele>1662</ele>
        <time>2022-02-20T08:18:00Z</time>
      </trkpt>
      <trkpt lat="45.99348" lon="6.47654">
        <ele>1662</ele>
        <time>2022-02-20T08:18:03Z</time>
      </trkpt>
      <trkpt lat="45.9935" lon="6.47655">
        <ele>1663</ele>
        <time>2022-02-20T08:18:08Z</time>
      </trkpt>
      <trkpt lat="45.99352" lon="6.47656">
        <ele>1663</ele>
        <time>2022-02-20T08:18:12Z</time>
      </trkpt>
      <trkpt lat="45.99353" lon="6.47658">
        <ele>1664</ele>
        <time>2022-02-20T08:18:15Z</time>
      </trkpt>
      <trkpt lat="45.99354" lon="6.47661">
        <ele>1664</ele>
        <time>2022-02-20T08:18:20Z</time>
      </trkpt>
      <trkpt lat="45.99355" lon="6.47664">
        <ele>1665</ele>
        <time>2022-02-20T08:18:23Z</time>
      </trkpt>
      <trkpt lat="45.99356" lon="6.47666">
        <ele>1665</ele>
        <time>2022-02-20T08:18:25Z</time>
      </trkpt>
      <trkpt lat="45.99358" lon="6.47667">
        <ele>1666</ele>
        <time>2022-02-20T08:18:29Z</time>
      </trkpt>
      <trkpt lat="45.9936" lon="6.47668">
        <ele>1666</ele>
        <time>2022-02-20T08:18:33Z</time>
      </trkpt>
      <trkpt lat="45.99361" lon="6.4767">
        <ele>1666</ele>
        <time>2022-02-20T08:18:37Z</time>
      </trkpt>
      <trkpt lat="45.99363" lon="6.47672">
        <ele>1666</ele>
        <time>2022-02-20T08:18:41Z</time>
      </trkpt>
      <trkpt lat="45.99364" lon="6.47675">
        <ele>1666</ele>
        <time>2022-02-20T08:18:45Z</time>
      </trkpt>
      <trkpt lat="45.99365" lon="6.47677">
        <ele>1667</ele>
        <time>2022-02-20T08:18:49Z</time>
      </trkpt>
      <trkpt lat="45.99367" lon="6.47677">
        <ele>1668</ele>
        <time>2022-02-20T08:18:52Z</time>
      </trkpt>
      <trkpt lat="45.99368" lon="6.47678">
        <ele>1669</ele>
        <time>2022-02-20T08:18:57Z</time>
      </trkpt>
      <trkpt lat="45.9937" lon="6.47677">
        <ele>1669</ele>
        <time>2022-02-20T08:19:00Z</time>
      </trkpt>
      <trkpt lat="45.99372" lon="6.47677">
        <ele>1670</ele>
        <time>2022-02-20T08:19:04Z</time>
      </trkpt>
      <trkpt lat="45.99374" lon="6.47675">
        <ele>1670</ele>
        <time>2022-02-20T08:19:08Z</time>
      </trkpt>
      <trkpt lat="45.99375" lon="6.47672">
        <ele>1670</ele>
        <time>2022-02-20T08:19:11Z</time>
      </trkpt>
      <trkpt lat="45.99376" lon="6.47669">
        <ele>1672</ele>
        <time>2022-02-20T08:19:14Z</time>
      </trkpt>
      <trkpt lat="45.99376" lon="6.47667">
        <ele>1672</ele>
        <time>2022-02-20T08:19:16Z</time>
      </trkpt>
      <trkpt lat="45.99375" lon="6.47663">
        <ele>1673</ele>
        <time>2022-02-20T08:19:21Z</time>
      </trkpt>
      <trkpt lat="45.99376" lon="6.47661">
        <ele>1673</ele>
        <time>2022-02-20T08:19:23Z</time>
      </trkpt>
      <trkpt lat="45.99375" lon="6.47657">
        <ele>1673</ele>
        <time>2022-02-20T08:19:27Z</time>
      </trkpt>
      <trkpt lat="45.99374" lon="6.47655">
        <ele>1673</ele>
        <time>2022-02-20T08:19:31Z</time>
      </trkpt>
      <trkpt lat="45.99374" lon="6.47651">
        <ele>1673</ele>
        <time>2022-02-20T08:19:35Z</time>
      </trkpt>
      <trkpt lat="45.99374" lon="6.47649">
        <ele>1674</ele>
        <time>2022-02-20T08:19:39Z</time>
      </trkpt>
      <trkpt lat="45.99374" lon="6.47645">
        <ele>1674</ele>
        <time>2022-02-20T08:19:42Z</time>
      </trkpt>
      <trkpt lat="45.99373" lon="6.47643">
        <ele>1674</ele>
        <time>2022-02-20T08:19:45Z</time>
      </trkpt>
      <trkpt lat="45.99373" lon="6.4764">
        <ele>1674</ele>
        <time>2022-02-20T08:19:48Z</time>
      </trkpt>
      <trkpt lat="45.99372" lon="6.47636">
        <ele>1674</ele>
        <time>2022-02-20T08:19:53Z</time>
      </trkpt>
      <trkpt lat="45.99372" lon="6.47634">
        <ele>1674</ele>
        <time>2022-02-20T08:19:55Z</time>
      </trkpt>
      <trkpt lat="45.99372" lon="6.47631">
        <ele>1675</ele>
        <time>2022-02-20T08:19:58Z</time>
      </trkpt>
      <trkpt lat="45.99372" lon="6.47628">
        <ele>1675</ele>
        <time>2022-02-20T08:20:02Z</time>
      </trkpt>
      <trkpt lat="45.99372" lon="6.47626">
        <ele>1675</ele>
        <time>2022-02-20T08:20:04Z</time>
      </trkpt>
      <trkpt lat="45.99373" lon="6.47623">
        <ele>1675</ele>
        <time>2022-02-20T08:20:08Z</time>
      </trkpt>
      <trkpt lat="45.99374" lon="6.47621">
        <ele>1675</ele>
        <time>2022-02-20T08:20:11Z</time>
      </trkpt>
      <trkpt lat="45.99376" lon="6.47624">
        <ele>1677</ele>
        <time>2022-02-20T08:20:18Z</time>
      </trkpt>
      <trkpt lat="45.99377" lon="6.47626">
        <ele>1677</ele>
        <time>2022-02-20T08:20:20Z</time>
      </trkpt>
      <trkpt lat="45.99378" lon="6.47629">
        <ele>1677</ele>
        <time>2022-02-20T08:20:24Z</time>
      </trkpt>
      <trkpt lat="45.99379" lon="6.47631">
        <ele>1677</ele>
        <time>2022-02-20T08:20:27Z</time>
      </trkpt>
      <trkpt lat="45.99381" lon="6.47633">
        <ele>1678</ele>
        <time>2022-02-20T08:20:30Z</time>
      </trkpt>
      <trkpt lat="45.99383" lon="6.47635">
        <ele>1678</ele>
        <time>2022-02-20T08:20:33Z</time>
      </trkpt>
      <trkpt lat="45.99384" lon="6.47637">
        <ele>1678</ele>
        <time>2022-02-20T08:20:36Z</time>
      </trkpt>
      <trkpt lat="45.99385" lon="6.47639">
        <ele>1679</ele>
        <time>2022-02-20T08:20:39Z</time>
      </trkpt>
      <trkpt lat="45.99386" lon="6.47642">
        <ele>1679</ele>
        <time>2022-02-20T08:20:41Z</time>
      </trkpt>
      <trkpt lat="45.99387" lon="6.47644">
        <ele>1679</ele>
        <time>2022-02-20T08:20:45Z</time>
      </trkpt>
      <trkpt lat="45.99388" lon="6.47647">
        <ele>1679</ele>
        <time>2022-02-20T08:20:48Z</time>
      </trkpt>
      <trkpt lat="45.99389" lon="6.4765">
        <ele>1679</ele>
        <time>2022-02-20T08:20:50Z</time>
      </trkpt>
      <trkpt lat="45.99391" lon="6.47652">
        <ele>1680</ele>
        <time>2022-02-20T08:20:53Z</time>
      </trkpt>
      <trkpt lat="45.99392" lon="6.47654">
        <ele>1680</ele>
        <time>2022-02-20T08:20:57Z</time>
      </trkpt>
      <trkpt lat="45.99394" lon="6.47656">
        <ele>1681</ele>
        <time>2022-02-20T08:21:01Z</time>
      </trkpt>
      <trkpt lat="45.99395" lon="6.47658">
        <ele>1682</ele>
        <time>2022-02-20T08:21:04Z</time>
      </trkpt>
      <trkpt lat="45.99397" lon="6.4766">
        <ele>1682</ele>
        <time>2022-02-20T08:21:07Z</time>
      </trkpt>
      <trkpt lat="45.99398" lon="6.47662">
        <ele>1682</ele>
        <time>2022-02-20T08:21:10Z</time>
      </trkpt>
      <trkpt lat="45.994" lon="6.47665">
        <ele>1682</ele>
        <time>2022-02-20T08:21:14Z</time>
      </trkpt>
      <trkpt lat="45.99401" lon="6.47667">
        <ele>1682</ele>
        <time>2022-02-20T08:21:17Z</time>
      </trkpt>
      <trkpt lat="45.99402" lon="6.47669">
        <ele>1682</ele>
        <time>2022-02-20T08:21:20Z</time>
      </trkpt>
      <trkpt lat="45.99405" lon="6.4767">
        <ele>1682</ele>
        <time>2022-02-20T08:21:24Z</time>
      </trkpt>
      <trkpt lat="45.99406" lon="6.47672">
        <ele>1682</ele>
        <time>2022-02-20T08:21:26Z</time>
      </trkpt>
      <trkpt lat="45.99408" lon="6.47673">
        <ele>1683</ele>
        <time>2022-02-20T08:21:30Z</time>
      </trkpt>
      <trkpt lat="45.9941" lon="6.47676">
        <ele>1683</ele>
        <time>2022-02-20T08:21:35Z</time>
      </trkpt>
      <trkpt lat="45.99411" lon="6.47678">
        <ele>1684</ele>
        <time>2022-02-20T08:21:39Z</time>
      </trkpt>
      <trkpt lat="45.99412" lon="6.4768">
        <ele>1684</ele>
        <time>2022-02-20T08:21:43Z</time>
      </trkpt>
      <trkpt lat="45.99414" lon="6.4768">
        <ele>1684</ele>
        <time>2022-02-20T08:21:46Z</time>
      </trkpt>
      <trkpt lat="45.99416" lon="6.47683">
        <ele>1685</ele>
        <time>2022-02-20T08:21:50Z</time>
      </trkpt>
      <trkpt lat="45.99417" lon="6.47684">
        <ele>1685</ele>
        <time>2022-02-20T08:21:53Z</time>
      </trkpt>
      <trkpt lat="45.99419" lon="6.47684">
        <ele>1685</ele>
        <time>2022-02-20T08:21:57Z</time>
      </trkpt>
      <trkpt lat="45.99421" lon="6.47685">
        <ele>1686</ele>
        <time>2022-02-20T08:21:59Z</time>
      </trkpt>
      <trkpt lat="45.9942" lon="6.47682">
        <ele>1688</ele>
        <time>2022-02-20T08:22:56Z</time>
      </trkpt>
      <trkpt lat="45.99419" lon="6.4768">
        <ele>1687</ele>
        <time>2022-02-20T08:23:10Z</time>
      </trkpt>
      <trkpt lat="45.99419" lon="6.47677">
        <ele>1689</ele>
        <time>2022-02-20T08:23:14Z</time>
      </trkpt>
      <trkpt lat="45.99419" lon="6.47674">
        <ele>1690</ele>
        <time>2022-02-20T08:23:19Z</time>
      </trkpt>
      <trkpt lat="45.99418" lon="6.47671">
        <ele>1690</ele>
        <time>2022-02-20T08:23:23Z</time>
      </trkpt>
      <trkpt lat="45.99418" lon="6.47669">
        <ele>1691</ele>
        <time>2022-02-20T08:23:29Z</time>
      </trkpt>
      <trkpt lat="45.99419" lon="6.4767">
        <ele>1691</ele>
        <time>2022-02-20T08:23:42Z</time>
      </trkpt>
      <trkpt lat="45.99421" lon="6.47672">
        <ele>1691</ele>
        <time>2022-02-20T08:23:46Z</time>
      </trkpt>
      <trkpt lat="45.99423" lon="6.47673">
        <ele>1692</ele>
        <time>2022-02-20T08:23:49Z</time>
      </trkpt>
      <trkpt lat="45.99425" lon="6.47673">
        <ele>1692</ele>
        <time>2022-02-20T08:23:52Z</time>
      </trkpt>
      <trkpt lat="45.99427" lon="6.47673">
        <ele>1693</ele>
        <time>2022-02-20T08:23:57Z</time>
      </trkpt>
      <trkpt lat="45.99429" lon="6.47674">
        <ele>1694</ele>
        <time>2022-02-20T08:24:13Z</time>
      </trkpt>
      <trkpt lat="45.99431" lon="6.47675">
        <ele>1694</ele>
        <time>2022-02-20T08:24:21Z</time>
      </trkpt>
      <trkpt lat="45.9943" lon="6.47672">
        <ele>1695</ele>
        <time>2022-02-20T08:24:43Z</time>
      </trkpt>
      <trkpt lat="45.99429" lon="6.4767">
        <ele>1696</ele>
        <time>2022-02-20T08:24:48Z</time>
      </trkpt>
      <trkpt lat="45.99429" lon="6.47667">
        <ele>1697</ele>
        <time>2022-02-20T08:24:52Z</time>
      </trkpt>
      <trkpt lat="45.99428" lon="6.47664">
        <ele>1697</ele>
        <time>2022-02-20T08:25:00Z</time>
      </trkpt>
      <trkpt lat="45.99428" lon="6.47661">
        <ele>1697</ele>
        <time>2022-02-20T08:25:07Z</time>
      </trkpt>
      <trkpt lat="45.99428" lon="6.47658">
        <ele>1698</ele>
        <time>2022-02-20T08:25:16Z</time>
      </trkpt>
      <trkpt lat="45.99429" lon="6.4766">
        <ele>1698</ele>
        <time>2022-02-20T08:25:38Z</time>
      </trkpt>
      <trkpt lat="45.99431" lon="6.47661">
        <ele>1698</ele>
        <time>2022-02-20T08:25:40Z</time>
      </trkpt>
      <trkpt lat="45.99432" lon="6.47663">
        <ele>1698</ele>
        <time>2022-02-20T08:25:44Z</time>
      </trkpt>
      <trkpt lat="45.99434" lon="6.47663">
        <ele>1698</ele>
        <time>2022-02-20T08:25:46Z</time>
      </trkpt>
      <trkpt lat="45.99436" lon="6.47663">
        <ele>1699</ele>
        <time>2022-02-20T08:25:50Z</time>
      </trkpt>
      <trkpt lat="45.99438" lon="6.47663">
        <ele>1701</ele>
        <time>2022-02-20T08:25:56Z</time>
      </trkpt>
      <trkpt lat="45.9944" lon="6.47663">
        <ele>1702</ele>
        <time>2022-02-20T08:26:02Z</time>
      </trkpt>
      <trkpt lat="45.99442" lon="6.47661">
        <ele>1703</ele>
        <time>2022-02-20T08:26:05Z</time>
      </trkpt>
      <trkpt lat="45.99444" lon="6.4766">
        <ele>1703</ele>
        <time>2022-02-20T08:26:09Z</time>
      </trkpt>
      <trkpt lat="45.99446" lon="6.47659">
        <ele>1703</ele>
        <time>2022-02-20T08:26:12Z</time>
      </trkpt>
      <trkpt lat="45.99448" lon="6.47658">
        <ele>1704</ele>
        <time>2022-02-20T08:26:17Z</time>
      </trkpt>
      <trkpt lat="45.99449" lon="6.47657">
        <ele>1706</ele>
        <time>2022-02-20T08:26:29Z</time>
      </trkpt>
      <trkpt lat="45.99451" lon="6.47655">
        <ele>1707</ele>
        <time>2022-02-20T08:26:32Z</time>
      </trkpt>
      <trkpt lat="45.99452" lon="6.47653">
        <ele>1707</ele>
        <time>2022-02-20T08:26:35Z</time>
      </trkpt>
      <trkpt lat="45.99453" lon="6.4765">
        <ele>1708</ele>
        <time>2022-02-20T08:26:40Z</time>
      </trkpt>
      <trkpt lat="45.99455" lon="6.47648">
        <ele>1708</ele>
        <time>2022-02-20T08:26:43Z</time>
      </trkpt>
      <trkpt lat="45.99456" lon="6.47645">
        <ele>1709</ele>
        <time>2022-02-20T08:26:47Z</time>
      </trkpt>
      <trkpt lat="45.99457" lon="6.47642">
        <ele>1709</ele>
        <time>2022-02-20T08:26:52Z</time>
      </trkpt>
      <trkpt lat="45.99458" lon="6.47641">
        <ele>1709</ele>
        <time>2022-02-20T08:26:54Z</time>
      </trkpt>
      <trkpt lat="45.9946" lon="6.47639">
        <ele>1709</ele>
        <time>2022-02-20T08:26:57Z</time>
      </trkpt>
      <trkpt lat="45.99463" lon="6.47639">
        <ele>1709</ele>
        <time>2022-02-20T08:27:01Z</time>
      </trkpt>
      <trkpt lat="45.99465" lon="6.47638">
        <ele>1710</ele>
        <time>2022-02-20T08:27:06Z</time>
      </trkpt>
      <trkpt lat="45.99465" lon="6.4764">
        <ele>1710</ele>
        <time>2022-02-20T08:29:17Z</time>
      </trkpt>
      <trkpt lat="45.99466" lon="6.47642">
        <ele>1710</ele>
        <time>2022-02-20T08:29:29Z</time>
      </trkpt>
      <trkpt lat="45.99468" lon="6.4764">
        <ele>1711</ele>
        <time>2022-02-20T08:30:21Z</time>
      </trkpt>
      <trkpt lat="45.9947" lon="6.47638">
        <ele>1711</ele>
        <time>2022-02-20T08:30:25Z</time>
      </trkpt>
      <trkpt lat="45.99472" lon="6.47636">
        <ele>1711</ele>
        <time>2022-02-20T08:30:27Z</time>
      </trkpt>
      <trkpt lat="45.99473" lon="6.47633">
        <ele>1711</ele>
        <time>2022-02-20T08:30:30Z</time>
      </trkpt>
      <trkpt lat="45.99475" lon="6.47632">
        <ele>1711</ele>
        <time>2022-02-20T08:30:35Z</time>
      </trkpt>
      <trkpt lat="45.99477" lon="6.47631">
        <ele>1711</ele>
        <time>2022-02-20T08:30:39Z</time>
      </trkpt>
      <trkpt lat="45.99479" lon="6.4763">
        <ele>1711</ele>
        <time>2022-02-20T08:30:43Z</time>
      </trkpt>
      <trkpt lat="45.99481" lon="6.47629">
        <ele>1712</ele>
        <time>2022-02-20T08:30:46Z</time>
      </trkpt>
      <trkpt lat="45.99483" lon="6.47628">
        <ele>1713</ele>
        <time>2022-02-20T08:30:51Z</time>
      </trkpt>
      <trkpt lat="45.99485" lon="6.47627">
        <ele>1713</ele>
        <time>2022-02-20T08:30:54Z</time>
      </trkpt>
      <trkpt lat="45.99487" lon="6.47627">
        <ele>1714</ele>
        <time>2022-02-20T08:31:00Z</time>
      </trkpt>
      <trkpt lat="45.99489" lon="6.47627">
        <ele>1714</ele>
        <time>2022-02-20T08:31:02Z</time>
      </trkpt>
      <trkpt lat="45.99491" lon="6.47626">
        <ele>1714</ele>
        <time>2022-02-20T08:31:05Z</time>
      </trkpt>
      <trkpt lat="45.99492" lon="6.47623">
        <ele>1715</ele>
        <time>2022-02-20T08:31:10Z</time>
      </trkpt>
      <trkpt lat="45.99492" lon="6.47621">
        <ele>1716</ele>
        <time>2022-02-20T08:31:17Z</time>
      </trkpt>
      <trkpt lat="45.99493" lon="6.47618">
        <ele>1717</ele>
        <time>2022-02-20T08:31:21Z</time>
      </trkpt>
      <trkpt lat="45.99493" lon="6.47615">
        <ele>1718</ele>
        <time>2022-02-20T08:31:25Z</time>
      </trkpt>
      <trkpt lat="45.99493" lon="6.47612">
        <ele>1718</ele>
        <time>2022-02-20T08:31:29Z</time>
      </trkpt>
      <trkpt lat="45.99493" lon="6.47609">
        <ele>1719</ele>
        <time>2022-02-20T08:31:33Z</time>
      </trkpt>
      <trkpt lat="45.99494" lon="6.47606">
        <ele>1719</ele>
        <time>2022-02-20T08:31:36Z</time>
      </trkpt>
      <trkpt lat="45.99496" lon="6.47607">
        <ele>1719</ele>
        <time>2022-02-20T08:31:41Z</time>
      </trkpt>
      <trkpt lat="45.99498" lon="6.47608">
        <ele>1720</ele>
        <time>2022-02-20T08:31:46Z</time>
      </trkpt>
      <trkpt lat="45.995" lon="6.4761">
        <ele>1720</ele>
        <time>2022-02-20T08:31:49Z</time>
      </trkpt>
      <trkpt lat="45.99502" lon="6.47611">
        <ele>1721</ele>
        <time>2022-02-20T08:31:54Z</time>
      </trkpt>
      <trkpt lat="45.99504" lon="6.47613">
        <ele>1722</ele>
        <time>2022-02-20T08:31:57Z</time>
      </trkpt>
      <trkpt lat="45.99506" lon="6.47615">
        <ele>1722</ele>
        <time>2022-02-20T08:32:02Z</time>
      </trkpt>
      <trkpt lat="45.99508" lon="6.47615">
        <ele>1723</ele>
        <time>2022-02-20T08:32:06Z</time>
      </trkpt>
      <trkpt lat="45.99509" lon="6.47615">
        <ele>1724</ele>
        <time>2022-02-20T08:32:08Z</time>
      </trkpt>
      <trkpt lat="45.99508" lon="6.47615">
        <ele>1724</ele>
        <time>2022-02-20T08:32:19Z</time>
      </trkpt>
      <trkpt lat="45.99509" lon="6.47613">
        <ele>1725</ele>
        <time>2022-02-20T08:32:31Z</time>
      </trkpt>
      <trkpt lat="45.9951" lon="6.4761">
        <ele>1725</ele>
        <time>2022-02-20T08:32:33Z</time>
      </trkpt>
      <trkpt lat="45.9951" lon="6.47607">
        <ele>1725</ele>
        <time>2022-02-20T08:32:37Z</time>
      </trkpt>
      <trkpt lat="45.99511" lon="6.47604">
        <ele>1726</ele>
        <time>2022-02-20T08:32:39Z</time>
      </trkpt>
      <trkpt lat="45.99512" lon="6.47602">
        <ele>1726</ele>
        <time>2022-02-20T08:32:42Z</time>
      </trkpt>
      <trkpt lat="45.99514" lon="6.47602">
        <ele>1728</ele>
        <time>2022-02-20T08:32:50Z</time>
      </trkpt>
      <trkpt lat="45.99516" lon="6.47603">
        <ele>1728</ele>
        <time>2022-02-20T08:33:12Z</time>
      </trkpt>
      <trkpt lat="45.99518" lon="6.47604">
        <ele>1728</ele>
        <time>2022-02-20T08:33:16Z</time>
      </trkpt>
      <trkpt lat="45.99519" lon="6.47606">
        <ele>1729</ele>
        <time>2022-02-20T08:33:19Z</time>
      </trkpt>
      <trkpt lat="45.99521" lon="6.47607">
        <ele>1729</ele>
        <time>2022-02-20T08:33:21Z</time>
      </trkpt>
      <trkpt lat="45.99523" lon="6.47608">
        <ele>1730</ele>
        <time>2022-02-20T08:33:25Z</time>
      </trkpt>
      <trkpt lat="45.99525" lon="6.47606">
        <ele>1730</ele>
        <time>2022-02-20T08:33:28Z</time>
      </trkpt>
      <trkpt lat="45.99525" lon="6.47603">
        <ele>1731</ele>
        <time>2022-02-20T08:33:31Z</time>
      </trkpt>
      <trkpt lat="45.99526" lon="6.476">
        <ele>1731</ele>
        <time>2022-02-20T08:33:34Z</time>
      </trkpt>
      <trkpt lat="45.99526" lon="6.47597">
        <ele>1733</ele>
        <time>2022-02-20T08:33:39Z</time>
      </trkpt>
      <trkpt lat="45.99526" lon="6.47594">
        <ele>1733</ele>
        <time>2022-02-20T08:33:43Z</time>
      </trkpt>
      <trkpt lat="45.99527" lon="6.47591">
        <ele>1733</ele>
        <time>2022-02-20T08:33:45Z</time>
      </trkpt>
      <trkpt lat="45.99526" lon="6.47588">
        <ele>1734</ele>
        <time>2022-02-20T08:33:49Z</time>
      </trkpt>
      <trkpt lat="45.99527" lon="6.47585">
        <ele>1734</ele>
        <time>2022-02-20T08:33:53Z</time>
      </trkpt>
      <trkpt lat="45.99527" lon="6.47582">
        <ele>1734</ele>
        <time>2022-02-20T08:33:55Z</time>
      </trkpt>
      <trkpt lat="45.99527" lon="6.4758">
        <ele>1735</ele>
        <time>2022-02-20T08:34:01Z</time>
      </trkpt>
      <trkpt lat="45.99529" lon="6.47579">
        <ele>1737</ele>
        <time>2022-02-20T08:34:05Z</time>
      </trkpt>
      <trkpt lat="45.99532" lon="6.47578">
        <ele>1738</ele>
        <time>2022-02-20T08:34:09Z</time>
      </trkpt>
      <trkpt lat="45.99533" lon="6.47577">
        <ele>1738</ele>
        <time>2022-02-20T08:34:12Z</time>
      </trkpt>
      <trkpt lat="45.99535" lon="6.47577">
        <ele>1739</ele>
        <time>2022-02-20T08:34:15Z</time>
      </trkpt>
      <trkpt lat="45.99537" lon="6.47575">
        <ele>1739</ele>
        <time>2022-02-20T08:34:19Z</time>
      </trkpt>
      <trkpt lat="45.99539" lon="6.47574">
        <ele>1740</ele>
        <time>2022-02-20T08:34:22Z</time>
      </trkpt>
      <trkpt lat="45.99541" lon="6.47572">
        <ele>1740</ele>
        <time>2022-02-20T08:34:25Z</time>
      </trkpt>
      <trkpt lat="45.99543" lon="6.47571">
        <ele>1740</ele>
        <time>2022-02-20T08:34:27Z</time>
      </trkpt>
      <trkpt lat="45.99545" lon="6.47571">
        <ele>1741</ele>
        <time>2022-02-20T08:34:31Z</time>
      </trkpt>
      <trkpt lat="45.99547" lon="6.4757">
        <ele>1741</ele>
        <time>2022-02-20T08:34:33Z</time>
      </trkpt>
      <trkpt lat="45.99549" lon="6.4757">
        <ele>1741</ele>
        <time>2022-02-20T08:34:37Z</time>
      </trkpt>
      <trkpt lat="45.9955" lon="6.4757">
        <ele>1741</ele>
        <time>2022-02-20T08:34:39Z</time>
      </trkpt>
      <trkpt lat="45.99553" lon="6.47569">
        <ele>1741</ele>
        <time>2022-02-20T08:34:42Z</time>
      </trkpt>
      <trkpt lat="45.99555" lon="6.4757">
        <ele>1741</ele>
        <time>2022-02-20T08:34:46Z</time>
      </trkpt>
      <trkpt lat="45.99557" lon="6.47569">
        <ele>1741</ele>
        <time>2022-02-20T08:34:48Z</time>
      </trkpt>
      <trkpt lat="45.99559" lon="6.47568">
        <ele>1742</ele>
        <time>2022-02-20T08:34:52Z</time>
      </trkpt>
      <trkpt lat="45.99561" lon="6.47567">
        <ele>1742</ele>
        <time>2022-02-20T08:34:55Z</time>
      </trkpt>
      <trkpt lat="45.99564" lon="6.47566">
        <ele>1742</ele>
        <time>2022-02-20T08:34:58Z</time>
      </trkpt>
      <trkpt lat="45.99566" lon="6.47565">
        <ele>1742</ele>
        <time>2022-02-20T08:35:01Z</time>
      </trkpt>
      <trkpt lat="45.99567" lon="6.47564">
        <ele>1742</ele>
        <time>2022-02-20T08:35:03Z</time>
      </trkpt>
      <trkpt lat="45.99569" lon="6.47563">
        <ele>1742</ele>
        <time>2022-02-20T08:35:06Z</time>
      </trkpt>
      <trkpt lat="45.99571" lon="6.47563">
        <ele>1743</ele>
        <time>2022-02-20T08:35:09Z</time>
      </trkpt>
      <trkpt lat="45.99574" lon="6.47562">
        <ele>1742</ele>
        <time>2022-02-20T08:35:13Z</time>
      </trkpt>
      <trkpt lat="45.99576" lon="6.47561">
        <ele>1742</ele>
        <time>2022-02-20T08:35:16Z</time>
      </trkpt>
      <trkpt lat="45.99578" lon="6.47559">
        <ele>1742</ele>
        <time>2022-02-20T08:35:19Z</time>
      </trkpt>
      <trkpt lat="45.9958" lon="6.47558">
        <ele>1743</ele>
        <time>2022-02-20T08:35:22Z</time>
      </trkpt>
      <trkpt lat="45.99582" lon="6.47557">
        <ele>1743</ele>
        <time>2022-02-20T08:35:25Z</time>
      </trkpt>
      <trkpt lat="45.99585" lon="6.47556">
        <ele>1743</ele>
        <time>2022-02-20T08:35:28Z</time>
      </trkpt>
      <trkpt lat="45.99587" lon="6.47555">
        <ele>1743</ele>
        <time>2022-02-20T08:35:30Z</time>
      </trkpt>
      <trkpt lat="45.99589" lon="6.47554">
        <ele>1743</ele>
        <time>2022-02-20T08:35:33Z</time>
      </trkpt>
      <trkpt lat="45.99591" lon="6.47554">
        <ele>1743</ele>
        <time>2022-02-20T08:35:36Z</time>
      </trkpt>
      <trkpt lat="45.99593" lon="6.47553">
        <ele>1745</ele>
        <time>2022-02-20T08:35:40Z</time>
      </trkpt>
      <trkpt lat="45.99595" lon="6.47551">
        <ele>1744</ele>
        <time>2022-02-20T08:35:45Z</time>
      </trkpt>
      <trkpt lat="45.99596" lon="6.4755">
        <ele>1744</ele>
        <time>2022-02-20T08:35:49Z</time>
      </trkpt>
      <trkpt lat="45.99598" lon="6.47548">
        <ele>1743</ele>
        <time>2022-02-20T08:35:54Z</time>
      </trkpt>
      <trkpt lat="45.996" lon="6.47547">
        <ele>1743</ele>
        <time>2022-02-20T08:35:57Z</time>
      </trkpt>
      <trkpt lat="45.99601" lon="6.47545">
        <ele>1742</ele>
        <time>2022-02-20T08:36:02Z</time>
      </trkpt>
      <trkpt lat="45.99603" lon="6.47543">
        <ele>1742</ele>
        <time>2022-02-20T08:36:05Z</time>
      </trkpt>
      <trkpt lat="45.99605" lon="6.4754">
        <ele>1742</ele>
        <time>2022-02-20T08:36:09Z</time>
      </trkpt>
      <trkpt lat="45.99607" lon="6.47539">
        <ele>1741</ele>
        <time>2022-02-20T08:36:12Z</time>
      </trkpt>
      <trkpt lat="45.99609" lon="6.47537">
        <ele>1740</ele>
        <time>2022-02-20T08:36:14Z</time>
      </trkpt>
      <trkpt lat="45.99612" lon="6.47537">
        <ele>1740</ele>
        <time>2022-02-20T08:36:19Z</time>
      </trkpt>
      <trkpt lat="45.99614" lon="6.47537">
        <ele>1739</ele>
        <time>2022-02-20T08:36:21Z</time>
      </trkpt>
      <trkpt lat="45.99616" lon="6.47538">
        <ele>1739</ele>
        <time>2022-02-20T08:36:25Z</time>
      </trkpt>
      <trkpt lat="45.99617" lon="6.4754">
        <ele>1739</ele>
        <time>2022-02-20T08:36:27Z</time>
      </trkpt>
      <trkpt lat="45.99618" lon="6.47542">
        <ele>1739</ele>
        <time>2022-02-20T08:36:31Z</time>
      </trkpt>
      <trkpt lat="45.99619" lon="6.47546">
        <ele>1739</ele>
        <time>2022-02-20T08:36:34Z</time>
      </trkpt>
      <trkpt lat="45.9962" lon="6.47548">
        <ele>1738</ele>
        <time>2022-02-20T08:36:51Z</time>
      </trkpt>
      <trkpt lat="45.99621" lon="6.47551">
        <ele>1738</ele>
        <time>2022-02-20T08:36:54Z</time>
      </trkpt>
      <trkpt lat="45.99622" lon="6.47555">
        <ele>1737</ele>
        <time>2022-02-20T08:36:57Z</time>
      </trkpt>
      <trkpt lat="45.99623" lon="6.47558">
        <ele>1737</ele>
        <time>2022-02-20T08:37:01Z</time>
      </trkpt>
      <trkpt lat="45.99624" lon="6.4756">
        <ele>1737</ele>
        <time>2022-02-20T08:37:04Z</time>
      </trkpt>
      <trkpt lat="45.99625" lon="6.47562">
        <ele>1737</ele>
        <time>2022-02-20T08:37:07Z</time>
      </trkpt>
      <trkpt lat="45.99626" lon="6.47565">
        <ele>1737</ele>
        <time>2022-02-20T08:37:10Z</time>
      </trkpt>
      <trkpt lat="45.99627" lon="6.47568">
        <ele>1737</ele>
        <time>2022-02-20T08:37:13Z</time>
      </trkpt>
      <trkpt lat="45.99628" lon="6.4757">
        <ele>1737</ele>
        <time>2022-02-20T08:37:16Z</time>
      </trkpt>
      <trkpt lat="45.99629" lon="6.47573">
        <ele>1737</ele>
        <time>2022-02-20T08:37:20Z</time>
      </trkpt>
      <trkpt lat="45.9963" lon="6.47576">
        <ele>1737</ele>
        <time>2022-02-20T08:37:23Z</time>
      </trkpt>
      <trkpt lat="45.99631" lon="6.47578">
        <ele>1736</ele>
        <time>2022-02-20T08:37:28Z</time>
      </trkpt>
      <trkpt lat="45.99631" lon="6.47582">
        <ele>1736</ele>
        <time>2022-02-20T08:37:32Z</time>
      </trkpt>
      <trkpt lat="45.99632" lon="6.47584">
        <ele>1736</ele>
        <time>2022-02-20T08:37:37Z</time>
      </trkpt>
      <trkpt lat="45.99633" lon="6.47587">
        <ele>1736</ele>
        <time>2022-02-20T08:37:41Z</time>
      </trkpt>
      <trkpt lat="45.99633" lon="6.4759">
        <ele>1736</ele>
        <time>2022-02-20T08:37:47Z</time>
      </trkpt>
      <trkpt lat="45.99633" lon="6.47592">
        <ele>1736</ele>
        <time>2022-02-20T08:37:50Z</time>
      </trkpt>
      <trkpt lat="45.99634" lon="6.47595">
        <ele>1736</ele>
        <time>2022-02-20T08:37:55Z</time>
      </trkpt>
      <trkpt lat="45.99636" lon="6.47597">
        <ele>1736</ele>
        <time>2022-02-20T08:37:58Z</time>
      </trkpt>
      <trkpt lat="45.99637" lon="6.47599">
        <ele>1736</ele>
        <time>2022-02-20T08:38:03Z</time>
      </trkpt>
      <trkpt lat="45.99639" lon="6.47601">
        <ele>1736</ele>
        <time>2022-02-20T08:38:05Z</time>
      </trkpt>
      <trkpt lat="45.99641" lon="6.47602">
        <ele>1737</ele>
        <time>2022-02-20T08:38:09Z</time>
      </trkpt>
      <trkpt lat="45.99642" lon="6.47604">
        <ele>1738</ele>
        <time>2022-02-20T08:38:13Z</time>
      </trkpt>
      <trkpt lat="45.99644" lon="6.47606">
        <ele>1738</ele>
        <time>2022-02-20T08:38:23Z</time>
      </trkpt>
      <trkpt lat="45.99645" lon="6.47607">
        <ele>1738</ele>
        <time>2022-02-20T08:38:28Z</time>
      </trkpt>
      <trkpt lat="45.99648" lon="6.47608">
        <ele>1738</ele>
        <time>2022-02-20T08:38:32Z</time>
      </trkpt>
      <trkpt lat="45.9965" lon="6.47609">
        <ele>1738</ele>
        <time>2022-02-20T08:38:36Z</time>
      </trkpt>
      <trkpt lat="45.99652" lon="6.4761">
        <ele>1738</ele>
        <time>2022-02-20T08:38:41Z</time>
      </trkpt>
      <trkpt lat="45.99654" lon="6.4761">
        <ele>1739</ele>
        <time>2022-02-20T08:38:46Z</time>
      </trkpt>
      <trkpt lat="45.99656" lon="6.47611">
        <ele>1739</ele>
        <time>2022-02-20T08:38:50Z</time>
      </trkpt>
      <trkpt lat="45.99658" lon="6.47613">
        <ele>1739</ele>
        <time>2022-02-20T08:38:55Z</time>
      </trkpt>
      <trkpt lat="45.9966" lon="6.47613">
        <ele>1739</ele>
        <time>2022-02-20T08:38:58Z</time>
      </trkpt>
      <trkpt lat="45.99662" lon="6.47614">
        <ele>1740</ele>
        <time>2022-02-20T08:39:02Z</time>
      </trkpt>
      <trkpt lat="45.99664" lon="6.47615">
        <ele>1740</ele>
        <time>2022-02-20T08:39:05Z</time>
      </trkpt>
      <trkpt lat="45.99666" lon="6.47616">
        <ele>1741</ele>
        <time>2022-02-20T08:39:09Z</time>
      </trkpt>
      <trkpt lat="45.99668" lon="6.47617">
        <ele>1742</ele>
        <time>2022-02-20T08:39:12Z</time>
      </trkpt>
      <trkpt lat="45.99669" lon="6.47619">
        <ele>1742</ele>
        <time>2022-02-20T08:39:16Z</time>
      </trkpt>
      <trkpt lat="45.99672" lon="6.4762">
        <ele>1742</ele>
        <time>2022-02-20T08:39:19Z</time>
      </trkpt>
      <trkpt lat="45.99673" lon="6.47621">
        <ele>1743</ele>
        <time>2022-02-20T08:39:23Z</time>
      </trkpt>
      <trkpt lat="45.99675" lon="6.47622">
        <ele>1743</ele>
        <time>2022-02-20T08:39:26Z</time>
      </trkpt>
      <trkpt lat="45.99677" lon="6.47623">
        <ele>1744</ele>
        <time>2022-02-20T08:39:30Z</time>
      </trkpt>
      <trkpt lat="45.9968" lon="6.47624">
        <ele>1744</ele>
        <time>2022-02-20T08:39:35Z</time>
      </trkpt>
      <trkpt lat="45.99682" lon="6.47626">
        <ele>1745</ele>
        <time>2022-02-20T08:39:39Z</time>
      </trkpt>
      <trkpt lat="45.99683" lon="6.47627">
        <ele>1745</ele>
        <time>2022-02-20T08:39:42Z</time>
      </trkpt>
      <trkpt lat="45.99685" lon="6.47628">
        <ele>1746</ele>
        <time>2022-02-20T08:39:46Z</time>
      </trkpt>
      <trkpt lat="45.99687" lon="6.4763">
        <ele>1746</ele>
        <time>2022-02-20T08:39:49Z</time>
      </trkpt>
      <trkpt lat="45.99689" lon="6.47632">
        <ele>1746</ele>
        <time>2022-02-20T08:39:52Z</time>
      </trkpt>
      <trkpt lat="45.9969" lon="6.47633">
        <ele>1746</ele>
        <time>2022-02-20T08:39:55Z</time>
      </trkpt>
      <trkpt lat="45.99692" lon="6.47635">
        <ele>1746</ele>
        <time>2022-02-20T08:39:59Z</time>
      </trkpt>
      <trkpt lat="45.99693" lon="6.47637">
        <ele>1746</ele>
        <time>2022-02-20T08:40:02Z</time>
      </trkpt>
      <trkpt lat="45.99695" lon="6.47639">
        <ele>1746</ele>
        <time>2022-02-20T08:40:06Z</time>
      </trkpt>
      <trkpt lat="45.99696" lon="6.47641">
        <ele>1746</ele>
        <time>2022-02-20T08:40:13Z</time>
      </trkpt>
      <trkpt lat="45.99698" lon="6.47643">
        <ele>1746</ele>
        <time>2022-02-20T08:40:15Z</time>
      </trkpt>
      <trkpt lat="45.997" lon="6.47644">
        <ele>1746</ele>
        <time>2022-02-20T08:40:20Z</time>
      </trkpt>
      <trkpt lat="45.99703" lon="6.47644">
        <ele>1746</ele>
        <time>2022-02-20T08:40:23Z</time>
      </trkpt>
      <trkpt lat="45.99704" lon="6.47644">
        <ele>1746</ele>
        <time>2022-02-20T08:40:26Z</time>
      </trkpt>
      <trkpt lat="45.99706" lon="6.47644">
        <ele>1746</ele>
        <time>2022-02-20T08:40:29Z</time>
      </trkpt>
      <trkpt lat="45.99708" lon="6.47644">
        <ele>1746</ele>
        <time>2022-02-20T08:40:33Z</time>
      </trkpt>
      <trkpt lat="45.99711" lon="6.47644">
        <ele>1745</ele>
        <time>2022-02-20T08:40:35Z</time>
      </trkpt>
      <trkpt lat="45.99713" lon="6.47643">
        <ele>1746</ele>
        <time>2022-02-20T08:40:38Z</time>
      </trkpt>
      <trkpt lat="45.99715" lon="6.47642">
        <ele>1746</ele>
        <time>2022-02-20T08:40:41Z</time>
      </trkpt>
      <trkpt lat="45.99718" lon="6.47642">
        <ele>1746</ele>
        <time>2022-02-20T08:40:44Z</time>
      </trkpt>
      <trkpt lat="45.9972" lon="6.47641">
        <ele>1746</ele>
        <time>2022-02-20T08:40:48Z</time>
      </trkpt>
      <trkpt lat="45.99722" lon="6.47641">
        <ele>1746</ele>
        <time>2022-02-20T08:40:51Z</time>
      </trkpt>
      <trkpt lat="45.99724" lon="6.4764">
        <ele>1746</ele>
        <time>2022-02-20T08:40:53Z</time>
      </trkpt>
      <trkpt lat="45.99727" lon="6.4764">
        <ele>1746</ele>
        <time>2022-02-20T08:40:56Z</time>
      </trkpt>
      <trkpt lat="45.99728" lon="6.47639">
        <ele>1747</ele>
        <time>2022-02-20T08:41:00Z</time>
      </trkpt>
      <trkpt lat="45.99731" lon="6.47639">
        <ele>1747</ele>
        <time>2022-02-20T08:41:03Z</time>
      </trkpt>
      <trkpt lat="45.99732" lon="6.47639">
        <ele>1747</ele>
        <time>2022-02-20T08:41:07Z</time>
      </trkpt>
      <trkpt lat="45.99735" lon="6.47639">
        <ele>1749</ele>
        <time>2022-02-20T08:41:16Z</time>
      </trkpt>
      <trkpt lat="45.99737" lon="6.47639">
        <ele>1749</ele>
        <time>2022-02-20T08:41:20Z</time>
      </trkpt>
      <trkpt lat="45.99739" lon="6.47639">
        <ele>1750</ele>
        <time>2022-02-20T08:41:24Z</time>
      </trkpt>
      <trkpt lat="45.99741" lon="6.47638">
        <ele>1751</ele>
        <time>2022-02-20T08:41:27Z</time>
      </trkpt>
      <trkpt lat="45.99743" lon="6.47637">
        <ele>1752</ele>
        <time>2022-02-20T08:41:30Z</time>
      </trkpt>
      <trkpt lat="45.99745" lon="6.47637">
        <ele>1753</ele>
        <time>2022-02-20T08:41:34Z</time>
      </trkpt>
      <trkpt lat="45.99747" lon="6.47639">
        <ele>1753</ele>
        <time>2022-02-20T08:41:39Z</time>
      </trkpt>
      <trkpt lat="45.99749" lon="6.47638">
        <ele>1754</ele>
        <time>2022-02-20T08:41:42Z</time>
      </trkpt>
      <trkpt lat="45.99751" lon="6.47639">
        <ele>1755</ele>
        <time>2022-02-20T08:41:46Z</time>
      </trkpt>
      <trkpt lat="45.99753" lon="6.47639">
        <ele>1756</ele>
        <time>2022-02-20T08:41:52Z</time>
      </trkpt>
      <trkpt lat="45.99755" lon="6.4764">
        <ele>1757</ele>
        <time>2022-02-20T08:41:59Z</time>
      </trkpt>
      <trkpt lat="45.99757" lon="6.4764">
        <ele>1758</ele>
        <time>2022-02-20T08:42:02Z</time>
      </trkpt>
      <trkpt lat="45.99759" lon="6.47642">
        <ele>1758</ele>
        <time>2022-02-20T08:42:07Z</time>
      </trkpt>
      <trkpt lat="45.9976" lon="6.47645">
        <ele>1758</ele>
        <time>2022-02-20T08:42:10Z</time>
      </trkpt>
      <trkpt lat="45.9976" lon="6.47648">
        <ele>1759</ele>
        <time>2022-02-20T08:42:14Z</time>
      </trkpt>
      <trkpt lat="45.99758" lon="6.47649">
        <ele>1760</ele>
        <time>2022-02-20T08:42:41Z</time>
      </trkpt>
      <trkpt lat="45.99757" lon="6.47651">
        <ele>1759</ele>
        <time>2022-02-20T08:43:51Z</time>
      </trkpt>
      <trkpt lat="45.99759" lon="6.47652">
        <ele>1759</ele>
        <time>2022-02-20T08:48:20Z</time>
      </trkpt>
      <trkpt lat="45.99761" lon="6.47651">
        <ele>1759</ele>
        <time>2022-02-20T08:48:23Z</time>
      </trkpt>
      <trkpt lat="45.99763" lon="6.4765">
        <ele>1759</ele>
        <time>2022-02-20T08:48:25Z</time>
      </trkpt>
      <trkpt lat="45.99765" lon="6.47649">
        <ele>1757</ele>
        <time>2022-02-20T08:48:29Z</time>
      </trkpt>
      <trkpt lat="45.99766" lon="6.47649">
        <ele>1757</ele>
        <time>2022-02-20T08:48:31Z</time>
      </trkpt>
      <trkpt lat="45.99768" lon="6.47648">
        <ele>1758</ele>
        <time>2022-02-20T08:48:35Z</time>
      </trkpt>
      <trkpt lat="45.9977" lon="6.47646">
        <ele>1758</ele>
        <time>2022-02-20T08:48:38Z</time>
      </trkpt>
      <trkpt lat="45.99772" lon="6.47645">
        <ele>1758</ele>
        <time>2022-02-20T08:48:40Z</time>
      </trkpt>
      <trkpt lat="45.99774" lon="6.47644">
        <ele>1758</ele>
        <time>2022-02-20T08:48:43Z</time>
      </trkpt>
      <trkpt lat="45.99776" lon="6.47643">
        <ele>1757</ele>
        <time>2022-02-20T08:48:47Z</time>
      </trkpt>
      <trkpt lat="45.99778" lon="6.47642">
        <ele>1757</ele>
        <time>2022-02-20T08:48:50Z</time>
      </trkpt>
      <trkpt lat="45.9978" lon="6.47641">
        <ele>1756</ele>
        <time>2022-02-20T08:48:55Z</time>
      </trkpt>
      <trkpt lat="45.99782" lon="6.4764">
        <ele>1757</ele>
        <time>2022-02-20T08:48:59Z</time>
      </trkpt>
      <trkpt lat="45.99784" lon="6.4764">
        <ele>1758</ele>
        <time>2022-02-20T08:49:02Z</time>
      </trkpt>
      <trkpt lat="45.99786" lon="6.47639">
        <ele>1758</ele>
        <time>2022-02-20T08:49:05Z</time>
      </trkpt>
      <trkpt lat="45.99788" lon="6.47638">
        <ele>1759</ele>
        <time>2022-02-20T08:49:08Z</time>
      </trkpt>
      <trkpt lat="45.99791" lon="6.47637">
        <ele>1759</ele>
        <time>2022-02-20T08:49:11Z</time>
      </trkpt>
      <trkpt lat="45.99793" lon="6.47636">
        <ele>1759</ele>
        <time>2022-02-20T08:49:13Z</time>
      </trkpt>
      <trkpt lat="45.99795" lon="6.47636">
        <ele>1760</ele>
        <time>2022-02-20T08:49:17Z</time>
      </trkpt>
      <trkpt lat="45.99797" lon="6.47635">
        <ele>1760</ele>
        <time>2022-02-20T08:49:21Z</time>
      </trkpt>
      <trkpt lat="45.99799" lon="6.47634">
        <ele>1761</ele>
        <time>2022-02-20T08:49:26Z</time>
      </trkpt>
      <trkpt lat="45.99801" lon="6.47634">
        <ele>1761</ele>
        <time>2022-02-20T08:49:31Z</time>
      </trkpt>
      <trkpt lat="45.99803" lon="6.47634">
        <ele>1761</ele>
        <time>2022-02-20T08:49:36Z</time>
      </trkpt>
      <trkpt lat="45.99805" lon="6.47634">
        <ele>1762</ele>
        <time>2022-02-20T08:49:39Z</time>
      </trkpt>
      <trkpt lat="45.99807" lon="6.47634">
        <ele>1762</ele>
        <time>2022-02-20T08:49:44Z</time>
      </trkpt>
      <trkpt lat="45.99809" lon="6.47633">
        <ele>1762</ele>
        <time>2022-02-20T08:49:47Z</time>
      </trkpt>
      <trkpt lat="45.99812" lon="6.47633">
        <ele>1764</ele>
        <time>2022-02-20T08:49:51Z</time>
      </trkpt>
      <trkpt lat="45.99813" lon="6.47632">
        <ele>1764</ele>
        <time>2022-02-20T08:49:54Z</time>
      </trkpt>
      <trkpt lat="45.99816" lon="6.47632">
        <ele>1765</ele>
        <time>2022-02-20T08:49:59Z</time>
      </trkpt>
      <trkpt lat="45.99817" lon="6.47632">
        <ele>1765</ele>
        <time>2022-02-20T08:50:02Z</time>
      </trkpt>
      <trkpt lat="45.9982" lon="6.47632">
        <ele>1766</ele>
        <time>2022-02-20T08:50:06Z</time>
      </trkpt>
      <trkpt lat="45.99822" lon="6.47633">
        <ele>1766</ele>
        <time>2022-02-20T08:50:10Z</time>
      </trkpt>
      <trkpt lat="45.99824" lon="6.47633">
        <ele>1767</ele>
        <time>2022-02-20T08:50:14Z</time>
      </trkpt>
      <trkpt lat="45.99825" lon="6.47636">
        <ele>1768</ele>
        <time>2022-02-20T08:50:38Z</time>
      </trkpt>
      <trkpt lat="45.99827" lon="6.47636">
        <ele>1768</ele>
        <time>2022-02-20T08:50:48Z</time>
      </trkpt>
      <trkpt lat="45.99828" lon="6.47638">
        <ele>1769</ele>
        <time>2022-02-20T08:50:53Z</time>
      </trkpt>
      <trkpt lat="45.9983" lon="6.4764">
        <ele>1769</ele>
        <time>2022-02-20T08:50:57Z</time>
      </trkpt>
      <trkpt lat="45.99831" lon="6.47642">
        <ele>1770</ele>
        <time>2022-02-20T08:51:02Z</time>
      </trkpt>
      <trkpt lat="45.99833" lon="6.47645">
        <ele>1771</ele>
        <time>2022-02-20T08:51:08Z</time>
      </trkpt>
      <trkpt lat="45.99834" lon="6.47647">
        <ele>1772</ele>
        <time>2022-02-20T08:51:12Z</time>
      </trkpt>
      <trkpt lat="45.99835" lon="6.47649">
        <ele>1772</ele>
        <time>2022-02-20T08:51:15Z</time>
      </trkpt>
      <trkpt lat="45.99837" lon="6.47649">
        <ele>1772</ele>
        <time>2022-02-20T08:51:40Z</time>
      </trkpt>
      <trkpt lat="45.99839" lon="6.47647">
        <ele>1773</ele>
        <time>2022-02-20T08:51:54Z</time>
      </trkpt>
      <trkpt lat="45.99839" lon="6.47644">
        <ele>1773</ele>
        <time>2022-02-20T08:51:57Z</time>
      </trkpt>
      <trkpt lat="45.9984" lon="6.47641">
        <ele>1774</ele>
        <time>2022-02-20T08:52:00Z</time>
      </trkpt>
      <trkpt lat="45.9984" lon="6.47638">
        <ele>1775</ele>
        <time>2022-02-20T08:52:14Z</time>
      </trkpt>
      <trkpt lat="45.99841" lon="6.47635">
        <ele>1776</ele>
        <time>2022-02-20T08:52:30Z</time>
      </trkpt>
      <trkpt lat="45.99841" lon="6.47632">
        <ele>1777</ele>
        <time>2022-02-20T08:52:37Z</time>
      </trkpt>
      <trkpt lat="45.99842" lon="6.47634">
        <ele>1778</ele>
        <time>2022-02-20T08:52:45Z</time>
      </trkpt>
      <trkpt lat="45.99844" lon="6.47636">
        <ele>1778</ele>
        <time>2022-02-20T08:52:48Z</time>
      </trkpt>
      <trkpt lat="45.99845" lon="6.47638">
        <ele>1778</ele>
        <time>2022-02-20T08:52:50Z</time>
      </trkpt>
      <trkpt lat="45.99847" lon="6.4764">
        <ele>1779</ele>
        <time>2022-02-20T08:52:55Z</time>
      </trkpt>
      <trkpt lat="45.99848" lon="6.47643">
        <ele>1779</ele>
        <time>2022-02-20T08:52:59Z</time>
      </trkpt>
      <trkpt lat="45.99849" lon="6.47646">
        <ele>1780</ele>
        <time>2022-02-20T08:53:03Z</time>
      </trkpt>
      <trkpt lat="45.99851" lon="6.47648">
        <ele>1780</ele>
        <time>2022-02-20T08:53:06Z</time>
      </trkpt>
      <trkpt lat="45.99852" lon="6.47651">
        <ele>1781</ele>
        <time>2022-02-20T08:53:09Z</time>
      </trkpt>
      <trkpt lat="45.99853" lon="6.47653">
        <ele>1782</ele>
        <time>2022-02-20T08:53:14Z</time>
      </trkpt>
      <trkpt lat="45.99855" lon="6.47655">
        <ele>1782</ele>
        <time>2022-02-20T08:53:18Z</time>
      </trkpt>
      <trkpt lat="45.99856" lon="6.47657">
        <ele>1782</ele>
        <time>2022-02-20T08:53:21Z</time>
      </trkpt>
      <trkpt lat="45.99857" lon="6.47659">
        <ele>1783</ele>
        <time>2022-02-20T08:53:24Z</time>
      </trkpt>
      <trkpt lat="45.99859" lon="6.47661">
        <ele>1784</ele>
        <time>2022-02-20T08:53:27Z</time>
      </trkpt>
      <trkpt lat="45.99861" lon="6.47663">
        <ele>1785</ele>
        <time>2022-02-20T08:53:32Z</time>
      </trkpt>
      <trkpt lat="45.99863" lon="6.47663">
        <ele>1785</ele>
        <time>2022-02-20T08:53:35Z</time>
      </trkpt>
      <trkpt lat="45.99865" lon="6.47663">
        <ele>1786</ele>
        <time>2022-02-20T08:53:40Z</time>
      </trkpt>
      <trkpt lat="45.99867" lon="6.47663">
        <ele>1787</ele>
        <time>2022-02-20T08:53:44Z</time>
      </trkpt>
      <trkpt lat="45.99869" lon="6.47663">
        <ele>1787</ele>
        <time>2022-02-20T08:53:48Z</time>
      </trkpt>
      <trkpt lat="45.99871" lon="6.47661">
        <ele>1788</ele>
        <time>2022-02-20T08:53:52Z</time>
      </trkpt>
      <trkpt lat="45.99871" lon="6.47658">
        <ele>1788</ele>
        <time>2022-02-20T08:53:56Z</time>
      </trkpt>
      <trkpt lat="45.99871" lon="6.47655">
        <ele>1788</ele>
        <time>2022-02-20T08:54:00Z</time>
      </trkpt>
      <trkpt lat="45.9987" lon="6.47652">
        <ele>1789</ele>
        <time>2022-02-20T08:54:03Z</time>
      </trkpt>
      <trkpt lat="45.9987" lon="6.4765">
        <ele>1790</ele>
        <time>2022-02-20T08:54:07Z</time>
      </trkpt>
      <trkpt lat="45.9987" lon="6.47647">
        <ele>1791</ele>
        <time>2022-02-20T08:54:12Z</time>
      </trkpt>
      <trkpt lat="45.9987" lon="6.47644">
        <ele>1791</ele>
        <time>2022-02-20T08:54:16Z</time>
      </trkpt>
      <trkpt lat="45.9987" lon="6.47641">
        <ele>1792</ele>
        <time>2022-02-20T08:54:19Z</time>
      </trkpt>
      <trkpt lat="45.9987" lon="6.47638">
        <ele>1793</ele>
        <time>2022-02-20T08:54:25Z</time>
      </trkpt>
      <trkpt lat="45.9987" lon="6.47635">
        <ele>1793</ele>
        <time>2022-02-20T08:54:28Z</time>
      </trkpt>
      <trkpt lat="45.9987" lon="6.47633">
        <ele>1794</ele>
        <time>2022-02-20T08:54:33Z</time>
      </trkpt>
      <trkpt lat="45.99869" lon="6.47635">
        <ele>1794</ele>
        <time>2022-02-20T08:54:58Z</time>
      </trkpt>
      <trkpt lat="45.99868" lon="6.47637">
        <ele>1794</ele>
        <time>2022-02-20T08:55:03Z</time>
      </trkpt>
      <trkpt lat="45.99866" lon="6.47635">
        <ele>1794</ele>
        <time>2022-02-20T08:55:08Z</time>
      </trkpt>
      <trkpt lat="45.99867" lon="6.47632">
        <ele>1796</ele>
        <time>2022-02-20T08:55:12Z</time>
      </trkpt>
      <trkpt lat="45.99867" lon="6.47629">
        <ele>1796</ele>
        <time>2022-02-20T08:55:14Z</time>
      </trkpt>
      <trkpt lat="45.99868" lon="6.47626">
        <ele>1796</ele>
        <time>2022-02-20T08:55:17Z</time>
      </trkpt>
      <trkpt lat="45.99869" lon="6.47623">
        <ele>1796</ele>
        <time>2022-02-20T08:55:20Z</time>
      </trkpt>
      <trkpt lat="45.99869" lon="6.4762">
        <ele>1797</ele>
        <time>2022-02-20T08:55:23Z</time>
      </trkpt>
      <trkpt lat="45.99868" lon="6.47617">
        <ele>1798</ele>
        <time>2022-02-20T08:55:27Z</time>
      </trkpt>
      <trkpt lat="45.99868" lon="6.47614">
        <ele>1798</ele>
        <time>2022-02-20T08:55:29Z</time>
      </trkpt>
      <trkpt lat="45.99867" lon="6.47611">
        <ele>1798</ele>
        <time>2022-02-20T08:55:33Z</time>
      </trkpt>
      <trkpt lat="45.99868" lon="6.47609">
        <ele>1799</ele>
        <time>2022-02-20T08:55:38Z</time>
      </trkpt>
      <trkpt lat="45.99868" lon="6.47606">
        <ele>1799</ele>
        <time>2022-02-20T08:55:42Z</time>
      </trkpt>
      <trkpt lat="45.99868" lon="6.47602">
        <ele>1800</ele>
        <time>2022-02-20T08:55:46Z</time>
      </trkpt>
      <trkpt lat="45.99868" lon="6.47599">
        <ele>1800</ele>
        <time>2022-02-20T08:55:50Z</time>
      </trkpt>
      <trkpt lat="45.99867" lon="6.47596">
        <ele>1801</ele>
        <time>2022-02-20T08:55:54Z</time>
      </trkpt>
      <trkpt lat="45.99866" lon="6.47593">
        <ele>1802</ele>
        <time>2022-02-20T08:55:57Z</time>
      </trkpt>
      <trkpt lat="45.99865" lon="6.47591">
        <ele>1802</ele>
        <time>2022-02-20T08:56:01Z</time>
      </trkpt>
      <trkpt lat="45.99864" lon="6.47588">
        <ele>1802</ele>
        <time>2022-02-20T08:56:04Z</time>
      </trkpt>
      <trkpt lat="45.99863" lon="6.47586">
        <ele>1802</ele>
        <time>2022-02-20T08:56:08Z</time>
      </trkpt>
      <trkpt lat="45.99862" lon="6.47583">
        <ele>1803</ele>
        <time>2022-02-20T08:56:12Z</time>
      </trkpt>
      <trkpt lat="45.99861" lon="6.4758">
        <ele>1804</ele>
        <time>2022-02-20T08:56:16Z</time>
      </trkpt>
      <trkpt lat="45.9986" lon="6.47578">
        <ele>1804</ele>
        <time>2022-02-20T08:56:18Z</time>
      </trkpt>
      <trkpt lat="45.99858" lon="6.47576">
        <ele>1804</ele>
        <time>2022-02-20T08:56:22Z</time>
      </trkpt>
      <trkpt lat="45.99857" lon="6.47574">
        <ele>1805</ele>
        <time>2022-02-20T08:56:27Z</time>
      </trkpt>
      <trkpt lat="45.99856" lon="6.47572">
        <ele>1806</ele>
        <time>2022-02-20T08:56:32Z</time>
      </trkpt>
      <trkpt lat="45.99858" lon="6.47572">
        <ele>1807</ele>
        <time>2022-02-20T08:56:44Z</time>
      </trkpt>
      <trkpt lat="45.99859" lon="6.4757">
        <ele>1807</ele>
        <time>2022-02-20T08:56:47Z</time>
      </trkpt>
      <trkpt lat="45.99861" lon="6.4757">
        <ele>1807</ele>
        <time>2022-02-20T08:56:50Z</time>
      </trkpt>
      <trkpt lat="45.99863" lon="6.47569">
        <ele>1808</ele>
        <time>2022-02-20T08:56:54Z</time>
      </trkpt>
      <trkpt lat="45.99865" lon="6.47569">
        <ele>1809</ele>
        <time>2022-02-20T08:56:57Z</time>
      </trkpt>
      <trkpt lat="45.99867" lon="6.47569">
        <ele>1809</ele>
        <time>2022-02-20T08:57:00Z</time>
      </trkpt>
      <trkpt lat="45.99869" lon="6.4757">
        <ele>1809</ele>
        <time>2022-02-20T08:57:10Z</time>
      </trkpt>
      <trkpt lat="45.99871" lon="6.47569">
        <ele>1810</ele>
        <time>2022-02-20T08:57:14Z</time>
      </trkpt>
      <trkpt lat="45.99871" lon="6.47566">
        <ele>1810</ele>
        <time>2022-02-20T08:57:17Z</time>
      </trkpt>
      <trkpt lat="45.99871" lon="6.47563">
        <ele>1810</ele>
        <time>2022-02-20T08:57:21Z</time>
      </trkpt>
      <trkpt lat="45.9987" lon="6.4756">
        <ele>1811</ele>
        <time>2022-02-20T08:57:25Z</time>
      </trkpt>
      <trkpt lat="45.99868" lon="6.47559">
        <ele>1811</ele>
        <time>2022-02-20T08:57:28Z</time>
      </trkpt>
      <trkpt lat="45.99866" lon="6.47557">
        <ele>1811</ele>
        <time>2022-02-20T08:57:35Z</time>
      </trkpt>
      <trkpt lat="45.99864" lon="6.47556">
        <ele>1812</ele>
        <time>2022-02-20T08:57:39Z</time>
      </trkpt>
      <trkpt lat="45.99862" lon="6.47556">
        <ele>1813</ele>
        <time>2022-02-20T08:57:42Z</time>
      </trkpt>
      <trkpt lat="45.9986" lon="6.47555">
        <ele>1813</ele>
        <time>2022-02-20T08:57:46Z</time>
      </trkpt>
      <trkpt lat="45.99857" lon="6.47554">
        <ele>1813</ele>
        <time>2022-02-20T08:57:51Z</time>
      </trkpt>
      <trkpt lat="45.99856" lon="6.47552">
        <ele>1814</ele>
        <time>2022-02-20T08:57:55Z</time>
      </trkpt>
      <trkpt lat="45.99857" lon="6.4755">
        <ele>1816</ele>
        <time>2022-02-20T08:57:59Z</time>
      </trkpt>
      <trkpt lat="45.99859" lon="6.47549">
        <ele>1817</ele>
        <time>2022-02-20T08:58:02Z</time>
      </trkpt>
      <trkpt lat="45.9986" lon="6.47547">
        <ele>1817</ele>
        <time>2022-02-20T08:58:06Z</time>
      </trkpt>
      <trkpt lat="45.99862" lon="6.47546">
        <ele>1817</ele>
        <time>2022-02-20T08:58:09Z</time>
      </trkpt>
      <trkpt lat="45.99863" lon="6.47544">
        <ele>1818</ele>
        <time>2022-02-20T08:58:12Z</time>
      </trkpt>
      <trkpt lat="45.99865" lon="6.47542">
        <ele>1818</ele>
        <time>2022-02-20T08:58:15Z</time>
      </trkpt>
      <trkpt lat="45.99867" lon="6.47542">
        <ele>1819</ele>
        <time>2022-02-20T08:58:32Z</time>
      </trkpt>
      <trkpt lat="45.99869" lon="6.47541">
        <ele>1819</ele>
        <time>2022-02-20T08:58:38Z</time>
      </trkpt>
      <trkpt lat="45.99871" lon="6.4754">
        <ele>1819</ele>
        <time>2022-02-20T08:58:41Z</time>
      </trkpt>
      <trkpt lat="45.99873" lon="6.47538">
        <ele>1820</ele>
        <time>2022-02-20T08:58:46Z</time>
      </trkpt>
      <trkpt lat="45.99875" lon="6.47538">
        <ele>1820</ele>
        <time>2022-02-20T08:58:49Z</time>
      </trkpt>
      <trkpt lat="45.99877" lon="6.47537">
        <ele>1821</ele>
        <time>2022-02-20T08:58:54Z</time>
      </trkpt>
      <trkpt lat="45.99879" lon="6.47537">
        <ele>1821</ele>
        <time>2022-02-20T08:58:57Z</time>
      </trkpt>
      <trkpt lat="45.99881" lon="6.47537">
        <ele>1822</ele>
        <time>2022-02-20T08:59:02Z</time>
      </trkpt>
      <trkpt lat="45.99883" lon="6.47537">
        <ele>1822</ele>
        <time>2022-02-20T08:59:04Z</time>
      </trkpt>
      <trkpt lat="45.99885" lon="6.47538">
        <ele>1823</ele>
        <time>2022-02-20T08:59:08Z</time>
      </trkpt>
      <trkpt lat="45.99887" lon="6.4754">
        <ele>1823</ele>
        <time>2022-02-20T08:59:11Z</time>
      </trkpt>
      <trkpt lat="45.99889" lon="6.4754">
        <ele>1824</ele>
        <time>2022-02-20T08:59:17Z</time>
      </trkpt>
      <trkpt lat="45.99889" lon="6.47542">
        <ele>1825</ele>
        <time>2022-02-20T08:59:54Z</time>
      </trkpt>
      <trkpt lat="45.99891" lon="6.47544">
        <ele>1825</ele>
        <time>2022-02-20T08:59:58Z</time>
      </trkpt>
      <trkpt lat="45.99893" lon="6.47545">
        <ele>1825</ele>
        <time>2022-02-20T09:00:00Z</time>
      </trkpt>
      <trkpt lat="45.99895" lon="6.47546">
        <ele>1827</ele>
        <time>2022-02-20T09:00:04Z</time>
      </trkpt>
      <trkpt lat="45.99897" lon="6.47547">
        <ele>1827</ele>
        <time>2022-02-20T09:00:08Z</time>
      </trkpt>
      <trkpt lat="45.999" lon="6.47548">
        <ele>1828</ele>
        <time>2022-02-20T09:00:11Z</time>
      </trkpt>
      <trkpt lat="45.99902" lon="6.47549">
        <ele>1829</ele>
        <time>2022-02-20T09:00:16Z</time>
      </trkpt>
      <trkpt lat="45.99903" lon="6.4755">
        <ele>1829</ele>
        <time>2022-02-20T09:00:18Z</time>
      </trkpt>
      <trkpt lat="45.99905" lon="6.47552">
        <ele>1830</ele>
        <time>2022-02-20T09:00:22Z</time>
      </trkpt>
      <trkpt lat="45.99907" lon="6.47554">
        <ele>1831</ele>
        <time>2022-02-20T09:00:27Z</time>
      </trkpt>
      <trkpt lat="45.99908" lon="6.47556">
        <ele>1831</ele>
        <time>2022-02-20T09:00:30Z</time>
      </trkpt>
      <trkpt lat="45.99909" lon="6.47559">
        <ele>1832</ele>
        <time>2022-02-20T09:00:33Z</time>
      </trkpt>
      <trkpt lat="45.9991" lon="6.47561">
        <ele>1833</ele>
        <time>2022-02-20T09:00:38Z</time>
      </trkpt>
      <trkpt lat="45.99912" lon="6.47559">
        <ele>1834</ele>
        <time>2022-02-20T09:00:46Z</time>
      </trkpt>
      <trkpt lat="45.99912" lon="6.47557">
        <ele>1834</ele>
        <time>2022-02-20T09:00:49Z</time>
      </trkpt>
      <trkpt lat="45.99913" lon="6.47554">
        <ele>1835</ele>
        <time>2022-02-20T09:00:52Z</time>
      </trkpt>
      <trkpt lat="45.99914" lon="6.47551">
        <ele>1835</ele>
        <time>2022-02-20T09:00:56Z</time>
      </trkpt>
      <trkpt lat="45.99915" lon="6.47548">
        <ele>1836</ele>
        <time>2022-02-20T09:01:00Z</time>
      </trkpt>
      <trkpt lat="45.99915" lon="6.47545">
        <ele>1836</ele>
        <time>2022-02-20T09:01:04Z</time>
      </trkpt>
      <trkpt lat="45.99915" lon="6.47543">
        <ele>1837</ele>
        <time>2022-02-20T09:01:08Z</time>
      </trkpt>
      <trkpt lat="45.99916" lon="6.47539">
        <ele>1837</ele>
        <time>2022-02-20T09:01:12Z</time>
      </trkpt>
      <trkpt lat="45.99916" lon="6.47537">
        <ele>1838</ele>
        <time>2022-02-20T09:01:15Z</time>
      </trkpt>
      <trkpt lat="45.99918" lon="6.47534">
        <ele>1838</ele>
        <time>2022-02-20T09:01:18Z</time>
      </trkpt>
      <trkpt lat="45.99919" lon="6.47532">
        <ele>1838</ele>
        <time>2022-02-20T09:01:21Z</time>
      </trkpt>
      <trkpt lat="45.9992" lon="6.47529">
        <ele>1840</ele>
        <time>2022-02-20T09:01:25Z</time>
      </trkpt>
      <trkpt lat="45.99921" lon="6.47527">
        <ele>1840</ele>
        <time>2022-02-20T09:01:29Z</time>
      </trkpt>
      <trkpt lat="45.99922" lon="6.47528">
        <ele>1841</ele>
        <time>2022-02-20T09:01:38Z</time>
      </trkpt>
      <trkpt lat="45.99923" lon="6.47531">
        <ele>1842</ele>
        <time>2022-02-20T09:01:43Z</time>
      </trkpt>
      <trkpt lat="45.99924" lon="6.47533">
        <ele>1842</ele>
        <time>2022-02-20T09:01:47Z</time>
      </trkpt>
      <trkpt lat="45.99926" lon="6.47535">
        <ele>1843</ele>
        <time>2022-02-20T09:01:50Z</time>
      </trkpt>
      <trkpt lat="45.99927" lon="6.47538">
        <ele>1844</ele>
        <time>2022-02-20T09:01:55Z</time>
      </trkpt>
      <trkpt lat="45.99929" lon="6.4754">
        <ele>1844</ele>
        <time>2022-02-20T09:01:59Z</time>
      </trkpt>
      <trkpt lat="45.9993" lon="6.47542">
        <ele>1844</ele>
        <time>2022-02-20T09:02:02Z</time>
      </trkpt>
      <trkpt lat="45.99931" lon="6.47544">
        <ele>1846</ele>
        <time>2022-02-20T09:02:07Z</time>
      </trkpt>
      <trkpt lat="45.99933" lon="6.47541">
        <ele>1846</ele>
        <time>2022-02-20T09:02:12Z</time>
      </trkpt>
      <trkpt lat="45.99934" lon="6.47539">
        <ele>1847</ele>
        <time>2022-02-20T09:02:16Z</time>
      </trkpt>
      <trkpt lat="45.99935" lon="6.47536">
        <ele>1848</ele>
        <time>2022-02-20T09:02:20Z</time>
      </trkpt>
      <trkpt lat="45.99937" lon="6.47534">
        <ele>1848</ele>
        <time>2022-02-20T09:02:24Z</time>
      </trkpt>
      <trkpt lat="45.99938" lon="6.47532">
        <ele>1849</ele>
        <time>2022-02-20T09:02:28Z</time>
      </trkpt>
      <trkpt lat="45.99939" lon="6.47529">
        <ele>1850</ele>
        <time>2022-02-20T09:02:33Z</time>
      </trkpt>
      <trkpt lat="45.9994" lon="6.47526">
        <ele>1850</ele>
        <time>2022-02-20T09:02:48Z</time>
      </trkpt>
      <trkpt lat="45.99942" lon="6.47524">
        <ele>1851</ele>
        <time>2022-02-20T09:02:52Z</time>
      </trkpt>
      <trkpt lat="45.99943" lon="6.47521">
        <ele>1851</ele>
        <time>2022-02-20T09:02:56Z</time>
      </trkpt>
      <trkpt lat="45.99944" lon="6.47519">
        <ele>1852</ele>
        <time>2022-02-20T09:03:00Z</time>
      </trkpt>
      <trkpt lat="45.99946" lon="6.47517">
        <ele>1853</ele>
        <time>2022-02-20T09:03:03Z</time>
      </trkpt>
      <trkpt lat="45.99947" lon="6.47514">
        <ele>1854</ele>
        <time>2022-02-20T09:03:07Z</time>
      </trkpt>
      <trkpt lat="45.99948" lon="6.47512">
        <ele>1854</ele>
        <time>2022-02-20T09:03:10Z</time>
      </trkpt>
      <trkpt lat="45.99949" lon="6.4751">
        <ele>1855</ele>
        <time>2022-02-20T09:03:14Z</time>
      </trkpt>
      <trkpt lat="45.99947" lon="6.47507">
        <ele>1855</ele>
        <time>2022-02-20T09:03:28Z</time>
      </trkpt>
      <trkpt lat="45.99946" lon="6.47505">
        <ele>1855</ele>
        <time>2022-02-20T09:03:36Z</time>
      </trkpt>
      <trkpt lat="45.99945" lon="6.47502">
        <ele>1855</ele>
        <time>2022-02-20T09:03:40Z</time>
      </trkpt>
      <trkpt lat="45.99945" lon="6.47499">
        <ele>1857</ele>
        <time>2022-02-20T09:03:45Z</time>
      </trkpt>
      <trkpt lat="45.99945" lon="6.47496">
        <ele>1857</ele>
        <time>2022-02-20T09:03:50Z</time>
      </trkpt>
      <trkpt lat="45.99944" lon="6.47493">
        <ele>1858</ele>
        <time>2022-02-20T09:03:54Z</time>
      </trkpt>
      <trkpt lat="45.99944" lon="6.4749">
        <ele>1859</ele>
        <time>2022-02-20T09:03:59Z</time>
      </trkpt>
      <trkpt lat="45.99943" lon="6.47487">
        <ele>1859</ele>
        <time>2022-02-20T09:04:04Z</time>
      </trkpt>
      <trkpt lat="45.99943" lon="6.47485">
        <ele>1860</ele>
        <time>2022-02-20T09:04:20Z</time>
      </trkpt>
      <trkpt lat="45.99942" lon="6.47482">
        <ele>1861</ele>
        <time>2022-02-20T09:04:23Z</time>
      </trkpt>
      <trkpt lat="45.99941" lon="6.47479">
        <ele>1861</ele>
        <time>2022-02-20T09:04:27Z</time>
      </trkpt>
      <trkpt lat="45.99941" lon="6.47476">
        <ele>1862</ele>
        <time>2022-02-20T09:04:31Z</time>
      </trkpt>
      <trkpt lat="45.99943" lon="6.47476">
        <ele>1863</ele>
        <time>2022-02-20T09:04:43Z</time>
      </trkpt>
      <trkpt lat="45.99945" lon="6.47477">
        <ele>1863</ele>
        <time>2022-02-20T09:04:48Z</time>
      </trkpt>
      <trkpt lat="45.99946" lon="6.47478">
        <ele>1864</ele>
        <time>2022-02-20T09:04:52Z</time>
      </trkpt>
      <trkpt lat="45.99948" lon="6.4748">
        <ele>1865</ele>
        <time>2022-02-20T09:04:57Z</time>
      </trkpt>
      <trkpt lat="45.99949" lon="6.47482">
        <ele>1864</ele>
        <time>2022-02-20T09:05:06Z</time>
      </trkpt>
      <trkpt lat="45.99951" lon="6.47483">
        <ele>1866</ele>
        <time>2022-02-20T09:05:10Z</time>
      </trkpt>
      <trkpt lat="45.99953" lon="6.47484">
        <ele>1866</ele>
        <time>2022-02-20T09:05:14Z</time>
      </trkpt>
      <trkpt lat="45.99956" lon="6.47485">
        <ele>1867</ele>
        <time>2022-02-20T09:05:18Z</time>
      </trkpt>
      <trkpt lat="45.99957" lon="6.47487">
        <ele>1868</ele>
        <time>2022-02-20T09:05:25Z</time>
      </trkpt>
      <trkpt lat="45.99959" lon="6.47489">
        <ele>1868</ele>
        <time>2022-02-20T09:05:29Z</time>
      </trkpt>
      <trkpt lat="45.99961" lon="6.4749">
        <ele>1869</ele>
        <time>2022-02-20T09:05:33Z</time>
      </trkpt>
      <trkpt lat="45.99963" lon="6.47491">
        <ele>1870</ele>
        <time>2022-02-20T09:05:40Z</time>
      </trkpt>
      <trkpt lat="45.99964" lon="6.47493">
        <ele>1871</ele>
        <time>2022-02-20T09:05:52Z</time>
      </trkpt>
      <trkpt lat="45.99966" lon="6.47494">
        <ele>1871</ele>
        <time>2022-02-20T09:05:56Z</time>
      </trkpt>
      <trkpt lat="45.99968" lon="6.47496">
        <ele>1871</ele>
        <time>2022-02-20T09:06:00Z</time>
      </trkpt>
      <trkpt lat="45.99969" lon="6.47498">
        <ele>1871</ele>
        <time>2022-02-20T09:06:06Z</time>
      </trkpt>
      <trkpt lat="45.99971" lon="6.475">
        <ele>1871</ele>
        <time>2022-02-20T09:06:13Z</time>
      </trkpt>
      <trkpt lat="45.9997" lon="6.47503">
        <ele>1871</ele>
        <time>2022-02-20T09:06:17Z</time>
      </trkpt>
      <trkpt lat="45.99968" lon="6.47505">
        <ele>1871</ele>
        <time>2022-02-20T09:06:22Z</time>
      </trkpt>
      <trkpt lat="45.99967" lon="6.47508">
        <ele>1871</ele>
        <time>2022-02-20T09:06:25Z</time>
      </trkpt>
      <trkpt lat="45.99966" lon="6.4751">
        <ele>1870</ele>
        <time>2022-02-20T09:06:29Z</time>
      </trkpt>
      <trkpt lat="45.99966" lon="6.47513">
        <ele>1869</ele>
        <time>2022-02-20T09:06:38Z</time>
      </trkpt>
      <trkpt lat="45.99967" lon="6.47516">
        <ele>1870</ele>
        <time>2022-02-20T09:06:43Z</time>
      </trkpt>
      <trkpt lat="45.99968" lon="6.47518">
        <ele>1871</ele>
        <time>2022-02-20T09:06:48Z</time>
      </trkpt>
      <trkpt lat="45.9997" lon="6.4752">
        <ele>1871</ele>
        <time>2022-02-20T09:06:52Z</time>
      </trkpt>
      <trkpt lat="45.9997" lon="6.47523">
        <ele>1872</ele>
        <time>2022-02-20T09:06:56Z</time>
      </trkpt>
      <trkpt lat="45.9997" lon="6.47526">
        <ele>1873</ele>
        <time>2022-02-20T09:07:00Z</time>
      </trkpt>
      <trkpt lat="45.99971" lon="6.47528">
        <ele>1873</ele>
        <time>2022-02-20T09:07:27Z</time>
      </trkpt>
      <trkpt lat="45.99973" lon="6.47531">
        <ele>1874</ele>
        <time>2022-02-20T09:07:59Z</time>
      </trkpt>
      <trkpt lat="45.99974" lon="6.47529">
        <ele>1875</ele>
        <time>2022-02-20T09:08:55Z</time>
      </trkpt>
      <trkpt lat="45.99975" lon="6.47527">
        <ele>1876</ele>
        <time>2022-02-20T09:08:59Z</time>
      </trkpt>
      <trkpt lat="45.99976" lon="6.47524">
        <ele>1876</ele>
        <time>2022-02-20T09:09:03Z</time>
      </trkpt>
      <trkpt lat="45.99978" lon="6.47523">
        <ele>1877</ele>
        <time>2022-02-20T09:09:07Z</time>
      </trkpt>
      <trkpt lat="45.99979" lon="6.47521">
        <ele>1878</ele>
        <time>2022-02-20T09:09:11Z</time>
      </trkpt>
      <trkpt lat="45.99981" lon="6.47519">
        <ele>1878</ele>
        <time>2022-02-20T09:09:15Z</time>
      </trkpt>
      <trkpt lat="45.99981" lon="6.47516">
        <ele>1879</ele>
        <time>2022-02-20T09:09:19Z</time>
      </trkpt>
      <trkpt lat="45.99983" lon="6.47514">
        <ele>1880</ele>
        <time>2022-02-20T09:09:24Z</time>
      </trkpt>
      <trkpt lat="45.99984" lon="6.47512">
        <ele>1881</ele>
        <time>2022-02-20T09:09:29Z</time>
      </trkpt>
      <trkpt lat="45.99985" lon="6.47509">
        <ele>1882</ele>
        <time>2022-02-20T09:09:33Z</time>
      </trkpt>
      <trkpt lat="45.99986" lon="6.47506">
        <ele>1882</ele>
        <time>2022-02-20T09:09:38Z</time>
      </trkpt>
      <trkpt lat="45.99987" lon="6.47504">
        <ele>1883</ele>
        <time>2022-02-20T09:09:42Z</time>
      </trkpt>
      <trkpt lat="45.99988" lon="6.47501">
        <ele>1883</ele>
        <time>2022-02-20T09:09:46Z</time>
      </trkpt>
      <trkpt lat="45.9999" lon="6.47504">
        <ele>1885</ele>
        <time>2022-02-20T09:09:57Z</time>
      </trkpt>
      <trkpt lat="45.9999" lon="6.47506">
        <ele>1885</ele>
        <time>2022-02-20T09:10:01Z</time>
      </trkpt>
      <trkpt lat="45.99991" lon="6.47509">
        <ele>1886</ele>
        <time>2022-02-20T09:10:05Z</time>
      </trkpt>
      <trkpt lat="45.99992" lon="6.47511">
        <ele>1887</ele>
        <time>2022-02-20T09:10:09Z</time>
      </trkpt>
      <trkpt lat="45.99993" lon="6.47514">
        <ele>1887</ele>
        <time>2022-02-20T09:10:13Z</time>
      </trkpt>
      <trkpt lat="45.99993" lon="6.47516">
        <ele>1888</ele>
        <time>2022-02-20T09:10:16Z</time>
      </trkpt>
      <trkpt lat="45.99994" lon="6.47519">
        <ele>1889</ele>
        <time>2022-02-20T09:10:21Z</time>
      </trkpt>
      <trkpt lat="45.99994" lon="6.47522">
        <ele>1889</ele>
        <time>2022-02-20T09:10:25Z</time>
      </trkpt>
      <trkpt lat="45.99995" lon="6.47524">
        <ele>1890</ele>
        <time>2022-02-20T09:10:29Z</time>
      </trkpt>
      <trkpt lat="45.99996" lon="6.47522">
        <ele>1891</ele>
        <time>2022-02-20T09:10:46Z</time>
      </trkpt>
      <trkpt lat="45.99998" lon="6.4752">
        <ele>1891</ele>
        <time>2022-02-20T09:10:50Z</time>
      </trkpt>
      <trkpt lat="45.99998" lon="6.47518">
        <ele>1892</ele>
        <time>2022-02-20T09:10:54Z</time>
      </trkpt>
      <trkpt lat="45.99999" lon="6.47515">
        <ele>1893</ele>
        <time>2022-02-20T09:10:58Z</time>
      </trkpt>
      <trkpt lat="46.00001" lon="6.47513">
        <ele>1893</ele>
        <time>2022-02-20T09:11:02Z</time>
      </trkpt>
      <trkpt lat="46.00002" lon="6.4751">
        <ele>1894</ele>
        <time>2022-02-20T09:11:05Z</time>
      </trkpt>
      <trkpt lat="46.00003" lon="6.47508">
        <ele>1895</ele>
        <time>2022-02-20T09:11:11Z</time>
      </trkpt>
      <trkpt lat="46.00003" lon="6.4751">
        <ele>1895</ele>
        <time>2022-02-20T09:11:21Z</time>
      </trkpt>
      <trkpt lat="46.00003" lon="6.47514">
        <ele>1896</ele>
        <time>2022-02-20T09:11:25Z</time>
      </trkpt>
      <trkpt lat="46.00004" lon="6.47517">
        <ele>1896</ele>
        <time>2022-02-20T09:11:30Z</time>
      </trkpt>
      <trkpt lat="46.00004" lon="6.4752">
        <ele>1897</ele>
        <time>2022-02-20T09:11:34Z</time>
      </trkpt>
      <trkpt lat="46.00005" lon="6.47523">
        <ele>1897</ele>
        <time>2022-02-20T09:11:38Z</time>
      </trkpt>
      <trkpt lat="46.00006" lon="6.47525">
        <ele>1897</ele>
        <time>2022-02-20T09:11:42Z</time>
      </trkpt>
      <trkpt lat="46.00007" lon="6.47528">
        <ele>1898</ele>
        <time>2022-02-20T09:11:46Z</time>
      </trkpt>
      <trkpt lat="46.00008" lon="6.4753">
        <ele>1899</ele>
        <time>2022-02-20T09:11:50Z</time>
      </trkpt>
      <trkpt lat="46.00009" lon="6.47533">
        <ele>1900</ele>
        <time>2022-02-20T09:11:54Z</time>
      </trkpt>
      <trkpt lat="46.00009" lon="6.47536">
        <ele>1901</ele>
        <time>2022-02-20T09:11:57Z</time>
      </trkpt>
      <trkpt lat="46.0001" lon="6.47538">
        <ele>1902</ele>
        <time>2022-02-20T09:12:02Z</time>
      </trkpt>
      <trkpt lat="46.0001" lon="6.47541">
        <ele>1902</ele>
        <time>2022-02-20T09:12:06Z</time>
      </trkpt>
      <trkpt lat="46.00011" lon="6.47544">
        <ele>1902</ele>
        <time>2022-02-20T09:12:10Z</time>
      </trkpt>
      <trkpt lat="46.00011" lon="6.47547">
        <ele>1902</ele>
        <time>2022-02-20T09:12:13Z</time>
      </trkpt>
      <trkpt lat="46.00011" lon="6.4755">
        <ele>1903</ele>
        <time>2022-02-20T09:12:18Z</time>
      </trkpt>
      <trkpt lat="46.00013" lon="6.47553">
        <ele>1903</ele>
        <time>2022-02-20T09:12:23Z</time>
      </trkpt>
      <trkpt lat="46.00015" lon="6.47552">
        <ele>1905</ele>
        <time>2022-02-20T09:12:28Z</time>
      </trkpt>
      <trkpt lat="46.00016" lon="6.47549">
        <ele>1906</ele>
        <time>2022-02-20T09:12:53Z</time>
      </trkpt>
      <trkpt lat="46.00018" lon="6.47547">
        <ele>1906</ele>
        <time>2022-02-20T09:12:57Z</time>
      </trkpt>
      <trkpt lat="46.00019" lon="6.47545">
        <ele>1906</ele>
        <time>2022-02-20T09:13:01Z</time>
      </trkpt>
      <trkpt lat="46.00021" lon="6.47544">
        <ele>1907</ele>
        <time>2022-02-20T09:13:05Z</time>
      </trkpt>
      <trkpt lat="46.00022" lon="6.47542">
        <ele>1907</ele>
        <time>2022-02-20T09:13:09Z</time>
      </trkpt>
      <trkpt lat="46.00024" lon="6.4754">
        <ele>1909</ele>
        <time>2022-02-20T09:13:13Z</time>
      </trkpt>
      <trkpt lat="46.00026" lon="6.47539">
        <ele>1910</ele>
        <time>2022-02-20T09:13:17Z</time>
      </trkpt>
      <trkpt lat="46.00028" lon="6.47538">
        <ele>1911</ele>
        <time>2022-02-20T09:13:22Z</time>
      </trkpt>
      <trkpt lat="46.0003" lon="6.47537">
        <ele>1911</ele>
        <time>2022-02-20T09:13:27Z</time>
      </trkpt>
      <trkpt lat="46.00032" lon="6.47538">
        <ele>1912</ele>
        <time>2022-02-20T09:13:32Z</time>
      </trkpt>
      <trkpt lat="46.00034" lon="6.47538">
        <ele>1913</ele>
        <time>2022-02-20T09:13:37Z</time>
      </trkpt>
      <trkpt lat="46.00036" lon="6.47537">
        <ele>1914</ele>
        <time>2022-02-20T09:13:42Z</time>
      </trkpt>
      <trkpt lat="46.00037" lon="6.47535">
        <ele>1915</ele>
        <time>2022-02-20T09:13:48Z</time>
      </trkpt>
      <trkpt lat="46.00039" lon="6.47535">
        <ele>1916</ele>
        <time>2022-02-20T09:13:54Z</time>
      </trkpt>
      <trkpt lat="46.0004" lon="6.47537">
        <ele>1917</ele>
        <time>2022-02-20T09:13:59Z</time>
      </trkpt>
      <trkpt lat="46.00041" lon="6.4754">
        <ele>1918</ele>
        <time>2022-02-20T09:14:03Z</time>
      </trkpt>
      <trkpt lat="46.00043" lon="6.47542">
        <ele>1918</ele>
        <time>2022-02-20T09:14:07Z</time>
      </trkpt>
      <trkpt lat="46.00044" lon="6.47544">
        <ele>1919</ele>
        <time>2022-02-20T09:14:11Z</time>
      </trkpt>
      <trkpt lat="46.00046" lon="6.47545">
        <ele>1920</ele>
        <time>2022-02-20T09:14:15Z</time>
      </trkpt>
      <trkpt lat="46.00048" lon="6.47545">
        <ele>1920</ele>
        <time>2022-02-20T09:14:19Z</time>
      </trkpt>
      <trkpt lat="46.0005" lon="6.47544">
        <ele>1920</ele>
        <time>2022-02-20T09:14:23Z</time>
      </trkpt>
      <trkpt lat="46.00051" lon="6.47542">
        <ele>1922</ele>
        <time>2022-02-20T09:14:28Z</time>
      </trkpt>
      <trkpt lat="46.00052" lon="6.4754">
        <ele>1923</ele>
        <time>2022-02-20T09:14:33Z</time>
      </trkpt>
      <trkpt lat="46.00054" lon="6.47537">
        <ele>1923</ele>
        <time>2022-02-20T09:14:37Z</time>
      </trkpt>
      <trkpt lat="46.00055" lon="6.47535">
        <ele>1924</ele>
        <time>2022-02-20T09:14:41Z</time>
      </trkpt>
      <trkpt lat="46.00056" lon="6.47533">
        <ele>1925</ele>
        <time>2022-02-20T09:14:45Z</time>
      </trkpt>
      <trkpt lat="46.00057" lon="6.47531">
        <ele>1925</ele>
        <time>2022-02-20T09:14:49Z</time>
      </trkpt>
      <trkpt lat="46.00058" lon="6.47528">
        <ele>1925</ele>
        <time>2022-02-20T09:14:53Z</time>
      </trkpt>
      <trkpt lat="46.0006" lon="6.4753">
        <ele>1927</ele>
        <time>2022-02-20T09:15:12Z</time>
      </trkpt>
      <trkpt lat="46.00062" lon="6.47531">
        <ele>1928</ele>
        <time>2022-02-20T09:15:18Z</time>
      </trkpt>
      <trkpt lat="46.00063" lon="6.47533">
        <ele>1929</ele>
        <time>2022-02-20T09:15:22Z</time>
      </trkpt>
      <trkpt lat="46.00065" lon="6.47535">
        <ele>1930</ele>
        <time>2022-02-20T09:15:27Z</time>
      </trkpt>
      <trkpt lat="46.00066" lon="6.47537">
        <ele>1931</ele>
        <time>2022-02-20T09:15:32Z</time>
      </trkpt>
      <trkpt lat="46.00068" lon="6.47539">
        <ele>1932</ele>
        <time>2022-02-20T09:15:37Z</time>
      </trkpt>
      <trkpt lat="46.00069" lon="6.47541">
        <ele>1932</ele>
        <time>2022-02-20T09:15:42Z</time>
      </trkpt>
      <trkpt lat="46.00071" lon="6.47541">
        <ele>1933</ele>
        <time>2022-02-20T09:15:46Z</time>
      </trkpt>
      <trkpt lat="46.00072" lon="6.47538">
        <ele>1934</ele>
        <time>2022-02-20T09:16:06Z</time>
      </trkpt>
      <trkpt lat="46.00073" lon="6.47536">
        <ele>1935</ele>
        <time>2022-02-20T09:16:10Z</time>
      </trkpt>
      <trkpt lat="46.00074" lon="6.47533">
        <ele>1935</ele>
        <time>2022-02-20T09:16:14Z</time>
      </trkpt>
      <trkpt lat="46.00075" lon="6.47531">
        <ele>1936</ele>
        <time>2022-02-20T09:16:18Z</time>
      </trkpt>
      <trkpt lat="46.00076" lon="6.47528">
        <ele>1936</ele>
        <time>2022-02-20T09:16:22Z</time>
      </trkpt>
      <trkpt lat="46.00078" lon="6.47527">
        <ele>1937</ele>
        <time>2022-02-20T09:16:27Z</time>
      </trkpt>
      <trkpt lat="46.0008" lon="6.47528">
        <ele>1938</ele>
        <time>2022-02-20T09:16:32Z</time>
      </trkpt>
      <trkpt lat="46.00082" lon="6.47529">
        <ele>1939</ele>
        <time>2022-02-20T09:16:35Z</time>
      </trkpt>
      <trkpt lat="46.00084" lon="6.4753">
        <ele>1940</ele>
        <time>2022-02-20T09:16:40Z</time>
      </trkpt>
      <trkpt lat="46.00086" lon="6.47531">
        <ele>1941</ele>
        <time>2022-02-20T09:16:44Z</time>
      </trkpt>
      <trkpt lat="46.00088" lon="6.47532">
        <ele>1941</ele>
        <time>2022-02-20T09:16:48Z</time>
      </trkpt>
      <trkpt lat="46.0009" lon="6.47533">
        <ele>1941</ele>
        <time>2022-02-20T09:16:52Z</time>
      </trkpt>
      <trkpt lat="46.00091" lon="6.47531">
        <ele>1942</ele>
        <time>2022-02-20T09:16:57Z</time>
      </trkpt>
      <trkpt lat="46.00092" lon="6.47529">
        <ele>1943</ele>
        <time>2022-02-20T09:17:01Z</time>
      </trkpt>
      <trkpt lat="46.00094" lon="6.47528">
        <ele>1944</ele>
        <time>2022-02-20T09:17:07Z</time>
      </trkpt>
      <trkpt lat="46.00096" lon="6.47527">
        <ele>1944</ele>
        <time>2022-02-20T09:17:11Z</time>
      </trkpt>
      <trkpt lat="46.00098" lon="6.47526">
        <ele>1945</ele>
        <time>2022-02-20T09:17:16Z</time>
      </trkpt>
      <trkpt lat="46.001" lon="6.47525">
        <ele>1946</ele>
        <time>2022-02-20T09:17:22Z</time>
      </trkpt>
      <trkpt lat="46.00102" lon="6.47524">
        <ele>1947</ele>
        <time>2022-02-20T09:17:26Z</time>
      </trkpt>
      <trkpt lat="46.00104" lon="6.47523">
        <ele>1947</ele>
        <time>2022-02-20T09:17:30Z</time>
      </trkpt>
      <trkpt lat="46.00106" lon="6.47523">
        <ele>1948</ele>
        <time>2022-02-20T09:17:34Z</time>
      </trkpt>
      <trkpt lat="46.00108" lon="6.47522">
        <ele>1948</ele>
        <time>2022-02-20T09:17:39Z</time>
      </trkpt>
      <trkpt lat="46.0011" lon="6.47522">
        <ele>1950</ele>
        <time>2022-02-20T09:17:43Z</time>
      </trkpt>
      <trkpt lat="46.00112" lon="6.47522">
        <ele>1951</ele>
        <time>2022-02-20T09:17:51Z</time>
      </trkpt>
      <trkpt lat="46.00114" lon="6.47522">
        <ele>1951</ele>
        <time>2022-02-20T09:17:55Z</time>
      </trkpt>
      <trkpt lat="46.00116" lon="6.47522">
        <ele>1952</ele>
        <time>2022-02-20T09:17:59Z</time>
      </trkpt>
      <trkpt lat="46.00118" lon="6.47522">
        <ele>1952</ele>
        <time>2022-02-20T09:18:04Z</time>
      </trkpt>
      <trkpt lat="46.0012" lon="6.47522">
        <ele>1952</ele>
        <time>2022-02-20T09:18:08Z</time>
      </trkpt>
      <trkpt lat="46.00122" lon="6.47521">
        <ele>1953</ele>
        <time>2022-02-20T09:18:13Z</time>
      </trkpt>
      <trkpt lat="46.00124" lon="6.47521">
        <ele>1954</ele>
        <time>2022-02-20T09:18:16Z</time>
      </trkpt>
      <trkpt lat="46.00125" lon="6.4752">
        <ele>1954</ele>
        <time>2022-02-20T09:18:20Z</time>
      </trkpt>
      <trkpt lat="46.00125" lon="6.47523">
        <ele>1956</ele>
        <time>2022-02-20T09:20:41Z</time>
      </trkpt>
      <trkpt lat="46.00127" lon="6.47521">
        <ele>1956</ele>
        <time>2022-02-20T09:21:27Z</time>
      </trkpt>
      <trkpt lat="46.00127" lon="6.47523">
        <ele>1957</ele>
        <time>2022-02-20T09:21:55Z</time>
      </trkpt>
      <trkpt lat="46.00129" lon="6.47522">
        <ele>1957</ele>
        <time>2022-02-20T09:25:11Z</time>
      </trkpt>
      <trkpt lat="46.00131" lon="6.47522">
        <ele>1957</ele>
        <time>2022-02-20T09:25:18Z</time>
      </trkpt>
      <trkpt lat="46.00133" lon="6.4752">
        <ele>1957</ele>
        <time>2022-02-20T09:25:22Z</time>
      </trkpt>
      <trkpt lat="46.00134" lon="6.47518">
        <ele>1957</ele>
        <time>2022-02-20T09:25:30Z</time>
      </trkpt>
      <trkpt lat="46.00136" lon="6.47515">
        <ele>1958</ele>
        <time>2022-02-20T09:25:34Z</time>
      </trkpt>
      <trkpt lat="46.00137" lon="6.47513">
        <ele>1958</ele>
        <time>2022-02-20T09:25:38Z</time>
      </trkpt>
      <trkpt lat="46.00139" lon="6.47511">
        <ele>1959</ele>
        <time>2022-02-20T09:25:42Z</time>
      </trkpt>
      <trkpt lat="46.00141" lon="6.47509">
        <ele>1960</ele>
        <time>2022-02-20T09:25:46Z</time>
      </trkpt>
      <trkpt lat="46.00142" lon="6.47507">
        <ele>1961</ele>
        <time>2022-02-20T09:25:50Z</time>
      </trkpt>
      <trkpt lat="46.00142" lon="6.47504">
        <ele>1961</ele>
        <time>2022-02-20T09:25:53Z</time>
      </trkpt>
      <trkpt lat="46.00141" lon="6.47501">
        <ele>1962</ele>
        <time>2022-02-20T09:25:58Z</time>
      </trkpt>
      <trkpt lat="46.00141" lon="6.47498">
        <ele>1963</ele>
        <time>2022-02-20T09:26:02Z</time>
      </trkpt>
      <trkpt lat="46.0014" lon="6.47495">
        <ele>1963</ele>
        <time>2022-02-20T09:26:06Z</time>
      </trkpt>
      <trkpt lat="46.0014" lon="6.47492">
        <ele>1964</ele>
        <time>2022-02-20T09:26:10Z</time>
      </trkpt>
      <trkpt lat="46.0014" lon="6.47489">
        <ele>1965</ele>
        <time>2022-02-20T09:26:16Z</time>
      </trkpt>
      <trkpt lat="46.00139" lon="6.47486">
        <ele>1966</ele>
        <time>2022-02-20T09:26:23Z</time>
      </trkpt>
      <trkpt lat="46.0014" lon="6.47483">
        <ele>1966</ele>
        <time>2022-02-20T09:26:27Z</time>
      </trkpt>
      <trkpt lat="46.0014" lon="6.47481">
        <ele>1967</ele>
        <time>2022-02-20T09:26:32Z</time>
      </trkpt>
      <trkpt lat="46.0014" lon="6.47478">
        <ele>1968</ele>
        <time>2022-02-20T09:26:37Z</time>
      </trkpt>
      <trkpt lat="46.0014" lon="6.47475">
        <ele>1969</ele>
        <time>2022-02-20T09:26:42Z</time>
      </trkpt>
      <trkpt lat="46.0014" lon="6.47472">
        <ele>1969</ele>
        <time>2022-02-20T09:26:46Z</time>
      </trkpt>
      <trkpt lat="46.0014" lon="6.47469">
        <ele>1969</ele>
        <time>2022-02-20T09:26:50Z</time>
      </trkpt>
      <trkpt lat="46.0014" lon="6.47467">
        <ele>1970</ele>
        <time>2022-02-20T09:26:54Z</time>
      </trkpt>
      <trkpt lat="46.0014" lon="6.47464">
        <ele>1970</ele>
        <time>2022-02-20T09:26:58Z</time>
      </trkpt>
      <trkpt lat="46.00141" lon="6.47461">
        <ele>1971</ele>
        <time>2022-02-20T09:27:02Z</time>
      </trkpt>
      <trkpt lat="46.00141" lon="6.47459">
        <ele>1972</ele>
        <time>2022-02-20T09:27:06Z</time>
      </trkpt>
      <trkpt lat="46.00141" lon="6.47455">
        <ele>1973</ele>
        <time>2022-02-20T09:27:10Z</time>
      </trkpt>
      <trkpt lat="46.00141" lon="6.47452">
        <ele>1973</ele>
        <time>2022-02-20T09:27:14Z</time>
      </trkpt>
      <trkpt lat="46.00141" lon="6.47449">
        <ele>1974</ele>
        <time>2022-02-20T09:27:18Z</time>
      </trkpt>
      <trkpt lat="46.00141" lon="6.47446">
        <ele>1974</ele>
        <time>2022-02-20T09:27:22Z</time>
      </trkpt>
      <trkpt lat="46.00141" lon="6.47443">
        <ele>1974</ele>
        <time>2022-02-20T09:27:26Z</time>
      </trkpt>
      <trkpt lat="46.00141" lon="6.4744">
        <ele>1975</ele>
        <time>2022-02-20T09:27:30Z</time>
      </trkpt>
      <trkpt lat="46.0014" lon="6.47437">
        <ele>1975</ele>
        <time>2022-02-20T09:27:34Z</time>
      </trkpt>
      <trkpt lat="46.00139" lon="6.47435">
        <ele>1975</ele>
        <time>2022-02-20T09:27:38Z</time>
      </trkpt>
      <trkpt lat="46.00139" lon="6.47432">
        <ele>1976</ele>
        <time>2022-02-20T09:27:41Z</time>
      </trkpt>
      <trkpt lat="46.00138" lon="6.47429">
        <ele>1977</ele>
        <time>2022-02-20T09:27:46Z</time>
      </trkpt>
      <trkpt lat="46.00137" lon="6.47427">
        <ele>1978</ele>
        <time>2022-02-20T09:27:51Z</time>
      </trkpt>
      <trkpt lat="46.00136" lon="6.47425">
        <ele>1979</ele>
        <time>2022-02-20T09:27:55Z</time>
      </trkpt>
      <trkpt lat="46.00135" lon="6.47422">
        <ele>1980</ele>
        <time>2022-02-20T09:27:59Z</time>
      </trkpt>
      <trkpt lat="46.00134" lon="6.47419">
        <ele>1980</ele>
        <time>2022-02-20T09:28:04Z</time>
      </trkpt>
      <trkpt lat="46.00134" lon="6.47417">
        <ele>1980</ele>
        <time>2022-02-20T09:28:08Z</time>
      </trkpt>
      <trkpt lat="46.00134" lon="6.47413">
        <ele>1982</ele>
        <time>2022-02-20T09:28:13Z</time>
      </trkpt>
      <trkpt lat="46.00133" lon="6.4741">
        <ele>1982</ele>
        <time>2022-02-20T09:28:18Z</time>
      </trkpt>
      <trkpt lat="46.00134" lon="6.47408">
        <ele>1983</ele>
        <time>2022-02-20T09:28:23Z</time>
      </trkpt>
      <trkpt lat="46.00135" lon="6.47405">
        <ele>1984</ele>
        <time>2022-02-20T09:28:28Z</time>
      </trkpt>
      <trkpt lat="46.00135" lon="6.47403">
        <ele>1984</ele>
        <time>2022-02-20T09:28:32Z</time>
      </trkpt>
      <trkpt lat="46.00136" lon="6.474">
        <ele>1984</ele>
        <time>2022-02-20T09:28:35Z</time>
      </trkpt>
      <trkpt lat="46.00137" lon="6.47397">
        <ele>1985</ele>
        <time>2022-02-20T09:28:38Z</time>
      </trkpt>
      <trkpt lat="46.00138" lon="6.47394">
        <ele>1987</ele>
        <time>2022-02-20T09:28:43Z</time>
      </trkpt>
      <trkpt lat="46.00139" lon="6.47392">
        <ele>1988</ele>
        <time>2022-02-20T09:28:46Z</time>
      </trkpt>
      <trkpt lat="46.00141" lon="6.4739">
        <ele>1988</ele>
        <time>2022-02-20T09:28:50Z</time>
      </trkpt>
      <trkpt lat="46.00143" lon="6.4739">
        <ele>1989</ele>
        <time>2022-02-20T09:28:56Z</time>
      </trkpt>
      <trkpt lat="46.00145" lon="6.4739">
        <ele>1990</ele>
        <time>2022-02-20T09:29:00Z</time>
      </trkpt>
      <trkpt lat="46.00147" lon="6.4739">
        <ele>1991</ele>
        <time>2022-02-20T09:29:06Z</time>
      </trkpt>
      <trkpt lat="46.00149" lon="6.47391">
        <ele>1992</ele>
        <time>2022-02-20T09:29:11Z</time>
      </trkpt>
      <trkpt lat="46.00151" lon="6.47391">
        <ele>1992</ele>
        <time>2022-02-20T09:29:16Z</time>
      </trkpt>
      <trkpt lat="46.00153" lon="6.47392">
        <ele>1993</ele>
        <time>2022-02-20T09:29:21Z</time>
      </trkpt>
      <trkpt lat="46.00155" lon="6.47392">
        <ele>1994</ele>
        <time>2022-02-20T09:29:27Z</time>
      </trkpt>
      <trkpt lat="46.00156" lon="6.47392">
        <ele>1995</ele>
        <time>2022-02-20T09:29:31Z</time>
      </trkpt>
      <trkpt lat="46.00159" lon="6.47392">
        <ele>1996</ele>
        <time>2022-02-20T09:29:36Z</time>
      </trkpt>
      <trkpt lat="46.00161" lon="6.47392">
        <ele>1996</ele>
        <time>2022-02-20T09:29:41Z</time>
      </trkpt>
      <trkpt lat="46.00162" lon="6.4739">
        <ele>1996</ele>
        <time>2022-02-20T09:29:45Z</time>
      </trkpt>
      <trkpt lat="46.00164" lon="6.47389">
        <ele>1998</ele>
        <time>2022-02-20T09:29:50Z</time>
      </trkpt>
      <trkpt lat="46.00166" lon="6.47388">
        <ele>1998</ele>
        <time>2022-02-20T09:29:56Z</time>
      </trkpt>
      <trkpt lat="46.00168" lon="6.47387">
        <ele>1998</ele>
        <time>2022-02-20T09:30:00Z</time>
      </trkpt>
      <trkpt lat="46.0017" lon="6.47387">
        <ele>2000</ele>
        <time>2022-02-20T09:30:04Z</time>
      </trkpt>
      <trkpt lat="46.00172" lon="6.47386">
        <ele>2001</ele>
        <time>2022-02-20T09:30:09Z</time>
      </trkpt>
      <trkpt lat="46.00174" lon="6.47386">
        <ele>2001</ele>
        <time>2022-02-20T09:30:14Z</time>
      </trkpt>
      <trkpt lat="46.00176" lon="6.47385">
        <ele>2002</ele>
        <time>2022-02-20T09:30:18Z</time>
      </trkpt>
      <trkpt lat="46.00178" lon="6.47385">
        <ele>2002</ele>
        <time>2022-02-20T09:30:23Z</time>
      </trkpt>
      <trkpt lat="46.0018" lon="6.47384">
        <ele>2003</ele>
        <time>2022-02-20T09:30:28Z</time>
      </trkpt>
      <trkpt lat="46.00182" lon="6.47384">
        <ele>2003</ele>
        <time>2022-02-20T09:30:34Z</time>
      </trkpt>
      <trkpt lat="46.00184" lon="6.47383">
        <ele>2005</ele>
        <time>2022-02-20T09:30:39Z</time>
      </trkpt>
      <trkpt lat="46.00186" lon="6.47382">
        <ele>2006</ele>
        <time>2022-02-20T09:30:45Z</time>
      </trkpt>
      <trkpt lat="46.00188" lon="6.47382">
        <ele>2006</ele>
        <time>2022-02-20T09:30:49Z</time>
      </trkpt>
      <trkpt lat="46.0019" lon="6.47382">
        <ele>2007</ele>
        <time>2022-02-20T09:30:53Z</time>
      </trkpt>
      <trkpt lat="46.00192" lon="6.47383">
        <ele>2008</ele>
        <time>2022-02-20T09:30:58Z</time>
      </trkpt>
      <trkpt lat="46.00194" lon="6.47383">
        <ele>2008</ele>
        <time>2022-02-20T09:31:02Z</time>
      </trkpt>
      <trkpt lat="46.00196" lon="6.47384">
        <ele>2008</ele>
        <time>2022-02-20T09:31:06Z</time>
      </trkpt>
      <trkpt lat="46.00198" lon="6.47384">
        <ele>2009</ele>
        <time>2022-02-20T09:31:10Z</time>
      </trkpt>
      <trkpt lat="46.002" lon="6.47385">
        <ele>2010</ele>
        <time>2022-02-20T09:31:14Z</time>
      </trkpt>
      <trkpt lat="46.00202" lon="6.47384">
        <ele>2012</ele>
        <time>2022-02-20T09:31:18Z</time>
      </trkpt>
      <trkpt lat="46.00204" lon="6.47384">
        <ele>2013</ele>
        <time>2022-02-20T09:31:22Z</time>
      </trkpt>
      <trkpt lat="46.00206" lon="6.47384">
        <ele>2013</ele>
        <time>2022-02-20T09:31:26Z</time>
      </trkpt>
      <trkpt lat="46.00208" lon="6.47383">
        <ele>2014</ele>
        <time>2022-02-20T09:31:29Z</time>
      </trkpt>
      <trkpt lat="46.0021" lon="6.47381">
        <ele>2014</ele>
        <time>2022-02-20T09:31:34Z</time>
      </trkpt>
      <trkpt lat="46.00212" lon="6.4738">
        <ele>2015</ele>
        <time>2022-02-20T09:31:54Z</time>
      </trkpt>
      <trkpt lat="46.00213" lon="6.47377">
        <ele>2016</ele>
        <time>2022-02-20T09:31:58Z</time>
      </trkpt>
      <trkpt lat="46.00215" lon="6.47376">
        <ele>2016</ele>
        <time>2022-02-20T09:32:01Z</time>
      </trkpt>
      <trkpt lat="46.00216" lon="6.47375">
        <ele>2017</ele>
        <time>2022-02-20T09:32:05Z</time>
      </trkpt>
      <trkpt lat="46.00218" lon="6.47372">
        <ele>2017</ele>
        <time>2022-02-20T09:32:10Z</time>
      </trkpt>
      <trkpt lat="46.0022" lon="6.47371">
        <ele>2017</ele>
        <time>2022-02-20T09:32:14Z</time>
      </trkpt>
      <trkpt lat="46.00222" lon="6.4737">
        <ele>2018</ele>
        <time>2022-02-20T09:32:18Z</time>
      </trkpt>
      <trkpt lat="46.00224" lon="6.47369">
        <ele>2019</ele>
        <time>2022-02-20T09:32:22Z</time>
      </trkpt>
      <trkpt lat="46.00226" lon="6.47368">
        <ele>2019</ele>
        <time>2022-02-20T09:32:26Z</time>
      </trkpt>
      <trkpt lat="46.00228" lon="6.47366">
        <ele>2019</ele>
        <time>2022-02-20T09:32:30Z</time>
      </trkpt>
      <trkpt lat="46.0023" lon="6.47365">
        <ele>2020</ele>
        <time>2022-02-20T09:32:37Z</time>
      </trkpt>
      <trkpt lat="46.00233" lon="6.47366">
        <ele>2020</ele>
        <time>2022-02-20T09:32:40Z</time>
      </trkpt>
      <trkpt lat="46.00235" lon="6.47366">
        <ele>2021</ele>
        <time>2022-02-20T09:32:46Z</time>
      </trkpt>
      <trkpt lat="46.00236" lon="6.47367">
        <ele>2022</ele>
        <time>2022-02-20T09:32:50Z</time>
      </trkpt>
      <trkpt lat="46.00238" lon="6.47368">
        <ele>2022</ele>
        <time>2022-02-20T09:32:53Z</time>
      </trkpt>
      <trkpt lat="46.0024" lon="6.47369">
        <ele>2022</ele>
        <time>2022-02-20T09:32:55Z</time>
      </trkpt>
      <trkpt lat="46.00241" lon="6.47365">
        <ele>2023</ele>
        <time>2022-02-20T09:32:59Z</time>
      </trkpt>
      <trkpt lat="46.0024" lon="6.47362">
        <ele>2023</ele>
        <time>2022-02-20T09:33:03Z</time>
      </trkpt>
      <trkpt lat="46.00239" lon="6.47359">
        <ele>2024</ele>
        <time>2022-02-20T09:33:07Z</time>
      </trkpt>
      <trkpt lat="46.00239" lon="6.47356">
        <ele>2025</ele>
        <time>2022-02-20T09:33:11Z</time>
      </trkpt>
      <trkpt lat="46.00239" lon="6.47353">
        <ele>2025</ele>
        <time>2022-02-20T09:33:15Z</time>
      </trkpt>
      <trkpt lat="46.00239" lon="6.47351">
        <ele>2026</ele>
        <time>2022-02-20T09:33:19Z</time>
      </trkpt>
      <trkpt lat="46.00239" lon="6.47348">
        <ele>2027</ele>
        <time>2022-02-20T09:33:25Z</time>
      </trkpt>
      <trkpt lat="46.0024" lon="6.47346">
        <ele>2027</ele>
        <time>2022-02-20T09:33:28Z</time>
      </trkpt>
      <trkpt lat="46.00242" lon="6.47345">
        <ele>2027</ele>
        <time>2022-02-20T09:33:30Z</time>
      </trkpt>
      <trkpt lat="46.00244" lon="6.47345">
        <ele>2029</ele>
        <time>2022-02-20T09:33:36Z</time>
      </trkpt>
      <trkpt lat="46.00246" lon="6.47345">
        <ele>2030</ele>
        <time>2022-02-20T09:33:42Z</time>
      </trkpt>
      <trkpt lat="46.00248" lon="6.47346">
        <ele>2030</ele>
        <time>2022-02-20T09:33:47Z</time>
      </trkpt>
      <trkpt lat="46.00249" lon="6.47348">
        <ele>2030</ele>
        <time>2022-02-20T09:34:01Z</time>
      </trkpt>
      <trkpt lat="46.00248" lon="6.47351">
        <ele>2031</ele>
        <time>2022-02-20T09:34:11Z</time>
      </trkpt>
      <trkpt lat="46.00249" lon="6.47353">
        <ele>2032</ele>
        <time>2022-02-20T09:34:18Z</time>
      </trkpt>
      <trkpt lat="46.00251" lon="6.47354">
        <ele>2032</ele>
        <time>2022-02-20T09:34:25Z</time>
      </trkpt>
      <trkpt lat="46.00253" lon="6.47355">
        <ele>2033</ele>
        <time>2022-02-20T09:34:30Z</time>
      </trkpt>
      <trkpt lat="46.00254" lon="6.47358">
        <ele>2034</ele>
        <time>2022-02-20T09:34:35Z</time>
      </trkpt>
      <trkpt lat="46.00256" lon="6.47359">
        <ele>2035</ele>
        <time>2022-02-20T09:34:41Z</time>
      </trkpt>
      <trkpt lat="46.00257" lon="6.47361">
        <ele>2036</ele>
        <time>2022-02-20T09:34:45Z</time>
      </trkpt>
      <trkpt lat="46.00259" lon="6.47363">
        <ele>2038</ele>
        <time>2022-02-20T09:34:51Z</time>
      </trkpt>
      <trkpt lat="46.0026" lon="6.47365">
        <ele>2038</ele>
        <time>2022-02-20T09:34:55Z</time>
      </trkpt>
      <trkpt lat="46.00261" lon="6.47367">
        <ele>2039</ele>
        <time>2022-02-20T09:35:00Z</time>
      </trkpt>
      <trkpt lat="46.00263" lon="6.47369">
        <ele>2039</ele>
        <time>2022-02-20T09:35:05Z</time>
      </trkpt>
      <trkpt lat="46.00265" lon="6.47371">
        <ele>2039</ele>
        <time>2022-02-20T09:35:09Z</time>
      </trkpt>
      <trkpt lat="46.00267" lon="6.47373">
        <ele>2038</ele>
        <time>2022-02-20T09:35:11Z</time>
      </trkpt>
      <trkpt lat="46.00269" lon="6.47375">
        <ele>2038</ele>
        <time>2022-02-20T09:35:13Z</time>
      </trkpt>
      <trkpt lat="46.00271" lon="6.47375">
        <ele>2038</ele>
        <time>2022-02-20T09:35:17Z</time>
      </trkpt>
      <trkpt lat="46.00273" lon="6.47376">
        <ele>2039</ele>
        <time>2022-02-20T09:35:21Z</time>
      </trkpt>
      <trkpt lat="46.00275" lon="6.47376">
        <ele>2039</ele>
        <time>2022-02-20T09:35:24Z</time>
      </trkpt>
      <trkpt lat="46.00277" lon="6.47376">
        <ele>2039</ele>
        <time>2022-02-20T09:35:27Z</time>
      </trkpt>
      <trkpt lat="46.00279" lon="6.47377">
        <ele>2040</ele>
        <time>2022-02-20T09:35:32Z</time>
      </trkpt>
      <trkpt lat="46.00281" lon="6.47378">
        <ele>2041</ele>
        <time>2022-02-20T09:35:36Z</time>
      </trkpt>
      <trkpt lat="46.00283" lon="6.47378">
        <ele>2041</ele>
        <time>2022-02-20T09:35:39Z</time>
      </trkpt>
      <trkpt lat="46.00285" lon="6.47378">
        <ele>2042</ele>
        <time>2022-02-20T09:35:43Z</time>
      </trkpt>
      <trkpt lat="46.00288" lon="6.47378">
        <ele>2042</ele>
        <time>2022-02-20T09:35:46Z</time>
      </trkpt>
      <trkpt lat="46.0029" lon="6.47377">
        <ele>2043</ele>
        <time>2022-02-20T09:35:50Z</time>
      </trkpt>
      <trkpt lat="46.00292" lon="6.47377">
        <ele>2043</ele>
        <time>2022-02-20T09:35:53Z</time>
      </trkpt>
      <trkpt lat="46.00294" lon="6.47376">
        <ele>2044</ele>
        <time>2022-02-20T09:36:02Z</time>
      </trkpt>
      <trkpt lat="46.00296" lon="6.47376">
        <ele>2045</ele>
        <time>2022-02-20T09:36:06Z</time>
      </trkpt>
      <trkpt lat="46.00298" lon="6.47375">
        <ele>2046</ele>
        <time>2022-02-20T09:36:10Z</time>
      </trkpt>
      <trkpt lat="46.003" lon="6.47375">
        <ele>2046</ele>
        <time>2022-02-20T09:36:13Z</time>
      </trkpt>
      <trkpt lat="46.00302" lon="6.47376">
        <ele>2046</ele>
        <time>2022-02-20T09:36:17Z</time>
      </trkpt>
      <trkpt lat="46.00304" lon="6.47376">
        <ele>2047</ele>
        <time>2022-02-20T09:36:21Z</time>
      </trkpt>
      <trkpt lat="46.00306" lon="6.47377">
        <ele>2048</ele>
        <time>2022-02-20T09:36:25Z</time>
      </trkpt>
      <trkpt lat="46.00308" lon="6.47377">
        <ele>2049</ele>
        <time>2022-02-20T09:36:30Z</time>
      </trkpt>
      <trkpt lat="46.0031" lon="6.47378">
        <ele>2050</ele>
        <time>2022-02-20T09:36:37Z</time>
      </trkpt>
      <trkpt lat="46.00312" lon="6.47378">
        <ele>2052</ele>
        <time>2022-02-20T09:36:46Z</time>
      </trkpt>
      <trkpt lat="46.00314" lon="6.47378">
        <ele>2053</ele>
        <time>2022-02-20T09:36:50Z</time>
      </trkpt>
      <trkpt lat="46.00316" lon="6.47378">
        <ele>2053</ele>
        <time>2022-02-20T09:36:54Z</time>
      </trkpt>
      <trkpt lat="46.00318" lon="6.47378">
        <ele>2054</ele>
        <time>2022-02-20T09:36:58Z</time>
      </trkpt>
      <trkpt lat="46.0032" lon="6.47378">
        <ele>2055</ele>
        <time>2022-02-20T09:37:02Z</time>
      </trkpt>
      <trkpt lat="46.00322" lon="6.47378">
        <ele>2055</ele>
        <time>2022-02-20T09:37:05Z</time>
      </trkpt>
      <trkpt lat="46.00324" lon="6.47378">
        <ele>2055</ele>
        <time>2022-02-20T09:37:07Z</time>
      </trkpt>
      <trkpt lat="46.00326" lon="6.47378">
        <ele>2055</ele>
        <time>2022-02-20T09:37:10Z</time>
      </trkpt>
      <trkpt lat="46.00328" lon="6.47377">
        <ele>2055</ele>
        <time>2022-02-20T09:37:14Z</time>
      </trkpt>
      <trkpt lat="46.0033" lon="6.47376">
        <ele>2056</ele>
        <time>2022-02-20T09:37:17Z</time>
      </trkpt>
      <trkpt lat="46.00332" lon="6.47375">
        <ele>2057</ele>
        <time>2022-02-20T09:37:21Z</time>
      </trkpt>
      <trkpt lat="46.00334" lon="6.47375">
        <ele>2057</ele>
        <time>2022-02-20T09:37:25Z</time>
      </trkpt>
      <trkpt lat="46.00335" lon="6.47373">
        <ele>2057</ele>
        <time>2022-02-20T09:37:29Z</time>
      </trkpt>
      <trkpt lat="46.00337" lon="6.47372">
        <ele>2058</ele>
        <time>2022-02-20T09:37:35Z</time>
      </trkpt>
      <trkpt lat="46.00339" lon="6.47371">
        <ele>2059</ele>
        <time>2022-02-20T09:37:40Z</time>
      </trkpt>
      <trkpt lat="46.00341" lon="6.4737">
        <ele>2059</ele>
        <time>2022-02-20T09:37:45Z</time>
      </trkpt>
      <trkpt lat="46.00342" lon="6.47368">
        <ele>2059</ele>
        <time>2022-02-20T09:37:53Z</time>
      </trkpt>
      <trkpt lat="46.00344" lon="6.47367">
        <ele>2061</ele>
        <time>2022-02-20T09:37:56Z</time>
      </trkpt>
      <trkpt lat="46.00347" lon="6.47366">
        <ele>2061</ele>
        <time>2022-02-20T09:37:59Z</time>
      </trkpt>
      <trkpt lat="46.00349" lon="6.47365">
        <ele>2061</ele>
        <time>2022-02-20T09:38:03Z</time>
      </trkpt>
      <trkpt lat="46.00351" lon="6.47364">
        <ele>2062</ele>
        <time>2022-02-20T09:38:06Z</time>
      </trkpt>
      <trkpt lat="46.00352" lon="6.47362">
        <ele>2064</ele>
        <time>2022-02-20T09:38:11Z</time>
      </trkpt>
      <trkpt lat="46.00354" lon="6.4736">
        <ele>2064</ele>
        <time>2022-02-20T09:38:16Z</time>
      </trkpt>
      <trkpt lat="46.00355" lon="6.47358">
        <ele>2065</ele>
        <time>2022-02-20T09:38:21Z</time>
      </trkpt>
      <trkpt lat="46.00357" lon="6.47358">
        <ele>2066</ele>
        <time>2022-02-20T09:38:25Z</time>
      </trkpt>
      <trkpt lat="46.00359" lon="6.47357">
        <ele>2066</ele>
        <time>2022-02-20T09:38:29Z</time>
      </trkpt>
      <trkpt lat="46.00361" lon="6.47355">
        <ele>2067</ele>
        <time>2022-02-20T09:38:34Z</time>
      </trkpt>
      <trkpt lat="46.00363" lon="6.47353">
        <ele>2068</ele>
        <time>2022-02-20T09:38:45Z</time>
      </trkpt>
      <trkpt lat="46.00365" lon="6.47352">
        <ele>2069</ele>
        <time>2022-02-20T09:38:49Z</time>
      </trkpt>
      <trkpt lat="46.00366" lon="6.47352">
        <ele>2069</ele>
        <time>2022-02-20T09:38:52Z</time>
      </trkpt>
      <trkpt lat="46.00368" lon="6.47352">
        <ele>2069</ele>
        <time>2022-02-20T09:38:55Z</time>
      </trkpt>
      <trkpt lat="46.0037" lon="6.47351">
        <ele>2070</ele>
        <time>2022-02-20T09:39:01Z</time>
      </trkpt>
      <trkpt lat="46.00372" lon="6.47351">
        <ele>2070</ele>
        <time>2022-02-20T09:39:05Z</time>
      </trkpt>
      <trkpt lat="46.00374" lon="6.47349">
        <ele>2071</ele>
        <time>2022-02-20T09:39:10Z</time>
      </trkpt>
      <trkpt lat="46.00376" lon="6.47349">
        <ele>2071</ele>
        <time>2022-02-20T09:39:12Z</time>
      </trkpt>
      <trkpt lat="46.00378" lon="6.47347">
        <ele>2072</ele>
        <time>2022-02-20T09:39:18Z</time>
      </trkpt>
      <trkpt lat="46.00379" lon="6.47345">
        <ele>2073</ele>
        <time>2022-02-20T09:39:23Z</time>
      </trkpt>
      <trkpt lat="46.00381" lon="6.47344">
        <ele>2074</ele>
        <time>2022-02-20T09:39:28Z</time>
      </trkpt>
      <trkpt lat="46.00382" lon="6.47341">
        <ele>2074</ele>
        <time>2022-02-20T09:39:32Z</time>
      </trkpt>
      <trkpt lat="46.00383" lon="6.47339">
        <ele>2074</ele>
        <time>2022-02-20T09:39:36Z</time>
      </trkpt>
      <trkpt lat="46.00385" lon="6.47337">
        <ele>2075</ele>
        <time>2022-02-20T09:39:41Z</time>
      </trkpt>
      <trkpt lat="46.00386" lon="6.47335">
        <ele>2077</ele>
        <time>2022-02-20T09:39:47Z</time>
      </trkpt>
      <trkpt lat="46.00387" lon="6.47332">
        <ele>2078</ele>
        <time>2022-02-20T09:39:52Z</time>
      </trkpt>
      <trkpt lat="46.00387" lon="6.47329">
        <ele>2079</ele>
        <time>2022-02-20T09:39:58Z</time>
      </trkpt>
      <trkpt lat="46.00388" lon="6.47327">
        <ele>2079</ele>
        <time>2022-02-20T09:40:04Z</time>
      </trkpt>
      <trkpt lat="46.0039" lon="6.47325">
        <ele>2079</ele>
        <time>2022-02-20T09:40:08Z</time>
      </trkpt>
      <trkpt lat="46.00392" lon="6.47325">
        <ele>2080</ele>
        <time>2022-02-20T09:40:11Z</time>
      </trkpt>
      <trkpt lat="46.0039" lon="6.47324">
        <ele>2080</ele>
        <time>2022-02-20T09:40:26Z</time>
      </trkpt>
      <trkpt lat="46.00392" lon="6.47326">
        <ele>2080</ele>
        <time>2022-02-20T09:40:57Z</time>
      </trkpt>
      <trkpt lat="46.00394" lon="6.47327">
        <ele>2080</ele>
        <time>2022-02-20T09:41:17Z</time>
      </trkpt>
      <trkpt lat="46.00396" lon="6.47328">
        <ele>2080</ele>
        <time>2022-02-20T09:41:36Z</time>
      </trkpt>
      <trkpt lat="46.00397" lon="6.47326">
        <ele>2081</ele>
        <time>2022-02-20T09:41:43Z</time>
      </trkpt>
      <trkpt lat="46.00399" lon="6.47324">
        <ele>2082</ele>
        <time>2022-02-20T09:41:48Z</time>
      </trkpt>
      <trkpt lat="46.004" lon="6.47322">
        <ele>2082</ele>
        <time>2022-02-20T09:41:53Z</time>
      </trkpt>
      <trkpt lat="46.00402" lon="6.47321">
        <ele>2083</ele>
        <time>2022-02-20T09:41:58Z</time>
      </trkpt>
      <trkpt lat="46.00404" lon="6.47319">
        <ele>2084</ele>
        <time>2022-02-20T09:42:02Z</time>
      </trkpt>
      <trkpt lat="46.00406" lon="6.47317">
        <ele>2084</ele>
        <time>2022-02-20T09:42:07Z</time>
      </trkpt>
      <trkpt lat="46.00407" lon="6.47315">
        <ele>2085</ele>
        <time>2022-02-20T09:42:13Z</time>
      </trkpt>
      <trkpt lat="46.00409" lon="6.47313">
        <ele>2085</ele>
        <time>2022-02-20T09:42:17Z</time>
      </trkpt>
      <trkpt lat="46.0041" lon="6.47311">
        <ele>2087</ele>
        <time>2022-02-20T09:42:22Z</time>
      </trkpt>
      <trkpt lat="46.00412" lon="6.4731">
        <ele>2087</ele>
        <time>2022-02-20T09:42:27Z</time>
      </trkpt>
      <trkpt lat="46.00413" lon="6.47308">
        <ele>2088</ele>
        <time>2022-02-20T09:42:32Z</time>
      </trkpt>
      <trkpt lat="46.00416" lon="6.47308">
        <ele>2088</ele>
        <time>2022-02-20T09:42:36Z</time>
      </trkpt>
      <trkpt lat="46.00417" lon="6.47307">
        <ele>2090</ele>
        <time>2022-02-20T09:42:39Z</time>
      </trkpt>
      <trkpt lat="46.00419" lon="6.47306">
        <ele>2091</ele>
        <time>2022-02-20T09:42:47Z</time>
      </trkpt>
      <trkpt lat="46.00421" lon="6.47304">
        <ele>2092</ele>
        <time>2022-02-20T09:42:51Z</time>
      </trkpt>
      <trkpt lat="46.00423" lon="6.47303">
        <ele>2092</ele>
        <time>2022-02-20T09:42:53Z</time>
      </trkpt>
      <trkpt lat="46.00425" lon="6.47302">
        <ele>2093</ele>
        <time>2022-02-20T09:42:56Z</time>
      </trkpt>
      <trkpt lat="46.00426" lon="6.47301">
        <ele>2093</ele>
        <time>2022-02-20T09:42:59Z</time>
      </trkpt>
      <trkpt lat="46.00429" lon="6.473">
        <ele>2095</ele>
        <time>2022-02-20T09:43:04Z</time>
      </trkpt>
      <trkpt lat="46.00431" lon="6.47299">
        <ele>2095</ele>
        <time>2022-02-20T09:43:08Z</time>
      </trkpt>
      <trkpt lat="46.0043" lon="6.47296">
        <ele>2095</ele>
        <time>2022-02-20T09:43:14Z</time>
      </trkpt>
      <trkpt lat="46.00428" lon="6.47296">
        <ele>2096</ele>
        <time>2022-02-20T09:43:25Z</time>
      </trkpt>
      <trkpt lat="46.00427" lon="6.47299">
        <ele>2098</ele>
        <time>2022-02-20T09:43:34Z</time>
      </trkpt>
      <trkpt lat="46.00428" lon="6.47301">
        <ele>2098</ele>
        <time>2022-02-20T09:43:37Z</time>
      </trkpt>
      <trkpt lat="46.00427" lon="6.47304">
        <ele>2099</ele>
        <time>2022-02-20T09:43:41Z</time>
      </trkpt>
      <trkpt lat="46.00427" lon="6.47307">
        <ele>2099</ele>
        <time>2022-02-20T09:43:45Z</time>
      </trkpt>
      <trkpt lat="46.00426" lon="6.4731">
        <ele>2099</ele>
        <time>2022-02-20T09:43:49Z</time>
      </trkpt>
      <trkpt lat="46.00424" lon="6.4731">
        <ele>2100</ele>
        <time>2022-02-20T09:44:04Z</time>
      </trkpt>
      <trkpt lat="46.0042" lon="6.47314">
        <ele>2100</ele>
        <time>2022-02-20T09:44:26Z</time>
      </trkpt>
      <trkpt lat="46.00427" lon="6.47304">
        <ele>2099</ele>
        <time>2022-02-20T09:44:50Z</time>
      </trkpt>
      <trkpt lat="46.00427" lon="6.47307">
        <ele>2099</ele>
        <time>2022-02-20T09:45:22Z</time>
      </trkpt>
      <trkpt lat="46.00427" lon="6.4731">
        <ele>2099</ele>
        <time>2022-02-20T09:45:26Z</time>
      </trkpt>
      <trkpt lat="46.00426" lon="6.47313">
        <ele>2099</ele>
        <time>2022-02-20T09:45:44Z</time>
      </trkpt>
      <trkpt lat="46.00424" lon="6.47312">
        <ele>2099</ele>
        <time>2022-02-20T09:45:45Z</time>
      </trkpt>
      <trkpt lat="46.00422" lon="6.47309">
        <ele>2098</ele>
        <time>2022-02-20T09:45:49Z</time>
      </trkpt>
      <trkpt lat="46.00419" lon="6.47309">
        <ele>2099</ele>
        <time>2022-02-20T09:45:56Z</time>
      </trkpt>
      <trkpt lat="46.00421" lon="6.47312">
        <ele>2099</ele>
        <time>2022-02-20T09:46:00Z</time>
      </trkpt>
      <trkpt lat="46.00424" lon="6.47312">
        <ele>2099</ele>
        <time>2022-02-20T09:46:09Z</time>
      </trkpt>
      <trkpt lat="46.00425" lon="6.47312">
        <ele>2099</ele>
        <time>2022-02-20T09:46:21Z</time>
      </trkpt>
      <trkpt lat="46.00427" lon="6.47314">
        <ele>2099</ele>
        <time>2022-02-20T09:46:29Z</time>
      </trkpt>
      <trkpt lat="46.00425" lon="6.47314">
        <ele>2100</ele>
        <time>2022-02-20T09:46:35Z</time>
      </trkpt>
      <trkpt lat="46.00427" lon="6.47314">
        <ele>2099</ele>
        <time>2022-02-20T09:46:38Z</time>
      </trkpt>
      <trkpt lat="46.00424" lon="6.47315">
        <ele>2100</ele>
        <time>2022-02-20T09:46:43Z</time>
      </trkpt>
      <trkpt lat="46.00424" lon="6.47312">
        <ele>2100</ele>
        <time>2022-02-20T09:46:47Z</time>
      </trkpt>
      <trkpt lat="46.00422" lon="6.47317">
        <ele>2099</ele>
        <time>2022-02-20T09:46:53Z</time>
      </trkpt>
      <trkpt lat="46.00423" lon="6.47314">
        <ele>2100</ele>
        <time>2022-02-20T09:46:58Z</time>
      </trkpt>
      <trkpt lat="46.00423" lon="6.47317">
        <ele>2100</ele>
        <time>2022-02-20T09:47:08Z</time>
      </trkpt>
      <trkpt lat="46.00425" lon="6.47318">
        <ele>2102</ele>
        <time>2022-02-20T09:47:21Z</time>
      </trkpt>
      <trkpt lat="46.00427" lon="6.47316">
        <ele>2102</ele>
        <time>2022-02-20T09:47:23Z</time>
      </trkpt>
      <trkpt lat="46.00428" lon="6.47313">
        <ele>2102</ele>
        <time>2022-02-20T09:47:28Z</time>
      </trkpt>
      <trkpt lat="46.0043" lon="6.47312">
        <ele>2103</ele>
        <time>2022-02-20T09:47:32Z</time>
      </trkpt>
      <trkpt lat="46.00431" lon="6.4731">
        <ele>2104</ele>
        <time>2022-02-20T09:47:37Z</time>
      </trkpt>
      <trkpt lat="46.00433" lon="6.47308">
        <ele>2104</ele>
        <time>2022-02-20T09:47:40Z</time>
      </trkpt>
      <trkpt lat="46.00436" lon="6.47308">
        <ele>2105</ele>
        <time>2022-02-20T09:47:43Z</time>
      </trkpt>
      <trkpt lat="46.00438" lon="6.47307">
        <ele>2105</ele>
        <time>2022-02-20T09:47:47Z</time>
      </trkpt>
      <trkpt lat="46.0044" lon="6.47306">
        <ele>2105</ele>
        <time>2022-02-20T09:47:51Z</time>
      </trkpt>
      <trkpt lat="46.00441" lon="6.47305">
        <ele>2106</ele>
        <time>2022-02-20T09:47:54Z</time>
      </trkpt>
      <trkpt lat="46.00443" lon="6.47303">
        <ele>2106</ele>
        <time>2022-02-20T09:47:57Z</time>
      </trkpt>
      <trkpt lat="46.00444" lon="6.47302">
        <ele>2107</ele>
        <time>2022-02-20T09:48:03Z</time>
      </trkpt>
      <trkpt lat="46.00446" lon="6.473">
        <ele>2107</ele>
        <time>2022-02-20T09:48:08Z</time>
      </trkpt>
      <trkpt lat="46.00447" lon="6.47298">
        <ele>2108</ele>
        <time>2022-02-20T09:48:13Z</time>
      </trkpt>
      <trkpt lat="46.00449" lon="6.47296">
        <ele>2109</ele>
        <time>2022-02-20T09:48:16Z</time>
      </trkpt>
      <trkpt lat="46.0045" lon="6.47293">
        <ele>2109</ele>
        <time>2022-02-20T09:48:21Z</time>
      </trkpt>
      <trkpt lat="46.00451" lon="6.47291">
        <ele>2109</ele>
        <time>2022-02-20T09:48:24Z</time>
      </trkpt>
      <trkpt lat="46.00452" lon="6.47289">
        <ele>2110</ele>
        <time>2022-02-20T09:48:28Z</time>
      </trkpt>
      <trkpt lat="46.00454" lon="6.47287">
        <ele>2111</ele>
        <time>2022-02-20T09:48:34Z</time>
      </trkpt>
      <trkpt lat="46.00456" lon="6.47286">
        <ele>2112</ele>
        <time>2022-02-20T09:48:38Z</time>
      </trkpt>
      <trkpt lat="46.00457" lon="6.47285">
        <ele>2113</ele>
        <time>2022-02-20T09:48:42Z</time>
      </trkpt>
      <trkpt lat="46.00459" lon="6.47282">
        <ele>2113</ele>
        <time>2022-02-20T09:48:47Z</time>
      </trkpt>
      <trkpt lat="46.00459" lon="6.47279">
        <ele>2114</ele>
        <time>2022-02-20T09:48:52Z</time>
      </trkpt>
      <trkpt lat="46.0046" lon="6.47276">
        <ele>2114</ele>
        <time>2022-02-20T09:48:57Z</time>
      </trkpt>
      <trkpt lat="46.0046" lon="6.47274">
        <ele>2114</ele>
        <time>2022-02-20T09:49:02Z</time>
      </trkpt>
      <trkpt lat="46.00462" lon="6.47272">
        <ele>2116</ele>
        <time>2022-02-20T09:49:06Z</time>
      </trkpt>
      <trkpt lat="46.00462" lon="6.47269">
        <ele>2117</ele>
        <time>2022-02-20T09:49:10Z</time>
      </trkpt>
      <trkpt lat="46.00463" lon="6.47267">
        <ele>2117</ele>
        <time>2022-02-20T09:49:17Z</time>
      </trkpt>
      <trkpt lat="46.00464" lon="6.47264">
        <ele>2118</ele>
        <time>2022-02-20T09:49:21Z</time>
      </trkpt>
      <trkpt lat="46.00465" lon="6.47262">
        <ele>2119</ele>
        <time>2022-02-20T09:49:25Z</time>
      </trkpt>
      <trkpt lat="46.00468" lon="6.47261">
        <ele>2120</ele>
        <time>2022-02-20T09:49:31Z</time>
      </trkpt>
      <trkpt lat="46.00466" lon="6.47258">
        <ele>2121</ele>
        <time>2022-02-20T09:49:53Z</time>
      </trkpt>
      <trkpt lat="46.00467" lon="6.47255">
        <ele>2121</ele>
        <time>2022-02-20T09:49:58Z</time>
      </trkpt>
      <trkpt lat="46.00465" lon="6.47254">
        <ele>2122</ele>
        <time>2022-02-20T09:50:08Z</time>
      </trkpt>
      <trkpt lat="46.00462" lon="6.47254">
        <ele>2122</ele>
        <time>2022-02-20T09:50:11Z</time>
      </trkpt>
      <trkpt lat="46.00463" lon="6.47256">
        <ele>2122</ele>
        <time>2022-02-20T09:50:15Z</time>
      </trkpt>
      <trkpt lat="46.00462" lon="6.47259">
        <ele>2122</ele>
        <time>2022-02-20T09:50:19Z</time>
      </trkpt>
      <trkpt lat="46.00463" lon="6.47262">
        <ele>2123</ele>
        <time>2022-02-20T09:50:23Z</time>
      </trkpt>
      <trkpt lat="46.00464" lon="6.47267">
        <ele>2124</ele>
        <time>2022-02-20T09:50:29Z</time>
      </trkpt>
      <trkpt lat="46.00462" lon="6.47269">
        <ele>2124</ele>
        <time>2022-02-20T09:50:31Z</time>
      </trkpt>
      <trkpt lat="46.00461" lon="6.47272">
        <ele>2124</ele>
        <time>2022-02-20T09:50:33Z</time>
      </trkpt>
      <trkpt lat="46.0046" lon="6.47275">
        <ele>2126</ele>
        <time>2022-02-20T09:50:39Z</time>
      </trkpt>
      <trkpt lat="46.00461" lon="6.47276">
        <ele>2126</ele>
        <time>2022-02-20T09:50:40Z</time>
      </trkpt>
      <trkpt lat="46.00465" lon="6.47281">
        <ele>2126</ele>
        <time>2022-02-20T09:50:46Z</time>
      </trkpt>
      <trkpt lat="46.00466" lon="6.47282">
        <ele>2127</ele>
        <time>2022-02-20T09:50:51Z</time>
      </trkpt>
      <trkpt lat="46.00467" lon="6.47285">
        <ele>2127</ele>
        <time>2022-02-20T09:50:56Z</time>
      </trkpt>
      <trkpt lat="46.00467" lon="6.4729">
        <ele>2130</ele>
        <time>2022-02-20T09:51:10Z</time>
      </trkpt>
      <trkpt lat="46.00471" lon="6.47299">
        <ele>2131</ele>
        <time>2022-02-20T09:51:32Z</time>
      </trkpt>
      <trkpt lat="46.0047" lon="6.47304">
        <ele>2131</ele>
        <time>2022-02-20T09:51:39Z</time>
      </trkpt>
      <trkpt lat="46.00471" lon="6.47308">
        <ele>2133</ele>
        <time>2022-02-20T09:51:45Z</time>
      </trkpt>
      <trkpt lat="46.0047" lon="6.4731">
        <ele>2133</ele>
        <time>2022-02-20T09:51:59Z</time>
      </trkpt>
      <trkpt lat="46.00473" lon="6.4731">
        <ele>2134</ele>
        <time>2022-02-20T09:52:06Z</time>
      </trkpt>
      <trkpt lat="46.00475" lon="6.47309">
        <ele>2135</ele>
        <time>2022-02-20T09:52:11Z</time>
      </trkpt>
      <trkpt lat="46.00477" lon="6.47308">
        <ele>2135</ele>
        <time>2022-02-20T09:52:14Z</time>
      </trkpt>
      <trkpt lat="46.00478" lon="6.47305">
        <ele>2136</ele>
        <time>2022-02-20T09:52:18Z</time>
      </trkpt>
      <trkpt lat="46.00483" lon="6.47303">
        <ele>2137</ele>
        <time>2022-02-20T09:52:26Z</time>
      </trkpt>
      <trkpt lat="46.00484" lon="6.47302">
        <ele>2137</ele>
        <time>2022-02-20T09:52:29Z</time>
      </trkpt>
      <trkpt lat="46.00485" lon="6.473">
        <ele>2138</ele>
        <time>2022-02-20T09:52:34Z</time>
      </trkpt>
      <trkpt lat="46.00486" lon="6.47297">
        <ele>2139</ele>
        <time>2022-02-20T09:52:39Z</time>
      </trkpt>
      <trkpt lat="46.00488" lon="6.47295">
        <ele>2140</ele>
        <time>2022-02-20T09:52:44Z</time>
      </trkpt>
      <trkpt lat="46.0049" lon="6.47296">
        <ele>2140</ele>
        <time>2022-02-20T09:52:45Z</time>
      </trkpt>
      <trkpt lat="46.00492" lon="6.47297">
        <ele>2140</ele>
        <time>2022-02-20T09:52:47Z</time>
      </trkpt>
      <trkpt lat="46.00493" lon="6.47294">
        <ele>2142</ele>
        <time>2022-02-20T09:52:51Z</time>
      </trkpt>
      <trkpt lat="46.00493" lon="6.47291">
        <ele>2142</ele>
        <time>2022-02-20T09:52:57Z</time>
      </trkpt>
      <trkpt lat="46.00493" lon="6.47288">
        <ele>2143</ele>
        <time>2022-02-20T09:53:03Z</time>
      </trkpt>
      <trkpt lat="46.00493" lon="6.47285">
        <ele>2144</ele>
        <time>2022-02-20T09:53:23Z</time>
      </trkpt>
      <trkpt lat="46.00494" lon="6.47283">
        <ele>2144</ele>
        <time>2022-02-20T09:53:27Z</time>
      </trkpt>
      <trkpt lat="46.00494" lon="6.4728">
        <ele>2146</ele>
        <time>2022-02-20T09:54:12Z</time>
      </trkpt>
      <trkpt lat="46.00494" lon="6.47278">
        <ele>2146</ele>
        <time>2022-02-20T09:54:15Z</time>
      </trkpt>
      <trkpt lat="46.00494" lon="6.4728">
        <ele>2147</ele>
        <time>2022-02-20T09:54:31Z</time>
      </trkpt>
      <trkpt lat="46.00495" lon="6.47283">
        <ele>2147</ele>
        <time>2022-02-20T09:54:36Z</time>
      </trkpt>
      <trkpt lat="46.00496" lon="6.47285">
        <ele>2147</ele>
        <time>2022-02-20T09:54:40Z</time>
      </trkpt>
      <trkpt lat="46.00496" lon="6.47288">
        <ele>2148</ele>
        <time>2022-02-20T09:54:44Z</time>
      </trkpt>
      <trkpt lat="46.00496" lon="6.47291">
        <ele>2148</ele>
        <time>2022-02-20T09:54:54Z</time>
      </trkpt>
      <trkpt lat="46.00496" lon="6.47294">
        <ele>2149</ele>
        <time>2022-02-20T09:54:58Z</time>
      </trkpt>
      <trkpt lat="46.00496" lon="6.47297">
        <ele>2150</ele>
        <time>2022-02-20T09:55:03Z</time>
      </trkpt>
      <trkpt lat="46.00498" lon="6.47298">
        <ele>2151</ele>
        <time>2022-02-20T09:55:17Z</time>
      </trkpt>
      <trkpt lat="46.00499" lon="6.47299">
        <ele>2151</ele>
        <time>2022-02-20T09:55:26Z</time>
      </trkpt>
      <trkpt lat="46.00509" lon="6.473">
        <ele>2151</ele>
        <time>2022-02-20T09:55:42Z</time>
      </trkpt>
      <trkpt lat="46.0051" lon="6.47304">
        <ele>2151</ele>
        <time>2022-02-20T09:55:55Z</time>
      </trkpt>
      <trkpt lat="46.00507" lon="6.47302">
        <ele>2152</ele>
        <time>2022-02-20T09:55:58Z</time>
      </trkpt>
      <trkpt lat="46.00506" lon="6.47299">
        <ele>2152</ele>
        <time>2022-02-20T09:56:04Z</time>
      </trkpt>
      <trkpt lat="46.00504" lon="6.47298">
        <ele>2151</ele>
        <time>2022-02-20T09:56:07Z</time>
      </trkpt>
      <trkpt lat="46.00504" lon="6.47295">
        <ele>2152</ele>
        <time>2022-02-20T09:56:13Z</time>
      </trkpt>
      <trkpt lat="46.00505" lon="6.47293">
        <ele>2153</ele>
        <time>2022-02-20T09:56:18Z</time>
      </trkpt>
      <trkpt lat="46.00505" lon="6.4729">
        <ele>2153</ele>
        <time>2022-02-20T09:56:23Z</time>
      </trkpt>
      <trkpt lat="46.00506" lon="6.47287">
        <ele>2154</ele>
        <time>2022-02-20T09:56:27Z</time>
      </trkpt>
      <trkpt lat="46.00507" lon="6.47285">
        <ele>2155</ele>
        <time>2022-02-20T09:56:30Z</time>
      </trkpt>
      <trkpt lat="46.00508" lon="6.47283">
        <ele>2155</ele>
        <time>2022-02-20T09:56:34Z</time>
      </trkpt>
      <trkpt lat="46.00509" lon="6.4728">
        <ele>2156</ele>
        <time>2022-02-20T09:56:38Z</time>
      </trkpt>
      <trkpt lat="46.00509" lon="6.47283">
        <ele>2157</ele>
        <time>2022-02-20T09:56:51Z</time>
      </trkpt>
      <trkpt lat="46.0051" lon="6.47285">
        <ele>2158</ele>
        <time>2022-02-20T09:56:55Z</time>
      </trkpt>
      <trkpt lat="46.00511" lon="6.47288">
        <ele>2158</ele>
        <time>2022-02-20T09:56:59Z</time>
      </trkpt>
      <trkpt lat="46.00511" lon="6.47291">
        <ele>2160</ele>
        <time>2022-02-20T09:57:05Z</time>
      </trkpt>
      <trkpt lat="46.00512" lon="6.47294">
        <ele>2160</ele>
        <time>2022-02-20T09:57:09Z</time>
      </trkpt>
      <trkpt lat="46.00512" lon="6.47298">
        <ele>2161</ele>
        <time>2022-02-20T09:57:13Z</time>
      </trkpt>
      <trkpt lat="46.00513" lon="6.473">
        <ele>2162</ele>
        <time>2022-02-20T09:57:21Z</time>
      </trkpt>
      <trkpt lat="46.00512" lon="6.47303">
        <ele>2161</ele>
        <time>2022-02-20T09:57:37Z</time>
      </trkpt>
      <trkpt lat="46.00509" lon="6.473">
        <ele>2161</ele>
        <time>2022-02-20T09:57:59Z</time>
      </trkpt>
      <trkpt lat="46.00507" lon="6.47302">
        <ele>2162</ele>
        <time>2022-02-20T09:58:05Z</time>
      </trkpt>
      <trkpt lat="46.00509" lon="6.47303">
        <ele>2162</ele>
        <time>2022-02-20T09:58:11Z</time>
      </trkpt>
      <trkpt lat="46.0051" lon="6.47305">
        <ele>2163</ele>
        <time>2022-02-20T09:58:18Z</time>
      </trkpt>
      <trkpt lat="46.00512" lon="6.47304">
        <ele>2164</ele>
        <time>2022-02-20T09:58:22Z</time>
      </trkpt>
      <trkpt lat="46.00514" lon="6.47302">
        <ele>2163</ele>
        <time>2022-02-20T09:58:28Z</time>
      </trkpt>
      <trkpt lat="46.00514" lon="6.47299">
        <ele>2163</ele>
        <time>2022-02-20T09:58:31Z</time>
      </trkpt>
      <trkpt lat="46.00515" lon="6.47296">
        <ele>2164</ele>
        <time>2022-02-20T09:58:36Z</time>
      </trkpt>
      <trkpt lat="46.00517" lon="6.47294">
        <ele>2165</ele>
        <time>2022-02-20T09:58:39Z</time>
      </trkpt>
      <trkpt lat="46.00518" lon="6.47292">
        <ele>2165</ele>
        <time>2022-02-20T09:58:43Z</time>
      </trkpt>
      <trkpt lat="46.0052" lon="6.47291">
        <ele>2168</ele>
        <time>2022-02-20T09:58:48Z</time>
      </trkpt>
      <trkpt lat="46.00521" lon="6.47288">
        <ele>2168</ele>
        <time>2022-02-20T09:58:53Z</time>
      </trkpt>
      <trkpt lat="46.00522" lon="6.47286">
        <ele>2168</ele>
        <time>2022-02-20T09:58:57Z</time>
      </trkpt>
      <trkpt lat="46.00524" lon="6.47285">
        <ele>2169</ele>
        <time>2022-02-20T09:59:01Z</time>
      </trkpt>
      <trkpt lat="46.00525" lon="6.47283">
        <ele>2169</ele>
        <time>2022-02-20T09:59:04Z</time>
      </trkpt>
      <trkpt lat="46.00526" lon="6.47281">
        <ele>2170</ele>
        <time>2022-02-20T09:59:08Z</time>
      </trkpt>
      <trkpt lat="46.00528" lon="6.47279">
        <ele>2171</ele>
        <time>2022-02-20T09:59:13Z</time>
      </trkpt>
      <trkpt lat="46.00529" lon="6.47277">
        <ele>2173</ele>
        <time>2022-02-20T09:59:18Z</time>
      </trkpt>
      <trkpt lat="46.00532" lon="6.47277">
        <ele>2173</ele>
        <time>2022-02-20T09:59:31Z</time>
      </trkpt>
      <trkpt lat="46.00533" lon="6.47275">
        <ele>2173</ele>
        <time>2022-02-20T09:59:34Z</time>
      </trkpt>
      <trkpt lat="46.00532" lon="6.47272">
        <ele>2174</ele>
        <time>2022-02-20T09:59:38Z</time>
      </trkpt>
      <trkpt lat="46.00534" lon="6.4727">
        <ele>2174</ele>
        <time>2022-02-20T09:59:42Z</time>
      </trkpt>
      <trkpt lat="46.00536" lon="6.47268">
        <ele>2175</ele>
        <time>2022-02-20T09:59:46Z</time>
      </trkpt>
      <trkpt lat="46.00537" lon="6.47266">
        <ele>2175</ele>
        <time>2022-02-20T09:59:52Z</time>
      </trkpt>
      <trkpt lat="46.00535" lon="6.47263">
        <ele>2176</ele>
        <time>2022-02-20T10:00:08Z</time>
      </trkpt>
      <trkpt lat="46.00533" lon="6.47261">
        <ele>2176</ele>
        <time>2022-02-20T10:00:12Z</time>
      </trkpt>
      <trkpt lat="46.00532" lon="6.47263">
        <ele>2177</ele>
        <time>2022-02-20T10:00:18Z</time>
      </trkpt>
      <trkpt lat="46.00531" lon="6.47266">
        <ele>2177</ele>
        <time>2022-02-20T10:00:23Z</time>
      </trkpt>
      <trkpt lat="46.00531" lon="6.47269">
        <ele>2178</ele>
        <time>2022-02-20T10:00:27Z</time>
      </trkpt>
      <trkpt lat="46.00532" lon="6.47272">
        <ele>2178</ele>
        <time>2022-02-20T10:00:31Z</time>
      </trkpt>
      <trkpt lat="46.00532" lon="6.47275">
        <ele>2179</ele>
        <time>2022-02-20T10:00:36Z</time>
      </trkpt>
      <trkpt lat="46.00532" lon="6.47278">
        <ele>2180</ele>
        <time>2022-02-20T10:00:41Z</time>
      </trkpt>
      <trkpt lat="46.00533" lon="6.4728">
        <ele>2180</ele>
        <time>2022-02-20T10:00:44Z</time>
      </trkpt>
      <trkpt lat="46.00534" lon="6.47283">
        <ele>2180</ele>
        <time>2022-02-20T10:00:48Z</time>
      </trkpt>
      <trkpt lat="46.00535" lon="6.47298">
        <ele>2180</ele>
        <time>2022-02-20T10:01:10Z</time>
      </trkpt>
      <trkpt lat="46.00535" lon="6.47287">
        <ele>2182</ele>
        <time>2022-02-20T10:01:21Z</time>
      </trkpt>
      <trkpt lat="46.00536" lon="6.4729">
        <ele>2182</ele>
        <time>2022-02-20T10:01:25Z</time>
      </trkpt>
      <trkpt lat="46.00538" lon="6.47288">
        <ele>2182</ele>
        <time>2022-02-20T10:01:32Z</time>
      </trkpt>
      <trkpt lat="46.00539" lon="6.47285">
        <ele>2182</ele>
        <time>2022-02-20T10:01:40Z</time>
      </trkpt>
      <trkpt lat="46.0054" lon="6.47283">
        <ele>2182</ele>
        <time>2022-02-20T10:01:44Z</time>
      </trkpt>
      <trkpt lat="46.00541" lon="6.47281">
        <ele>2183</ele>
        <time>2022-02-20T10:01:48Z</time>
      </trkpt>
      <trkpt lat="46.00543" lon="6.47278">
        <ele>2184</ele>
        <time>2022-02-20T10:01:53Z</time>
      </trkpt>
      <trkpt lat="46.00544" lon="6.47276">
        <ele>2185</ele>
        <time>2022-02-20T10:01:59Z</time>
      </trkpt>
      <trkpt lat="46.00544" lon="6.47273">
        <ele>2185</ele>
        <time>2022-02-20T10:02:08Z</time>
      </trkpt>
      <trkpt lat="46.00545" lon="6.4727">
        <ele>2186</ele>
        <time>2022-02-20T10:02:13Z</time>
      </trkpt>
      <trkpt lat="46.00546" lon="6.47268">
        <ele>2186</ele>
        <time>2022-02-20T10:02:18Z</time>
      </trkpt>
      <trkpt lat="46.00548" lon="6.47266">
        <ele>2187</ele>
        <time>2022-02-20T10:02:22Z</time>
      </trkpt>
      <trkpt lat="46.00549" lon="6.47264">
        <ele>2188</ele>
        <time>2022-02-20T10:02:27Z</time>
      </trkpt>
      <trkpt lat="46.0055" lon="6.47261">
        <ele>2190</ele>
        <time>2022-02-20T10:02:36Z</time>
      </trkpt>
      <trkpt lat="46.0055" lon="6.47258">
        <ele>2190</ele>
        <time>2022-02-20T10:02:40Z</time>
      </trkpt>
      <trkpt lat="46.00551" lon="6.47256">
        <ele>2190</ele>
        <time>2022-02-20T10:03:02Z</time>
      </trkpt>
      <trkpt lat="46.00552" lon="6.47254">
        <ele>2191</ele>
        <time>2022-02-20T10:03:12Z</time>
      </trkpt>
      <trkpt lat="46.0055" lon="6.47254">
        <ele>2191</ele>
        <time>2022-02-20T10:03:17Z</time>
      </trkpt>
      <trkpt lat="46.0055" lon="6.47257">
        <ele>2191</ele>
        <time>2022-02-20T10:03:23Z</time>
      </trkpt>
      <trkpt lat="46.0055" lon="6.4726">
        <ele>2192</ele>
        <time>2022-02-20T10:03:27Z</time>
      </trkpt>
      <trkpt lat="46.0055" lon="6.47263">
        <ele>2192</ele>
        <time>2022-02-20T10:03:31Z</time>
      </trkpt>
      <trkpt lat="46.0055" lon="6.47266">
        <ele>2194</ele>
        <time>2022-02-20T10:03:35Z</time>
      </trkpt>
      <trkpt lat="46.0055" lon="6.47269">
        <ele>2194</ele>
        <time>2022-02-20T10:03:39Z</time>
      </trkpt>
      <trkpt lat="46.00551" lon="6.47272">
        <ele>2194</ele>
        <time>2022-02-20T10:03:44Z</time>
      </trkpt>
      <trkpt lat="46.00551" lon="6.47274">
        <ele>2195</ele>
        <time>2022-02-20T10:03:47Z</time>
      </trkpt>
      <trkpt lat="46.0055" lon="6.47277">
        <ele>2195</ele>
        <time>2022-02-20T10:03:51Z</time>
      </trkpt>
      <trkpt lat="46.0055" lon="6.4728">
        <ele>2196</ele>
        <time>2022-02-20T10:03:56Z</time>
      </trkpt>
      <trkpt lat="46.00551" lon="6.47282">
        <ele>2196</ele>
        <time>2022-02-20T10:04:00Z</time>
      </trkpt>
      <trkpt lat="46.00553" lon="6.47284">
        <ele>2197</ele>
        <time>2022-02-20T10:04:10Z</time>
      </trkpt>
      <trkpt lat="46.00554" lon="6.47288">
        <ele>2197</ele>
        <time>2022-02-20T10:04:19Z</time>
      </trkpt>
      <trkpt lat="46.00552" lon="6.47293">
        <ele>2198</ele>
        <time>2022-02-20T10:05:16Z</time>
      </trkpt>
      <trkpt lat="46.00554" lon="6.47292">
        <ele>2198</ele>
        <time>2022-02-20T10:05:20Z</time>
      </trkpt>
      <trkpt lat="46.00555" lon="6.47295">
        <ele>2197</ele>
        <time>2022-02-20T10:05:40Z</time>
      </trkpt>
      <trkpt lat="46.00556" lon="6.47292">
        <ele>2199</ele>
        <time>2022-02-20T10:05:58Z</time>
      </trkpt>
      <trkpt lat="46.00558" lon="6.4729">
        <ele>2200</ele>
        <time>2022-02-20T10:06:04Z</time>
      </trkpt>
      <trkpt lat="46.0056" lon="6.47289">
        <ele>2200</ele>
        <time>2022-02-20T10:06:09Z</time>
      </trkpt>
      <trkpt lat="46.00561" lon="6.47287">
        <ele>2200</ele>
        <time>2022-02-20T10:06:13Z</time>
      </trkpt>
      <trkpt lat="46.00563" lon="6.47284">
        <ele>2201</ele>
        <time>2022-02-20T10:06:17Z</time>
      </trkpt>
      <trkpt lat="46.00565" lon="6.47283">
        <ele>2202</ele>
        <time>2022-02-20T10:06:21Z</time>
      </trkpt>
      <trkpt lat="46.00567" lon="6.47281">
        <ele>2202</ele>
        <time>2022-02-20T10:06:25Z</time>
      </trkpt>
      <trkpt lat="46.00568" lon="6.47279">
        <ele>2203</ele>
        <time>2022-02-20T10:06:30Z</time>
      </trkpt>
      <trkpt lat="46.00569" lon="6.47276">
        <ele>2204</ele>
        <time>2022-02-20T10:06:35Z</time>
      </trkpt>
      <trkpt lat="46.00568" lon="6.47273">
        <ele>2205</ele>
        <time>2022-02-20T10:07:13Z</time>
      </trkpt>
      <trkpt lat="46.00567" lon="6.47272">
        <ele>2205</ele>
        <time>2022-02-20T10:07:23Z</time>
      </trkpt>
      <trkpt lat="46.00565" lon="6.47274">
        <ele>2205</ele>
        <time>2022-02-20T10:07:37Z</time>
      </trkpt>
      <trkpt lat="46.00565" lon="6.47277">
        <ele>2206</ele>
        <time>2022-02-20T10:07:42Z</time>
      </trkpt>
      <trkpt lat="46.00566" lon="6.4728">
        <ele>2207</ele>
        <time>2022-02-20T10:07:50Z</time>
      </trkpt>
      <trkpt lat="46.00567" lon="6.47284">
        <ele>2207</ele>
        <time>2022-02-20T10:07:54Z</time>
      </trkpt>
      <trkpt lat="46.00566" lon="6.47285">
        <ele>2208</ele>
        <time>2022-02-20T10:08:05Z</time>
      </trkpt>
      <trkpt lat="46.00568" lon="6.47285">
        <ele>2209</ele>
        <time>2022-02-20T10:08:15Z</time>
      </trkpt>
      <trkpt lat="46.0057" lon="6.47286">
        <ele>2208</ele>
        <time>2022-02-20T10:08:32Z</time>
      </trkpt>
      <trkpt lat="46.00572" lon="6.47288">
        <ele>2208</ele>
        <time>2022-02-20T10:08:50Z</time>
      </trkpt>
      <trkpt lat="46.00576" lon="6.473">
        <ele>2208</ele>
        <time>2022-02-20T10:08:59Z</time>
      </trkpt>
      <trkpt lat="46.00571" lon="6.47296">
        <ele>2209</ele>
        <time>2022-02-20T10:09:19Z</time>
      </trkpt>
      <trkpt lat="46.0057" lon="6.47294">
        <ele>2209</ele>
        <time>2022-02-20T10:09:24Z</time>
      </trkpt>
      <trkpt lat="46.00568" lon="6.47293">
        <ele>2209</ele>
        <time>2022-02-20T10:09:26Z</time>
      </trkpt>
      <trkpt lat="46.0057" lon="6.47293">
        <ele>2210</ele>
        <time>2022-02-20T10:09:50Z</time>
      </trkpt>
      <trkpt lat="46.00569" lon="6.47294">
        <ele>2209</ele>
        <time>2022-02-20T10:09:54Z</time>
      </trkpt>
      <trkpt lat="46.00573" lon="6.47292">
        <ele>2210</ele>
        <time>2022-02-20T10:10:11Z</time>
      </trkpt>
      <trkpt lat="46.00571" lon="6.47291">
        <ele>2209</ele>
        <time>2022-02-20T10:10:33Z</time>
      </trkpt>
      <trkpt lat="46.00573" lon="6.47291">
        <ele>2209</ele>
        <time>2022-02-20T10:10:45Z</time>
      </trkpt>
      <trkpt lat="46.00575" lon="6.4729">
        <ele>2209</ele>
        <time>2022-02-20T10:11:08Z</time>
      </trkpt>
      <trkpt lat="46.00579" lon="6.47294">
        <ele>2209</ele>
        <time>2022-02-20T10:11:18Z</time>
      </trkpt>
      <trkpt lat="46.00577" lon="6.47291">
        <ele>2209</ele>
        <time>2022-02-20T10:11:21Z</time>
      </trkpt>
      <trkpt lat="46.0058" lon="6.47288">
        <ele>2209</ele>
        <time>2022-02-20T10:11:32Z</time>
      </trkpt>
      <trkpt lat="46.00578" lon="6.47289">
        <ele>2209</ele>
        <time>2022-02-20T10:11:36Z</time>
      </trkpt>
      <trkpt lat="46.00579" lon="6.47293">
        <ele>2208</ele>
        <time>2022-02-20T10:11:50Z</time>
      </trkpt>
      <trkpt lat="46.00581" lon="6.47296">
        <ele>2208</ele>
        <time>2022-02-20T10:11:52Z</time>
      </trkpt>
      <trkpt lat="46.00579" lon="6.47296">
        <ele>2208</ele>
        <time>2022-02-20T10:11:56Z</time>
      </trkpt>
      <trkpt lat="46.00577" lon="6.47294">
        <ele>2209</ele>
        <time>2022-02-20T10:12:03Z</time>
      </trkpt>
      <trkpt lat="46.00575" lon="6.47292">
        <ele>2209</ele>
        <time>2022-02-20T10:12:16Z</time>
      </trkpt>
      <trkpt lat="46.00573" lon="6.47292">
        <ele>2209</ele>
        <time>2022-02-20T10:12:20Z</time>
      </trkpt>
      <trkpt lat="46.00572" lon="6.47289">
        <ele>2209</ele>
        <time>2022-02-20T10:12:27Z</time>
      </trkpt>
      <trkpt lat="46.00573" lon="6.47291">
        <ele>2209</ele>
        <time>2022-02-20T10:12:44Z</time>
      </trkpt>
      <trkpt lat="46.00572" lon="6.47295">
        <ele>2209</ele>
        <time>2022-02-20T10:12:51Z</time>
      </trkpt>
      <trkpt lat="46.00572" lon="6.47298">
        <ele>2208</ele>
        <time>2022-02-20T10:13:02Z</time>
      </trkpt>
      <trkpt lat="46.00573" lon="6.47295">
        <ele>2209</ele>
        <time>2022-02-20T10:13:28Z</time>
      </trkpt>
      <trkpt lat="46.00571" lon="6.47296">
        <ele>2210</ele>
        <time>2022-02-20T10:13:38Z</time>
      </trkpt>
      <trkpt lat="46.00574" lon="6.47294">
        <ele>2209</ele>
        <time>2022-02-20T10:13:51Z</time>
      </trkpt>
      <trkpt lat="46.00575" lon="6.47292">
        <ele>2208</ele>
        <time>2022-02-20T10:14:16Z</time>
      </trkpt>
      <trkpt lat="46.00577" lon="6.47293">
        <ele>2209</ele>
        <time>2022-02-20T10:14:52Z</time>
      </trkpt>
      <trkpt lat="46.00578" lon="6.47295">
        <ele>2209</ele>
        <time>2022-02-20T10:14:54Z</time>
      </trkpt>
      <trkpt lat="46.0058" lon="6.47295">
        <ele>2210</ele>
        <time>2022-02-20T10:15:14Z</time>
      </trkpt>
      <trkpt lat="46.00578" lon="6.4729">
        <ele>2209</ele>
        <time>2022-02-20T10:16:24Z</time>
      </trkpt>
      <trkpt lat="46.00577" lon="6.47288">
        <ele>2209</ele>
        <time>2022-02-20T10:16:33Z</time>
      </trkpt>
      <trkpt lat="46.00575" lon="6.47288">
        <ele>2209</ele>
        <time>2022-02-20T10:16:37Z</time>
      </trkpt>
      <trkpt lat="46.00573" lon="6.47287">
        <ele>2209</ele>
        <time>2022-02-20T10:16:39Z</time>
      </trkpt>
      <trkpt lat="46.00573" lon="6.47291">
        <ele>2208</ele>
        <time>2022-02-20T10:16:45Z</time>
      </trkpt>
      <trkpt lat="46.00573" lon="6.47294">
        <ele>2208</ele>
        <time>2022-02-20T10:16:48Z</time>
      </trkpt>
      <trkpt lat="46.00578" lon="6.47298">
        <ele>2209</ele>
        <time>2022-02-20T10:17:00Z</time>
      </trkpt>
      <trkpt lat="46.00581" lon="6.473">
        <ele>2209</ele>
        <time>2022-02-20T10:17:02Z</time>
      </trkpt>
      <trkpt lat="46.00579" lon="6.47299">
        <ele>2208</ele>
        <time>2022-02-20T10:17:11Z</time>
      </trkpt>
      <trkpt lat="46.00578" lon="6.47296">
        <ele>2208</ele>
        <time>2022-02-20T10:17:14Z</time>
      </trkpt>
      <trkpt lat="46.00576" lon="6.47292">
        <ele>2209</ele>
        <time>2022-02-20T10:17:22Z</time>
      </trkpt>
      <trkpt lat="46.00576" lon="6.47289">
        <ele>2208</ele>
        <time>2022-02-20T10:17:33Z</time>
      </trkpt>
      <trkpt lat="46.00581" lon="6.47288">
        <ele>2209</ele>
        <time>2022-02-20T10:18:01Z</time>
      </trkpt>
      <trkpt lat="46.00582" lon="6.47293">
        <ele>2208</ele>
        <time>2022-02-20T10:18:35Z</time>
      </trkpt>
      <trkpt lat="46.0058" lon="6.47291">
        <ele>2208</ele>
        <time>2022-02-20T10:19:12Z</time>
      </trkpt>
      <trkpt lat="46.00579" lon="6.47289">
        <ele>2208</ele>
        <time>2022-02-20T10:19:31Z</time>
      </trkpt>
      <trkpt lat="46.00576" lon="6.47289">
        <ele>2208</ele>
        <time>2022-02-20T10:19:39Z</time>
      </trkpt>
      <trkpt lat="46.00578" lon="6.4729">
        <ele>2208</ele>
        <time>2022-02-20T10:19:52Z</time>
      </trkpt>
      <trkpt lat="46.00576" lon="6.4729">
        <ele>2208</ele>
        <time>2022-02-20T10:20:02Z</time>
      </trkpt>
      <trkpt lat="46.00576" lon="6.47293">
        <ele>2206</ele>
        <time>2022-02-20T10:20:37Z</time>
      </trkpt>
      <trkpt lat="46.00575" lon="6.47295">
        <ele>2207</ele>
        <time>2022-02-20T10:20:41Z</time>
      </trkpt>
      <trkpt lat="46.00575" lon="6.47298">
        <ele>2207</ele>
        <time>2022-02-20T10:20:47Z</time>
      </trkpt>
      <trkpt lat="46.00576" lon="6.47301">
        <ele>2208</ele>
        <time>2022-02-20T10:20:52Z</time>
      </trkpt>
      <trkpt lat="46.00575" lon="6.47305">
        <ele>2209</ele>
        <time>2022-02-20T10:21:08Z</time>
      </trkpt>
      <trkpt lat="46.00573" lon="6.47306">
        <ele>2211</ele>
        <time>2022-02-20T10:21:17Z</time>
      </trkpt>
      <trkpt lat="46.00574" lon="6.47304">
        <ele>2211</ele>
        <time>2022-02-20T10:21:22Z</time>
      </trkpt>
      <trkpt lat="46.00576" lon="6.47306">
        <ele>2212</ele>
        <time>2022-02-20T10:21:25Z</time>
      </trkpt>
      <trkpt lat="46.00578" lon="6.47306">
        <ele>2212</ele>
        <time>2022-02-20T10:21:33Z</time>
      </trkpt>
      <trkpt lat="46.00578" lon="6.47304">
        <ele>2214</ele>
        <time>2022-02-20T10:21:39Z</time>
      </trkpt>
      <trkpt lat="46.00581" lon="6.47304">
        <ele>2215</ele>
        <time>2022-02-20T10:21:49Z</time>
      </trkpt>
      <trkpt lat="46.00582" lon="6.47307">
        <ele>2215</ele>
        <time>2022-02-20T10:22:06Z</time>
      </trkpt>
      <trkpt lat="46.00586" lon="6.47312">
        <ele>2217</ele>
        <time>2022-02-20T10:22:16Z</time>
      </trkpt>
      <trkpt lat="46.00589" lon="6.47314">
        <ele>2217</ele>
        <time>2022-02-20T10:22:23Z</time>
      </trkpt>
      <trkpt lat="46.00592" lon="6.47318">
        <ele>2222</ele>
        <time>2022-02-20T10:22:52Z</time>
      </trkpt>
      <trkpt lat="46.00594" lon="6.47321">
        <ele>2223</ele>
        <time>2022-02-20T10:22:55Z</time>
      </trkpt>
      <trkpt lat="46.00596" lon="6.47323">
        <ele>2223</ele>
        <time>2022-02-20T10:22:58Z</time>
      </trkpt>
      <trkpt lat="46.00592" lon="6.47312">
        <ele>2224</ele>
        <time>2022-02-20T10:23:15Z</time>
      </trkpt>
      <trkpt lat="46.00593" lon="6.47314">
        <ele>2224</ele>
        <time>2022-02-20T10:23:20Z</time>
      </trkpt>
      <trkpt lat="46.00594" lon="6.47318">
        <ele>2224</ele>
        <time>2022-02-20T10:23:24Z</time>
      </trkpt>
      <trkpt lat="46.00596" lon="6.47322">
        <ele>2225</ele>
        <time>2022-02-20T10:23:25Z</time>
      </trkpt>
      <trkpt lat="46.00596" lon="6.47325">
        <ele>2225</ele>
        <time>2022-02-20T10:23:32Z</time>
      </trkpt>
      <trkpt lat="46.00595" lon="6.47323">
        <ele>2226</ele>
        <time>2022-02-20T10:23:38Z</time>
      </trkpt>
      <trkpt lat="46.00597" lon="6.47323">
        <ele>2226</ele>
        <time>2022-02-20T10:23:42Z</time>
      </trkpt>
      <trkpt lat="46.00595" lon="6.47322">
        <ele>2227</ele>
        <time>2022-02-20T10:23:48Z</time>
      </trkpt>
      <trkpt lat="46.00596" lon="6.47324">
        <ele>2228</ele>
        <time>2022-02-20T10:23:53Z</time>
      </trkpt>
      <trkpt lat="46.00599" lon="6.4733">
        <ele>2228</ele>
        <time>2022-02-20T10:23:55Z</time>
      </trkpt>
      <trkpt lat="46.00598" lon="6.47326">
        <ele>2229</ele>
        <time>2022-02-20T10:24:06Z</time>
      </trkpt>
      <trkpt lat="46.00598" lon="6.47324">
        <ele>2230</ele>
        <time>2022-02-20T10:24:12Z</time>
      </trkpt>
      <trkpt lat="46.00605" lon="6.47333">
        <ele>2237</ele>
        <time>2022-02-20T10:25:28Z</time>
      </trkpt>
      <trkpt lat="46.00604" lon="6.4733">
        <ele>2239</ele>
        <time>2022-02-20T10:25:39Z</time>
      </trkpt>
      <trkpt lat="46.00605" lon="6.47332">
        <ele>2241</ele>
        <time>2022-02-20T10:25:53Z</time>
      </trkpt>
      <trkpt lat="46.00606" lon="6.47335">
        <ele>2241</ele>
        <time>2022-02-20T10:25:58Z</time>
      </trkpt>
      <trkpt lat="46.00606" lon="6.47331">
        <ele>2243</ele>
        <time>2022-02-20T10:26:06Z</time>
      </trkpt>
      <trkpt lat="46.00607" lon="6.47334">
        <ele>2244</ele>
        <time>2022-02-20T10:26:11Z</time>
      </trkpt>
      <trkpt lat="46.00607" lon="6.47331">
        <ele>2244</ele>
        <time>2022-02-20T10:26:16Z</time>
      </trkpt>
      <trkpt lat="46.00609" lon="6.47327">
        <ele>2246</ele>
        <time>2022-02-20T10:26:20Z</time>
      </trkpt>
      <trkpt lat="46.00614" lon="6.47336">
        <ele>2248</ele>
        <time>2022-02-20T10:26:37Z</time>
      </trkpt>
      <trkpt lat="46.00619" lon="6.4734">
        <ele>2251</ele>
        <time>2022-02-20T10:27:04Z</time>
      </trkpt>
      <trkpt lat="46.0062" lon="6.47343">
        <ele>2253</ele>
        <time>2022-02-20T10:27:12Z</time>
      </trkpt>
      <trkpt lat="46.00622" lon="6.47343">
        <ele>2253</ele>
        <time>2022-02-20T10:27:15Z</time>
      </trkpt>
      <trkpt lat="46.00627" lon="6.47347">
        <ele>2256</ele>
        <time>2022-02-20T10:27:36Z</time>
      </trkpt>
      <trkpt lat="46.00625" lon="6.47348">
        <ele>2257</ele>
        <time>2022-02-20T10:27:41Z</time>
      </trkpt>
      <trkpt lat="46.00625" lon="6.47351">
        <ele>2259</ele>
        <time>2022-02-20T10:27:59Z</time>
      </trkpt>
      <trkpt lat="46.00625" lon="6.47353">
        <ele>2260</ele>
        <time>2022-02-20T10:28:07Z</time>
      </trkpt>
      <trkpt lat="46.00626" lon="6.47355">
        <ele>2261</ele>
        <time>2022-02-20T10:28:15Z</time>
      </trkpt>
      <trkpt lat="46.00627" lon="6.47358">
        <ele>2263</ele>
        <time>2022-02-20T10:28:28Z</time>
      </trkpt>
      <trkpt lat="46.00627" lon="6.47361">
        <ele>2264</ele>
        <time>2022-02-20T10:28:39Z</time>
      </trkpt>
      <trkpt lat="46.00625" lon="6.47362">
        <ele>2264</ele>
        <time>2022-02-20T10:29:10Z</time>
      </trkpt>
      <trkpt lat="46.00626" lon="6.47364">
        <ele>2264</ele>
        <time>2022-02-20T10:29:19Z</time>
      </trkpt>
      <trkpt lat="46.00628" lon="6.47367">
        <ele>2265</ele>
        <time>2022-02-20T10:29:41Z</time>
      </trkpt>
      <trkpt lat="46.00629" lon="6.47364">
        <ele>2264</ele>
        <time>2022-02-20T10:30:07Z</time>
      </trkpt>
      <trkpt lat="46.00631" lon="6.47363">
        <ele>2264</ele>
        <time>2022-02-20T10:30:11Z</time>
      </trkpt>
      <trkpt lat="46.00633" lon="6.47361">
        <ele>2265</ele>
        <time>2022-02-20T10:30:16Z</time>
      </trkpt>
      <trkpt lat="46.00634" lon="6.4736">
        <ele>2266</ele>
        <time>2022-02-20T10:30:21Z</time>
      </trkpt>
      <trkpt lat="46.00632" lon="6.47361">
        <ele>2265</ele>
        <time>2022-02-20T10:30:39Z</time>
      </trkpt>
      <trkpt lat="46.0063" lon="6.47363">
        <ele>2265</ele>
        <time>2022-02-20T10:30:42Z</time>
      </trkpt>
      <trkpt lat="46.00629" lon="6.47364">
        <ele>2265</ele>
        <time>2022-02-20T10:31:04Z</time>
      </trkpt>
      <trkpt lat="46.00627" lon="6.47366">
        <ele>2265</ele>
        <time>2022-02-20T10:31:21Z</time>
      </trkpt>
      <trkpt lat="46.00628" lon="6.47363">
        <ele>2265</ele>
        <time>2022-02-20T10:32:49Z</time>
      </trkpt>
      <trkpt lat="46.00627" lon="6.47361">
        <ele>2266</ele>
        <time>2022-02-20T10:33:14Z</time>
      </trkpt>
      <trkpt lat="46.00626" lon="6.47358">
        <ele>2266</ele>
        <time>2022-02-20T10:33:19Z</time>
      </trkpt>
      <trkpt lat="46.00624" lon="6.47357">
        <ele>2266</ele>
        <time>2022-02-20T10:33:26Z</time>
      </trkpt>
      <trkpt lat="46.00626" lon="6.47356">
        <ele>2266</ele>
        <time>2022-02-20T10:33:31Z</time>
      </trkpt>
      <trkpt lat="46.00628" lon="6.47356">
        <ele>2266</ele>
        <time>2022-02-20T10:33:35Z</time>
      </trkpt>
      <trkpt lat="46.0063" lon="6.47355">
        <ele>2266</ele>
        <time>2022-02-20T10:33:42Z</time>
      </trkpt>
      <trkpt lat="46.00632" lon="6.47354">
        <ele>2266</ele>
        <time>2022-02-20T10:33:48Z</time>
      </trkpt>
      <trkpt lat="46.00632" lon="6.47357">
        <ele>2265</ele>
        <time>2022-02-20T10:34:19Z</time>
      </trkpt>
      <trkpt lat="46.00631" lon="6.47356">
        <ele>2265</ele>
        <time>2022-02-20T10:34:30Z</time>
      </trkpt>
      <trkpt lat="46.00629" lon="6.47357">
        <ele>2266</ele>
        <time>2022-02-20T10:35:03Z</time>
      </trkpt>
      <trkpt lat="46.00629" lon="6.47359">
        <ele>2264</ele>
        <time>2022-02-20T10:35:40Z</time>
      </trkpt>
      <trkpt lat="46.00631" lon="6.47359">
        <ele>2264</ele>
        <time>2022-02-20T10:36:39Z</time>
      </trkpt>
      <trkpt lat="46.0063" lon="6.47361">
        <ele>2264</ele>
        <time>2022-02-20T10:37:40Z</time>
      </trkpt>
      <trkpt lat="46.00628" lon="6.47363">
        <ele>2265</ele>
        <time>2022-02-20T10:38:28Z</time>
      </trkpt>
      <trkpt lat="46.00627" lon="6.47365">
        <ele>2263</ele>
        <time>2022-02-20T10:38:39Z</time>
      </trkpt>
      <trkpt lat="46.00629" lon="6.47364">
        <ele>2263</ele>
        <time>2022-02-20T10:40:06Z</time>
      </trkpt>
      <trkpt lat="46.00628" lon="6.47365">
        <ele>2264</ele>
        <time>2022-02-20T10:40:55Z</time>
      </trkpt>
      <trkpt lat="46.00629" lon="6.47364">
        <ele>2263</ele>
        <time>2022-02-20T10:41:52Z</time>
      </trkpt>
      <trkpt lat="46.00628" lon="6.47366">
        <ele>2264</ele>
        <time>2022-02-20T10:43:14Z</time>
      </trkpt>
      <trkpt lat="46.0063" lon="6.47365">
        <ele>2263</ele>
        <time>2022-02-20T10:45:11Z</time>
      </trkpt>
      <trkpt lat="46.00631" lon="6.47364">
        <ele>2262</ele>
        <time>2022-02-20T10:45:51Z</time>
      </trkpt>
      <trkpt lat="46.00633" lon="6.47362">
        <ele>2263</ele>
        <time>2022-02-20T10:45:55Z</time>
      </trkpt>
      <trkpt lat="46.00636" lon="6.47362">
        <ele>2263</ele>
        <time>2022-02-20T10:45:58Z</time>
      </trkpt>
      <trkpt lat="46.00638" lon="6.4736">
        <ele>2264</ele>
        <time>2022-02-20T10:46:03Z</time>
      </trkpt>
      <trkpt lat="46.0064" lon="6.47361">
        <ele>2266</ele>
        <time>2022-02-20T10:46:36Z</time>
      </trkpt>
      <trkpt lat="46.00641" lon="6.47359">
        <ele>2267</ele>
        <time>2022-02-20T10:46:47Z</time>
      </trkpt>
      <trkpt lat="46.00643" lon="6.47361">
        <ele>2267</ele>
        <time>2022-02-20T10:47:09Z</time>
      </trkpt>
      <trkpt lat="46.00644" lon="6.47359">
        <ele>2268</ele>
        <time>2022-02-20T10:47:19Z</time>
      </trkpt>
      <trkpt lat="46.00646" lon="6.47358">
        <ele>2270</ele>
        <time>2022-02-20T10:47:34Z</time>
      </trkpt>
      <trkpt lat="46.00647" lon="6.47361">
        <ele>2271</ele>
        <time>2022-02-20T10:47:48Z</time>
      </trkpt>
      <trkpt lat="46.00648" lon="6.47359">
        <ele>2273</ele>
        <time>2022-02-20T10:48:15Z</time>
      </trkpt>
      <trkpt lat="46.0065" lon="6.4736">
        <ele>2273</ele>
        <time>2022-02-20T10:48:19Z</time>
      </trkpt>
      <trkpt lat="46.00652" lon="6.47358">
        <ele>2274</ele>
        <time>2022-02-20T10:49:01Z</time>
      </trkpt>
      <trkpt lat="46.00654" lon="6.47358">
        <ele>2274</ele>
        <time>2022-02-20T10:49:17Z</time>
      </trkpt>
      <trkpt lat="46.00656" lon="6.47357">
        <ele>2275</ele>
        <time>2022-02-20T10:49:21Z</time>
      </trkpt>
      <trkpt lat="46.00658" lon="6.47355">
        <ele>2278</ele>
        <time>2022-02-20T10:49:35Z</time>
      </trkpt>
      <trkpt lat="46.00656" lon="6.47354">
        <ele>2280</ele>
        <time>2022-02-20T10:50:21Z</time>
      </trkpt>
      <trkpt lat="46.00657" lon="6.47351">
        <ele>2279</ele>
        <time>2022-02-20T10:51:15Z</time>
      </trkpt>
      <trkpt lat="46.00659" lon="6.4735">
        <ele>2281</ele>
        <time>2022-02-20T10:51:49Z</time>
      </trkpt>
      <trkpt lat="46.00661" lon="6.4735">
        <ele>2282</ele>
        <time>2022-02-20T10:52:20Z</time>
      </trkpt>
      <trkpt lat="46.00663" lon="6.4735">
        <ele>2284</ele>
        <time>2022-02-20T10:52:37Z</time>
      </trkpt>
      <trkpt lat="46.00665" lon="6.4735">
        <ele>2285</ele>
        <time>2022-02-20T10:52:53Z</time>
      </trkpt>
      <trkpt lat="46.00667" lon="6.47348">
        <ele>2286</ele>
        <time>2022-02-20T10:53:03Z</time>
      </trkpt>
      <trkpt lat="46.00666" lon="6.47346">
        <ele>2289</ele>
        <time>2022-02-20T10:53:50Z</time>
      </trkpt>
      <trkpt lat="46.00668" lon="6.47345">
        <ele>2293</ele>
        <time>2022-02-20T10:54:15Z</time>
      </trkpt>
      <trkpt lat="46.0067" lon="6.47344">
        <ele>2294</ele>
        <time>2022-02-20T10:54:20Z</time>
      </trkpt>
      <trkpt lat="46.00672" lon="6.47342">
        <ele>2294</ele>
        <time>2022-02-20T10:54:27Z</time>
      </trkpt>
      <trkpt lat="46.00674" lon="6.47341">
        <ele>2295</ele>
        <time>2022-02-20T10:54:42Z</time>
      </trkpt>
      <trkpt lat="46.00675" lon="6.47342">
        <ele>2296</ele>
        <time>2022-02-20T10:55:24Z</time>
      </trkpt>
      <trkpt lat="46.00677" lon="6.47341">
        <ele>2299</ele>
        <time>2022-02-20T10:55:33Z</time>
      </trkpt>
      <trkpt lat="46.00679" lon="6.47339">
        <ele>2300</ele>
        <time>2022-02-20T10:55:43Z</time>
      </trkpt>
      <trkpt lat="46.00681" lon="6.47338">
        <ele>2300</ele>
        <time>2022-02-20T10:55:46Z</time>
      </trkpt>
      <trkpt lat="46.00683" lon="6.47337">
        <ele>2301</ele>
        <time>2022-02-20T10:56:12Z</time>
      </trkpt>
      <trkpt lat="46.00685" lon="6.47337">
        <ele>2304</ele>
        <time>2022-02-20T10:56:18Z</time>
      </trkpt>
      <trkpt lat="46.00687" lon="6.47336">
        <ele>2306</ele>
        <time>2022-02-20T10:56:44Z</time>
      </trkpt>
      <trkpt lat="46.00689" lon="6.47336">
        <ele>2308</ele>
        <time>2022-02-20T10:57:05Z</time>
      </trkpt>
      <trkpt lat="46.0069" lon="6.47334">
        <ele>2308</ele>
        <time>2022-02-20T10:57:23Z</time>
      </trkpt>
      <trkpt lat="46.00692" lon="6.47334">
        <ele>2310</ele>
        <time>2022-02-20T10:57:49Z</time>
      </trkpt>
      <trkpt lat="46.00694" lon="6.47335">
        <ele>2312</ele>
        <time>2022-02-20T10:58:05Z</time>
      </trkpt>
      <trkpt lat="46.00696" lon="6.47333">
        <ele>2312</ele>
        <time>2022-02-20T10:58:43Z</time>
      </trkpt>
      <trkpt lat="46.00697" lon="6.47331">
        <ele>2313</ele>
        <time>2022-02-20T10:58:48Z</time>
      </trkpt>
      <trkpt lat="46.00697" lon="6.47328">
        <ele>2314</ele>
        <time>2022-02-20T10:58:56Z</time>
      </trkpt>
      <trkpt lat="46.00697" lon="6.47325">
        <ele>2316</ele>
        <time>2022-02-20T10:59:02Z</time>
      </trkpt>
      <trkpt lat="46.00697" lon="6.47323">
        <ele>2316</ele>
        <time>2022-02-20T10:59:07Z</time>
      </trkpt>
      <trkpt lat="46.00697" lon="6.4732">
        <ele>2317</ele>
        <time>2022-02-20T10:59:11Z</time>
      </trkpt>
      <trkpt lat="46.00697" lon="6.47317">
        <ele>2318</ele>
        <time>2022-02-20T10:59:36Z</time>
      </trkpt>
      <trkpt lat="46.00698" lon="6.47314">
        <ele>2318</ele>
        <time>2022-02-20T10:59:39Z</time>
      </trkpt>
      <trkpt lat="46.00698" lon="6.47311">
        <ele>2318</ele>
        <time>2022-02-20T10:59:43Z</time>
      </trkpt>
      <trkpt lat="46.00699" lon="6.47309">
        <ele>2318</ele>
        <time>2022-02-20T10:59:49Z</time>
      </trkpt>
      <trkpt lat="46.007" lon="6.47306">
        <ele>2318</ele>
        <time>2022-02-20T10:59:52Z</time>
      </trkpt>
      <trkpt lat="46.007" lon="6.47303">
        <ele>2319</ele>
        <time>2022-02-20T11:00:00Z</time>
      </trkpt>
      <trkpt lat="46.00699" lon="6.47301">
        <ele>2320</ele>
        <time>2022-02-20T11:00:14Z</time>
      </trkpt>
      <trkpt lat="46.00697" lon="6.473">
        <ele>2320</ele>
        <time>2022-02-20T11:00:35Z</time>
      </trkpt>
      <trkpt lat="46.00698" lon="6.47297">
        <ele>2321</ele>
        <time>2022-02-20T11:00:41Z</time>
      </trkpt>
      <trkpt lat="46.00698" lon="6.47294">
        <ele>2321</ele>
        <time>2022-02-20T11:00:45Z</time>
      </trkpt>
      <trkpt lat="46.00698" lon="6.47292">
        <ele>2321</ele>
        <time>2022-02-20T11:00:54Z</time>
      </trkpt>
      <trkpt lat="46.00697" lon="6.4729">
        <ele>2322</ele>
        <time>2022-02-20T11:01:22Z</time>
      </trkpt>
      <trkpt lat="46.00699" lon="6.47287">
        <ele>2324</ele>
        <time>2022-02-20T11:04:06Z</time>
      </trkpt>
      <trkpt lat="46.00697" lon="6.47288">
        <ele>2323</ele>
        <time>2022-02-20T11:04:29Z</time>
      </trkpt>
      <trkpt lat="46.00695" lon="6.4729">
        <ele>2323</ele>
        <time>2022-02-20T11:05:12Z</time>
      </trkpt>
      <trkpt lat="46.00694" lon="6.47292">
        <ele>2323</ele>
        <time>2022-02-20T11:05:15Z</time>
      </trkpt>
      <trkpt lat="46.00694" lon="6.47295">
        <ele>2322</ele>
        <time>2022-02-20T11:05:20Z</time>
      </trkpt>
      <trkpt lat="46.00694" lon="6.47298">
        <ele>2322</ele>
        <time>2022-02-20T11:05:27Z</time>
      </trkpt>
      <trkpt lat="46.00693" lon="6.47301">
        <ele>2321</ele>
        <time>2022-02-20T11:05:31Z</time>
      </trkpt>
      <trkpt lat="46.00693" lon="6.47304">
        <ele>2321</ele>
        <time>2022-02-20T11:05:34Z</time>
      </trkpt>
      <trkpt lat="46.00693" lon="6.47307">
        <ele>2320</ele>
        <time>2022-02-20T11:05:38Z</time>
      </trkpt>
      <trkpt lat="46.00693" lon="6.4731">
        <ele>2320</ele>
        <time>2022-02-20T11:05:41Z</time>
      </trkpt>
      <trkpt lat="46.00693" lon="6.47312">
        <ele>2319</ele>
        <time>2022-02-20T11:05:44Z</time>
      </trkpt>
      <trkpt lat="46.00694" lon="6.47315">
        <ele>2319</ele>
        <time>2022-02-20T11:05:55Z</time>
      </trkpt>
      <trkpt lat="46.00694" lon="6.47318">
        <ele>2319</ele>
        <time>2022-02-20T11:05:58Z</time>
      </trkpt>
      <trkpt lat="46.00694" lon="6.47321">
        <ele>2318</ele>
        <time>2022-02-20T11:06:02Z</time>
      </trkpt>
      <trkpt lat="46.00694" lon="6.47324">
        <ele>2317</ele>
        <time>2022-02-20T11:06:06Z</time>
      </trkpt>
      <trkpt lat="46.00693" lon="6.47326">
        <ele>2317</ele>
        <time>2022-02-20T11:06:10Z</time>
      </trkpt>
      <trkpt lat="46.00693" lon="6.47329">
        <ele>2316</ele>
        <time>2022-02-20T11:06:14Z</time>
      </trkpt>
      <trkpt lat="46.00692" lon="6.47332">
        <ele>2316</ele>
        <time>2022-02-20T11:06:18Z</time>
      </trkpt>
      <trkpt lat="46.00691" lon="6.47334">
        <ele>2314</ele>
        <time>2022-02-20T11:06:38Z</time>
      </trkpt>
      <trkpt lat="46.0069" lon="6.47336">
        <ele>2311</ele>
        <time>2022-02-20T11:07:01Z</time>
      </trkpt>
      <trkpt lat="46.00688" lon="6.47337">
        <ele>2312</ele>
        <time>2022-02-20T11:07:09Z</time>
      </trkpt>
      <trkpt lat="46.00686" lon="6.47335">
        <ele>2311</ele>
        <time>2022-02-20T11:07:23Z</time>
      </trkpt>
      <trkpt lat="46.00685" lon="6.47336">
        <ele>2310</ele>
        <time>2022-02-20T11:07:29Z</time>
      </trkpt>
      <trkpt lat="46.00683" lon="6.47336">
        <ele>2309</ele>
        <time>2022-02-20T11:07:33Z</time>
      </trkpt>
      <trkpt lat="46.00681" lon="6.47336">
        <ele>2309</ele>
        <time>2022-02-20T11:07:44Z</time>
      </trkpt>
      <trkpt lat="46.00679" lon="6.47335">
        <ele>2307</ele>
        <time>2022-02-20T11:07:57Z</time>
      </trkpt>
      <trkpt lat="46.00677" lon="6.47335">
        <ele>2307</ele>
        <time>2022-02-20T11:07:59Z</time>
      </trkpt>
      <trkpt lat="46.00675" lon="6.47336">
        <ele>2306</ele>
        <time>2022-02-20T11:08:02Z</time>
      </trkpt>
      <trkpt lat="46.00673" lon="6.47337">
        <ele>2305</ele>
        <time>2022-02-20T11:08:09Z</time>
      </trkpt>
      <trkpt lat="46.00671" lon="6.47337">
        <ele>2304</ele>
        <time>2022-02-20T11:08:12Z</time>
      </trkpt>
      <trkpt lat="46.00669" lon="6.47337">
        <ele>2302</ele>
        <time>2022-02-20T11:08:16Z</time>
      </trkpt>
      <trkpt lat="46.00667" lon="6.47338">
        <ele>2302</ele>
        <time>2022-02-20T11:08:20Z</time>
      </trkpt>
      <trkpt lat="46.00665" lon="6.47338">
        <ele>2301</ele>
        <time>2022-02-20T11:08:26Z</time>
      </trkpt>
      <trkpt lat="46.00666" lon="6.47341">
        <ele>2298</ele>
        <time>2022-02-20T11:08:34Z</time>
      </trkpt>
      <trkpt lat="46.00664" lon="6.47342">
        <ele>2297</ele>
        <time>2022-02-20T11:08:40Z</time>
      </trkpt>
      <trkpt lat="46.00663" lon="6.47344">
        <ele>2295</ele>
        <time>2022-02-20T11:08:49Z</time>
      </trkpt>
      <trkpt lat="46.00661" lon="6.47346">
        <ele>2293</ele>
        <time>2022-02-20T11:08:59Z</time>
      </trkpt>
      <trkpt lat="46.00662" lon="6.47348">
        <ele>2290</ele>
        <time>2022-02-20T11:09:21Z</time>
      </trkpt>
      <trkpt lat="46.00663" lon="6.47351">
        <ele>2290</ele>
        <time>2022-02-20T11:09:38Z</time>
      </trkpt>
      <trkpt lat="46.00662" lon="6.47353">
        <ele>2289</ele>
        <time>2022-02-20T11:09:48Z</time>
      </trkpt>
      <trkpt lat="46.0066" lon="6.47354">
        <ele>2287</ele>
        <time>2022-02-20T11:09:59Z</time>
      </trkpt>
      <trkpt lat="46.0066" lon="6.47351">
        <ele>2285</ele>
        <time>2022-02-20T11:10:13Z</time>
      </trkpt>
      <trkpt lat="46.00658" lon="6.47351">
        <ele>2287</ele>
        <time>2022-02-20T11:10:29Z</time>
      </trkpt>
      <trkpt lat="46.00656" lon="6.4735">
        <ele>2285</ele>
        <time>2022-02-20T11:10:37Z</time>
      </trkpt>
      <trkpt lat="46.00651" lon="6.4735">
        <ele>2284</ele>
        <time>2022-02-20T11:10:45Z</time>
      </trkpt>
      <trkpt lat="46.00649" lon="6.47349">
        <ele>2284</ele>
        <time>2022-02-20T11:10:46Z</time>
      </trkpt>
      <trkpt lat="46.00647" lon="6.47348">
        <ele>2283</ele>
        <time>2022-02-20T11:10:48Z</time>
      </trkpt>
      <trkpt lat="46.00648" lon="6.4735">
        <ele>2283</ele>
        <time>2022-02-20T11:10:58Z</time>
      </trkpt>
      <trkpt lat="46.00647" lon="6.47348">
        <ele>2281</ele>
        <time>2022-02-20T11:11:04Z</time>
      </trkpt>
      <trkpt lat="46.00646" lon="6.47351">
        <ele>2279</ele>
        <time>2022-02-20T11:11:12Z</time>
      </trkpt>
      <trkpt lat="46.00647" lon="6.47353">
        <ele>2279</ele>
        <time>2022-02-20T11:11:14Z</time>
      </trkpt>
      <trkpt lat="46.00648" lon="6.47356">
        <ele>2279</ele>
        <time>2022-02-20T11:11:16Z</time>
      </trkpt>
      <trkpt lat="46.0065" lon="6.47358">
        <ele>2278</ele>
        <time>2022-02-20T11:11:19Z</time>
      </trkpt>
      <trkpt lat="46.00648" lon="6.47359">
        <ele>2275</ele>
        <time>2022-02-20T11:11:42Z</time>
      </trkpt>
      <trkpt lat="46.00646" lon="6.47358">
        <ele>2274</ele>
        <time>2022-02-20T11:11:47Z</time>
      </trkpt>
      <trkpt lat="46.00644" lon="6.47359">
        <ele>2272</ele>
        <time>2022-02-20T11:11:59Z</time>
      </trkpt>
      <trkpt lat="46.00642" lon="6.47358">
        <ele>2270</ele>
        <time>2022-02-20T11:12:04Z</time>
      </trkpt>
      <trkpt lat="46.00641" lon="6.4736">
        <ele>2269</ele>
        <time>2022-02-20T11:12:11Z</time>
      </trkpt>
      <trkpt lat="46.00639" lon="6.47359">
        <ele>2269</ele>
        <time>2022-02-20T11:12:19Z</time>
      </trkpt>
      <trkpt lat="46.00638" lon="6.47357">
        <ele>2267</ele>
        <time>2022-02-20T11:12:22Z</time>
      </trkpt>
      <trkpt lat="46.00636" lon="6.47358">
        <ele>2266</ele>
        <time>2022-02-20T11:12:26Z</time>
      </trkpt>
      <trkpt lat="46.00634" lon="6.47358">
        <ele>2266</ele>
        <time>2022-02-20T11:12:31Z</time>
      </trkpt>
      <trkpt lat="46.00631" lon="6.47357">
        <ele>2263</ele>
        <time>2022-02-20T11:12:34Z</time>
      </trkpt>
      <trkpt lat="46.0063" lon="6.47358">
        <ele>2262</ele>
        <time>2022-02-20T11:12:36Z</time>
      </trkpt>
      <trkpt lat="46.00628" lon="6.47359">
        <ele>2262</ele>
        <time>2022-02-20T11:12:38Z</time>
      </trkpt>
      <trkpt lat="46.00626" lon="6.47363">
        <ele>2262</ele>
        <time>2022-02-20T11:12:41Z</time>
      </trkpt>
      <trkpt lat="46.00626" lon="6.47366">
        <ele>2261</ele>
        <time>2022-02-20T11:12:44Z</time>
      </trkpt>
      <trkpt lat="46.00627" lon="6.47368">
        <ele>2262</ele>
        <time>2022-02-20T11:12:47Z</time>
      </trkpt>
      <trkpt lat="46.00628" lon="6.47366">
        <ele>2262</ele>
        <time>2022-02-20T11:12:52Z</time>
      </trkpt>
      <trkpt lat="46.00629" lon="6.47363">
        <ele>2261</ele>
        <time>2022-02-20T11:13:00Z</time>
      </trkpt>
      <trkpt lat="46.00631" lon="6.47363">
        <ele>2262</ele>
        <time>2022-02-20T11:13:17Z</time>
      </trkpt>
      <trkpt lat="46.0063" lon="6.47365">
        <ele>2262</ele>
        <time>2022-02-20T11:13:45Z</time>
      </trkpt>
      <trkpt lat="46.00628" lon="6.47365">
        <ele>2262</ele>
        <time>2022-02-20T11:15:26Z</time>
      </trkpt>
      <trkpt lat="46.0063" lon="6.47366">
        <ele>2264</ele>
        <time>2022-02-20T11:16:30Z</time>
      </trkpt>
      <trkpt lat="46.0063" lon="6.47363">
        <ele>2263</ele>
        <time>2022-02-20T11:17:51Z</time>
      </trkpt>
      <trkpt lat="46.00631" lon="6.47361">
        <ele>2265</ele>
        <time>2022-02-20T11:22:47Z</time>
      </trkpt>
      <trkpt lat="46.00633" lon="6.4736">
        <ele>2266</ele>
        <time>2022-02-20T11:24:55Z</time>
      </trkpt>
      <trkpt lat="46.00632" lon="6.47362">
        <ele>2265</ele>
        <time>2022-02-20T11:25:17Z</time>
      </trkpt>
      <trkpt lat="46.0063" lon="6.4736">
        <ele>2264</ele>
        <time>2022-02-20T11:27:27Z</time>
      </trkpt>
      <trkpt lat="46.00628" lon="6.47357">
        <ele>2265</ele>
        <time>2022-02-20T11:28:02Z</time>
      </trkpt>
      <trkpt lat="46.00628" lon="6.47353">
        <ele>2264</ele>
        <time>2022-02-20T11:28:05Z</time>
      </trkpt>
      <trkpt lat="46.00628" lon="6.4735">
        <ele>2262</ele>
        <time>2022-02-20T11:28:08Z</time>
      </trkpt>
      <trkpt lat="46.00627" lon="6.47348">
        <ele>2261</ele>
        <time>2022-02-20T11:28:11Z</time>
      </trkpt>
      <trkpt lat="46.00627" lon="6.47345">
        <ele>2259</ele>
        <time>2022-02-20T11:28:14Z</time>
      </trkpt>
      <trkpt lat="46.00627" lon="6.47342">
        <ele>2258</ele>
        <time>2022-02-20T11:28:16Z</time>
      </trkpt>
      <trkpt lat="46.00626" lon="6.47339">
        <ele>2258</ele>
        <time>2022-02-20T11:28:18Z</time>
      </trkpt>
      <trkpt lat="46.00624" lon="6.47336">
        <ele>2254</ele>
        <time>2022-02-20T11:28:20Z</time>
      </trkpt>
      <trkpt lat="46.00624" lon="6.47333">
        <ele>2253</ele>
        <time>2022-02-20T11:28:22Z</time>
      </trkpt>
      <trkpt lat="46.00623" lon="6.4733">
        <ele>2251</ele>
        <time>2022-02-20T11:28:25Z</time>
      </trkpt>
      <trkpt lat="46.00621" lon="6.47328">
        <ele>2249</ele>
        <time>2022-02-20T11:28:27Z</time>
      </trkpt>
      <trkpt lat="46.0062" lon="6.47325">
        <ele>2249</ele>
        <time>2022-02-20T11:28:29Z</time>
      </trkpt>
      <trkpt lat="46.00617" lon="6.47325">
        <ele>2247</ele>
        <time>2022-02-20T11:28:31Z</time>
      </trkpt>
      <trkpt lat="46.00615" lon="6.47324">
        <ele>2245</ele>
        <time>2022-02-20T11:28:33Z</time>
      </trkpt>
      <trkpt lat="46.00612" lon="6.47324">
        <ele>2244</ele>
        <time>2022-02-20T11:28:35Z</time>
      </trkpt>
      <trkpt lat="46.0061" lon="6.47323">
        <ele>2242</ele>
        <time>2022-02-20T11:28:37Z</time>
      </trkpt>
      <trkpt lat="46.00608" lon="6.47322">
        <ele>2240</ele>
        <time>2022-02-20T11:28:40Z</time>
      </trkpt>
      <trkpt lat="46.00607" lon="6.47319">
        <ele>2239</ele>
        <time>2022-02-20T11:28:46Z</time>
      </trkpt>
      <trkpt lat="46.00605" lon="6.47316">
        <ele>2239</ele>
        <time>2022-02-20T11:28:48Z</time>
      </trkpt>
      <trkpt lat="46.00604" lon="6.47314">
        <ele>2239</ele>
        <time>2022-02-20T11:28:50Z</time>
      </trkpt>
      <trkpt lat="46.00603" lon="6.47312">
        <ele>2236</ele>
        <time>2022-02-20T11:28:52Z</time>
      </trkpt>
      <trkpt lat="46.006" lon="6.47311">
        <ele>2235</ele>
        <time>2022-02-20T11:28:54Z</time>
      </trkpt>
      <trkpt lat="46.00598" lon="6.4731">
        <ele>2233</ele>
        <time>2022-02-20T11:28:57Z</time>
      </trkpt>
      <trkpt lat="46.00596" lon="6.47309">
        <ele>2233</ele>
        <time>2022-02-20T11:29:01Z</time>
      </trkpt>
      <trkpt lat="46.00593" lon="6.47309">
        <ele>2231</ele>
        <time>2022-02-20T11:29:04Z</time>
      </trkpt>
      <trkpt lat="46.00591" lon="6.47311">
        <ele>2230</ele>
        <time>2022-02-20T11:29:07Z</time>
      </trkpt>
      <trkpt lat="46.00589" lon="6.47312">
        <ele>2227</ele>
        <time>2022-02-20T11:29:09Z</time>
      </trkpt>
      <trkpt lat="46.00585" lon="6.47314">
        <ele>2226</ele>
        <time>2022-02-20T11:29:11Z</time>
      </trkpt>
      <trkpt lat="46.00583" lon="6.47314">
        <ele>2225</ele>
        <time>2022-02-20T11:29:12Z</time>
      </trkpt>
      <trkpt lat="46.0058" lon="6.47313">
        <ele>2223</ele>
        <time>2022-02-20T11:29:14Z</time>
      </trkpt>
      <trkpt lat="46.00577" lon="6.47312">
        <ele>2222</ele>
        <time>2022-02-20T11:29:16Z</time>
      </trkpt>
      <trkpt lat="46.00575" lon="6.47311">
        <ele>2222</ele>
        <time>2022-02-20T11:29:17Z</time>
      </trkpt>
      <trkpt lat="46.00573" lon="6.4731">
        <ele>2219</ele>
        <time>2022-02-20T11:29:19Z</time>
      </trkpt>
      <trkpt lat="46.00571" lon="6.47309">
        <ele>2216</ele>
        <time>2022-02-20T11:29:23Z</time>
      </trkpt>
      <trkpt lat="46.00568" lon="6.47307">
        <ele>2216</ele>
        <time>2022-02-20T11:29:25Z</time>
      </trkpt>
      <trkpt lat="46.00567" lon="6.47306">
        <ele>2215</ele>
        <time>2022-02-20T11:29:27Z</time>
      </trkpt>
      <trkpt lat="46.00564" lon="6.47303">
        <ele>2214</ele>
        <time>2022-02-20T11:29:29Z</time>
      </trkpt>
      <trkpt lat="46.00563" lon="6.47302">
        <ele>2213</ele>
        <time>2022-02-20T11:29:30Z</time>
      </trkpt>
      <trkpt lat="46.0056" lon="6.47299">
        <ele>2212</ele>
        <time>2022-02-20T11:29:32Z</time>
      </trkpt>
      <trkpt lat="46.0056" lon="6.47296">
        <ele>2210</ele>
        <time>2022-02-20T11:29:34Z</time>
      </trkpt>
      <trkpt lat="46.00562" lon="6.47296">
        <ele>2208</ele>
        <time>2022-02-20T11:29:39Z</time>
      </trkpt>
      <trkpt lat="46.0056" lon="6.47294">
        <ele>2208</ele>
        <time>2022-02-20T11:30:10Z</time>
      </trkpt>
      <trkpt lat="46.00559" lon="6.47292">
        <ele>2206</ele>
        <time>2022-02-20T11:30:12Z</time>
      </trkpt>
      <trkpt lat="46.00559" lon="6.47288">
        <ele>2205</ele>
        <time>2022-02-20T11:30:14Z</time>
      </trkpt>
      <trkpt lat="46.00558" lon="6.47283">
        <ele>2205</ele>
        <time>2022-02-20T11:30:16Z</time>
      </trkpt>
      <trkpt lat="46.00558" lon="6.47281">
        <ele>2204</ele>
        <time>2022-02-20T11:30:17Z</time>
      </trkpt>
      <trkpt lat="46.00557" lon="6.47277">
        <ele>2202</ele>
        <time>2022-02-20T11:30:18Z</time>
      </trkpt>
      <trkpt lat="46.00557" lon="6.47274">
        <ele>2201</ele>
        <time>2022-02-20T11:30:20Z</time>
      </trkpt>
      <trkpt lat="46.00559" lon="6.47275">
        <ele>2199</ele>
        <time>2022-02-20T11:30:23Z</time>
      </trkpt>
      <trkpt lat="46.00561" lon="6.47278">
        <ele>2197</ele>
        <time>2022-02-20T11:31:05Z</time>
      </trkpt>
      <trkpt lat="46.00562" lon="6.4728">
        <ele>2197</ele>
        <time>2022-02-20T11:31:27Z</time>
      </trkpt>
      <trkpt lat="46.00561" lon="6.47278">
        <ele>2198</ele>
        <time>2022-02-20T11:32:56Z</time>
      </trkpt>
      <trkpt lat="46.0056" lon="6.47275">
        <ele>2197</ele>
        <time>2022-02-20T11:32:58Z</time>
      </trkpt>
      <trkpt lat="46.00558" lon="6.47273">
        <ele>2196</ele>
        <time>2022-02-20T11:33:02Z</time>
      </trkpt>
      <trkpt lat="46.00556" lon="6.47272">
        <ele>2196</ele>
        <time>2022-02-20T11:33:04Z</time>
      </trkpt>
      <trkpt lat="46.00553" lon="6.47272">
        <ele>2196</ele>
        <time>2022-02-20T11:33:05Z</time>
      </trkpt>
      <trkpt lat="46.00551" lon="6.47271">
        <ele>2196</ele>
        <time>2022-02-20T11:33:06Z</time>
      </trkpt>
      <trkpt lat="46.00548" lon="6.47272">
        <ele>2194</ele>
        <time>2022-02-20T11:33:08Z</time>
      </trkpt>
      <trkpt lat="46.00544" lon="6.47272">
        <ele>2192</ele>
        <time>2022-02-20T11:33:11Z</time>
      </trkpt>
      <trkpt lat="46.00542" lon="6.47271">
        <ele>2192</ele>
        <time>2022-02-20T11:33:12Z</time>
      </trkpt>
      <trkpt lat="46.00539" lon="6.47267">
        <ele>2192</ele>
        <time>2022-02-20T11:33:13Z</time>
      </trkpt>
      <trkpt lat="46.00537" lon="6.47264">
        <ele>2187</ele>
        <time>2022-02-20T11:33:15Z</time>
      </trkpt>
      <trkpt lat="46.00534" lon="6.47263">
        <ele>2184</ele>
        <time>2022-02-20T11:33:17Z</time>
      </trkpt>
      <trkpt lat="46.00531" lon="6.47264">
        <ele>2182</ele>
        <time>2022-02-20T11:33:19Z</time>
      </trkpt>
      <trkpt lat="46.00529" lon="6.47266">
        <ele>2182</ele>
        <time>2022-02-20T11:33:20Z</time>
      </trkpt>
      <trkpt lat="46.00527" lon="6.47266">
        <ele>2179</ele>
        <time>2022-02-20T11:33:22Z</time>
      </trkpt>
      <trkpt lat="46.00524" lon="6.47264">
        <ele>2176</ele>
        <time>2022-02-20T11:33:24Z</time>
      </trkpt>
      <trkpt lat="46.00521" lon="6.47262">
        <ele>2175</ele>
        <time>2022-02-20T11:33:26Z</time>
      </trkpt>
      <trkpt lat="46.00519" lon="6.47264">
        <ele>2173</ele>
        <time>2022-02-20T11:33:29Z</time>
      </trkpt>
      <trkpt lat="46.00517" lon="6.47264">
        <ele>2172</ele>
        <time>2022-02-20T11:33:30Z</time>
      </trkpt>
      <trkpt lat="46.00515" lon="6.47263">
        <ele>2171</ele>
        <time>2022-02-20T11:33:31Z</time>
      </trkpt>
      <trkpt lat="46.00513" lon="6.47261">
        <ele>2168</ele>
        <time>2022-02-20T11:33:33Z</time>
      </trkpt>
      <trkpt lat="46.00511" lon="6.47261">
        <ele>2166</ele>
        <time>2022-02-20T11:33:36Z</time>
      </trkpt>
      <trkpt lat="46.00504" lon="6.47251">
        <ele>2162</ele>
        <time>2022-02-20T11:33:50Z</time>
      </trkpt>
      <trkpt lat="46.00499" lon="6.47253">
        <ele>2158</ele>
        <time>2022-02-20T11:33:55Z</time>
      </trkpt>
      <trkpt lat="46.00495" lon="6.47265">
        <ele>2155</ele>
        <time>2022-02-20T11:34:00Z</time>
      </trkpt>
      <trkpt lat="46.00494" lon="6.47267">
        <ele>2155</ele>
        <time>2022-02-20T11:34:01Z</time>
      </trkpt>
      <trkpt lat="46.00492" lon="6.47271">
        <ele>2155</ele>
        <time>2022-02-20T11:34:03Z</time>
      </trkpt>
      <trkpt lat="46.0049" lon="6.47274">
        <ele>2154</ele>
        <time>2022-02-20T11:34:05Z</time>
      </trkpt>
      <trkpt lat="46.00481" lon="6.4728">
        <ele>2150</ele>
        <time>2022-02-20T11:34:09Z</time>
      </trkpt>
      <trkpt lat="46.00471" lon="6.47276">
        <ele>2144</ele>
        <time>2022-02-20T11:34:13Z</time>
      </trkpt>
      <trkpt lat="46.00461" lon="6.47274">
        <ele>2139</ele>
        <time>2022-02-20T11:34:16Z</time>
      </trkpt>
      <trkpt lat="46.00451" lon="6.47273">
        <ele>2134</ele>
        <time>2022-02-20T11:34:19Z</time>
      </trkpt>
      <trkpt lat="46.00442" lon="6.47271">
        <ele>2130</ele>
        <time>2022-02-20T11:34:21Z</time>
      </trkpt>
      <trkpt lat="46.0043" lon="6.47272">
        <ele>2124</ele>
        <time>2022-02-20T11:34:24Z</time>
      </trkpt>
      <trkpt lat="46.00421" lon="6.47273">
        <ele>2116</ele>
        <time>2022-02-20T11:34:28Z</time>
      </trkpt>
      <trkpt lat="46.0042" lon="6.47286">
        <ele>2110</ele>
        <time>2022-02-20T11:34:36Z</time>
      </trkpt>
      <trkpt lat="46.00419" lon="6.47273">
        <ele>2109</ele>
        <time>2022-02-20T11:35:00Z</time>
      </trkpt>
      <trkpt lat="46.00405" lon="6.47271">
        <ele>2106</ele>
        <time>2022-02-20T11:35:03Z</time>
      </trkpt>
      <trkpt lat="46.00394" lon="6.47271">
        <ele>2101</ele>
        <time>2022-02-20T11:35:05Z</time>
      </trkpt>
      <trkpt lat="46.00384" lon="6.47272">
        <ele>2098</ele>
        <time>2022-02-20T11:35:07Z</time>
      </trkpt>
      <trkpt lat="46.00372" lon="6.47269">
        <ele>2091</ele>
        <time>2022-02-20T11:35:10Z</time>
      </trkpt>
      <trkpt lat="46.00362" lon="6.47267">
        <ele>2089</ele>
        <time>2022-02-20T11:35:12Z</time>
      </trkpt>
      <trkpt lat="46.00353" lon="6.47266">
        <ele>2084</ele>
        <time>2022-02-20T11:35:14Z</time>
      </trkpt>
      <trkpt lat="46.00343" lon="6.47264">
        <ele>2079</ele>
        <time>2022-02-20T11:35:16Z</time>
      </trkpt>
      <trkpt lat="46.0033" lon="6.47264">
        <ele>2076</ele>
        <time>2022-02-20T11:35:18Z</time>
      </trkpt>
      <trkpt lat="46.00319" lon="6.47273">
        <ele>2072</ele>
        <time>2022-02-20T11:35:20Z</time>
      </trkpt>
      <trkpt lat="46.0031" lon="6.47276">
        <ele>2066</ele>
        <time>2022-02-20T11:35:24Z</time>
      </trkpt>
      <trkpt lat="46.00303" lon="6.47291">
        <ele>2063</ele>
        <time>2022-02-20T11:35:51Z</time>
      </trkpt>
      <trkpt lat="46.00288" lon="6.47303">
        <ele>2059</ele>
        <time>2022-02-20T11:35:53Z</time>
      </trkpt>
      <trkpt lat="46.00281" lon="6.47311">
        <ele>2059</ele>
        <time>2022-02-20T11:35:54Z</time>
      </trkpt>
      <trkpt lat="46.00267" lon="6.47319">
        <ele>2053</ele>
        <time>2022-02-20T11:35:56Z</time>
      </trkpt>
      <trkpt lat="46.00252" lon="6.47326">
        <ele>2048</ele>
        <time>2022-02-20T11:35:58Z</time>
      </trkpt>
      <trkpt lat="46.00248" lon="6.47329">
        <ele>2046</ele>
        <time>2022-02-20T11:35:59Z</time>
      </trkpt>
      <trkpt lat="46.00239" lon="6.47327">
        <ele>2042</ele>
        <time>2022-02-20T11:36:01Z</time>
      </trkpt>
      <trkpt lat="46.00232" lon="6.47316">
        <ele>2038</ele>
        <time>2022-02-20T11:36:07Z</time>
      </trkpt>
      <trkpt lat="46.00241" lon="6.47328">
        <ele>2038</ele>
        <time>2022-02-20T11:36:21Z</time>
      </trkpt>
      <trkpt lat="46.0025" lon="6.47329">
        <ele>2038</ele>
        <time>2022-02-20T11:36:30Z</time>
      </trkpt>
      <trkpt lat="46.00255" lon="6.47342">
        <ele>2039</ele>
        <time>2022-02-20T11:37:36Z</time>
      </trkpt>
      <trkpt lat="46.00258" lon="6.47354">
        <ele>2039</ele>
        <time>2022-02-20T11:37:50Z</time>
      </trkpt>
      <trkpt lat="46.00268" lon="6.47357">
        <ele>2038</ele>
        <time>2022-02-20T11:37:55Z</time>
      </trkpt>
      <trkpt lat="46.00262" lon="6.47347">
        <ele>2038</ele>
        <time>2022-02-20T11:38:13Z</time>
      </trkpt>
      <trkpt lat="46.00258" lon="6.4736">
        <ele>2038</ele>
        <time>2022-02-20T11:38:39Z</time>
      </trkpt>
      <trkpt lat="46.00256" lon="6.47346">
        <ele>2038</ele>
        <time>2022-02-20T11:38:46Z</time>
      </trkpt>
      <trkpt lat="46.00264" lon="6.47339">
        <ele>2039</ele>
        <time>2022-02-20T11:39:18Z</time>
      </trkpt>
      <trkpt lat="46.00264" lon="6.47355">
        <ele>2039</ele>
        <time>2022-02-20T11:39:26Z</time>
      </trkpt>
      <trkpt lat="46.00255" lon="6.47361">
        <ele>2039</ele>
        <time>2022-02-20T11:39:47Z</time>
      </trkpt>
      <trkpt lat="46.00259" lon="6.4735">
        <ele>2040</ele>
        <time>2022-02-20T11:41:44Z</time>
      </trkpt>
      <trkpt lat="46.00252" lon="6.47386">
        <ele>2040</ele>
        <time>2022-02-20T11:42:46Z</time>
      </trkpt>
      <trkpt lat="46.00264" lon="6.47394">
        <ele>2040</ele>
        <time>2022-02-20T11:42:49Z</time>
      </trkpt>
      <trkpt lat="46.00276" lon="6.47377">
        <ele>2039</ele>
        <time>2022-02-20T11:43:14Z</time>
      </trkpt>
      <trkpt lat="46.00284" lon="6.47387">
        <ele>2039</ele>
        <time>2022-02-20T11:43:22Z</time>
      </trkpt>
      <trkpt lat="46.00295" lon="6.47384">
        <ele>2038</ele>
        <time>2022-02-20T11:43:41Z</time>
      </trkpt>
      <trkpt lat="46.00303" lon="6.47378">
        <ele>2038</ele>
        <time>2022-02-20T11:43:47Z</time>
      </trkpt>
      <trkpt lat="46.00306" lon="6.47391">
        <ele>2038</ele>
        <time>2022-02-20T11:44:24Z</time>
      </trkpt>
      <trkpt lat="46.00303" lon="6.47403">
        <ele>2038</ele>
        <time>2022-02-20T11:45:13Z</time>
      </trkpt>
      <trkpt lat="46.00309" lon="6.4738">
        <ele>2038</ele>
        <time>2022-02-20T11:45:39Z</time>
      </trkpt>
      <trkpt lat="46.00302" lon="6.47367">
        <ele>2038</ele>
        <time>2022-02-20T11:45:43Z</time>
      </trkpt>
      <trkpt lat="46.00312" lon="6.47364">
        <ele>2039</ele>
        <time>2022-02-20T11:46:41Z</time>
      </trkpt>
      <trkpt lat="46.00321" lon="6.47369">
        <ele>2039</ele>
        <time>2022-02-20T11:46:53Z</time>
      </trkpt>
      <trkpt lat="46.00333" lon="6.47366">
        <ele>2039</ele>
        <time>2022-02-20T11:48:12Z</time>
      </trkpt>
      <trkpt lat="46.00342" lon="6.47375">
        <ele>2040</ele>
        <time>2022-02-20T11:48:34Z</time>
      </trkpt>
      <trkpt lat="46.00338" lon="6.47376">
        <ele>2040</ele>
        <time>2022-02-20T11:49:41Z</time>
      </trkpt>
      <trkpt lat="46.00336" lon="6.47377">
        <ele>2040</ele>
        <time>2022-02-20T11:49:43Z</time>
      </trkpt>
      <trkpt lat="46.00334" lon="6.47376">
        <ele>2039</ele>
        <time>2022-02-20T11:49:47Z</time>
      </trkpt>
      <trkpt lat="46.00334" lon="6.47374">
        <ele>2039</ele>
        <time>2022-02-20T11:49:54Z</time>
      </trkpt>
      <trkpt lat="46.00332" lon="6.47371">
        <ele>2039</ele>
        <time>2022-02-20T11:49:57Z</time>
      </trkpt>
      <trkpt lat="46.00331" lon="6.47376">
        <ele>2039</ele>
        <time>2022-02-20T11:51:17Z</time>
      </trkpt>
      <trkpt lat="46.00328" lon="6.47374">
        <ele>2039</ele>
        <time>2022-02-20T11:51:34Z</time>
      </trkpt>
      <trkpt lat="46.00326" lon="6.47373">
        <ele>2039</ele>
        <time>2022-02-20T11:51:36Z</time>
      </trkpt>
      <trkpt lat="46.00324" lon="6.47371">
        <ele>2040</ele>
        <time>2022-02-20T11:51:46Z</time>
      </trkpt>
      <trkpt lat="46.00325" lon="6.47373">
        <ele>2039</ele>
        <time>2022-02-20T11:51:56Z</time>
      </trkpt>
      <trkpt lat="46.00321" lon="6.47378">
        <ele>2039</ele>
        <time>2022-02-20T11:52:23Z</time>
      </trkpt>
      <trkpt lat="46.00325" lon="6.4739">
        <ele>2040</ele>
        <time>2022-02-20T11:52:41Z</time>
      </trkpt>
      <trkpt lat="46.00324" lon="6.47376">
        <ele>2040</ele>
        <time>2022-02-20T11:52:54Z</time>
      </trkpt>
      <trkpt lat="46.00325" lon="6.47365">
        <ele>2041</ele>
        <time>2022-02-20T11:53:00Z</time>
      </trkpt>
      <trkpt lat="46.00323" lon="6.47372">
        <ele>2041</ele>
        <time>2022-02-20T11:53:15Z</time>
      </trkpt>
      <trkpt lat="46.0032" lon="6.47366">
        <ele>2040</ele>
        <time>2022-02-20T11:53:30Z</time>
      </trkpt>
      <trkpt lat="46.00321" lon="6.47368">
        <ele>2042</ele>
        <time>2022-02-20T11:54:09Z</time>
      </trkpt>
      <trkpt lat="46.00322" lon="6.47366">
        <ele>2041</ele>
        <time>2022-02-20T11:54:36Z</time>
      </trkpt>
      <trkpt lat="46.0032" lon="6.4736">
        <ele>2042</ele>
        <time>2022-02-20T11:54:45Z</time>
      </trkpt>
      <trkpt lat="46.00319" lon="6.47363">
        <ele>2042</ele>
        <time>2022-02-20T11:54:56Z</time>
      </trkpt>
      <trkpt lat="46.00321" lon="6.47365">
        <ele>2042</ele>
        <time>2022-02-20T11:55:08Z</time>
      </trkpt>
      <trkpt lat="46.00319" lon="6.47361">
        <ele>2042</ele>
        <time>2022-02-20T11:55:15Z</time>
      </trkpt>
      <trkpt lat="46.00318" lon="6.47358">
        <ele>2042</ele>
        <time>2022-02-20T11:55:17Z</time>
      </trkpt>
      <trkpt lat="46.00317" lon="6.47362">
        <ele>2042</ele>
        <time>2022-02-20T11:55:22Z</time>
      </trkpt>
      <trkpt lat="46.00315" lon="6.47364">
        <ele>2041</ele>
        <time>2022-02-20T11:55:23Z</time>
      </trkpt>
      <trkpt lat="46.00313" lon="6.47367">
        <ele>2041</ele>
        <time>2022-02-20T11:55:24Z</time>
      </trkpt>
      <trkpt lat="46.00311" lon="6.4737">
        <ele>2042</ele>
        <time>2022-02-20T11:55:25Z</time>
      </trkpt>
      <trkpt lat="46.00308" lon="6.47374">
        <ele>2042</ele>
        <time>2022-02-20T11:55:26Z</time>
      </trkpt>
      <trkpt lat="46.00303" lon="6.47376">
        <ele>2041</ele>
        <time>2022-02-20T11:55:27Z</time>
      </trkpt>
      <trkpt lat="46.00298" lon="6.47375">
        <ele>2040</ele>
        <time>2022-02-20T11:55:28Z</time>
      </trkpt>
      <trkpt lat="46.00292" lon="6.47375">
        <ele>2039</ele>
        <time>2022-02-20T11:55:29Z</time>
      </trkpt>
      <trkpt lat="46.00285" lon="6.47378">
        <ele>2037</ele>
        <time>2022-02-20T11:55:30Z</time>
      </trkpt>
      <trkpt lat="46.00279" lon="6.47381">
        <ele>2036</ele>
        <time>2022-02-20T11:55:31Z</time>
      </trkpt>
      <trkpt lat="46.00274" lon="6.47385">
        <ele>2033</ele>
        <time>2022-02-20T11:55:32Z</time>
      </trkpt>
      <trkpt lat="46.0027" lon="6.47388">
        <ele>2031</ele>
        <time>2022-02-20T11:55:33Z</time>
      </trkpt>
      <trkpt lat="46.00267" lon="6.47389">
        <ele>2030</ele>
        <time>2022-02-20T11:55:34Z</time>
      </trkpt>
      <trkpt lat="46.00263" lon="6.4739">
        <ele>2029</ele>
        <time>2022-02-20T11:55:35Z</time>
      </trkpt>
      <trkpt lat="46.00261" lon="6.4739">
        <ele>2029</ele>
        <time>2022-02-20T11:55:36Z</time>
      </trkpt>
      <trkpt lat="46.00259" lon="6.47392">
        <ele>2027</ele>
        <time>2022-02-20T11:55:38Z</time>
      </trkpt>
      <trkpt lat="46.00256" lon="6.47394">
        <ele>2024</ele>
        <time>2022-02-20T11:55:40Z</time>
      </trkpt>
      <trkpt lat="46.00252" lon="6.47402">
        <ele>2023</ele>
        <time>2022-02-20T11:55:42Z</time>
      </trkpt>
      <trkpt lat="46.00244" lon="6.4741">
        <ele>2022</ele>
        <time>2022-02-20T11:55:44Z</time>
      </trkpt>
      <trkpt lat="46.0023" lon="6.47416">
        <ele>2016</ele>
        <time>2022-02-20T11:55:46Z</time>
      </trkpt>
      <trkpt lat="46.00223" lon="6.47417">
        <ele>2016</ele>
        <time>2022-02-20T11:55:47Z</time>
      </trkpt>
      <trkpt lat="46.00213" lon="6.47418">
        <ele>2010</ele>
        <time>2022-02-20T11:55:49Z</time>
      </trkpt>
      <trkpt lat="46.00208" lon="6.47414">
        <ele>2000</ele>
        <time>2022-02-20T11:55:58Z</time>
      </trkpt>
      <trkpt lat="46.00199" lon="6.47423">
        <ele>2000</ele>
        <time>2022-02-20T11:56:05Z</time>
      </trkpt>
      <trkpt lat="46.00197" lon="6.47427">
        <ele>1999</ele>
        <time>2022-02-20T11:56:06Z</time>
      </trkpt>
      <trkpt lat="46.00194" lon="6.4743">
        <ele>1998</ele>
        <time>2022-02-20T11:56:07Z</time>
      </trkpt>
      <trkpt lat="46.00192" lon="6.47434">
        <ele>1997</ele>
        <time>2022-02-20T11:56:08Z</time>
      </trkpt>
      <trkpt lat="46.00188" lon="6.47436">
        <ele>1997</ele>
        <time>2022-02-20T11:56:09Z</time>
      </trkpt>
      <trkpt lat="46.00184" lon="6.47439">
        <ele>1997</ele>
        <time>2022-02-20T11:56:10Z</time>
      </trkpt>
      <trkpt lat="46.00181" lon="6.47442">
        <ele>1996</ele>
        <time>2022-02-20T11:56:11Z</time>
      </trkpt>
      <trkpt lat="46.00177" lon="6.47445">
        <ele>1994</ele>
        <time>2022-02-20T11:56:12Z</time>
      </trkpt>
      <trkpt lat="46.00169" lon="6.47457">
        <ele>1989</ele>
        <time>2022-02-20T11:56:15Z</time>
      </trkpt>
      <trkpt lat="46.00163" lon="6.47465">
        <ele>1984</ele>
        <time>2022-02-20T11:56:17Z</time>
      </trkpt>
      <trkpt lat="46.00159" lon="6.47468">
        <ele>1982</ele>
        <time>2022-02-20T11:56:18Z</time>
      </trkpt>
      <trkpt lat="46.00156" lon="6.47472">
        <ele>1981</ele>
        <time>2022-02-20T11:56:19Z</time>
      </trkpt>
      <trkpt lat="46.00151" lon="6.47475">
        <ele>1979</ele>
        <time>2022-02-20T11:56:20Z</time>
      </trkpt>
      <trkpt lat="46.00142" lon="6.47489">
        <ele>1971</ele>
        <time>2022-02-20T11:56:23Z</time>
      </trkpt>
      <trkpt lat="46.00132" lon="6.47497">
        <ele>1967</ele>
        <time>2022-02-20T11:56:26Z</time>
      </trkpt>
      <trkpt lat="46.00127" lon="6.47498">
        <ele>1964</ele>
        <time>2022-02-20T11:56:27Z</time>
      </trkpt>
      <trkpt lat="46.00124" lon="6.475">
        <ele>1961</ele>
        <time>2022-02-20T11:56:28Z</time>
      </trkpt>
      <trkpt lat="46.00114" lon="6.47505">
        <ele>1955</ele>
        <time>2022-02-20T11:56:31Z</time>
      </trkpt>
      <trkpt lat="46.00105" lon="6.47502">
        <ele>1947</ele>
        <time>2022-02-20T11:56:35Z</time>
      </trkpt>
      <trkpt lat="46.00096" lon="6.47493">
        <ele>1944</ele>
        <time>2022-02-20T11:56:39Z</time>
      </trkpt>
      <trkpt lat="46.00093" lon="6.47486">
        <ele>1943</ele>
        <time>2022-02-20T11:56:41Z</time>
      </trkpt>
      <trkpt lat="46.00091" lon="6.47482">
        <ele>1943</ele>
        <time>2022-02-20T11:56:42Z</time>
      </trkpt>
      <trkpt lat="46.00089" lon="6.47479">
        <ele>1943</ele>
        <time>2022-02-20T11:56:43Z</time>
      </trkpt>
      <trkpt lat="46.00086" lon="6.47476">
        <ele>1942</ele>
        <time>2022-02-20T11:56:44Z</time>
      </trkpt>
      <trkpt lat="46.00084" lon="6.47472">
        <ele>1942</ele>
        <time>2022-02-20T11:56:45Z</time>
      </trkpt>
      <trkpt lat="46.00083" lon="6.4747">
        <ele>1941</ele>
        <time>2022-02-20T11:56:46Z</time>
      </trkpt>
      <trkpt lat="46.00081" lon="6.47468">
        <ele>1939</ele>
        <time>2022-02-20T11:56:49Z</time>
      </trkpt>
      <trkpt lat="46.00079" lon="6.47467">
        <ele>1937</ele>
        <time>2022-02-20T11:57:13Z</time>
      </trkpt>
      <trkpt lat="46.00076" lon="6.47465">
        <ele>1937</ele>
        <time>2022-02-20T11:57:14Z</time>
      </trkpt>
      <trkpt lat="46.00073" lon="6.47461">
        <ele>1937</ele>
        <time>2022-02-20T11:57:15Z</time>
      </trkpt>
      <trkpt lat="46.0007" lon="6.47456">
        <ele>1937</ele>
        <time>2022-02-20T11:57:16Z</time>
      </trkpt>
      <trkpt lat="46.00067" lon="6.47452">
        <ele>1937</ele>
        <time>2022-02-20T11:57:17Z</time>
      </trkpt>
      <trkpt lat="46.00063" lon="6.47447">
        <ele>1936</ele>
        <time>2022-02-20T11:57:18Z</time>
      </trkpt>
      <trkpt lat="46.00059" lon="6.47443">
        <ele>1935</ele>
        <time>2022-02-20T11:57:19Z</time>
      </trkpt>
      <trkpt lat="46.00056" lon="6.47439">
        <ele>1934</ele>
        <time>2022-02-20T11:57:20Z</time>
      </trkpt>
      <trkpt lat="46.00053" lon="6.47437">
        <ele>1933</ele>
        <time>2022-02-20T11:57:21Z</time>
      </trkpt>
      <trkpt lat="46.00042" lon="6.4745">
        <ele>1931</ele>
        <time>2022-02-20T11:57:24Z</time>
      </trkpt>
      <trkpt lat="46.00034" lon="6.47463">
        <ele>1927</ele>
        <time>2022-02-20T11:57:26Z</time>
      </trkpt>
      <trkpt lat="46.00021" lon="6.47472">
        <ele>1921</ele>
        <time>2022-02-20T11:57:28Z</time>
      </trkpt>
      <trkpt lat="46.00011" lon="6.47481">
        <ele>1913</ele>
        <time>2022-02-20T11:57:30Z</time>
      </trkpt>
      <trkpt lat="46" lon="6.4749">
        <ele>1907</ele>
        <time>2022-02-20T11:57:32Z</time>
      </trkpt>
      <trkpt lat="45.99991" lon="6.47495">
        <ele>1904</ele>
        <time>2022-02-20T11:57:34Z</time>
      </trkpt>
      <trkpt lat="45.99984" lon="6.47483">
        <ele>1897</ele>
        <time>2022-02-20T11:57:37Z</time>
      </trkpt>
      <trkpt lat="45.9998" lon="6.47496">
        <ele>1893</ele>
        <time>2022-02-20T11:57:40Z</time>
      </trkpt>
      <trkpt lat="45.99971" lon="6.47499">
        <ele>1882</ele>
        <time>2022-02-20T11:57:45Z</time>
      </trkpt>
      <trkpt lat="45.99965" lon="6.47489">
        <ele>1880</ele>
        <time>2022-02-20T11:57:49Z</time>
      </trkpt>
      <trkpt lat="45.99962" lon="6.47483">
        <ele>1875</ele>
        <time>2022-02-20T11:57:57Z</time>
      </trkpt>
      <trkpt lat="45.99963" lon="6.4748">
        <ele>1874</ele>
        <time>2022-02-20T11:58:00Z</time>
      </trkpt>
      <trkpt lat="45.9996" lon="6.47478">
        <ele>1874</ele>
        <time>2022-02-20T11:58:09Z</time>
      </trkpt>
      <trkpt lat="45.99957" lon="6.47478">
        <ele>1874</ele>
        <time>2022-02-20T11:58:10Z</time>
      </trkpt>
      <trkpt lat="45.99954" lon="6.47478">
        <ele>1874</ele>
        <time>2022-02-20T11:58:11Z</time>
      </trkpt>
      <trkpt lat="45.99952" lon="6.4748">
        <ele>1873</ele>
        <time>2022-02-20T11:58:12Z</time>
      </trkpt>
      <trkpt lat="45.99949" lon="6.47483">
        <ele>1871</ele>
        <time>2022-02-20T11:58:13Z</time>
      </trkpt>
      <trkpt lat="45.99946" lon="6.47483">
        <ele>1868</ele>
        <time>2022-02-20T11:58:14Z</time>
      </trkpt>
      <trkpt lat="45.99943" lon="6.47481">
        <ele>1865</ele>
        <time>2022-02-20T11:58:15Z</time>
      </trkpt>
      <trkpt lat="45.99935" lon="6.47476">
        <ele>1862</ele>
        <time>2022-02-20T11:58:17Z</time>
      </trkpt>
      <trkpt lat="45.99922" lon="6.47477">
        <ele>1859</ele>
        <time>2022-02-20T11:58:20Z</time>
      </trkpt>
      <trkpt lat="45.99916" lon="6.4748">
        <ele>1856</ele>
        <time>2022-02-20T11:58:23Z</time>
      </trkpt>
      <trkpt lat="45.99918" lon="6.47479">
        <ele>1854</ele>
        <time>2022-02-20T11:58:27Z</time>
      </trkpt>
      <trkpt lat="45.99916" lon="6.4748">
        <ele>1852</ele>
        <time>2022-02-20T11:58:47Z</time>
      </trkpt>
      <trkpt lat="45.99914" lon="6.47483">
        <ele>1852</ele>
        <time>2022-02-20T11:58:49Z</time>
      </trkpt>
      <trkpt lat="45.99913" lon="6.47489">
        <ele>1851</ele>
        <time>2022-02-20T11:58:50Z</time>
      </trkpt>
      <trkpt lat="45.99911" lon="6.47494">
        <ele>1851</ele>
        <time>2022-02-20T11:58:51Z</time>
      </trkpt>
      <trkpt lat="45.99909" lon="6.475">
        <ele>1849</ele>
        <time>2022-02-20T11:58:52Z</time>
      </trkpt>
      <trkpt lat="45.99907" lon="6.47506">
        <ele>1849</ele>
        <time>2022-02-20T11:58:53Z</time>
      </trkpt>
      <trkpt lat="45.99904" lon="6.47511">
        <ele>1847</ele>
        <time>2022-02-20T11:58:54Z</time>
      </trkpt>
      <trkpt lat="45.99901" lon="6.47516">
        <ele>1844</ele>
        <time>2022-02-20T11:58:55Z</time>
      </trkpt>
      <trkpt lat="45.99892" lon="6.47522">
        <ele>1838</ele>
        <time>2022-02-20T11:58:57Z</time>
      </trkpt>
      <trkpt lat="45.99881" lon="6.47527">
        <ele>1830</ele>
        <time>2022-02-20T11:59:00Z</time>
      </trkpt>
      <trkpt lat="45.9987" lon="6.47526">
        <ele>1826</ele>
        <time>2022-02-20T11:59:02Z</time>
      </trkpt>
      <trkpt lat="45.9986" lon="6.47538">
        <ele>1824</ele>
        <time>2022-02-20T11:59:04Z</time>
      </trkpt>
      <trkpt lat="45.99847" lon="6.47548">
        <ele>1817</ele>
        <time>2022-02-20T11:59:06Z</time>
      </trkpt>
      <trkpt lat="45.99839" lon="6.47557">
        <ele>1813</ele>
        <time>2022-02-20T11:59:08Z</time>
      </trkpt>
      <trkpt lat="45.99831" lon="6.47567">
        <ele>1809</ele>
        <time>2022-02-20T11:59:11Z</time>
      </trkpt>
      <trkpt lat="45.99827" lon="6.47558">
        <ele>1807</ele>
        <time>2022-02-20T11:59:15Z</time>
      </trkpt>
      <trkpt lat="45.99827" lon="6.47554">
        <ele>1806</ele>
        <time>2022-02-20T11:59:17Z</time>
      </trkpt>
      <trkpt lat="45.99828" lon="6.47552">
        <ele>1806</ele>
        <time>2022-02-20T11:59:21Z</time>
      </trkpt>
      <trkpt lat="45.99829" lon="6.47552">
        <ele>1807</ele>
        <time>2022-02-20T11:59:23Z</time>
      </trkpt>
      <trkpt lat="45.99831" lon="6.4755">
        <ele>1807</ele>
        <time>2022-02-20T11:59:26Z</time>
      </trkpt>
      <trkpt lat="45.99831" lon="6.47546">
        <ele>1807</ele>
        <time>2022-02-20T11:59:29Z</time>
      </trkpt>
      <trkpt lat="45.99834" lon="6.47547">
        <ele>1807</ele>
        <time>2022-02-20T12:00:03Z</time>
      </trkpt>
      <trkpt lat="45.99832" lon="6.47544">
        <ele>1807</ele>
        <time>2022-02-20T12:00:20Z</time>
      </trkpt>
      <trkpt lat="45.9983" lon="6.47544">
        <ele>1807</ele>
        <time>2022-02-20T12:00:22Z</time>
      </trkpt>
      <trkpt lat="45.99828" lon="6.47546">
        <ele>1805</ele>
        <time>2022-02-20T12:00:25Z</time>
      </trkpt>
      <trkpt lat="45.99826" lon="6.47547">
        <ele>1805</ele>
        <time>2022-02-20T12:00:27Z</time>
      </trkpt>
      <trkpt lat="45.99824" lon="6.47551">
        <ele>1808.5</ele>
        <time>2022-02-20T12:00:29Z</time>
      </trkpt>
      <trkpt lat="45.99822" lon="6.47555">
        <ele>1804</ele>
        <time>2022-02-20T12:00:30Z</time>
      </trkpt>
      <trkpt lat="45.9982" lon="6.47558">
        <ele>1804</ele>
        <time>2022-02-20T12:00:31Z</time>
      </trkpt>
      <trkpt lat="45.99817" lon="6.4756">
        <ele>1803</ele>
        <time>2022-02-20T12:00:32Z</time>
      </trkpt>
      <trkpt lat="45.99814" lon="6.47559">
        <ele>1802</ele>
        <time>2022-02-20T12:00:33Z</time>
      </trkpt>
      <trkpt lat="45.99813" lon="6.47558">
        <ele>1801</ele>
        <time>2022-02-20T12:00:34Z</time>
      </trkpt>
      <trkpt lat="45.9981" lon="6.47556">
        <ele>1801</ele>
        <time>2022-02-20T12:00:36Z</time>
      </trkpt>
      <trkpt lat="45.99807" lon="6.47555">
        <ele>1800</ele>
        <time>2022-02-20T12:00:38Z</time>
      </trkpt>
      <trkpt lat="45.99804" lon="6.47555">
        <ele>1799</ele>
        <time>2022-02-20T12:00:40Z</time>
      </trkpt>
      <trkpt lat="45.99802" lon="6.47555">
        <ele>1798</ele>
        <time>2022-02-20T12:00:43Z</time>
      </trkpt>
      <trkpt lat="45.99799" lon="6.47556">
        <ele>1797</ele>
        <time>2022-02-20T12:01:14Z</time>
      </trkpt>
      <trkpt lat="45.99797" lon="6.47557">
        <ele>1797</ele>
        <time>2022-02-20T12:01:15Z</time>
      </trkpt>
      <trkpt lat="45.99795" lon="6.47558">
        <ele>1796</ele>
        <time>2022-02-20T12:01:16Z</time>
      </trkpt>
      <trkpt lat="45.99793" lon="6.47559">
        <ele>1795</ele>
        <time>2022-02-20T12:01:17Z</time>
      </trkpt>
      <trkpt lat="45.99791" lon="6.47561">
        <ele>1795</ele>
        <time>2022-02-20T12:01:18Z</time>
      </trkpt>
      <trkpt lat="45.9979" lon="6.47562">
        <ele>1794</ele>
        <time>2022-02-20T12:01:19Z</time>
      </trkpt>
      <trkpt lat="45.99787" lon="6.47565">
        <ele>1793</ele>
        <time>2022-02-20T12:01:21Z</time>
      </trkpt>
      <trkpt lat="45.99785" lon="6.47568">
        <ele>1793</ele>
        <time>2022-02-20T12:01:23Z</time>
      </trkpt>
      <trkpt lat="45.99782" lon="6.47571">
        <ele>1791</ele>
        <time>2022-02-20T12:01:25Z</time>
      </trkpt>
      <trkpt lat="45.9978" lon="6.47574">
        <ele>1790</ele>
        <time>2022-02-20T12:01:26Z</time>
      </trkpt>
      <trkpt lat="45.99778" lon="6.47575">
        <ele>1789</ele>
        <time>2022-02-20T12:01:27Z</time>
      </trkpt>
      <trkpt lat="45.99775" lon="6.47577">
        <ele>1788</ele>
        <time>2022-02-20T12:01:28Z</time>
      </trkpt>
      <trkpt lat="45.99772" lon="6.47578">
        <ele>1788</ele>
        <time>2022-02-20T12:01:29Z</time>
      </trkpt>
      <trkpt lat="45.99769" lon="6.47579">
        <ele>1787</ele>
        <time>2022-02-20T12:01:30Z</time>
      </trkpt>
      <trkpt lat="45.99766" lon="6.47579">
        <ele>1787</ele>
        <time>2022-02-20T12:01:31Z</time>
      </trkpt>
      <trkpt lat="45.99762" lon="6.47578">
        <ele>1786</ele>
        <time>2022-02-20T12:01:32Z</time>
      </trkpt>
      <trkpt lat="45.99758" lon="6.47579">
        <ele>1786</ele>
        <time>2022-02-20T12:01:33Z</time>
      </trkpt>
      <trkpt lat="45.99755" lon="6.47579">
        <ele>1785</ele>
        <time>2022-02-20T12:01:34Z</time>
      </trkpt>
      <trkpt lat="45.99753" lon="6.47579">
        <ele>1785</ele>
        <time>2022-02-20T12:01:36Z</time>
      </trkpt>
      <trkpt lat="45.99752" lon="6.47577">
        <ele>1783</ele>
        <time>2022-02-20T12:01:44Z</time>
      </trkpt>
      <trkpt lat="45.99749" lon="6.47577">
        <ele>1783</ele>
        <time>2022-02-20T12:01:48Z</time>
      </trkpt>
      <trkpt lat="45.99745" lon="6.47577">
        <ele>1783</ele>
        <time>2022-02-20T12:01:49Z</time>
      </trkpt>
      <trkpt lat="45.99742" lon="6.47577">
        <ele>1783</ele>
        <time>2022-02-20T12:01:50Z</time>
      </trkpt>
      <trkpt lat="45.9974" lon="6.47577">
        <ele>1783</ele>
        <time>2022-02-20T12:01:51Z</time>
      </trkpt>
      <trkpt lat="45.99738" lon="6.47577">
        <ele>1783</ele>
        <time>2022-02-20T12:01:52Z</time>
      </trkpt>
      <trkpt lat="45.99737" lon="6.47574">
        <ele>1783</ele>
        <time>2022-02-20T12:02:17Z</time>
      </trkpt>
      <trkpt lat="45.99735" lon="6.47572">
        <ele>1783</ele>
        <time>2022-02-20T12:02:22Z</time>
      </trkpt>
      <trkpt lat="45.99735" lon="6.4757">
        <ele>1784</ele>
        <time>2022-02-20T12:02:35Z</time>
      </trkpt>
      <trkpt lat="45.99736" lon="6.47566">
        <ele>1785</ele>
        <time>2022-02-20T12:02:39Z</time>
      </trkpt>
      <trkpt lat="45.99735" lon="6.47564">
        <ele>1785</ele>
        <time>2022-02-20T12:02:43Z</time>
      </trkpt>
      <trkpt lat="45.99734" lon="6.47562">
        <ele>1785</ele>
        <time>2022-02-20T12:02:48Z</time>
      </trkpt>
      <trkpt lat="45.99733" lon="6.47559">
        <ele>1785</ele>
        <time>2022-02-20T12:03:02Z</time>
      </trkpt>
      <trkpt lat="45.99734" lon="6.47557">
        <ele>1786</ele>
        <time>2022-02-20T12:03:05Z</time>
      </trkpt>
      <trkpt lat="45.99732" lon="6.47555">
        <ele>1786</ele>
        <time>2022-02-20T12:03:09Z</time>
      </trkpt>
      <trkpt lat="45.9973" lon="6.47553">
        <ele>1786</ele>
        <time>2022-02-20T12:03:14Z</time>
      </trkpt>
      <trkpt lat="45.99728" lon="6.47552">
        <ele>1784</ele>
        <time>2022-02-20T12:03:22Z</time>
      </trkpt>
      <trkpt lat="45.99727" lon="6.4755">
        <ele>1784</ele>
        <time>2022-02-20T12:03:27Z</time>
      </trkpt>
      <trkpt lat="45.99726" lon="6.47548">
        <ele>1784</ele>
        <time>2022-02-20T12:03:31Z</time>
      </trkpt>
      <trkpt lat="45.99724" lon="6.47546">
        <ele>1784</ele>
        <time>2022-02-20T12:03:33Z</time>
      </trkpt>
      <trkpt lat="45.99722" lon="6.47545">
        <ele>1784</ele>
        <time>2022-02-20T12:03:35Z</time>
      </trkpt>
      <trkpt lat="45.9972" lon="6.47543">
        <ele>1783</ele>
        <time>2022-02-20T12:03:38Z</time>
      </trkpt>
      <trkpt lat="45.99718" lon="6.4754">
        <ele>1783</ele>
        <time>2022-02-20T12:03:41Z</time>
      </trkpt>
      <trkpt lat="45.99716" lon="6.47538">
        <ele>1783</ele>
        <time>2022-02-20T12:03:45Z</time>
      </trkpt>
      <trkpt lat="45.99715" lon="6.47535">
        <ele>1783</ele>
        <time>2022-02-20T12:03:48Z</time>
      </trkpt>
      <trkpt lat="45.99713" lon="6.47533">
        <ele>1783</ele>
        <time>2022-02-20T12:03:51Z</time>
      </trkpt>
      <trkpt lat="45.99712" lon="6.47532">
        <ele>1783</ele>
        <time>2022-02-20T12:03:54Z</time>
      </trkpt>
      <trkpt lat="45.99711" lon="6.47529">
        <ele>1782</ele>
        <time>2022-02-20T12:03:57Z</time>
      </trkpt>
      <trkpt lat="45.99709" lon="6.47526">
        <ele>1782</ele>
        <time>2022-02-20T12:04:00Z</time>
      </trkpt>
      <trkpt lat="45.99708" lon="6.47524">
        <ele>1782</ele>
        <time>2022-02-20T12:04:04Z</time>
      </trkpt>
      <trkpt lat="45.99706" lon="6.47522">
        <ele>1781</ele>
        <time>2022-02-20T12:04:07Z</time>
      </trkpt>
      <trkpt lat="45.99704" lon="6.47519">
        <ele>1781</ele>
        <time>2022-02-20T12:04:11Z</time>
      </trkpt>
      <trkpt lat="45.99703" lon="6.47517">
        <ele>1781</ele>
        <time>2022-02-20T12:04:14Z</time>
      </trkpt>
      <trkpt lat="45.99701" lon="6.47515">
        <ele>1781</ele>
        <time>2022-02-20T12:04:17Z</time>
      </trkpt>
      <trkpt lat="45.997" lon="6.47513">
        <ele>1781</ele>
        <time>2022-02-20T12:04:19Z</time>
      </trkpt>
      <trkpt lat="45.99699" lon="6.47511">
        <ele>1779</ele>
        <time>2022-02-20T12:04:23Z</time>
      </trkpt>
      <trkpt lat="45.99697" lon="6.47509">
        <ele>1779</ele>
        <time>2022-02-20T12:04:26Z</time>
      </trkpt>
      <trkpt lat="45.99695" lon="6.47507">
        <ele>1779</ele>
        <time>2022-02-20T12:04:29Z</time>
      </trkpt>
      <trkpt lat="45.99694" lon="6.47504">
        <ele>1780</ele>
        <time>2022-02-20T12:04:32Z</time>
      </trkpt>
      <trkpt lat="45.99693" lon="6.47502">
        <ele>1780</ele>
        <time>2022-02-20T12:04:35Z</time>
      </trkpt>
      <trkpt lat="45.99691" lon="6.47499">
        <ele>1780</ele>
        <time>2022-02-20T12:04:38Z</time>
      </trkpt>
      <trkpt lat="45.9969" lon="6.47497">
        <ele>1780</ele>
        <time>2022-02-20T12:04:42Z</time>
      </trkpt>
      <trkpt lat="45.99688" lon="6.47495">
        <ele>1779</ele>
        <time>2022-02-20T12:04:45Z</time>
      </trkpt>
      <trkpt lat="45.99687" lon="6.47492">
        <ele>1780</ele>
        <time>2022-02-20T12:04:48Z</time>
      </trkpt>
      <trkpt lat="45.99686" lon="6.4749">
        <ele>1780</ele>
        <time>2022-02-20T12:04:50Z</time>
      </trkpt>
      <trkpt lat="45.99685" lon="6.47487">
        <ele>1779</ele>
        <time>2022-02-20T12:04:53Z</time>
      </trkpt>
      <trkpt lat="45.99683" lon="6.47486">
        <ele>1779</ele>
        <time>2022-02-20T12:04:55Z</time>
      </trkpt>
      <trkpt lat="45.99681" lon="6.47487">
        <ele>1778</ele>
        <time>2022-02-20T12:04:57Z</time>
      </trkpt>
      <trkpt lat="45.99679" lon="6.47488">
        <ele>1778</ele>
        <time>2022-02-20T12:04:59Z</time>
      </trkpt>
      <trkpt lat="45.99677" lon="6.47487">
        <ele>1777</ele>
        <time>2022-02-20T12:05:02Z</time>
      </trkpt>
      <trkpt lat="45.99675" lon="6.47485">
        <ele>1777</ele>
        <time>2022-02-20T12:05:04Z</time>
      </trkpt>
      <trkpt lat="45.99672" lon="6.47484">
        <ele>1776</ele>
        <time>2022-02-20T12:05:06Z</time>
      </trkpt>
      <trkpt lat="45.99669" lon="6.47482">
        <ele>1775</ele>
        <time>2022-02-20T12:05:08Z</time>
      </trkpt>
      <trkpt lat="45.99667" lon="6.47482">
        <ele>1773</ele>
        <time>2022-02-20T12:05:11Z</time>
      </trkpt>
      <trkpt lat="45.99669" lon="6.47481">
        <ele>1773</ele>
        <time>2022-02-20T12:05:37Z</time>
      </trkpt>
      <trkpt lat="45.99669" lon="6.47478">
        <ele>1773</ele>
        <time>2022-02-20T12:05:39Z</time>
      </trkpt>
      <trkpt lat="45.99667" lon="6.47475">
        <ele>1773</ele>
        <time>2022-02-20T12:05:41Z</time>
      </trkpt>
      <trkpt lat="45.99667" lon="6.47473">
        <ele>1772</ele>
        <time>2022-02-20T12:05:43Z</time>
      </trkpt>
      <trkpt lat="45.99666" lon="6.4747">
        <ele>1771</ele>
        <time>2022-02-20T12:05:45Z</time>
      </trkpt>
      <trkpt lat="45.99664" lon="6.47467">
        <ele>1771</ele>
        <time>2022-02-20T12:05:47Z</time>
      </trkpt>
      <trkpt lat="45.99664" lon="6.47463">
        <ele>1770</ele>
        <time>2022-02-20T12:05:49Z</time>
      </trkpt>
      <trkpt lat="45.99663" lon="6.47461">
        <ele>1769</ele>
        <time>2022-02-20T12:05:52Z</time>
      </trkpt>
      <trkpt lat="45.99662" lon="6.47459">
        <ele>1769</ele>
        <time>2022-02-20T12:05:55Z</time>
      </trkpt>
      <trkpt lat="45.99661" lon="6.47455">
        <ele>1769</ele>
        <time>2022-02-20T12:05:58Z</time>
      </trkpt>
      <trkpt lat="45.99659" lon="6.47454">
        <ele>1769</ele>
        <time>2022-02-20T12:06:00Z</time>
      </trkpt>
      <trkpt lat="45.99657" lon="6.47451">
        <ele>1769</ele>
        <time>2022-02-20T12:06:03Z</time>
      </trkpt>
      <trkpt lat="45.99655" lon="6.47449">
        <ele>1768</ele>
        <time>2022-02-20T12:06:06Z</time>
      </trkpt>
      <trkpt lat="45.99653" lon="6.47448">
        <ele>1768</ele>
        <time>2022-02-20T12:06:09Z</time>
      </trkpt>
      <trkpt lat="45.99652" lon="6.47451">
        <ele>1768</ele>
        <time>2022-02-20T12:06:32Z</time>
      </trkpt>
      <trkpt lat="45.9965" lon="6.47451">
        <ele>1768</ele>
        <time>2022-02-20T12:06:50Z</time>
      </trkpt>
      <trkpt lat="45.99646" lon="6.4745">
        <ele>1768</ele>
        <time>2022-02-20T12:06:52Z</time>
      </trkpt>
      <trkpt lat="45.99643" lon="6.47448">
        <ele>1767</ele>
        <time>2022-02-20T12:06:53Z</time>
      </trkpt>
      <trkpt lat="45.99641" lon="6.47446">
        <ele>1766</ele>
        <time>2022-02-20T12:06:54Z</time>
      </trkpt>
      <trkpt lat="45.99639" lon="6.47443">
        <ele>1765</ele>
        <time>2022-02-20T12:06:55Z</time>
      </trkpt>
      <trkpt lat="45.99637" lon="6.4744">
        <ele>1763</ele>
        <time>2022-02-20T12:06:56Z</time>
      </trkpt>
      <trkpt lat="45.99635" lon="6.47437">
        <ele>1762</ele>
        <time>2022-02-20T12:06:57Z</time>
      </trkpt>
      <trkpt lat="45.99633" lon="6.47434">
        <ele>1762</ele>
        <time>2022-02-20T12:06:58Z</time>
      </trkpt>
      <trkpt lat="45.99631" lon="6.47431">
        <ele>1762</ele>
        <time>2022-02-20T12:06:59Z</time>
      </trkpt>
      <trkpt lat="45.99629" lon="6.47428">
        <ele>1762</ele>
        <time>2022-02-20T12:07:00Z</time>
      </trkpt>
      <trkpt lat="45.99627" lon="6.47426">
        <ele>1761</ele>
        <time>2022-02-20T12:07:01Z</time>
      </trkpt>
      <trkpt lat="45.99625" lon="6.47423">
        <ele>1760</ele>
        <time>2022-02-20T12:07:02Z</time>
      </trkpt>
      <trkpt lat="45.99623" lon="6.47421">
        <ele>1759</ele>
        <time>2022-02-20T12:07:03Z</time>
      </trkpt>
      <trkpt lat="45.99621" lon="6.47418">
        <ele>1758</ele>
        <time>2022-02-20T12:07:04Z</time>
      </trkpt>
      <trkpt lat="45.99619" lon="6.47416">
        <ele>1757</ele>
        <time>2022-02-20T12:07:05Z</time>
      </trkpt>
      <trkpt lat="45.99617" lon="6.47414">
        <ele>1757</ele>
        <time>2022-02-20T12:07:06Z</time>
      </trkpt>
      <trkpt lat="45.99614" lon="6.47413">
        <ele>1757</ele>
        <time>2022-02-20T12:07:07Z</time>
      </trkpt>
      <trkpt lat="45.99611" lon="6.47411">
        <ele>1755</ele>
        <time>2022-02-20T12:07:08Z</time>
      </trkpt>
      <trkpt lat="45.99608" lon="6.47409">
        <ele>1754</ele>
        <time>2022-02-20T12:07:09Z</time>
      </trkpt>
      <trkpt lat="45.99605" lon="6.47407">
        <ele>1753</ele>
        <time>2022-02-20T12:07:10Z</time>
      </trkpt>
      <trkpt lat="45.99601" lon="6.47405">
        <ele>1751</ele>
        <time>2022-02-20T12:07:11Z</time>
      </trkpt>
      <trkpt lat="45.99596" lon="6.47406">
        <ele>1750</ele>
        <time>2022-02-20T12:07:12Z</time>
      </trkpt>
      <trkpt lat="45.99589" lon="6.47406">
        <ele>1747</ele>
        <time>2022-02-20T12:07:13Z</time>
      </trkpt>
      <trkpt lat="45.99582" lon="6.47404">
        <ele>1744</ele>
        <time>2022-02-20T12:07:14Z</time>
      </trkpt>
      <trkpt lat="45.99574" lon="6.47401">
        <ele>1744</ele>
        <time>2022-02-20T12:07:15Z</time>
      </trkpt>
      <trkpt lat="45.99567" lon="6.47399">
        <ele>1742</ele>
        <time>2022-02-20T12:07:16Z</time>
      </trkpt>
      <trkpt lat="45.99561" lon="6.47396">
        <ele>1740</ele>
        <time>2022-02-20T12:07:17Z</time>
      </trkpt>
      <trkpt lat="45.99556" lon="6.47394">
        <ele>1740</ele>
        <time>2022-02-20T12:07:18Z</time>
      </trkpt>
      <trkpt lat="45.99551" lon="6.47394">
        <ele>1740</ele>
        <time>2022-02-20T12:07:19Z</time>
      </trkpt>
      <trkpt lat="45.99547" lon="6.47393">
        <ele>1738</ele>
        <time>2022-02-20T12:07:20Z</time>
      </trkpt>
      <trkpt lat="45.99544" lon="6.47391">
        <ele>1737</ele>
        <time>2022-02-20T12:07:21Z</time>
      </trkpt>
      <trkpt lat="45.99542" lon="6.47388">
        <ele>1734</ele>
        <time>2022-02-20T12:07:22Z</time>
      </trkpt>
      <trkpt lat="45.99543" lon="6.47392">
        <ele>1733</ele>
        <time>2022-02-20T12:07:25Z</time>
      </trkpt>
      <trkpt lat="45.99545" lon="6.47393">
        <ele>1733</ele>
        <time>2022-02-20T12:07:28Z</time>
      </trkpt>
      <trkpt lat="45.99548" lon="6.47393">
        <ele>1732</ele>
        <time>2022-02-20T12:07:30Z</time>
      </trkpt>
      <trkpt lat="45.99545" lon="6.47393">
        <ele>1732</ele>
        <time>2022-02-20T12:07:37Z</time>
      </trkpt>
      <trkpt lat="45.99546" lon="6.47391">
        <ele>1731</ele>
        <time>2022-02-20T12:07:46Z</time>
      </trkpt>
      <trkpt lat="45.99544" lon="6.47392">
        <ele>1732</ele>
        <time>2022-02-20T12:08:16Z</time>
      </trkpt>
      <trkpt lat="45.99543" lon="6.47396">
        <ele>1733</ele>
        <time>2022-02-20T12:08:17Z</time>
      </trkpt>
      <trkpt lat="45.99542" lon="6.47405">
        <ele>1733</ele>
        <time>2022-02-20T12:08:18Z</time>
      </trkpt>
      <trkpt lat="45.99541" lon="6.47414">
        <ele>1731</ele>
        <time>2022-02-20T12:08:19Z</time>
      </trkpt>
      <trkpt lat="45.99539" lon="6.47423">
        <ele>1729</ele>
        <time>2022-02-20T12:08:20Z</time>
      </trkpt>
      <trkpt lat="45.99535" lon="6.4743">
        <ele>1728</ele>
        <time>2022-02-20T12:08:21Z</time>
      </trkpt>
      <trkpt lat="45.99531" lon="6.47433">
        <ele>1727</ele>
        <time>2022-02-20T12:08:22Z</time>
      </trkpt>
      <trkpt lat="45.99528" lon="6.47432">
        <ele>1727</ele>
        <time>2022-02-20T12:08:23Z</time>
      </trkpt>
      <trkpt lat="45.99525" lon="6.4743">
        <ele>1727</ele>
        <time>2022-02-20T12:08:24Z</time>
      </trkpt>
      <trkpt lat="45.99521" lon="6.4743">
        <ele>1727</ele>
        <time>2022-02-20T12:08:25Z</time>
      </trkpt>
      <trkpt lat="45.99518" lon="6.47429">
        <ele>1726</ele>
        <time>2022-02-20T12:08:26Z</time>
      </trkpt>
      <trkpt lat="45.99514" lon="6.47429">
        <ele>1726</ele>
        <time>2022-02-20T12:08:27Z</time>
      </trkpt>
      <trkpt lat="45.99511" lon="6.47428">
        <ele>1726</ele>
        <time>2022-02-20T12:08:28Z</time>
      </trkpt>
      <trkpt lat="45.99507" lon="6.47428">
        <ele>1726</ele>
        <time>2022-02-20T12:08:29Z</time>
      </trkpt>
      <trkpt lat="45.99502" lon="6.47427">
        <ele>1725</ele>
        <time>2022-02-20T12:08:30Z</time>
      </trkpt>
      <trkpt lat="45.99498" lon="6.47426">
        <ele>1725</ele>
        <time>2022-02-20T12:08:31Z</time>
      </trkpt>
      <trkpt lat="45.99493" lon="6.47425">
        <ele>1724</ele>
        <time>2022-02-20T12:08:32Z</time>
      </trkpt>
      <trkpt lat="45.99488" lon="6.47424">
        <ele>1724</ele>
        <time>2022-02-20T12:08:33Z</time>
      </trkpt>
      <trkpt lat="45.99483" lon="6.47422">
        <ele>1724</ele>
        <time>2022-02-20T12:08:34Z</time>
      </trkpt>
      <trkpt lat="45.99479" lon="6.47421">
        <ele>1724</ele>
        <time>2022-02-20T12:08:35Z</time>
      </trkpt>
      <trkpt lat="45.99476" lon="6.4742">
        <ele>1723</ele>
        <time>2022-02-20T12:08:36Z</time>
      </trkpt>
      <trkpt lat="45.99472" lon="6.4742">
        <ele>1723</ele>
        <time>2022-02-20T12:08:37Z</time>
      </trkpt>
      <trkpt lat="45.99469" lon="6.47419">
        <ele>1722</ele>
        <time>2022-02-20T12:08:38Z</time>
      </trkpt>
      <trkpt lat="45.99465" lon="6.47417">
        <ele>1722</ele>
        <time>2022-02-20T12:08:39Z</time>
      </trkpt>
      <trkpt lat="45.99461" lon="6.47415">
        <ele>1721</ele>
        <time>2022-02-20T12:08:40Z</time>
      </trkpt>
      <trkpt lat="45.99458" lon="6.4741">
        <ele>1721</ele>
        <time>2022-02-20T12:08:41Z</time>
      </trkpt>
      <trkpt lat="45.99457" lon="6.47405">
        <ele>1719</ele>
        <time>2022-02-20T12:08:42Z</time>
      </trkpt>
      <trkpt lat="45.99455" lon="6.474">
        <ele>1717</ele>
        <time>2022-02-20T12:08:43Z</time>
      </trkpt>
      <trkpt lat="45.99455" lon="6.47396">
        <ele>1716</ele>
        <time>2022-02-20T12:08:44Z</time>
      </trkpt>
      <trkpt lat="45.99454" lon="6.47392">
        <ele>1716</ele>
        <time>2022-02-20T12:08:45Z</time>
      </trkpt>
      <trkpt lat="45.99452" lon="6.47386">
        <ele>1712</ele>
        <time>2022-02-20T12:08:46Z</time>
      </trkpt>
      <trkpt lat="45.99451" lon="6.47381">
        <ele>1710</ele>
        <time>2022-02-20T12:08:47Z</time>
      </trkpt>
      <trkpt lat="45.9945" lon="6.47379">
        <ele>1709</ele>
        <time>2022-02-20T12:08:48Z</time>
      </trkpt>
      <trkpt lat="45.99448" lon="6.47379">
        <ele>1708</ele>
        <time>2022-02-20T12:08:49Z</time>
      </trkpt>
      <trkpt lat="45.99445" lon="6.47377">
        <ele>1708</ele>
        <time>2022-02-20T12:08:50Z</time>
      </trkpt>
      <trkpt lat="45.99441" lon="6.47374">
        <ele>1706</ele>
        <time>2022-02-20T12:08:51Z</time>
      </trkpt>
      <trkpt lat="45.99437" lon="6.47372">
        <ele>1705</ele>
        <time>2022-02-20T12:08:52Z</time>
      </trkpt>
      <trkpt lat="45.99433" lon="6.47371">
        <ele>1702</ele>
        <time>2022-02-20T12:08:53Z</time>
      </trkpt>
      <trkpt lat="45.99429" lon="6.4737">
        <ele>1701</ele>
        <time>2022-02-20T12:08:54Z</time>
      </trkpt>
      <trkpt lat="45.99424" lon="6.47369">
        <ele>1700</ele>
        <time>2022-02-20T12:08:55Z</time>
      </trkpt>
      <trkpt lat="45.99419" lon="6.47369">
        <ele>1699</ele>
        <time>2022-02-20T12:08:56Z</time>
      </trkpt>
      <trkpt lat="45.99407" lon="6.47369">
        <ele>1697</ele>
        <time>2022-02-20T12:08:58Z</time>
      </trkpt>
      <trkpt lat="45.99397" lon="6.47368">
        <ele>1694</ele>
        <time>2022-02-20T12:09:00Z</time>
      </trkpt>
      <trkpt lat="45.99395" lon="6.47365">
        <ele>1694</ele>
        <time>2022-02-20T12:09:01Z</time>
      </trkpt>
      <trkpt lat="45.99392" lon="6.4736">
        <ele>1692</ele>
        <time>2022-02-20T12:09:02Z</time>
      </trkpt>
      <trkpt lat="45.99388" lon="6.47356">
        <ele>1691</ele>
        <time>2022-02-20T12:09:03Z</time>
      </trkpt>
      <trkpt lat="45.99386" lon="6.47354">
        <ele>1690</ele>
        <time>2022-02-20T12:09:04Z</time>
      </trkpt>
      <trkpt lat="45.99383" lon="6.47354">
        <ele>1688</ele>
        <time>2022-02-20T12:09:05Z</time>
      </trkpt>
      <trkpt lat="45.9938" lon="6.47352">
        <ele>1687</ele>
        <time>2022-02-20T12:09:06Z</time>
      </trkpt>
      <trkpt lat="45.99377" lon="6.47349">
        <ele>1685</ele>
        <time>2022-02-20T12:09:07Z</time>
      </trkpt>
      <trkpt lat="45.99374" lon="6.47349">
        <ele>1684</ele>
        <time>2022-02-20T12:09:08Z</time>
      </trkpt>
      <trkpt lat="45.99371" lon="6.47347">
        <ele>1683</ele>
        <time>2022-02-20T12:09:09Z</time>
      </trkpt>
      <trkpt lat="45.99367" lon="6.47344">
        <ele>1682</ele>
        <time>2022-02-20T12:09:10Z</time>
      </trkpt>
      <trkpt lat="45.99363" lon="6.47343">
        <ele>1681</ele>
        <time>2022-02-20T12:09:11Z</time>
      </trkpt>
      <trkpt lat="45.99353" lon="6.47348">
        <ele>1679</ele>
        <time>2022-02-20T12:09:13Z</time>
      </trkpt>
      <trkpt lat="45.99339" lon="6.47351">
        <ele>1676</ele>
        <time>2022-02-20T12:09:15Z</time>
      </trkpt>
      <trkpt lat="45.99323" lon="6.4735">
        <ele>1675</ele>
        <time>2022-02-20T12:09:17Z</time>
      </trkpt>
      <trkpt lat="45.99316" lon="6.4735">
        <ele>1675</ele>
        <time>2022-02-20T12:09:18Z</time>
      </trkpt>
      <trkpt lat="45.9931" lon="6.47352">
        <ele>1674</ele>
        <time>2022-02-20T12:09:19Z</time>
      </trkpt>
      <trkpt lat="45.99306" lon="6.47354">
        <ele>1673</ele>
        <time>2022-02-20T12:09:20Z</time>
      </trkpt>
      <trkpt lat="45.99303" lon="6.47358">
        <ele>1672</ele>
        <time>2022-02-20T12:09:21Z</time>
      </trkpt>
      <trkpt lat="45.99303" lon="6.47362">
        <ele>1671</ele>
        <time>2022-02-20T12:09:22Z</time>
      </trkpt>
      <trkpt lat="45.99304" lon="6.47366">
        <ele>1670</ele>
        <time>2022-02-20T12:09:24Z</time>
      </trkpt>
      <trkpt lat="45.993" lon="6.47364">
        <ele>1670</ele>
        <time>2022-02-20T12:09:26Z</time>
      </trkpt>
      <trkpt lat="45.99299" lon="6.47362">
        <ele>1666</ele>
        <time>2022-02-20T12:09:32Z</time>
      </trkpt>
      <trkpt lat="45.99295" lon="6.47356">
        <ele>1666</ele>
        <time>2022-02-20T12:09:34Z</time>
      </trkpt>
      <trkpt lat="45.99293" lon="6.4735">
        <ele>1666</ele>
        <time>2022-02-20T12:09:35Z</time>
      </trkpt>
      <trkpt lat="45.99288" lon="6.47343">
        <ele>1666</ele>
        <time>2022-02-20T12:09:36Z</time>
      </trkpt>
      <trkpt lat="45.99281" lon="6.47336">
        <ele>1663</ele>
        <time>2022-02-20T12:09:37Z</time>
      </trkpt>
      <trkpt lat="45.99274" lon="6.47332">
        <ele>1661</ele>
        <time>2022-02-20T12:09:38Z</time>
      </trkpt>
      <trkpt lat="45.99268" lon="6.4733">
        <ele>1660</ele>
        <time>2022-02-20T12:09:39Z</time>
      </trkpt>
      <trkpt lat="45.99264" lon="6.47329">
        <ele>1659</ele>
        <time>2022-02-20T12:09:40Z</time>
      </trkpt>
      <trkpt lat="45.99261" lon="6.47327">
        <ele>1659</ele>
        <time>2022-02-20T12:09:41Z</time>
      </trkpt>
      <trkpt lat="45.99258" lon="6.47324">
        <ele>1658</ele>
        <time>2022-02-20T12:09:42Z</time>
      </trkpt>
      <trkpt lat="45.99254" lon="6.47322">
        <ele>1658</ele>
        <time>2022-02-20T12:09:43Z</time>
      </trkpt>
      <trkpt lat="45.9925" lon="6.4732">
        <ele>1657</ele>
        <time>2022-02-20T12:09:44Z</time>
      </trkpt>
      <trkpt lat="45.99245" lon="6.47317">
        <ele>1656</ele>
        <time>2022-02-20T12:09:45Z</time>
      </trkpt>
      <trkpt lat="45.99241" lon="6.47312">
        <ele>1655</ele>
        <time>2022-02-20T12:09:46Z</time>
      </trkpt>
      <trkpt lat="45.99238" lon="6.47308">
        <ele>1655</ele>
        <time>2022-02-20T12:09:47Z</time>
      </trkpt>
      <trkpt lat="45.99236" lon="6.47304">
        <ele>1653</ele>
        <time>2022-02-20T12:09:48Z</time>
      </trkpt>
      <trkpt lat="45.99233" lon="6.47304">
        <ele>1652</ele>
        <time>2022-02-20T12:09:49Z</time>
      </trkpt>
      <trkpt lat="45.99229" lon="6.47304">
        <ele>1652</ele>
        <time>2022-02-20T12:09:50Z</time>
      </trkpt>
      <trkpt lat="45.9922" lon="6.47307">
        <ele>1646</ele>
        <time>2022-02-20T12:09:52Z</time>
      </trkpt>
      <trkpt lat="45.99209" lon="6.47312">
        <ele>1642</ele>
        <time>2022-02-20T12:09:54Z</time>
      </trkpt>
      <trkpt lat="45.99202" lon="6.47321">
        <ele>1633</ele>
        <time>2022-02-20T12:10:00Z</time>
      </trkpt>
      <trkpt lat="45.99202" lon="6.47326">
        <ele>1635</ele>
        <time>2022-02-20T12:10:02Z</time>
      </trkpt>
      <trkpt lat="45.99201" lon="6.4733">
        <ele>1634</ele>
        <time>2022-02-20T12:10:03Z</time>
      </trkpt>
      <trkpt lat="45.99201" lon="6.47334">
        <ele>1633</ele>
        <time>2022-02-20T12:10:04Z</time>
      </trkpt>
      <trkpt lat="45.99201" lon="6.47339">
        <ele>1632</ele>
        <time>2022-02-20T12:10:05Z</time>
      </trkpt>
      <trkpt lat="45.99202" lon="6.47344">
        <ele>1632</ele>
        <time>2022-02-20T12:10:06Z</time>
      </trkpt>
      <trkpt lat="45.99203" lon="6.47347">
        <ele>1632</ele>
        <time>2022-02-20T12:10:07Z</time>
      </trkpt>
      <trkpt lat="45.99204" lon="6.47351">
        <ele>1631</ele>
        <time>2022-02-20T12:10:08Z</time>
      </trkpt>
      <trkpt lat="45.99205" lon="6.47354">
        <ele>1631</ele>
        <time>2022-02-20T12:10:09Z</time>
      </trkpt>
      <trkpt lat="45.99205" lon="6.47358">
        <ele>1631</ele>
        <time>2022-02-20T12:10:10Z</time>
      </trkpt>
      <trkpt lat="45.99206" lon="6.47361">
        <ele>1631</ele>
        <time>2022-02-20T12:10:11Z</time>
      </trkpt>
      <trkpt lat="45.99207" lon="6.47365">
        <ele>1630</ele>
        <time>2022-02-20T12:10:12Z</time>
      </trkpt>
      <trkpt lat="45.99209" lon="6.47368">
        <ele>1630</ele>
        <time>2022-02-20T12:10:13Z</time>
      </trkpt>
      <trkpt lat="45.9921" lon="6.47372">
        <ele>1630</ele>
        <time>2022-02-20T12:10:14Z</time>
      </trkpt>
      <trkpt lat="45.99211" lon="6.47377">
        <ele>1629</ele>
        <time>2022-02-20T12:10:15Z</time>
      </trkpt>
      <trkpt lat="45.99212" lon="6.47382">
        <ele>1628</ele>
        <time>2022-02-20T12:10:16Z</time>
      </trkpt>
      <trkpt lat="45.99212" lon="6.47386">
        <ele>1627</ele>
        <time>2022-02-20T12:10:17Z</time>
      </trkpt>
      <trkpt lat="45.99213" lon="6.4739">
        <ele>1627</ele>
        <time>2022-02-20T12:10:18Z</time>
      </trkpt>
      <trkpt lat="45.99213" lon="6.47395">
        <ele>1627</ele>
        <time>2022-02-20T12:10:19Z</time>
      </trkpt>
      <trkpt lat="45.99214" lon="6.474">
        <ele>1626</ele>
        <time>2022-02-20T12:10:20Z</time>
      </trkpt>
      <trkpt lat="45.99215" lon="6.47405">
        <ele>1626</ele>
        <time>2022-02-20T12:10:21Z</time>
      </trkpt>
      <trkpt lat="45.99215" lon="6.47412">
        <ele>1626</ele>
        <time>2022-02-20T12:10:22Z</time>
      </trkpt>
      <trkpt lat="45.99215" lon="6.47417">
        <ele>1626</ele>
        <time>2022-02-20T12:10:23Z</time>
      </trkpt>
      <trkpt lat="45.99215" lon="6.47423">
        <ele>1626</ele>
        <time>2022-02-20T12:10:24Z</time>
      </trkpt>
      <trkpt lat="45.99216" lon="6.47429">
        <ele>1624</ele>
        <time>2022-02-20T12:10:25Z</time>
      </trkpt>
      <trkpt lat="45.99217" lon="6.47436">
        <ele>1622</ele>
        <time>2022-02-20T12:10:26Z</time>
      </trkpt>
      <trkpt lat="45.99219" lon="6.47442">
        <ele>1620</ele>
        <time>2022-02-20T12:10:27Z</time>
      </trkpt>
      <trkpt lat="45.9922" lon="6.47449">
        <ele>1619</ele>
        <time>2022-02-20T12:10:28Z</time>
      </trkpt>
      <trkpt lat="45.99223" lon="6.47458">
        <ele>1619</ele>
        <time>2022-02-20T12:10:29Z</time>
      </trkpt>
      <trkpt lat="45.99225" lon="6.47466">
        <ele>1617</ele>
        <time>2022-02-20T12:10:30Z</time>
      </trkpt>
      <trkpt lat="45.99224" lon="6.47472">
        <ele>1615</ele>
        <time>2022-02-20T12:10:31Z</time>
      </trkpt>
      <trkpt lat="45.99224" lon="6.47477">
        <ele>1614</ele>
        <time>2022-02-20T12:10:32Z</time>
      </trkpt>
      <trkpt lat="45.99223" lon="6.47482">
        <ele>1612</ele>
        <time>2022-02-20T12:10:33Z</time>
      </trkpt>
      <trkpt lat="45.99221" lon="6.47488">
        <ele>1611</ele>
        <time>2022-02-20T12:10:34Z</time>
      </trkpt>
      <trkpt lat="45.99218" lon="6.47493">
        <ele>1609</ele>
        <time>2022-02-20T12:10:35Z</time>
      </trkpt>
      <trkpt lat="45.99216" lon="6.47498">
        <ele>1607</ele>
        <time>2022-02-20T12:10:36Z</time>
      </trkpt>
      <trkpt lat="45.99207" lon="6.47509">
        <ele>1599</ele>
        <time>2022-02-20T12:10:39Z</time>
      </trkpt>
      <trkpt lat="45.99196" lon="6.47507">
        <ele>1597</ele>
        <time>2022-02-20T12:10:43Z</time>
      </trkpt>
      <trkpt lat="45.99193" lon="6.47501">
        <ele>1596</ele>
        <time>2022-02-20T12:10:47Z</time>
      </trkpt>
      <trkpt lat="45.99193" lon="6.47498">
        <ele>1597</ele>
        <time>2022-02-20T12:10:54Z</time>
      </trkpt>
      <trkpt lat="45.99193" lon="6.47501">
        <ele>1596</ele>
        <time>2022-02-20T12:11:00Z</time>
      </trkpt>
      <trkpt lat="45.99191" lon="6.47503">
        <ele>1596</ele>
        <time>2022-02-20T12:11:06Z</time>
      </trkpt>
      <trkpt lat="45.99192" lon="6.475">
        <ele>1596</ele>
        <time>2022-02-20T12:11:08Z</time>
      </trkpt>
      <trkpt lat="45.99189" lon="6.47501">
        <ele>1596</ele>
        <time>2022-02-20T12:11:25Z</time>
      </trkpt>
      <trkpt lat="45.99187" lon="6.47499">
        <ele>1596</ele>
        <time>2022-02-20T12:11:28Z</time>
      </trkpt>
      <trkpt lat="45.99182" lon="6.475">
        <ele>1596</ele>
        <time>2022-02-20T12:11:30Z</time>
      </trkpt>
      <trkpt lat="45.99178" lon="6.47499">
        <ele>1596</ele>
        <time>2022-02-20T12:11:31Z</time>
      </trkpt>
      <trkpt lat="45.99173" lon="6.47497">
        <ele>1596</ele>
        <time>2022-02-20T12:11:32Z</time>
      </trkpt>
      <trkpt lat="45.99167" lon="6.47495">
        <ele>1596</ele>
        <time>2022-02-20T12:11:33Z</time>
      </trkpt>
      <trkpt lat="45.9916" lon="6.47491">
        <ele>1595</ele>
        <time>2022-02-20T12:11:34Z</time>
      </trkpt>
      <trkpt lat="45.99146" lon="6.47483">
        <ele>1594</ele>
        <time>2022-02-20T12:11:36Z</time>
      </trkpt>
      <trkpt lat="45.99132" lon="6.47474">
        <ele>1591</ele>
        <time>2022-02-20T12:11:38Z</time>
      </trkpt>
      <trkpt lat="45.9912" lon="6.47466">
        <ele>1589</ele>
        <time>2022-02-20T12:11:40Z</time>
      </trkpt>
      <trkpt lat="45.9911" lon="6.4746">
        <ele>1588</ele>
        <time>2022-02-20T12:11:42Z</time>
      </trkpt>
      <trkpt lat="45.99099" lon="6.47446">
        <ele>1586</ele>
        <time>2022-02-20T12:11:45Z</time>
      </trkpt>
      <trkpt lat="45.99093" lon="6.47433">
        <ele>1586</ele>
        <time>2022-02-20T12:11:47Z</time>
      </trkpt>
      <trkpt lat="45.99085" lon="6.47421">
        <ele>1583</ele>
        <time>2022-02-20T12:11:49Z</time>
      </trkpt>
      <trkpt lat="45.99077" lon="6.47409">
        <ele>1583</ele>
        <time>2022-02-20T12:11:51Z</time>
      </trkpt>
      <trkpt lat="45.9907" lon="6.474">
        <ele>1581</ele>
        <time>2022-02-20T12:11:53Z</time>
      </trkpt>
      <trkpt lat="45.99062" lon="6.47391">
        <ele>1579</ele>
        <time>2022-02-20T12:11:56Z</time>
      </trkpt>
      <trkpt lat="45.99055" lon="6.47385">
        <ele>1579</ele>
        <time>2022-02-20T12:11:58Z</time>
      </trkpt>
      <trkpt lat="45.99051" lon="6.47383">
        <ele>1579</ele>
        <time>2022-02-20T12:11:59Z</time>
      </trkpt>
      <trkpt lat="45.99048" lon="6.47382">
        <ele>1577</ele>
        <time>2022-02-20T12:12:00Z</time>
      </trkpt>
      <trkpt lat="45.99046" lon="6.47379">
        <ele>1577</ele>
        <time>2022-02-20T12:12:01Z</time>
      </trkpt>
      <trkpt lat="45.99042" lon="6.47377">
        <ele>1581.2</ele>
        <time>2022-02-20T12:12:02Z</time>
      </trkpt>
      <trkpt lat="45.99037" lon="6.47377">
        <ele>1576</ele>
        <time>2022-02-20T12:12:03Z</time>
      </trkpt>
      <trkpt lat="45.99034" lon="6.47374">
        <ele>1576</ele>
        <time>2022-02-20T12:12:04Z</time>
      </trkpt>
      <trkpt lat="45.9903" lon="6.47369">
        <ele>1576</ele>
        <time>2022-02-20T12:12:05Z</time>
      </trkpt>
      <trkpt lat="45.99027" lon="6.47365">
        <ele>1572</ele>
        <time>2022-02-20T12:12:06Z</time>
      </trkpt>
      <trkpt lat="45.99018" lon="6.47364">
        <ele>1569</ele>
        <time>2022-02-20T12:12:09Z</time>
      </trkpt>
      <trkpt lat="45.99014" lon="6.47364">
        <ele>1568</ele>
        <time>2022-02-20T12:12:10Z</time>
      </trkpt>
      <trkpt lat="45.9901" lon="6.47362">
        <ele>1568</ele>
        <time>2022-02-20T12:12:11Z</time>
      </trkpt>
      <trkpt lat="45.99007" lon="6.4736">
        <ele>1568</ele>
        <time>2022-02-20T12:12:12Z</time>
      </trkpt>
      <trkpt lat="45.99001" lon="6.47352">
        <ele>1567</ele>
        <time>2022-02-20T12:12:14Z</time>
      </trkpt>
      <trkpt lat="45.98988" lon="6.4735">
        <ele>1563</ele>
        <time>2022-02-20T12:12:17Z</time>
      </trkpt>
      <trkpt lat="45.98984" lon="6.4735">
        <ele>1562</ele>
        <time>2022-02-20T12:12:18Z</time>
      </trkpt>
      <trkpt lat="45.98974" lon="6.47357">
        <ele>1560</ele>
        <time>2022-02-20T12:12:21Z</time>
      </trkpt>
      <trkpt lat="45.98972" lon="6.47361">
        <ele>1560</ele>
        <time>2022-02-20T12:12:22Z</time>
      </trkpt>
      <trkpt lat="45.98962" lon="6.47364">
        <ele>1558</ele>
        <time>2022-02-20T12:12:25Z</time>
      </trkpt>
      <trkpt lat="45.98959" lon="6.47362">
        <ele>1558</ele>
        <time>2022-02-20T12:12:26Z</time>
      </trkpt>
      <trkpt lat="45.98951" lon="6.47354">
        <ele>1556</ele>
        <time>2022-02-20T12:12:30Z</time>
      </trkpt>
      <trkpt lat="45.98948" lon="6.47353">
        <ele>1556</ele>
        <time>2022-02-20T12:12:31Z</time>
      </trkpt>
      <trkpt lat="45.98944" lon="6.47351">
        <ele>1556</ele>
        <time>2022-02-20T12:12:32Z</time>
      </trkpt>
      <trkpt lat="45.9894" lon="6.47346">
        <ele>1556</ele>
        <time>2022-02-20T12:12:33Z</time>
      </trkpt>
      <trkpt lat="45.98932" lon="6.47333">
        <ele>1555</ele>
        <time>2022-02-20T12:12:35Z</time>
      </trkpt>
      <trkpt lat="45.98923" lon="6.47318">
        <ele>1552</ele>
        <time>2022-02-20T12:12:37Z</time>
      </trkpt>
      <trkpt lat="45.98912" lon="6.47308">
        <ele>1550</ele>
        <time>2022-02-20T12:12:39Z</time>
      </trkpt>
      <trkpt lat="45.98902" lon="6.47309">
        <ele>1548</ele>
        <time>2022-02-20T12:12:41Z</time>
      </trkpt>
      <trkpt lat="45.98894" lon="6.47296">
        <ele>1546</ele>
        <time>2022-02-20T12:12:45Z</time>
      </trkpt>
      <trkpt lat="45.98893" lon="6.47281">
        <ele>1544</ele>
        <time>2022-02-20T12:12:47Z</time>
      </trkpt>
      <trkpt lat="45.98886" lon="6.47265">
        <ele>1541</ele>
        <time>2022-02-20T12:12:50Z</time>
      </trkpt>
      <trkpt lat="45.9888" lon="6.47254">
        <ele>1538</ele>
        <time>2022-02-20T12:12:52Z</time>
      </trkpt>
      <trkpt lat="45.98873" lon="6.47239">
        <ele>1533</ele>
        <time>2022-02-20T12:12:54Z</time>
      </trkpt>
      <trkpt lat="45.98869" lon="6.47224">
        <ele>1531</ele>
        <time>2022-02-20T12:12:56Z</time>
      </trkpt>
      <trkpt lat="45.98867" lon="6.47206">
        <ele>1528</ele>
        <time>2022-02-20T12:12:58Z</time>
      </trkpt>
      <trkpt lat="45.98857" lon="6.47209">
        <ele>1522</ele>
        <time>2022-02-20T12:13:55Z</time>
      </trkpt>
      <trkpt lat="45.98846" lon="6.47213">
        <ele>1522</ele>
        <time>2022-02-20T12:13:58Z</time>
      </trkpt>
      <trkpt lat="45.98836" lon="6.47208">
        <ele>1518</ele>
        <time>2022-02-20T12:14:02Z</time>
      </trkpt>
      <trkpt lat="45.98831" lon="6.47196">
        <ele>1516</ele>
        <time>2022-02-20T12:14:06Z</time>
      </trkpt>
      <trkpt lat="45.98828" lon="6.47183">
        <ele>1512</ele>
        <time>2022-02-20T12:14:12Z</time>
      </trkpt>
      <trkpt lat="45.98828" lon="6.4717">
        <ele>1511</ele>
        <time>2022-02-20T12:14:14Z</time>
      </trkpt>
      <trkpt lat="45.98822" lon="6.47154">
        <ele>1510</ele>
        <time>2022-02-20T12:14:16Z</time>
      </trkpt>
      <trkpt lat="45.98817" lon="6.47138">
        <ele>1509</ele>
        <time>2022-02-20T12:14:18Z</time>
      </trkpt>
      <trkpt lat="45.98811" lon="6.47122">
        <ele>1507</ele>
        <time>2022-02-20T12:14:20Z</time>
      </trkpt>
      <trkpt lat="45.98806" lon="6.47109">
        <ele>1506</ele>
        <time>2022-02-20T12:14:22Z</time>
      </trkpt>
      <trkpt lat="45.98802" lon="6.47095">
        <ele>1503</ele>
        <time>2022-02-20T12:14:28Z</time>
      </trkpt>
      <trkpt lat="45.98795" lon="6.47081">
        <ele>1502</ele>
        <time>2022-02-20T12:14:32Z</time>
      </trkpt>
      <trkpt lat="45.98789" lon="6.47069">
        <ele>1500</ele>
        <time>2022-02-20T12:14:34Z</time>
      </trkpt>
      <trkpt lat="45.9878" lon="6.47051">
        <ele>1500</ele>
        <time>2022-02-20T12:14:36Z</time>
      </trkpt>
      <trkpt lat="45.9877" lon="6.47032">
        <ele>1498</ele>
        <time>2022-02-20T12:14:38Z</time>
      </trkpt>
      <trkpt lat="45.9876" lon="6.47013">
        <ele>1497</ele>
        <time>2022-02-20T12:14:40Z</time>
      </trkpt>
      <trkpt lat="45.98751" lon="6.46997">
        <ele>1496</ele>
        <time>2022-02-20T12:14:42Z</time>
      </trkpt>
      <trkpt lat="45.98742" lon="6.46982">
        <ele>1495</ele>
        <time>2022-02-20T12:14:44Z</time>
      </trkpt>
      <trkpt lat="45.98732" lon="6.46968">
        <ele>1494</ele>
        <time>2022-02-20T12:14:46Z</time>
      </trkpt>
      <trkpt lat="45.98724" lon="6.46956">
        <ele>1493</ele>
        <time>2022-02-20T12:14:47Z</time>
      </trkpt>
      <trkpt lat="45.98716" lon="6.46942">
        <ele>1491</ele>
        <time>2022-02-20T12:14:50Z</time>
      </trkpt>
      <trkpt lat="45.9871" lon="6.46932">
        <ele>1489</ele>
        <time>2022-02-20T12:14:52Z</time>
      </trkpt>
      <trkpt lat="45.98704" lon="6.46918">
        <ele>1488</ele>
        <time>2022-02-20T12:14:54Z</time>
      </trkpt>
      <trkpt lat="45.98699" lon="6.46907">
        <ele>1487</ele>
        <time>2022-02-20T12:14:56Z</time>
      </trkpt>
      <trkpt lat="45.98694" lon="6.46894">
        <ele>1486</ele>
        <time>2022-02-20T12:14:58Z</time>
      </trkpt>
      <trkpt lat="45.98688" lon="6.46882">
        <ele>1481</ele>
        <time>2022-02-20T12:15:00Z</time>
      </trkpt>
      <trkpt lat="45.98683" lon="6.46866">
        <ele>1482</ele>
        <time>2022-02-20T12:15:03Z</time>
      </trkpt>
      <trkpt lat="45.98679" lon="6.46854">
        <ele>1482</ele>
        <time>2022-02-20T12:15:05Z</time>
      </trkpt>
      <trkpt lat="45.98675" lon="6.46841">
        <ele>1482</ele>
        <time>2022-02-20T12:15:07Z</time>
      </trkpt>
      <trkpt lat="45.9867" lon="6.46828">
        <ele>1482</ele>
        <time>2022-02-20T12:15:09Z</time>
      </trkpt>
      <trkpt lat="45.98665" lon="6.46817">
        <ele>1481</ele>
        <time>2022-02-20T12:15:11Z</time>
      </trkpt>
      <trkpt lat="45.98661" lon="6.46799">
        <ele>1480</ele>
        <time>2022-02-20T12:15:14Z</time>
      </trkpt>
      <trkpt lat="45.98657" lon="6.46787">
        <ele>1480</ele>
        <time>2022-02-20T12:15:16Z</time>
      </trkpt>
      <trkpt lat="45.98654" lon="6.46782">
        <ele>1480</ele>
        <time>2022-02-20T12:15:17Z</time>
      </trkpt>
      <trkpt lat="45.98647" lon="6.46767">
        <ele>1478</ele>
        <time>2022-02-20T12:15:20Z</time>
      </trkpt>
      <trkpt lat="45.98644" lon="6.46763">
        <ele>1478</ele>
        <time>2022-02-20T12:15:21Z</time>
      </trkpt>
      <trkpt lat="45.98641" lon="6.4676">
        <ele>1478</ele>
        <time>2022-02-20T12:15:22Z</time>
      </trkpt>
      <trkpt lat="45.98638" lon="6.46757">
        <ele>1477</ele>
        <time>2022-02-20T12:15:23Z</time>
      </trkpt>
      <trkpt lat="45.98636" lon="6.46754">
        <ele>1477</ele>
        <time>2022-02-20T12:15:24Z</time>
      </trkpt>
      <trkpt lat="45.98634" lon="6.46751">
        <ele>1476</ele>
        <time>2022-02-20T12:15:25Z</time>
      </trkpt>
      <trkpt lat="45.98633" lon="6.46749">
        <ele>1476</ele>
        <time>2022-02-20T12:15:26Z</time>
      </trkpt>
      <trkpt lat="45.9863" lon="6.46746">
        <ele>1477</ele>
        <time>2022-02-20T12:15:27Z</time>
      </trkpt>
      <trkpt lat="45.98628" lon="6.46742">
        <ele>1477</ele>
        <time>2022-02-20T12:15:28Z</time>
      </trkpt>
      <trkpt lat="45.98626" lon="6.46737">
        <ele>1476</ele>
        <time>2022-02-20T12:15:29Z</time>
      </trkpt>
      <trkpt lat="45.98623" lon="6.46732">
        <ele>1476</ele>
        <time>2022-02-20T12:15:30Z</time>
      </trkpt>
      <trkpt lat="45.9862" lon="6.46728">
        <ele>1475</ele>
        <time>2022-02-20T12:15:31Z</time>
      </trkpt>
      <trkpt lat="45.98618" lon="6.46724">
        <ele>1474</ele>
        <time>2022-02-20T12:15:32Z</time>
      </trkpt>
      <trkpt lat="45.98616" lon="6.4672">
        <ele>1474</ele>
        <time>2022-02-20T12:15:33Z</time>
      </trkpt>
      <trkpt lat="45.98614" lon="6.46717">
        <ele>1473</ele>
        <time>2022-02-20T12:15:34Z</time>
      </trkpt>
      <trkpt lat="45.98612" lon="6.46713">
        <ele>1473</ele>
        <time>2022-02-20T12:15:35Z</time>
      </trkpt>
      <trkpt lat="45.9861" lon="6.46709">
        <ele>1473</ele>
        <time>2022-02-20T12:15:36Z</time>
      </trkpt>
      <trkpt lat="45.98607" lon="6.46705">
        <ele>1473</ele>
        <time>2022-02-20T12:15:37Z</time>
      </trkpt>
      <trkpt lat="45.98604" lon="6.467">
        <ele>1472</ele>
        <time>2022-02-20T12:15:38Z</time>
      </trkpt>
      <trkpt lat="45.98601" lon="6.46695">
        <ele>1472</ele>
        <time>2022-02-20T12:15:39Z</time>
      </trkpt>
      <trkpt lat="45.98597" lon="6.46689">
        <ele>1471</ele>
        <time>2022-02-20T12:15:40Z</time>
      </trkpt>
      <trkpt lat="45.98594" lon="6.46683">
        <ele>1471</ele>
        <time>2022-02-20T12:15:41Z</time>
      </trkpt>
      <trkpt lat="45.9859" lon="6.46678">
        <ele>1471</ele>
        <time>2022-02-20T12:15:42Z</time>
      </trkpt>
      <trkpt lat="45.98587" lon="6.46673">
        <ele>1471</ele>
        <time>2022-02-20T12:15:43Z</time>
      </trkpt>
      <trkpt lat="45.98584" lon="6.46668">
        <ele>1470</ele>
        <time>2022-02-20T12:15:44Z</time>
      </trkpt>
      <trkpt lat="45.9858" lon="6.46664">
        <ele>1470</ele>
        <time>2022-02-20T12:15:45Z</time>
      </trkpt>
      <trkpt lat="45.98577" lon="6.4666">
        <ele>1469</ele>
        <time>2022-02-20T12:15:46Z</time>
      </trkpt>
      <trkpt lat="45.98573" lon="6.46656">
        <ele>1469</ele>
        <time>2022-02-20T12:15:47Z</time>
      </trkpt>
      <trkpt lat="45.9857" lon="6.46652">
        <ele>1469</ele>
        <time>2022-02-20T12:15:48Z</time>
      </trkpt>
      <trkpt lat="45.98566" lon="6.46649">
        <ele>1469</ele>
        <time>2022-02-20T12:15:49Z</time>
      </trkpt>
      <trkpt lat="45.98563" lon="6.46645">
        <ele>1468</ele>
        <time>2022-02-20T12:15:50Z</time>
      </trkpt>
      <trkpt lat="45.9856" lon="6.46642">
        <ele>1467</ele>
        <time>2022-02-20T12:15:51Z</time>
      </trkpt>
      <trkpt lat="45.98556" lon="6.46638">
        <ele>1467</ele>
        <time>2022-02-20T12:15:52Z</time>
      </trkpt>
      <trkpt lat="45.98553" lon="6.46636">
        <ele>1466</ele>
        <time>2022-02-20T12:15:53Z</time>
      </trkpt>
      <trkpt lat="45.9855" lon="6.46632">
        <ele>1466</ele>
        <time>2022-02-20T12:15:54Z</time>
      </trkpt>
      <trkpt lat="45.98546" lon="6.46629">
        <ele>1466</ele>
        <time>2022-02-20T12:15:55Z</time>
      </trkpt>
      <trkpt lat="45.98542" lon="6.46624">
        <ele>1466</ele>
        <time>2022-02-20T12:15:56Z</time>
      </trkpt>
      <trkpt lat="45.98538" lon="6.4662">
        <ele>1464</ele>
        <time>2022-02-20T12:15:57Z</time>
      </trkpt>
      <trkpt lat="45.98534" lon="6.46616">
        <ele>1463</ele>
        <time>2022-02-20T12:15:58Z</time>
      </trkpt>
      <trkpt lat="45.98529" lon="6.46613">
        <ele>1464</ele>
        <time>2022-02-20T12:15:59Z</time>
      </trkpt>
      <trkpt lat="45.98524" lon="6.4661">
        <ele>1464</ele>
        <time>2022-02-20T12:16:00Z</time>
      </trkpt>
      <trkpt lat="45.98519" lon="6.46606">
        <ele>1464</ele>
        <time>2022-02-20T12:16:01Z</time>
      </trkpt>
      <trkpt lat="45.98514" lon="6.46604">
        <ele>1464</ele>
        <time>2022-02-20T12:16:02Z</time>
      </trkpt>
      <trkpt lat="45.98509" lon="6.46602">
        <ele>1463</ele>
        <time>2022-02-20T12:16:03Z</time>
      </trkpt>
      <trkpt lat="45.98503" lon="6.46599">
        <ele>1463</ele>
        <time>2022-02-20T12:16:04Z</time>
      </trkpt>
      <trkpt lat="45.98498" lon="6.46597">
        <ele>1462</ele>
        <time>2022-02-20T12:16:05Z</time>
      </trkpt>
      <trkpt lat="45.98492" lon="6.46595">
        <ele>1462</ele>
        <time>2022-02-20T12:16:06Z</time>
      </trkpt>
      <trkpt lat="45.98486" lon="6.46593">
        <ele>1461</ele>
        <time>2022-02-20T12:16:07Z</time>
      </trkpt>
      <trkpt lat="45.98481" lon="6.46591">
        <ele>1461</ele>
        <time>2022-02-20T12:16:08Z</time>
      </trkpt>
      <trkpt lat="45.98476" lon="6.46589">
        <ele>1460</ele>
        <time>2022-02-20T12:16:09Z</time>
      </trkpt>
      <trkpt lat="45.98471" lon="6.46586">
        <ele>1460</ele>
        <time>2022-02-20T12:16:10Z</time>
      </trkpt>
      <trkpt lat="45.98466" lon="6.46584">
        <ele>1460</ele>
        <time>2022-02-20T12:16:11Z</time>
      </trkpt>
      <trkpt lat="45.98461" lon="6.46582">
        <ele>1459</ele>
        <time>2022-02-20T12:16:12Z</time>
      </trkpt>
      <trkpt lat="45.98456" lon="6.4658">
        <ele>1458</ele>
        <time>2022-02-20T12:16:13Z</time>
      </trkpt>
      <trkpt lat="45.98451" lon="6.46578">
        <ele>1457</ele>
        <time>2022-02-20T12:16:14Z</time>
      </trkpt>
      <trkpt lat="45.98447" lon="6.46577">
        <ele>1457</ele>
        <time>2022-02-20T12:16:15Z</time>
      </trkpt>
      <trkpt lat="45.98442" lon="6.46575">
        <ele>1456</ele>
        <time>2022-02-20T12:16:16Z</time>
      </trkpt>
      <trkpt lat="45.98438" lon="6.46573">
        <ele>1456</ele>
        <time>2022-02-20T12:16:17Z</time>
      </trkpt>
      <trkpt lat="45.98433" lon="6.46573">
        <ele>1456</ele>
        <time>2022-02-20T12:16:18Z</time>
      </trkpt>
      <trkpt lat="45.98429" lon="6.46571">
        <ele>1455</ele>
        <time>2022-02-20T12:16:19Z</time>
      </trkpt>
      <trkpt lat="45.98425" lon="6.46569">
        <ele>1455</ele>
        <time>2022-02-20T12:16:20Z</time>
      </trkpt>
      <trkpt lat="45.98419" lon="6.46568">
        <ele>1454</ele>
        <time>2022-02-20T12:16:21Z</time>
      </trkpt>
      <trkpt lat="45.98414" lon="6.46566">
        <ele>1454</ele>
        <time>2022-02-20T12:16:22Z</time>
      </trkpt>
      <trkpt lat="45.98409" lon="6.46565">
        <ele>1454</ele>
        <time>2022-02-20T12:16:23Z</time>
      </trkpt>
      <trkpt lat="45.98404" lon="6.46564">
        <ele>1453</ele>
        <time>2022-02-20T12:16:24Z</time>
      </trkpt>
      <trkpt lat="45.98399" lon="6.46563">
        <ele>1452</ele>
        <time>2022-02-20T12:16:25Z</time>
      </trkpt>
      <trkpt lat="45.98394" lon="6.46561">
        <ele>1452</ele>
        <time>2022-02-20T12:16:26Z</time>
      </trkpt>
      <trkpt lat="45.98389" lon="6.4656">
        <ele>1451</ele>
        <time>2022-02-20T12:16:27Z</time>
      </trkpt>
      <trkpt lat="45.98379" lon="6.46556">
        <ele>1451</ele>
        <time>2022-02-20T12:16:29Z</time>
      </trkpt>
      <trkpt lat="45.98374" lon="6.46555">
        <ele>1451</ele>
        <time>2022-02-20T12:16:30Z</time>
      </trkpt>
      <trkpt lat="45.98368" lon="6.46552">
        <ele>1450</ele>
        <time>2022-02-20T12:16:31Z</time>
      </trkpt>
      <trkpt lat="45.98363" lon="6.4655">
        <ele>1450</ele>
        <time>2022-02-20T12:16:32Z</time>
      </trkpt>
      <trkpt lat="45.98358" lon="6.46547">
        <ele>1450</ele>
        <time>2022-02-20T12:16:33Z</time>
      </trkpt>
      <trkpt lat="45.98352" lon="6.46545">
        <ele>1449</ele>
        <time>2022-02-20T12:16:34Z</time>
      </trkpt>
      <trkpt lat="45.98347" lon="6.46543">
        <ele>1448</ele>
        <time>2022-02-20T12:16:35Z</time>
      </trkpt>
      <trkpt lat="45.98342" lon="6.46541">
        <ele>1448</ele>
        <time>2022-02-20T12:16:36Z</time>
      </trkpt>
      <trkpt lat="45.98336" lon="6.46539">
        <ele>1448</ele>
        <time>2022-02-20T12:16:37Z</time>
      </trkpt>
      <trkpt lat="45.98331" lon="6.46537">
        <ele>1447</ele>
        <time>2022-02-20T12:16:38Z</time>
      </trkpt>
      <trkpt lat="45.98325" lon="6.46535">
        <ele>1446</ele>
        <time>2022-02-20T12:16:39Z</time>
      </trkpt>
      <trkpt lat="45.9832" lon="6.46533">
        <ele>1446</ele>
        <time>2022-02-20T12:16:40Z</time>
      </trkpt>
      <trkpt lat="45.98315" lon="6.46532">
        <ele>1446</ele>
        <time>2022-02-20T12:16:41Z</time>
      </trkpt>
      <trkpt lat="45.98309" lon="6.4653">
        <ele>1446</ele>
        <time>2022-02-20T12:16:42Z</time>
      </trkpt>
      <trkpt lat="45.98304" lon="6.46529">
        <ele>1445</ele>
        <time>2022-02-20T12:16:43Z</time>
      </trkpt>
      <trkpt lat="45.98299" lon="6.46529">
        <ele>1444</ele>
        <time>2022-02-20T12:16:44Z</time>
      </trkpt>
      <trkpt lat="45.98295" lon="6.46529">
        <ele>1443</ele>
        <time>2022-02-20T12:16:45Z</time>
      </trkpt>
      <trkpt lat="45.98289" lon="6.4653">
        <ele>1443</ele>
        <time>2022-02-20T12:16:46Z</time>
      </trkpt>
      <trkpt lat="45.98284" lon="6.4653">
        <ele>1442</ele>
        <time>2022-02-20T12:16:47Z</time>
      </trkpt>
      <trkpt lat="45.98279" lon="6.46531">
        <ele>1442</ele>
        <time>2022-02-20T12:16:48Z</time>
      </trkpt>
      <trkpt lat="45.98274" lon="6.46531">
        <ele>1442</ele>
        <time>2022-02-20T12:16:49Z</time>
      </trkpt>
      <trkpt lat="45.98269" lon="6.46531">
        <ele>1442</ele>
        <time>2022-02-20T12:16:50Z</time>
      </trkpt>
      <trkpt lat="45.98264" lon="6.46532">
        <ele>1441</ele>
        <time>2022-02-20T12:16:51Z</time>
      </trkpt>
      <trkpt lat="45.98258" lon="6.46533">
        <ele>1441</ele>
        <time>2022-02-20T12:16:52Z</time>
      </trkpt>
      <trkpt lat="45.98253" lon="6.46535">
        <ele>1440</ele>
        <time>2022-02-20T12:16:53Z</time>
      </trkpt>
      <trkpt lat="45.98247" lon="6.46536">
        <ele>1439</ele>
        <time>2022-02-20T12:16:54Z</time>
      </trkpt>
      <trkpt lat="45.98241" lon="6.46537">
        <ele>1438</ele>
        <time>2022-02-20T12:16:55Z</time>
      </trkpt>
      <trkpt lat="45.98235" lon="6.46538">
        <ele>1438</ele>
        <time>2022-02-20T12:16:56Z</time>
      </trkpt>
      <trkpt lat="45.98229" lon="6.46539">
        <ele>1437</ele>
        <time>2022-02-20T12:16:57Z</time>
      </trkpt>
      <trkpt lat="45.98222" lon="6.46541">
        <ele>1436</ele>
        <time>2022-02-20T12:16:58Z</time>
      </trkpt>
      <trkpt lat="45.98217" lon="6.46543">
        <ele>1436</ele>
        <time>2022-02-20T12:16:59Z</time>
      </trkpt>
      <trkpt lat="45.98212" lon="6.46545">
        <ele>1436</ele>
        <time>2022-02-20T12:17:00Z</time>
      </trkpt>
      <trkpt lat="45.98207" lon="6.46545">
        <ele>1436</ele>
        <time>2022-02-20T12:17:01Z</time>
      </trkpt>
      <trkpt lat="45.98202" lon="6.46546">
        <ele>1435</ele>
        <time>2022-02-20T12:17:02Z</time>
      </trkpt>
      <trkpt lat="45.98197" lon="6.46547">
        <ele>1435</ele>
        <time>2022-02-20T12:17:03Z</time>
      </trkpt>
      <trkpt lat="45.98185" lon="6.46551">
        <ele>1435</ele>
        <time>2022-02-20T12:17:05Z</time>
      </trkpt>
      <trkpt lat="45.9818" lon="6.46555">
        <ele>1434</ele>
        <time>2022-02-20T12:17:06Z</time>
      </trkpt>
      <trkpt lat="45.98174" lon="6.46557">
        <ele>1434</ele>
        <time>2022-02-20T12:17:07Z</time>
      </trkpt>
      <trkpt lat="45.98168" lon="6.46558">
        <ele>1434</ele>
        <time>2022-02-20T12:17:08Z</time>
      </trkpt>
      <trkpt lat="45.98162" lon="6.46559">
        <ele>1433</ele>
        <time>2022-02-20T12:17:09Z</time>
      </trkpt>
      <trkpt lat="45.98156" lon="6.4656">
        <ele>1433</ele>
        <time>2022-02-20T12:17:10Z</time>
      </trkpt>
      <trkpt lat="45.98151" lon="6.46562">
        <ele>1432</ele>
        <time>2022-02-20T12:17:11Z</time>
      </trkpt>
      <trkpt lat="45.98146" lon="6.46563">
        <ele>1432</ele>
        <time>2022-02-20T12:17:12Z</time>
      </trkpt>
      <trkpt lat="45.9814" lon="6.46565">
        <ele>1431</ele>
        <time>2022-02-20T12:17:13Z</time>
      </trkpt>
      <trkpt lat="45.98135" lon="6.46566">
        <ele>1431</ele>
        <time>2022-02-20T12:17:14Z</time>
      </trkpt>
      <trkpt lat="45.9813" lon="6.46567">
        <ele>1430</ele>
        <time>2022-02-20T12:17:15Z</time>
      </trkpt>
      <trkpt lat="45.98121" lon="6.46569">
        <ele>1429</ele>
        <time>2022-02-20T12:17:17Z</time>
      </trkpt>
      <trkpt lat="45.98116" lon="6.46571">
        <ele>1428</ele>
        <time>2022-02-20T12:17:18Z</time>
      </trkpt>
      <trkpt lat="45.98112" lon="6.46572">
        <ele>1428</ele>
        <time>2022-02-20T12:17:19Z</time>
      </trkpt>
      <trkpt lat="45.98107" lon="6.46574">
        <ele>1428</ele>
        <time>2022-02-20T12:17:20Z</time>
      </trkpt>
      <trkpt lat="45.98102" lon="6.46575">
        <ele>1427</ele>
        <time>2022-02-20T12:17:21Z</time>
      </trkpt>
      <trkpt lat="45.98092" lon="6.46579">
        <ele>1426</ele>
        <time>2022-02-20T12:17:23Z</time>
      </trkpt>
      <trkpt lat="45.98087" lon="6.46581">
        <ele>1425</ele>
        <time>2022-02-20T12:17:24Z</time>
      </trkpt>
      <trkpt lat="45.98077" lon="6.46584">
        <ele>1424</ele>
        <time>2022-02-20T12:17:26Z</time>
      </trkpt>
      <trkpt lat="45.98072" lon="6.46586">
        <ele>1424</ele>
        <time>2022-02-20T12:17:27Z</time>
      </trkpt>
      <trkpt lat="45.98067" lon="6.46587">
        <ele>1423</ele>
        <time>2022-02-20T12:17:28Z</time>
      </trkpt>
      <trkpt lat="45.98062" lon="6.46589">
        <ele>1423</ele>
        <time>2022-02-20T12:17:29Z</time>
      </trkpt>
      <trkpt lat="45.98057" lon="6.4659">
        <ele>1422</ele>
        <time>2022-02-20T12:17:30Z</time>
      </trkpt>
      <trkpt lat="45.98052" lon="6.46591">
        <ele>1422</ele>
        <time>2022-02-20T12:17:31Z</time>
      </trkpt>
      <trkpt lat="45.98047" lon="6.46592">
        <ele>1422</ele>
        <time>2022-02-20T12:17:32Z</time>
      </trkpt>
      <trkpt lat="45.98042" lon="6.46594">
        <ele>1422</ele>
        <time>2022-02-20T12:17:33Z</time>
      </trkpt>
      <trkpt lat="45.98032" lon="6.46597">
        <ele>1420</ele>
        <time>2022-02-20T12:17:35Z</time>
      </trkpt>
      <trkpt lat="45.98027" lon="6.46599">
        <ele>1420</ele>
        <time>2022-02-20T12:17:36Z</time>
      </trkpt>
      <trkpt lat="45.98022" lon="6.46602">
        <ele>1420</ele>
        <time>2022-02-20T12:17:37Z</time>
      </trkpt>
      <trkpt lat="45.98017" lon="6.46605">
        <ele>1419</ele>
        <time>2022-02-20T12:17:38Z</time>
      </trkpt>
      <trkpt lat="45.98012" lon="6.46609">
        <ele>1419</ele>
        <time>2022-02-20T12:17:39Z</time>
      </trkpt>
      <trkpt lat="45.98008" lon="6.46613">
        <ele>1419</ele>
        <time>2022-02-20T12:17:40Z</time>
      </trkpt>
      <trkpt lat="45.98004" lon="6.46617">
        <ele>1419</ele>
        <time>2022-02-20T12:17:41Z</time>
      </trkpt>
      <trkpt lat="45.98" lon="6.4662">
        <ele>1419</ele>
        <time>2022-02-20T12:17:42Z</time>
      </trkpt>
      <trkpt lat="45.97996" lon="6.46623">
        <ele>1418</ele>
        <time>2022-02-20T12:17:43Z</time>
      </trkpt>
      <trkpt lat="45.97991" lon="6.46626">
        <ele>1417</ele>
        <time>2022-02-20T12:17:44Z</time>
      </trkpt>
      <trkpt lat="45.97987" lon="6.4663">
        <ele>1416</ele>
        <time>2022-02-20T12:17:45Z</time>
      </trkpt>
      <trkpt lat="45.97983" lon="6.46634">
        <ele>1416</ele>
        <time>2022-02-20T12:17:46Z</time>
      </trkpt>
      <trkpt lat="45.97979" lon="6.46638">
        <ele>1416</ele>
        <time>2022-02-20T12:17:47Z</time>
      </trkpt>
      <trkpt lat="45.97974" lon="6.46643">
        <ele>1415</ele>
        <time>2022-02-20T12:17:48Z</time>
      </trkpt>
      <trkpt lat="45.9797" lon="6.46647">
        <ele>1414</ele>
        <time>2022-02-20T12:17:49Z</time>
      </trkpt>
      <trkpt lat="45.97965" lon="6.46651">
        <ele>1414</ele>
        <time>2022-02-20T12:17:50Z</time>
      </trkpt>
      <trkpt lat="45.97961" lon="6.46655">
        <ele>1413</ele>
        <time>2022-02-20T12:17:51Z</time>
      </trkpt>
      <trkpt lat="45.97958" lon="6.46659">
        <ele>1413</ele>
        <time>2022-02-20T12:17:52Z</time>
      </trkpt>
      <trkpt lat="45.97953" lon="6.46662">
        <ele>1412</ele>
        <time>2022-02-20T12:17:53Z</time>
      </trkpt>
      <trkpt lat="45.97949" lon="6.46666">
        <ele>1412</ele>
        <time>2022-02-20T12:17:54Z</time>
      </trkpt>
      <trkpt lat="45.97945" lon="6.4667">
        <ele>1412</ele>
        <time>2022-02-20T12:17:55Z</time>
      </trkpt>
      <trkpt lat="45.9794" lon="6.46674">
        <ele>1411</ele>
        <time>2022-02-20T12:17:56Z</time>
      </trkpt>
      <trkpt lat="45.97936" lon="6.46677">
        <ele>1410</ele>
        <time>2022-02-20T12:17:57Z</time>
      </trkpt>
      <trkpt lat="45.97932" lon="6.46681">
        <ele>1410</ele>
        <time>2022-02-20T12:17:58Z</time>
      </trkpt>
      <trkpt lat="45.97929" lon="6.46684">
        <ele>1410</ele>
        <time>2022-02-20T12:17:59Z</time>
      </trkpt>
      <trkpt lat="45.97925" lon="6.46688">
        <ele>1410</ele>
        <time>2022-02-20T12:18:00Z</time>
      </trkpt>
      <trkpt lat="45.97922" lon="6.46691">
        <ele>1410</ele>
        <time>2022-02-20T12:18:01Z</time>
      </trkpt>
      <trkpt lat="45.97917" lon="6.46694">
        <ele>1410</ele>
        <time>2022-02-20T12:18:02Z</time>
      </trkpt>
      <trkpt lat="45.97914" lon="6.46698">
        <ele>1410</ele>
        <time>2022-02-20T12:18:03Z</time>
      </trkpt>
      <trkpt lat="45.9791" lon="6.46701">
        <ele>1409</ele>
        <time>2022-02-20T12:18:04Z</time>
      </trkpt>
      <trkpt lat="45.97907" lon="6.46705">
        <ele>1409</ele>
        <time>2022-02-20T12:18:05Z</time>
      </trkpt>
      <trkpt lat="45.97903" lon="6.46708">
        <ele>1408</ele>
        <time>2022-02-20T12:18:06Z</time>
      </trkpt>
      <trkpt lat="45.979" lon="6.46712">
        <ele>1407</ele>
        <time>2022-02-20T12:18:07Z</time>
      </trkpt>
      <trkpt lat="45.97896" lon="6.46716">
        <ele>1406</ele>
        <time>2022-02-20T12:18:08Z</time>
      </trkpt>
      <trkpt lat="45.97893" lon="6.46721">
        <ele>1406</ele>
        <time>2022-02-20T12:18:09Z</time>
      </trkpt>
      <trkpt lat="45.9789" lon="6.46726">
        <ele>1406</ele>
        <time>2022-02-20T12:18:10Z</time>
      </trkpt>
      <trkpt lat="45.97883" lon="6.4674">
        <ele>1405</ele>
        <time>2022-02-20T12:18:13Z</time>
      </trkpt>
      <trkpt lat="45.97878" lon="6.46751">
        <ele>1405</ele>
        <time>2022-02-20T12:18:15Z</time>
      </trkpt>
      <trkpt lat="45.97874" lon="6.46764">
        <ele>1403</ele>
        <time>2022-02-20T12:18:17Z</time>
      </trkpt>
      <trkpt lat="45.97868" lon="6.46776">
        <ele>1403</ele>
        <time>2022-02-20T12:18:19Z</time>
      </trkpt>
      <trkpt lat="45.97866" lon="6.46782">
        <ele>1403</ele>
        <time>2022-02-20T12:18:20Z</time>
      </trkpt>
      <trkpt lat="45.97864" lon="6.46787">
        <ele>1402</ele>
        <time>2022-02-20T12:18:21Z</time>
      </trkpt>
      <trkpt lat="45.97862" lon="6.46793">
        <ele>1402</ele>
        <time>2022-02-20T12:18:22Z</time>
      </trkpt>
      <trkpt lat="45.9786" lon="6.468">
        <ele>1402</ele>
        <time>2022-02-20T12:18:23Z</time>
      </trkpt>
      <trkpt lat="45.97858" lon="6.46806">
        <ele>1402</ele>
        <time>2022-02-20T12:18:24Z</time>
      </trkpt>
      <trkpt lat="45.97856" lon="6.46811">
        <ele>1402</ele>
        <time>2022-02-20T12:18:25Z</time>
      </trkpt>
      <trkpt lat="45.97854" lon="6.46818">
        <ele>1402</ele>
        <time>2022-02-20T12:18:26Z</time>
      </trkpt>
      <trkpt lat="45.97852" lon="6.46823">
        <ele>1401</ele>
        <time>2022-02-20T12:18:27Z</time>
      </trkpt>
      <trkpt lat="45.97849" lon="6.46829">
        <ele>1401</ele>
        <time>2022-02-20T12:18:28Z</time>
      </trkpt>
      <trkpt lat="45.97846" lon="6.46835">
        <ele>1401</ele>
        <time>2022-02-20T12:18:29Z</time>
      </trkpt>
      <trkpt lat="45.97843" lon="6.4684">
        <ele>1400</ele>
        <time>2022-02-20T12:18:30Z</time>
      </trkpt>
      <trkpt lat="45.9784" lon="6.46845">
        <ele>1400</ele>
        <time>2022-02-20T12:18:31Z</time>
      </trkpt>
      <trkpt lat="45.97837" lon="6.4685">
        <ele>1399</ele>
        <time>2022-02-20T12:18:32Z</time>
      </trkpt>
      <trkpt lat="45.97833" lon="6.46855">
        <ele>1399</ele>
        <time>2022-02-20T12:18:33Z</time>
      </trkpt>
      <trkpt lat="45.9783" lon="6.46859">
        <ele>1399</ele>
        <time>2022-02-20T12:18:34Z</time>
      </trkpt>
      <trkpt lat="45.97825" lon="6.46863">
        <ele>1399</ele>
        <time>2022-02-20T12:18:35Z</time>
      </trkpt>
      <trkpt lat="45.97821" lon="6.46867">
        <ele>1399</ele>
        <time>2022-02-20T12:18:36Z</time>
      </trkpt>
      <trkpt lat="45.97817" lon="6.4687">
        <ele>1398</ele>
        <time>2022-02-20T12:18:37Z</time>
      </trkpt>
      <trkpt lat="45.97814" lon="6.46875">
        <ele>1397</ele>
        <time>2022-02-20T12:18:38Z</time>
      </trkpt>
      <trkpt lat="45.97811" lon="6.46879">
        <ele>1397</ele>
        <time>2022-02-20T12:18:39Z</time>
      </trkpt>
      <trkpt lat="45.97808" lon="6.46882">
        <ele>1396</ele>
        <time>2022-02-20T12:18:40Z</time>
      </trkpt>
      <trkpt lat="45.97805" lon="6.46884">
        <ele>1396</ele>
        <time>2022-02-20T12:18:41Z</time>
      </trkpt>
      <trkpt lat="45.97801" lon="6.46886">
        <ele>1396</ele>
        <time>2022-02-20T12:18:42Z</time>
      </trkpt>
      <trkpt lat="45.97797" lon="6.46888">
        <ele>1396</ele>
        <time>2022-02-20T12:18:43Z</time>
      </trkpt>
      <trkpt lat="45.97793" lon="6.4689">
        <ele>1396</ele>
        <time>2022-02-20T12:18:44Z</time>
      </trkpt>
      <trkpt lat="45.9779" lon="6.46891">
        <ele>1395</ele>
        <time>2022-02-20T12:18:45Z</time>
      </trkpt>
      <trkpt lat="45.97786" lon="6.46893">
        <ele>1395</ele>
        <time>2022-02-20T12:18:46Z</time>
      </trkpt>
      <trkpt lat="45.97783" lon="6.46895">
        <ele>1395</ele>
        <time>2022-02-20T12:18:47Z</time>
      </trkpt>
      <trkpt lat="45.9778" lon="6.46897">
        <ele>1395</ele>
        <time>2022-02-20T12:18:48Z</time>
      </trkpt>
      <trkpt lat="45.97778" lon="6.46898">
        <ele>1395</ele>
        <time>2022-02-20T12:18:49Z</time>
      </trkpt>
      <trkpt lat="45.97775" lon="6.469">
        <ele>1395</ele>
        <time>2022-02-20T12:18:50Z</time>
      </trkpt>
      <trkpt lat="45.97772" lon="6.46901">
        <ele>1395</ele>
        <time>2022-02-20T12:18:51Z</time>
      </trkpt>
      <trkpt lat="45.97769" lon="6.46901">
        <ele>1394</ele>
        <time>2022-02-20T12:18:52Z</time>
      </trkpt>
      <trkpt lat="45.97766" lon="6.469">
        <ele>1393</ele>
        <time>2022-02-20T12:18:53Z</time>
      </trkpt>
      <trkpt lat="45.97764" lon="6.46901">
        <ele>1392</ele>
        <time>2022-02-20T12:18:54Z</time>
      </trkpt>
      <trkpt lat="45.97761" lon="6.46901">
        <ele>1392</ele>
        <time>2022-02-20T12:18:55Z</time>
      </trkpt>
      <trkpt lat="45.97758" lon="6.46902">
        <ele>1392</ele>
        <time>2022-02-20T12:18:56Z</time>
      </trkpt>
      <trkpt lat="45.97756" lon="6.46902">
        <ele>1392</ele>
        <time>2022-02-20T12:18:57Z</time>
      </trkpt>
      <trkpt lat="45.97754" lon="6.46903">
        <ele>1390</ele>
        <time>2022-02-20T12:19:00Z</time>
      </trkpt>
      <trkpt lat="45.97754" lon="6.469">
        <ele>1390</ele>
        <time>2022-02-20T12:19:08Z</time>
      </trkpt>
      <trkpt lat="45.97755" lon="6.46899">
        <ele>1390</ele>
        <time>2022-02-20T12:19:12Z</time>
      </trkpt>
      <trkpt lat="45.97757" lon="6.46898">
        <ele>1390</ele>
        <time>2022-02-20T12:19:14Z</time>
      </trkpt>
      <trkpt lat="45.97759" lon="6.46896">
        <ele>1390</ele>
        <time>2022-02-20T12:19:17Z</time>
      </trkpt>
      <trkpt lat="45.97761" lon="6.46895">
        <ele>1390</ele>
        <time>2022-02-20T12:19:29Z</time>
      </trkpt>
      <trkpt lat="45.97762" lon="6.46897">
        <ele>1391</ele>
        <time>2022-02-20T12:19:34Z</time>
      </trkpt>
      <trkpt lat="45.97761" lon="6.46901">
        <ele>1391</ele>
        <time>2022-02-20T12:19:36Z</time>
      </trkpt>
      <trkpt lat="45.9776" lon="6.46898">
        <ele>1391</ele>
        <time>2022-02-20T12:19:41Z</time>
      </trkpt>
      <trkpt lat="45.97758" lon="6.46896">
        <ele>1391</ele>
        <time>2022-02-20T12:19:43Z</time>
      </trkpt>
      <trkpt lat="45.97757" lon="6.46898">
        <ele>1390</ele>
        <time>2022-02-20T12:19:53Z</time>
      </trkpt>
      <trkpt lat="45.97757" lon="6.46898">
        <ele>1391</ele>
        <time>2022-02-20T12:20:03Z</time>
      </trkpt>
    </trkseg>
  </trk>
</gpx>